<?xml version="1.0" encoding="UTF-8"?>
<gpx xmlns="http://www.topografix.com/GPX/1/1"
     creator="GpsDumpMac 0.36"
     version="1.1"
     xmlns:xsi="http://www.w3.org/2001/XMLSchema-instance"
     xsi:schemaLocation="http://www.topografix.com/GPX/1/1 http://www.topografix.com/GPX/1/1/gpx.xsd">
  <metadata>
    <link href="http://www.gethome.no/stein.sorensen/">
      <text>GPS dump for www.flightlog.org</text>
    </link>
    <time>2015-05-26T16:51:55Z</time>
    <bounds minlat="40.491950" minlon="-5.234717" maxlat="40.541950" maxlon="-4.978150"/>
  </metadata>
  <trk>
    <name>Track 001</name>
    <trkseg>
      <trkpt lat="40.491967" lon="-4.981317">
        <ele>1712.0</ele>
        <time>2015-05-17T11:13:00Z</time>
      </trkpt>
      <trkpt lat="40.491950" lon="-4.981167">
        <ele>1712.0</ele>
        <time>2015-05-17T11:13:02Z</time>
      </trkpt>
      <trkpt lat="40.491983" lon="-4.981067">
        <ele>1710.0</ele>
        <time>2015-05-17T11:13:04Z</time>
      </trkpt>
      <trkpt lat="40.492050" lon="-4.981000">
        <ele>1707.0</ele>
        <time>2015-05-17T11:13:06Z</time>
      </trkpt>
      <trkpt lat="40.492117" lon="-4.980950">
        <ele>1706.0</ele>
        <time>2015-05-17T11:13:08Z</time>
      </trkpt>
      <trkpt lat="40.492183" lon="-4.980883">
        <ele>1705.0</ele>
        <time>2015-05-17T11:13:10Z</time>
      </trkpt>
      <trkpt lat="40.492217" lon="-4.980750">
        <ele>1706.0</ele>
        <time>2015-05-17T11:13:12Z</time>
      </trkpt>
      <trkpt lat="40.492233" lon="-4.980617">
        <ele>1704.0</ele>
        <time>2015-05-17T11:13:14Z</time>
      </trkpt>
      <trkpt lat="40.492283" lon="-4.980500">
        <ele>1700.0</ele>
        <time>2015-05-17T11:13:16Z</time>
      </trkpt>
      <trkpt lat="40.492367" lon="-4.980417">
        <ele>1700.0</ele>
        <time>2015-05-17T11:13:18Z</time>
      </trkpt>
      <trkpt lat="40.492417" lon="-4.980283">
        <ele>1701.0</ele>
        <time>2015-05-17T11:13:20Z</time>
      </trkpt>
      <trkpt lat="40.492433" lon="-4.980100">
        <ele>1700.0</ele>
        <time>2015-05-17T11:13:22Z</time>
      </trkpt>
      <trkpt lat="40.492467" lon="-4.979917">
        <ele>1702.0</ele>
        <time>2015-05-17T11:13:24Z</time>
      </trkpt>
      <trkpt lat="40.492450" lon="-4.979750">
        <ele>1704.0</ele>
        <time>2015-05-17T11:13:26Z</time>
      </trkpt>
      <trkpt lat="40.492417" lon="-4.979550">
        <ele>1704.0</ele>
        <time>2015-05-17T11:13:28Z</time>
      </trkpt>
      <trkpt lat="40.492417" lon="-4.979350">
        <ele>1705.0</ele>
        <time>2015-05-17T11:13:30Z</time>
      </trkpt>
      <trkpt lat="40.492383" lon="-4.979150">
        <ele>1707.0</ele>
        <time>2015-05-17T11:13:32Z</time>
      </trkpt>
      <trkpt lat="40.492317" lon="-4.978983">
        <ele>1711.0</ele>
        <time>2015-05-17T11:13:34Z</time>
      </trkpt>
      <trkpt lat="40.492267" lon="-4.978817">
        <ele>1709.0</ele>
        <time>2015-05-17T11:13:36Z</time>
      </trkpt>
      <trkpt lat="40.492300" lon="-4.978633">
        <ele>1707.0</ele>
        <time>2015-05-17T11:13:38Z</time>
      </trkpt>
      <trkpt lat="40.492333" lon="-4.978500">
        <ele>1708.0</ele>
        <time>2015-05-17T11:13:40Z</time>
      </trkpt>
      <trkpt lat="40.492350" lon="-4.978367">
        <ele>1705.0</ele>
        <time>2015-05-17T11:13:42Z</time>
      </trkpt>
      <trkpt lat="40.492450" lon="-4.978183">
        <ele>1701.0</ele>
        <time>2015-05-17T11:13:44Z</time>
      </trkpt>
      <trkpt lat="40.492550" lon="-4.978150">
        <ele>1701.0</ele>
        <time>2015-05-17T11:13:46Z</time>
      </trkpt>
      <trkpt lat="40.492633" lon="-4.978183">
        <ele>1704.0</ele>
        <time>2015-05-17T11:13:48Z</time>
      </trkpt>
      <trkpt lat="40.492700" lon="-4.978283">
        <ele>1705.0</ele>
        <time>2015-05-17T11:13:50Z</time>
      </trkpt>
      <trkpt lat="40.492717" lon="-4.978550">
        <ele>1702.0</ele>
        <time>2015-05-17T11:13:52Z</time>
      </trkpt>
      <trkpt lat="40.492717" lon="-4.978817">
        <ele>1705.0</ele>
        <time>2015-05-17T11:13:54Z</time>
      </trkpt>
      <trkpt lat="40.492717" lon="-4.979033">
        <ele>1709.0</ele>
        <time>2015-05-17T11:13:56Z</time>
      </trkpt>
      <trkpt lat="40.492667" lon="-4.979283">
        <ele>1710.0</ele>
        <time>2015-05-17T11:13:58Z</time>
      </trkpt>
      <trkpt lat="40.492617" lon="-4.979583">
        <ele>1709.0</ele>
        <time>2015-05-17T11:14:00Z</time>
      </trkpt>
      <trkpt lat="40.492600" lon="-4.979850">
        <ele>1712.0</ele>
        <time>2015-05-17T11:14:02Z</time>
      </trkpt>
      <trkpt lat="40.492583" lon="-4.980067">
        <ele>1714.0</ele>
        <time>2015-05-17T11:14:04Z</time>
      </trkpt>
      <trkpt lat="40.492617" lon="-4.980267">
        <ele>1713.0</ele>
        <time>2015-05-17T11:14:06Z</time>
      </trkpt>
      <trkpt lat="40.492700" lon="-4.980467">
        <ele>1713.0</ele>
        <time>2015-05-17T11:14:08Z</time>
      </trkpt>
      <trkpt lat="40.492783" lon="-4.980567">
        <ele>1715.0</ele>
        <time>2015-05-17T11:14:10Z</time>
      </trkpt>
      <trkpt lat="40.492850" lon="-4.980567">
        <ele>1712.0</ele>
        <time>2015-05-17T11:14:12Z</time>
      </trkpt>
      <trkpt lat="40.492900" lon="-4.980433">
        <ele>1707.0</ele>
        <time>2015-05-17T11:14:14Z</time>
      </trkpt>
      <trkpt lat="40.492883" lon="-4.980233">
        <ele>1707.0</ele>
        <time>2015-05-17T11:14:16Z</time>
      </trkpt>
      <trkpt lat="40.492800" lon="-4.980083">
        <ele>1708.0</ele>
        <time>2015-05-17T11:14:18Z</time>
      </trkpt>
      <trkpt lat="40.492733" lon="-4.979900">
        <ele>1705.0</ele>
        <time>2015-05-17T11:14:20Z</time>
      </trkpt>
      <trkpt lat="40.492683" lon="-4.979683">
        <ele>1702.0</ele>
        <time>2015-05-17T11:14:22Z</time>
      </trkpt>
      <trkpt lat="40.492633" lon="-4.979517">
        <ele>1705.0</ele>
        <time>2015-05-17T11:14:24Z</time>
      </trkpt>
      <trkpt lat="40.492633" lon="-4.979400">
        <ele>1703.0</ele>
        <time>2015-05-17T11:14:26Z</time>
      </trkpt>
      <trkpt lat="40.492667" lon="-4.979233">
        <ele>1700.0</ele>
        <time>2015-05-17T11:14:28Z</time>
      </trkpt>
      <trkpt lat="40.492700" lon="-4.979017">
        <ele>1701.0</ele>
        <time>2015-05-17T11:14:30Z</time>
      </trkpt>
      <trkpt lat="40.492667" lon="-4.978817">
        <ele>1704.0</ele>
        <time>2015-05-17T11:14:32Z</time>
      </trkpt>
      <trkpt lat="40.492600" lon="-4.978617">
        <ele>1704.0</ele>
        <time>2015-05-17T11:14:34Z</time>
      </trkpt>
      <trkpt lat="40.492633" lon="-4.978433">
        <ele>1701.0</ele>
        <time>2015-05-17T11:14:36Z</time>
      </trkpt>
      <trkpt lat="40.492717" lon="-4.978267">
        <ele>1699.0</ele>
        <time>2015-05-17T11:14:38Z</time>
      </trkpt>
      <trkpt lat="40.492833" lon="-4.978150">
        <ele>1700.0</ele>
        <time>2015-05-17T11:14:40Z</time>
      </trkpt>
      <trkpt lat="40.492967" lon="-4.978183">
        <ele>1699.0</ele>
        <time>2015-05-17T11:14:42Z</time>
      </trkpt>
      <trkpt lat="40.493083" lon="-4.978267">
        <ele>1699.0</ele>
        <time>2015-05-17T11:14:44Z</time>
      </trkpt>
      <trkpt lat="40.493183" lon="-4.978350">
        <ele>1696.0</ele>
        <time>2015-05-17T11:14:46Z</time>
      </trkpt>
      <trkpt lat="40.493267" lon="-4.978517">
        <ele>1694.0</ele>
        <time>2015-05-17T11:14:48Z</time>
      </trkpt>
      <trkpt lat="40.493233" lon="-4.978750">
        <ele>1695.0</ele>
        <time>2015-05-17T11:14:50Z</time>
      </trkpt>
      <trkpt lat="40.493150" lon="-4.978950">
        <ele>1695.0</ele>
        <time>2015-05-17T11:14:52Z</time>
      </trkpt>
      <trkpt lat="40.493083" lon="-4.979150">
        <ele>1692.0</ele>
        <time>2015-05-17T11:14:54Z</time>
      </trkpt>
      <trkpt lat="40.493000" lon="-4.979400">
        <ele>1691.0</ele>
        <time>2015-05-17T11:14:56Z</time>
      </trkpt>
      <trkpt lat="40.492917" lon="-4.979650">
        <ele>1690.0</ele>
        <time>2015-05-17T11:14:58Z</time>
      </trkpt>
      <trkpt lat="40.492900" lon="-4.979883">
        <ele>1689.0</ele>
        <time>2015-05-17T11:15:00Z</time>
      </trkpt>
      <trkpt lat="40.492917" lon="-4.980083">
        <ele>1687.0</ele>
        <time>2015-05-17T11:15:02Z</time>
      </trkpt>
      <trkpt lat="40.492950" lon="-4.980300">
        <ele>1684.0</ele>
        <time>2015-05-17T11:15:04Z</time>
      </trkpt>
      <trkpt lat="40.493000" lon="-4.980500">
        <ele>1685.0</ele>
        <time>2015-05-17T11:15:06Z</time>
      </trkpt>
      <trkpt lat="40.493050" lon="-4.980700">
        <ele>1684.0</ele>
        <time>2015-05-17T11:15:08Z</time>
      </trkpt>
      <trkpt lat="40.493100" lon="-4.980917">
        <ele>1681.0</ele>
        <time>2015-05-17T11:15:10Z</time>
      </trkpt>
      <trkpt lat="40.493183" lon="-4.981133">
        <ele>1680.0</ele>
        <time>2015-05-17T11:15:12Z</time>
      </trkpt>
      <trkpt lat="40.493217" lon="-4.981333">
        <ele>1683.0</ele>
        <time>2015-05-17T11:15:14Z</time>
      </trkpt>
      <trkpt lat="40.493233" lon="-4.981517">
        <ele>1681.0</ele>
        <time>2015-05-17T11:15:16Z</time>
      </trkpt>
      <trkpt lat="40.493300" lon="-4.981717">
        <ele>1678.0</ele>
        <time>2015-05-17T11:15:18Z</time>
      </trkpt>
      <trkpt lat="40.493367" lon="-4.981900">
        <ele>1678.0</ele>
        <time>2015-05-17T11:15:20Z</time>
      </trkpt>
      <trkpt lat="40.493467" lon="-4.982083">
        <ele>1676.0</ele>
        <time>2015-05-17T11:15:22Z</time>
      </trkpt>
      <trkpt lat="40.493533" lon="-4.982267">
        <ele>1676.0</ele>
        <time>2015-05-17T11:15:24Z</time>
      </trkpt>
      <trkpt lat="40.493617" lon="-4.982450">
        <ele>1674.0</ele>
        <time>2015-05-17T11:15:26Z</time>
      </trkpt>
      <trkpt lat="40.493717" lon="-4.982633">
        <ele>1672.0</ele>
        <time>2015-05-17T11:15:28Z</time>
      </trkpt>
      <trkpt lat="40.493817" lon="-4.982800">
        <ele>1673.0</ele>
        <time>2015-05-17T11:15:30Z</time>
      </trkpt>
      <trkpt lat="40.493917" lon="-4.982950">
        <ele>1673.0</ele>
        <time>2015-05-17T11:15:32Z</time>
      </trkpt>
      <trkpt lat="40.493983" lon="-4.983150">
        <ele>1672.0</ele>
        <time>2015-05-17T11:15:34Z</time>
      </trkpt>
      <trkpt lat="40.494083" lon="-4.983333">
        <ele>1668.0</ele>
        <time>2015-05-17T11:15:36Z</time>
      </trkpt>
      <trkpt lat="40.494233" lon="-4.983517">
        <ele>1667.0</ele>
        <time>2015-05-17T11:15:38Z</time>
      </trkpt>
      <trkpt lat="40.494350" lon="-4.983683">
        <ele>1670.0</ele>
        <time>2015-05-17T11:15:40Z</time>
      </trkpt>
      <trkpt lat="40.494467" lon="-4.983767">
        <ele>1674.0</ele>
        <time>2015-05-17T11:15:42Z</time>
      </trkpt>
      <trkpt lat="40.494567" lon="-4.983850">
        <ele>1674.0</ele>
        <time>2015-05-17T11:15:44Z</time>
      </trkpt>
      <trkpt lat="40.494700" lon="-4.983983">
        <ele>1671.0</ele>
        <time>2015-05-17T11:15:46Z</time>
      </trkpt>
      <trkpt lat="40.494833" lon="-4.984100">
        <ele>1671.0</ele>
        <time>2015-05-17T11:15:48Z</time>
      </trkpt>
      <trkpt lat="40.494933" lon="-4.984200">
        <ele>1671.0</ele>
        <time>2015-05-17T11:15:50Z</time>
      </trkpt>
      <trkpt lat="40.495067" lon="-4.984333">
        <ele>1670.0</ele>
        <time>2015-05-17T11:15:52Z</time>
      </trkpt>
      <trkpt lat="40.495183" lon="-4.984517">
        <ele>1669.0</ele>
        <time>2015-05-17T11:15:54Z</time>
      </trkpt>
      <trkpt lat="40.495283" lon="-4.984667">
        <ele>1666.0</ele>
        <time>2015-05-17T11:15:56Z</time>
      </trkpt>
      <trkpt lat="40.495400" lon="-4.984783">
        <ele>1663.0</ele>
        <time>2015-05-17T11:15:58Z</time>
      </trkpt>
      <trkpt lat="40.495517" lon="-4.984850">
        <ele>1663.0</ele>
        <time>2015-05-17T11:16:00Z</time>
      </trkpt>
      <trkpt lat="40.495633" lon="-4.984850">
        <ele>1662.0</ele>
        <time>2015-05-17T11:16:02Z</time>
      </trkpt>
      <trkpt lat="40.495750" lon="-4.984850">
        <ele>1660.0</ele>
        <time>2015-05-17T11:16:04Z</time>
      </trkpt>
      <trkpt lat="40.495883" lon="-4.984850">
        <ele>1658.0</ele>
        <time>2015-05-17T11:16:06Z</time>
      </trkpt>
      <trkpt lat="40.496050" lon="-4.984883">
        <ele>1657.0</ele>
        <time>2015-05-17T11:16:08Z</time>
      </trkpt>
      <trkpt lat="40.496183" lon="-4.984967">
        <ele>1661.0</ele>
        <time>2015-05-17T11:16:10Z</time>
      </trkpt>
      <trkpt lat="40.496283" lon="-4.985117">
        <ele>1663.0</ele>
        <time>2015-05-17T11:16:12Z</time>
      </trkpt>
      <trkpt lat="40.496400" lon="-4.985300">
        <ele>1662.0</ele>
        <time>2015-05-17T11:16:14Z</time>
      </trkpt>
      <trkpt lat="40.496550" lon="-4.985433">
        <ele>1663.0</ele>
        <time>2015-05-17T11:16:16Z</time>
      </trkpt>
      <trkpt lat="40.496667" lon="-4.985433">
        <ele>1666.0</ele>
        <time>2015-05-17T11:16:18Z</time>
      </trkpt>
      <trkpt lat="40.496700" lon="-4.985317">
        <ele>1668.0</ele>
        <time>2015-05-17T11:16:20Z</time>
      </trkpt>
      <trkpt lat="40.496667" lon="-4.985183">
        <ele>1665.0</ele>
        <time>2015-05-17T11:16:22Z</time>
      </trkpt>
      <trkpt lat="40.496633" lon="-4.985000">
        <ele>1661.0</ele>
        <time>2015-05-17T11:16:24Z</time>
      </trkpt>
      <trkpt lat="40.496600" lon="-4.984850">
        <ele>1662.0</ele>
        <time>2015-05-17T11:16:26Z</time>
      </trkpt>
      <trkpt lat="40.496533" lon="-4.984750">
        <ele>1661.0</ele>
        <time>2015-05-17T11:16:28Z</time>
      </trkpt>
      <trkpt lat="40.496400" lon="-4.984600">
        <ele>1657.0</ele>
        <time>2015-05-17T11:16:30Z</time>
      </trkpt>
      <trkpt lat="40.496267" lon="-4.984433">
        <ele>1657.0</ele>
        <time>2015-05-17T11:16:32Z</time>
      </trkpt>
      <trkpt lat="40.496217" lon="-4.984283">
        <ele>1656.0</ele>
        <time>2015-05-17T11:16:34Z</time>
      </trkpt>
      <trkpt lat="40.496250" lon="-4.984150">
        <ele>1655.0</ele>
        <time>2015-05-17T11:16:36Z</time>
      </trkpt>
      <trkpt lat="40.496333" lon="-4.984083">
        <ele>1654.0</ele>
        <time>2015-05-17T11:16:38Z</time>
      </trkpt>
      <trkpt lat="40.496433" lon="-4.984067">
        <ele>1655.0</ele>
        <time>2015-05-17T11:16:40Z</time>
      </trkpt>
      <trkpt lat="40.496550" lon="-4.984083">
        <ele>1655.0</ele>
        <time>2015-05-17T11:16:42Z</time>
      </trkpt>
      <trkpt lat="40.496667" lon="-4.984183">
        <ele>1653.0</ele>
        <time>2015-05-17T11:16:44Z</time>
      </trkpt>
      <trkpt lat="40.496767" lon="-4.984383">
        <ele>1654.0</ele>
        <time>2015-05-17T11:16:46Z</time>
      </trkpt>
      <trkpt lat="40.496800" lon="-4.984600">
        <ele>1654.0</ele>
        <time>2015-05-17T11:16:48Z</time>
      </trkpt>
      <trkpt lat="40.496833" lon="-4.984867">
        <ele>1651.0</ele>
        <time>2015-05-17T11:16:50Z</time>
      </trkpt>
      <trkpt lat="40.496900" lon="-4.985100">
        <ele>1649.0</ele>
        <time>2015-05-17T11:16:52Z</time>
      </trkpt>
      <trkpt lat="40.497017" lon="-4.985250">
        <ele>1649.0</ele>
        <time>2015-05-17T11:16:54Z</time>
      </trkpt>
      <trkpt lat="40.497133" lon="-4.985350">
        <ele>1649.0</ele>
        <time>2015-05-17T11:16:56Z</time>
      </trkpt>
      <trkpt lat="40.497250" lon="-4.985467">
        <ele>1648.0</ele>
        <time>2015-05-17T11:16:58Z</time>
      </trkpt>
      <trkpt lat="40.497350" lon="-4.985550">
        <ele>1645.0</ele>
        <time>2015-05-17T11:17:00Z</time>
      </trkpt>
      <trkpt lat="40.497467" lon="-4.985533">
        <ele>1642.0</ele>
        <time>2015-05-17T11:17:02Z</time>
      </trkpt>
      <trkpt lat="40.497567" lon="-4.985417">
        <ele>1642.0</ele>
        <time>2015-05-17T11:17:04Z</time>
      </trkpt>
      <trkpt lat="40.497617" lon="-4.985267">
        <ele>1646.0</ele>
        <time>2015-05-17T11:17:06Z</time>
      </trkpt>
      <trkpt lat="40.497600" lon="-4.985100">
        <ele>1648.0</ele>
        <time>2015-05-17T11:17:08Z</time>
      </trkpt>
      <trkpt lat="40.497500" lon="-4.984967">
        <ele>1648.0</ele>
        <time>2015-05-17T11:17:10Z</time>
      </trkpt>
      <trkpt lat="40.497317" lon="-4.984883">
        <ele>1643.0</ele>
        <time>2015-05-17T11:17:12Z</time>
      </trkpt>
      <trkpt lat="40.497050" lon="-4.984867">
        <ele>1640.0</ele>
        <time>2015-05-17T11:17:14Z</time>
      </trkpt>
      <trkpt lat="40.496833" lon="-4.984833">
        <ele>1642.0</ele>
        <time>2015-05-17T11:17:16Z</time>
      </trkpt>
      <trkpt lat="40.496733" lon="-4.984683">
        <ele>1643.0</ele>
        <time>2015-05-17T11:17:18Z</time>
      </trkpt>
      <trkpt lat="40.496700" lon="-4.984517">
        <ele>1644.0</ele>
        <time>2015-05-17T11:17:20Z</time>
      </trkpt>
      <trkpt lat="40.496817" lon="-4.984400">
        <ele>1644.0</ele>
        <time>2015-05-17T11:17:22Z</time>
      </trkpt>
      <trkpt lat="40.496950" lon="-4.984450">
        <ele>1645.0</ele>
        <time>2015-05-17T11:17:24Z</time>
      </trkpt>
      <trkpt lat="40.497050" lon="-4.984567">
        <ele>1648.0</ele>
        <time>2015-05-17T11:17:26Z</time>
      </trkpt>
      <trkpt lat="40.497100" lon="-4.984783">
        <ele>1650.0</ele>
        <time>2015-05-17T11:17:28Z</time>
      </trkpt>
      <trkpt lat="40.497083" lon="-4.985050">
        <ele>1651.0</ele>
        <time>2015-05-17T11:17:30Z</time>
      </trkpt>
      <trkpt lat="40.497067" lon="-4.985300">
        <ele>1651.0</ele>
        <time>2015-05-17T11:17:32Z</time>
      </trkpt>
      <trkpt lat="40.497150" lon="-4.985500">
        <ele>1645.0</ele>
        <time>2015-05-17T11:17:34Z</time>
      </trkpt>
      <trkpt lat="40.497317" lon="-4.985600">
        <ele>1643.0</ele>
        <time>2015-05-17T11:17:36Z</time>
      </trkpt>
      <trkpt lat="40.497417" lon="-4.985583">
        <ele>1643.0</ele>
        <time>2015-05-17T11:17:38Z</time>
      </trkpt>
      <trkpt lat="40.497483" lon="-4.985483">
        <ele>1640.0</ele>
        <time>2015-05-17T11:17:40Z</time>
      </trkpt>
      <trkpt lat="40.497567" lon="-4.985317">
        <ele>1636.0</ele>
        <time>2015-05-17T11:17:42Z</time>
      </trkpt>
      <trkpt lat="40.497600" lon="-4.985167">
        <ele>1637.0</ele>
        <time>2015-05-17T11:17:44Z</time>
      </trkpt>
      <trkpt lat="40.497617" lon="-4.985050">
        <ele>1639.0</ele>
        <time>2015-05-17T11:17:46Z</time>
      </trkpt>
      <trkpt lat="40.497667" lon="-4.984900">
        <ele>1637.0</ele>
        <time>2015-05-17T11:17:48Z</time>
      </trkpt>
      <trkpt lat="40.497767" lon="-4.984833">
        <ele>1636.0</ele>
        <time>2015-05-17T11:17:50Z</time>
      </trkpt>
      <trkpt lat="40.497900" lon="-4.984983">
        <ele>1633.0</ele>
        <time>2015-05-17T11:17:52Z</time>
      </trkpt>
      <trkpt lat="40.497933" lon="-4.985250">
        <ele>1635.0</ele>
        <time>2015-05-17T11:17:54Z</time>
      </trkpt>
      <trkpt lat="40.497917" lon="-4.985467">
        <ele>1635.0</ele>
        <time>2015-05-17T11:17:56Z</time>
      </trkpt>
      <trkpt lat="40.497933" lon="-4.985717">
        <ele>1629.0</ele>
        <time>2015-05-17T11:17:58Z</time>
      </trkpt>
      <trkpt lat="40.498050" lon="-4.985917">
        <ele>1625.0</ele>
        <time>2015-05-17T11:18:00Z</time>
      </trkpt>
      <trkpt lat="40.498200" lon="-4.985950">
        <ele>1625.0</ele>
        <time>2015-05-17T11:18:02Z</time>
      </trkpt>
      <trkpt lat="40.498283" lon="-4.985883">
        <ele>1624.0</ele>
        <time>2015-05-17T11:18:04Z</time>
      </trkpt>
      <trkpt lat="40.498300" lon="-4.985733">
        <ele>1620.0</ele>
        <time>2015-05-17T11:18:06Z</time>
      </trkpt>
      <trkpt lat="40.498250" lon="-4.985517">
        <ele>1617.0</ele>
        <time>2015-05-17T11:18:08Z</time>
      </trkpt>
      <trkpt lat="40.498150" lon="-4.985367">
        <ele>1622.0</ele>
        <time>2015-05-17T11:18:10Z</time>
      </trkpt>
      <trkpt lat="40.498050" lon="-4.985283">
        <ele>1622.0</ele>
        <time>2015-05-17T11:18:12Z</time>
      </trkpt>
      <trkpt lat="40.497900" lon="-4.985150">
        <ele>1618.0</ele>
        <time>2015-05-17T11:18:14Z</time>
      </trkpt>
      <trkpt lat="40.497717" lon="-4.985050">
        <ele>1616.0</ele>
        <time>2015-05-17T11:18:16Z</time>
      </trkpt>
      <trkpt lat="40.497533" lon="-4.984967">
        <ele>1615.0</ele>
        <time>2015-05-17T11:18:18Z</time>
      </trkpt>
      <trkpt lat="40.497367" lon="-4.984867">
        <ele>1613.0</ele>
        <time>2015-05-17T11:18:20Z</time>
      </trkpt>
      <trkpt lat="40.497200" lon="-4.984750">
        <ele>1611.0</ele>
        <time>2015-05-17T11:18:22Z</time>
      </trkpt>
      <trkpt lat="40.497017" lon="-4.984600">
        <ele>1611.0</ele>
        <time>2015-05-17T11:18:24Z</time>
      </trkpt>
      <trkpt lat="40.496883" lon="-4.984417">
        <ele>1613.0</ele>
        <time>2015-05-17T11:18:26Z</time>
      </trkpt>
      <trkpt lat="40.496733" lon="-4.984283">
        <ele>1615.0</ele>
        <time>2015-05-17T11:18:28Z</time>
      </trkpt>
      <trkpt lat="40.496567" lon="-4.984133">
        <ele>1615.0</ele>
        <time>2015-05-17T11:18:30Z</time>
      </trkpt>
      <trkpt lat="40.496500" lon="-4.983950">
        <ele>1613.0</ele>
        <time>2015-05-17T11:18:32Z</time>
      </trkpt>
      <trkpt lat="40.496550" lon="-4.983783">
        <ele>1612.0</ele>
        <time>2015-05-17T11:18:34Z</time>
      </trkpt>
      <trkpt lat="40.496617" lon="-4.983683">
        <ele>1613.0</ele>
        <time>2015-05-17T11:18:36Z</time>
      </trkpt>
      <trkpt lat="40.496717" lon="-4.983700">
        <ele>1613.0</ele>
        <time>2015-05-17T11:18:38Z</time>
      </trkpt>
      <trkpt lat="40.496833" lon="-4.983867">
        <ele>1615.0</ele>
        <time>2015-05-17T11:18:40Z</time>
      </trkpt>
      <trkpt lat="40.496850" lon="-4.984083">
        <ele>1620.0</ele>
        <time>2015-05-17T11:18:42Z</time>
      </trkpt>
      <trkpt lat="40.496850" lon="-4.984250">
        <ele>1622.0</ele>
        <time>2015-05-17T11:18:44Z</time>
      </trkpt>
      <trkpt lat="40.496917" lon="-4.984417">
        <ele>1616.0</ele>
        <time>2015-05-17T11:18:46Z</time>
      </trkpt>
      <trkpt lat="40.497067" lon="-4.984550">
        <ele>1614.0</ele>
        <time>2015-05-17T11:18:48Z</time>
      </trkpt>
      <trkpt lat="40.497183" lon="-4.984550">
        <ele>1615.0</ele>
        <time>2015-05-17T11:18:50Z</time>
      </trkpt>
      <trkpt lat="40.497267" lon="-4.984533">
        <ele>1612.0</ele>
        <time>2015-05-17T11:18:52Z</time>
      </trkpt>
      <trkpt lat="40.497383" lon="-4.984483">
        <ele>1606.0</ele>
        <time>2015-05-17T11:18:54Z</time>
      </trkpt>
      <trkpt lat="40.497500" lon="-4.984400">
        <ele>1607.0</ele>
        <time>2015-05-17T11:18:56Z</time>
      </trkpt>
      <trkpt lat="40.497583" lon="-4.984283">
        <ele>1611.0</ele>
        <time>2015-05-17T11:18:58Z</time>
      </trkpt>
      <trkpt lat="40.497633" lon="-4.984217">
        <ele>1616.0</ele>
        <time>2015-05-17T11:19:00Z</time>
      </trkpt>
      <trkpt lat="40.497650" lon="-4.984117">
        <ele>1616.0</ele>
        <time>2015-05-17T11:19:02Z</time>
      </trkpt>
      <trkpt lat="40.497633" lon="-4.983950">
        <ele>1615.0</ele>
        <time>2015-05-17T11:19:04Z</time>
      </trkpt>
      <trkpt lat="40.497550" lon="-4.983800">
        <ele>1615.0</ele>
        <time>2015-05-17T11:19:06Z</time>
      </trkpt>
      <trkpt lat="40.497417" lon="-4.983667">
        <ele>1615.0</ele>
        <time>2015-05-17T11:19:08Z</time>
      </trkpt>
      <trkpt lat="40.497233" lon="-4.983600">
        <ele>1615.0</ele>
        <time>2015-05-17T11:19:10Z</time>
      </trkpt>
      <trkpt lat="40.497000" lon="-4.983583">
        <ele>1614.0</ele>
        <time>2015-05-17T11:19:12Z</time>
      </trkpt>
      <trkpt lat="40.496767" lon="-4.983600">
        <ele>1615.0</ele>
        <time>2015-05-17T11:19:14Z</time>
      </trkpt>
      <trkpt lat="40.496533" lon="-4.983583">
        <ele>1617.0</ele>
        <time>2015-05-17T11:19:16Z</time>
      </trkpt>
      <trkpt lat="40.496317" lon="-4.983567">
        <ele>1617.0</ele>
        <time>2015-05-17T11:19:18Z</time>
      </trkpt>
      <trkpt lat="40.496133" lon="-4.983500">
        <ele>1618.0</ele>
        <time>2015-05-17T11:19:20Z</time>
      </trkpt>
      <trkpt lat="40.496017" lon="-4.983367">
        <ele>1615.0</ele>
        <time>2015-05-17T11:19:22Z</time>
      </trkpt>
      <trkpt lat="40.495983" lon="-4.983183">
        <ele>1613.0</ele>
        <time>2015-05-17T11:19:24Z</time>
      </trkpt>
      <trkpt lat="40.496017" lon="-4.983083">
        <ele>1616.0</ele>
        <time>2015-05-17T11:19:26Z</time>
      </trkpt>
      <trkpt lat="40.496067" lon="-4.983083">
        <ele>1618.0</ele>
        <time>2015-05-17T11:19:28Z</time>
      </trkpt>
      <trkpt lat="40.496150" lon="-4.983183">
        <ele>1616.0</ele>
        <time>2015-05-17T11:19:30Z</time>
      </trkpt>
      <trkpt lat="40.496250" lon="-4.983400">
        <ele>1616.0</ele>
        <time>2015-05-17T11:19:32Z</time>
      </trkpt>
      <trkpt lat="40.496283" lon="-4.983667">
        <ele>1618.0</ele>
        <time>2015-05-17T11:19:34Z</time>
      </trkpt>
      <trkpt lat="40.496317" lon="-4.983883">
        <ele>1617.0</ele>
        <time>2015-05-17T11:19:36Z</time>
      </trkpt>
      <trkpt lat="40.496400" lon="-4.984067">
        <ele>1614.0</ele>
        <time>2015-05-17T11:19:38Z</time>
      </trkpt>
      <trkpt lat="40.496517" lon="-4.984200">
        <ele>1612.0</ele>
        <time>2015-05-17T11:19:40Z</time>
      </trkpt>
      <trkpt lat="40.496633" lon="-4.984300">
        <ele>1613.0</ele>
        <time>2015-05-17T11:19:42Z</time>
      </trkpt>
      <trkpt lat="40.496750" lon="-4.984417">
        <ele>1616.0</ele>
        <time>2015-05-17T11:19:44Z</time>
      </trkpt>
      <trkpt lat="40.496867" lon="-4.984517">
        <ele>1617.0</ele>
        <time>2015-05-17T11:19:46Z</time>
      </trkpt>
      <trkpt lat="40.496967" lon="-4.984633">
        <ele>1618.0</ele>
        <time>2015-05-17T11:19:48Z</time>
      </trkpt>
      <trkpt lat="40.497083" lon="-4.984767">
        <ele>1623.0</ele>
        <time>2015-05-17T11:19:50Z</time>
      </trkpt>
      <trkpt lat="40.497167" lon="-4.984867">
        <ele>1624.0</ele>
        <time>2015-05-17T11:19:52Z</time>
      </trkpt>
      <trkpt lat="40.497267" lon="-4.984950">
        <ele>1624.0</ele>
        <time>2015-05-17T11:19:54Z</time>
      </trkpt>
      <trkpt lat="40.497367" lon="-4.985083">
        <ele>1624.0</ele>
        <time>2015-05-17T11:19:56Z</time>
      </trkpt>
      <trkpt lat="40.497467" lon="-4.985217">
        <ele>1624.0</ele>
        <time>2015-05-17T11:19:58Z</time>
      </trkpt>
      <trkpt lat="40.497583" lon="-4.985300">
        <ele>1624.0</ele>
        <time>2015-05-17T11:20:00Z</time>
      </trkpt>
      <trkpt lat="40.497683" lon="-4.985417">
        <ele>1625.0</ele>
        <time>2015-05-17T11:20:02Z</time>
      </trkpt>
      <trkpt lat="40.497800" lon="-4.985633">
        <ele>1625.0</ele>
        <time>2015-05-17T11:20:04Z</time>
      </trkpt>
      <trkpt lat="40.497883" lon="-4.985883">
        <ele>1626.0</ele>
        <time>2015-05-17T11:20:06Z</time>
      </trkpt>
      <trkpt lat="40.497983" lon="-4.986067">
        <ele>1625.0</ele>
        <time>2015-05-17T11:20:08Z</time>
      </trkpt>
      <trkpt lat="40.498100" lon="-4.986117">
        <ele>1623.0</ele>
        <time>2015-05-17T11:20:10Z</time>
      </trkpt>
      <trkpt lat="40.498183" lon="-4.986067">
        <ele>1623.0</ele>
        <time>2015-05-17T11:20:12Z</time>
      </trkpt>
      <trkpt lat="40.498183" lon="-4.985950">
        <ele>1623.0</ele>
        <time>2015-05-17T11:20:14Z</time>
      </trkpt>
      <trkpt lat="40.498117" lon="-4.985833">
        <ele>1622.0</ele>
        <time>2015-05-17T11:20:16Z</time>
      </trkpt>
      <trkpt lat="40.498017" lon="-4.985683">
        <ele>1619.0</ele>
        <time>2015-05-17T11:20:18Z</time>
      </trkpt>
      <trkpt lat="40.497950" lon="-4.985533">
        <ele>1620.0</ele>
        <time>2015-05-17T11:20:20Z</time>
      </trkpt>
      <trkpt lat="40.497833" lon="-4.985450">
        <ele>1621.0</ele>
        <time>2015-05-17T11:20:22Z</time>
      </trkpt>
      <trkpt lat="40.497733" lon="-4.985350">
        <ele>1620.0</ele>
        <time>2015-05-17T11:20:24Z</time>
      </trkpt>
      <trkpt lat="40.497600" lon="-4.985200">
        <ele>1621.0</ele>
        <time>2015-05-17T11:20:26Z</time>
      </trkpt>
      <trkpt lat="40.497450" lon="-4.985150">
        <ele>1624.0</ele>
        <time>2015-05-17T11:20:28Z</time>
      </trkpt>
      <trkpt lat="40.497283" lon="-4.985133">
        <ele>1624.0</ele>
        <time>2015-05-17T11:20:30Z</time>
      </trkpt>
      <trkpt lat="40.497083" lon="-4.985050">
        <ele>1622.0</ele>
        <time>2015-05-17T11:20:32Z</time>
      </trkpt>
      <trkpt lat="40.496850" lon="-4.985033">
        <ele>1625.0</ele>
        <time>2015-05-17T11:20:34Z</time>
      </trkpt>
      <trkpt lat="40.496667" lon="-4.985033">
        <ele>1625.0</ele>
        <time>2015-05-17T11:20:36Z</time>
      </trkpt>
      <trkpt lat="40.496517" lon="-4.984933">
        <ele>1623.0</ele>
        <time>2015-05-17T11:20:38Z</time>
      </trkpt>
      <trkpt lat="40.496500" lon="-4.984783">
        <ele>1623.0</ele>
        <time>2015-05-17T11:20:40Z</time>
      </trkpt>
      <trkpt lat="40.496600" lon="-4.984750">
        <ele>1623.0</ele>
        <time>2015-05-17T11:20:42Z</time>
      </trkpt>
      <trkpt lat="40.496700" lon="-4.984800">
        <ele>1625.0</ele>
        <time>2015-05-17T11:20:44Z</time>
      </trkpt>
      <trkpt lat="40.496817" lon="-4.984883">
        <ele>1624.0</ele>
        <time>2015-05-17T11:20:46Z</time>
      </trkpt>
      <trkpt lat="40.496933" lon="-4.984967">
        <ele>1624.0</ele>
        <time>2015-05-17T11:20:48Z</time>
      </trkpt>
      <trkpt lat="40.497033" lon="-4.985000">
        <ele>1627.0</ele>
        <time>2015-05-17T11:20:50Z</time>
      </trkpt>
      <trkpt lat="40.497117" lon="-4.985033">
        <ele>1628.0</ele>
        <time>2015-05-17T11:20:52Z</time>
      </trkpt>
      <trkpt lat="40.497200" lon="-4.985067">
        <ele>1627.0</ele>
        <time>2015-05-17T11:20:54Z</time>
      </trkpt>
      <trkpt lat="40.497300" lon="-4.985050">
        <ele>1626.0</ele>
        <time>2015-05-17T11:20:56Z</time>
      </trkpt>
      <trkpt lat="40.497367" lon="-4.984983">
        <ele>1625.0</ele>
        <time>2015-05-17T11:20:58Z</time>
      </trkpt>
      <trkpt lat="40.497383" lon="-4.984867">
        <ele>1625.0</ele>
        <time>2015-05-17T11:21:00Z</time>
      </trkpt>
      <trkpt lat="40.497350" lon="-4.984700">
        <ele>1624.0</ele>
        <time>2015-05-17T11:21:02Z</time>
      </trkpt>
      <trkpt lat="40.497233" lon="-4.984583">
        <ele>1623.0</ele>
        <time>2015-05-17T11:21:04Z</time>
      </trkpt>
      <trkpt lat="40.497050" lon="-4.984533">
        <ele>1621.0</ele>
        <time>2015-05-17T11:21:06Z</time>
      </trkpt>
      <trkpt lat="40.496817" lon="-4.984517">
        <ele>1619.0</ele>
        <time>2015-05-17T11:21:08Z</time>
      </trkpt>
      <trkpt lat="40.496583" lon="-4.984500">
        <ele>1620.0</ele>
        <time>2015-05-17T11:21:10Z</time>
      </trkpt>
      <trkpt lat="40.496367" lon="-4.984450">
        <ele>1621.0</ele>
        <time>2015-05-17T11:21:12Z</time>
      </trkpt>
      <trkpt lat="40.496183" lon="-4.984350">
        <ele>1623.0</ele>
        <time>2015-05-17T11:21:14Z</time>
      </trkpt>
      <trkpt lat="40.496067" lon="-4.984200">
        <ele>1625.0</ele>
        <time>2015-05-17T11:21:16Z</time>
      </trkpt>
      <trkpt lat="40.496033" lon="-4.984050">
        <ele>1628.0</ele>
        <time>2015-05-17T11:21:18Z</time>
      </trkpt>
      <trkpt lat="40.496067" lon="-4.983967">
        <ele>1628.0</ele>
        <time>2015-05-17T11:21:20Z</time>
      </trkpt>
      <trkpt lat="40.496167" lon="-4.983967">
        <ele>1626.0</ele>
        <time>2015-05-17T11:21:22Z</time>
      </trkpt>
      <trkpt lat="40.496300" lon="-4.984117">
        <ele>1624.0</ele>
        <time>2015-05-17T11:21:24Z</time>
      </trkpt>
      <trkpt lat="40.496383" lon="-4.984333">
        <ele>1627.0</ele>
        <time>2015-05-17T11:21:26Z</time>
      </trkpt>
      <trkpt lat="40.496483" lon="-4.984450">
        <ele>1629.0</ele>
        <time>2015-05-17T11:21:28Z</time>
      </trkpt>
      <trkpt lat="40.496567" lon="-4.984533">
        <ele>1627.0</ele>
        <time>2015-05-17T11:21:30Z</time>
      </trkpt>
      <trkpt lat="40.496700" lon="-4.984617">
        <ele>1628.0</ele>
        <time>2015-05-17T11:21:32Z</time>
      </trkpt>
      <trkpt lat="40.496817" lon="-4.984717">
        <ele>1632.0</ele>
        <time>2015-05-17T11:21:34Z</time>
      </trkpt>
      <trkpt lat="40.496917" lon="-4.984850">
        <ele>1634.0</ele>
        <time>2015-05-17T11:21:36Z</time>
      </trkpt>
      <trkpt lat="40.497017" lon="-4.985017">
        <ele>1635.0</ele>
        <time>2015-05-17T11:21:38Z</time>
      </trkpt>
      <trkpt lat="40.497117" lon="-4.985117">
        <ele>1636.0</ele>
        <time>2015-05-17T11:21:40Z</time>
      </trkpt>
      <trkpt lat="40.497250" lon="-4.985233">
        <ele>1637.0</ele>
        <time>2015-05-17T11:21:42Z</time>
      </trkpt>
      <trkpt lat="40.497333" lon="-4.985417">
        <ele>1640.0</ele>
        <time>2015-05-17T11:21:44Z</time>
      </trkpt>
      <trkpt lat="40.497417" lon="-4.985600">
        <ele>1638.0</ele>
        <time>2015-05-17T11:21:46Z</time>
      </trkpt>
      <trkpt lat="40.497550" lon="-4.985700">
        <ele>1635.0</ele>
        <time>2015-05-17T11:21:48Z</time>
      </trkpt>
      <trkpt lat="40.497667" lon="-4.985650">
        <ele>1636.0</ele>
        <time>2015-05-17T11:21:50Z</time>
      </trkpt>
      <trkpt lat="40.497667" lon="-4.985550">
        <ele>1636.0</ele>
        <time>2015-05-17T11:21:52Z</time>
      </trkpt>
      <trkpt lat="40.497600" lon="-4.985417">
        <ele>1633.0</ele>
        <time>2015-05-17T11:21:54Z</time>
      </trkpt>
      <trkpt lat="40.497417" lon="-4.985317">
        <ele>1630.0</ele>
        <time>2015-05-17T11:21:56Z</time>
      </trkpt>
      <trkpt lat="40.497250" lon="-4.985233">
        <ele>1631.0</ele>
        <time>2015-05-17T11:21:58Z</time>
      </trkpt>
      <trkpt lat="40.497050" lon="-4.985200">
        <ele>1631.0</ele>
        <time>2015-05-17T11:22:00Z</time>
      </trkpt>
      <trkpt lat="40.496800" lon="-4.985167">
        <ele>1632.0</ele>
        <time>2015-05-17T11:22:02Z</time>
      </trkpt>
      <trkpt lat="40.496583" lon="-4.985150">
        <ele>1636.0</ele>
        <time>2015-05-17T11:22:04Z</time>
      </trkpt>
      <trkpt lat="40.496450" lon="-4.985117">
        <ele>1639.0</ele>
        <time>2015-05-17T11:22:06Z</time>
      </trkpt>
      <trkpt lat="40.496333" lon="-4.985067">
        <ele>1635.0</ele>
        <time>2015-05-17T11:22:08Z</time>
      </trkpt>
      <trkpt lat="40.496283" lon="-4.984933">
        <ele>1629.0</ele>
        <time>2015-05-17T11:22:10Z</time>
      </trkpt>
      <trkpt lat="40.496383" lon="-4.984833">
        <ele>1628.0</ele>
        <time>2015-05-17T11:22:12Z</time>
      </trkpt>
      <trkpt lat="40.496483" lon="-4.984850">
        <ele>1628.0</ele>
        <time>2015-05-17T11:22:14Z</time>
      </trkpt>
      <trkpt lat="40.496600" lon="-4.984900">
        <ele>1625.0</ele>
        <time>2015-05-17T11:22:16Z</time>
      </trkpt>
      <trkpt lat="40.496767" lon="-4.984933">
        <ele>1623.0</ele>
        <time>2015-05-17T11:22:18Z</time>
      </trkpt>
      <trkpt lat="40.496933" lon="-4.984933">
        <ele>1632.0</ele>
        <time>2015-05-17T11:22:20Z</time>
      </trkpt>
      <trkpt lat="40.497017" lon="-4.984950">
        <ele>1638.0</ele>
        <time>2015-05-17T11:22:22Z</time>
      </trkpt>
      <trkpt lat="40.497100" lon="-4.984983">
        <ele>1638.0</ele>
        <time>2015-05-17T11:22:24Z</time>
      </trkpt>
      <trkpt lat="40.497150" lon="-4.984933">
        <ele>1633.0</ele>
        <time>2015-05-17T11:22:26Z</time>
      </trkpt>
      <trkpt lat="40.497267" lon="-4.984883">
        <ele>1627.0</ele>
        <time>2015-05-17T11:22:28Z</time>
      </trkpt>
      <trkpt lat="40.497417" lon="-4.984917">
        <ele>1624.0</ele>
        <time>2015-05-17T11:22:30Z</time>
      </trkpt>
      <trkpt lat="40.497533" lon="-4.985017">
        <ele>1622.0</ele>
        <time>2015-05-17T11:22:32Z</time>
      </trkpt>
      <trkpt lat="40.497683" lon="-4.985067">
        <ele>1618.0</ele>
        <time>2015-05-17T11:22:34Z</time>
      </trkpt>
      <trkpt lat="40.497817" lon="-4.985067">
        <ele>1618.0</ele>
        <time>2015-05-17T11:22:36Z</time>
      </trkpt>
      <trkpt lat="40.497917" lon="-4.985000">
        <ele>1620.0</ele>
        <time>2015-05-17T11:22:38Z</time>
      </trkpt>
      <trkpt lat="40.497950" lon="-4.984900">
        <ele>1621.0</ele>
        <time>2015-05-17T11:22:40Z</time>
      </trkpt>
      <trkpt lat="40.497933" lon="-4.984750">
        <ele>1618.0</ele>
        <time>2015-05-17T11:22:42Z</time>
      </trkpt>
      <trkpt lat="40.497800" lon="-4.984583">
        <ele>1615.0</ele>
        <time>2015-05-17T11:22:44Z</time>
      </trkpt>
      <trkpt lat="40.497600" lon="-4.984517">
        <ele>1616.0</ele>
        <time>2015-05-17T11:22:46Z</time>
      </trkpt>
      <trkpt lat="40.497383" lon="-4.984550">
        <ele>1620.0</ele>
        <time>2015-05-17T11:22:48Z</time>
      </trkpt>
      <trkpt lat="40.497167" lon="-4.984633">
        <ele>1623.0</ele>
        <time>2015-05-17T11:22:50Z</time>
      </trkpt>
      <trkpt lat="40.496950" lon="-4.984700">
        <ele>1625.0</ele>
        <time>2015-05-17T11:22:52Z</time>
      </trkpt>
      <trkpt lat="40.496733" lon="-4.984717">
        <ele>1628.0</ele>
        <time>2015-05-17T11:22:54Z</time>
      </trkpt>
      <trkpt lat="40.496567" lon="-4.984717">
        <ele>1629.0</ele>
        <time>2015-05-17T11:22:56Z</time>
      </trkpt>
      <trkpt lat="40.496400" lon="-4.984667">
        <ele>1630.0</ele>
        <time>2015-05-17T11:22:58Z</time>
      </trkpt>
      <trkpt lat="40.496300" lon="-4.984550">
        <ele>1629.0</ele>
        <time>2015-05-17T11:23:00Z</time>
      </trkpt>
      <trkpt lat="40.496283" lon="-4.984400">
        <ele>1630.0</ele>
        <time>2015-05-17T11:23:02Z</time>
      </trkpt>
      <trkpt lat="40.496317" lon="-4.984317">
        <ele>1632.0</ele>
        <time>2015-05-17T11:23:04Z</time>
      </trkpt>
      <trkpt lat="40.496400" lon="-4.984283">
        <ele>1630.0</ele>
        <time>2015-05-17T11:23:06Z</time>
      </trkpt>
      <trkpt lat="40.496500" lon="-4.984333">
        <ele>1627.0</ele>
        <time>2015-05-17T11:23:08Z</time>
      </trkpt>
      <trkpt lat="40.496617" lon="-4.984433">
        <ele>1627.0</ele>
        <time>2015-05-17T11:23:10Z</time>
      </trkpt>
      <trkpt lat="40.496700" lon="-4.984500">
        <ele>1627.0</ele>
        <time>2015-05-17T11:23:12Z</time>
      </trkpt>
      <trkpt lat="40.496800" lon="-4.984567">
        <ele>1624.0</ele>
        <time>2015-05-17T11:23:14Z</time>
      </trkpt>
      <trkpt lat="40.496917" lon="-4.984650">
        <ele>1625.0</ele>
        <time>2015-05-17T11:23:16Z</time>
      </trkpt>
      <trkpt lat="40.497000" lon="-4.984733">
        <ele>1626.0</ele>
        <time>2015-05-17T11:23:18Z</time>
      </trkpt>
      <trkpt lat="40.497100" lon="-4.984800">
        <ele>1625.0</ele>
        <time>2015-05-17T11:23:20Z</time>
      </trkpt>
      <trkpt lat="40.497200" lon="-4.984883">
        <ele>1627.0</ele>
        <time>2015-05-17T11:23:22Z</time>
      </trkpt>
      <trkpt lat="40.497283" lon="-4.984983">
        <ele>1627.0</ele>
        <time>2015-05-17T11:23:24Z</time>
      </trkpt>
      <trkpt lat="40.497383" lon="-4.985117">
        <ele>1626.0</ele>
        <time>2015-05-17T11:23:26Z</time>
      </trkpt>
      <trkpt lat="40.497500" lon="-4.985250">
        <ele>1627.0</ele>
        <time>2015-05-17T11:23:28Z</time>
      </trkpt>
      <trkpt lat="40.497600" lon="-4.985283">
        <ele>1631.0</ele>
        <time>2015-05-17T11:23:30Z</time>
      </trkpt>
      <trkpt lat="40.497683" lon="-4.985283">
        <ele>1632.0</ele>
        <time>2015-05-17T11:23:32Z</time>
      </trkpt>
      <trkpt lat="40.497750" lon="-4.985217">
        <ele>1629.0</ele>
        <time>2015-05-17T11:23:34Z</time>
      </trkpt>
      <trkpt lat="40.497700" lon="-4.985033">
        <ele>1625.0</ele>
        <time>2015-05-17T11:23:36Z</time>
      </trkpt>
      <trkpt lat="40.497517" lon="-4.984917">
        <ele>1625.0</ele>
        <time>2015-05-17T11:23:38Z</time>
      </trkpt>
      <trkpt lat="40.497317" lon="-4.984900">
        <ele>1627.0</ele>
        <time>2015-05-17T11:23:40Z</time>
      </trkpt>
      <trkpt lat="40.497117" lon="-4.984933">
        <ele>1623.0</ele>
        <time>2015-05-17T11:23:42Z</time>
      </trkpt>
      <trkpt lat="40.496867" lon="-4.984900">
        <ele>1618.0</ele>
        <time>2015-05-17T11:23:44Z</time>
      </trkpt>
      <trkpt lat="40.496617" lon="-4.984833">
        <ele>1622.0</ele>
        <time>2015-05-17T11:23:46Z</time>
      </trkpt>
      <trkpt lat="40.496500" lon="-4.984733">
        <ele>1628.0</ele>
        <time>2015-05-17T11:23:48Z</time>
      </trkpt>
      <trkpt lat="40.496450" lon="-4.984650">
        <ele>1628.0</ele>
        <time>2015-05-17T11:23:50Z</time>
      </trkpt>
      <trkpt lat="40.496450" lon="-4.984500">
        <ele>1628.0</ele>
        <time>2015-05-17T11:23:52Z</time>
      </trkpt>
      <trkpt lat="40.496567" lon="-4.984500">
        <ele>1629.0</ele>
        <time>2015-05-17T11:23:54Z</time>
      </trkpt>
      <trkpt lat="40.496650" lon="-4.984700">
        <ele>1631.0</ele>
        <time>2015-05-17T11:23:56Z</time>
      </trkpt>
      <trkpt lat="40.496717" lon="-4.984917">
        <ele>1633.0</ele>
        <time>2015-05-17T11:23:58Z</time>
      </trkpt>
      <trkpt lat="40.496800" lon="-4.985033">
        <ele>1632.0</ele>
        <time>2015-05-17T11:24:00Z</time>
      </trkpt>
      <trkpt lat="40.496883" lon="-4.985000">
        <ele>1628.0</ele>
        <time>2015-05-17T11:24:02Z</time>
      </trkpt>
      <trkpt lat="40.496900" lon="-4.984817">
        <ele>1626.0</ele>
        <time>2015-05-17T11:24:04Z</time>
      </trkpt>
      <trkpt lat="40.496783" lon="-4.984683">
        <ele>1626.0</ele>
        <time>2015-05-17T11:24:06Z</time>
      </trkpt>
      <trkpt lat="40.496600" lon="-4.984600">
        <ele>1625.0</ele>
        <time>2015-05-17T11:24:08Z</time>
      </trkpt>
      <trkpt lat="40.496400" lon="-4.984500">
        <ele>1622.0</ele>
        <time>2015-05-17T11:24:10Z</time>
      </trkpt>
      <trkpt lat="40.496250" lon="-4.984350">
        <ele>1622.0</ele>
        <time>2015-05-17T11:24:12Z</time>
      </trkpt>
      <trkpt lat="40.496150" lon="-4.984183">
        <ele>1622.0</ele>
        <time>2015-05-17T11:24:14Z</time>
      </trkpt>
      <trkpt lat="40.496083" lon="-4.984033">
        <ele>1620.0</ele>
        <time>2015-05-17T11:24:16Z</time>
      </trkpt>
      <trkpt lat="40.496067" lon="-4.983883">
        <ele>1616.0</ele>
        <time>2015-05-17T11:24:18Z</time>
      </trkpt>
      <trkpt lat="40.496100" lon="-4.983717">
        <ele>1615.0</ele>
        <time>2015-05-17T11:24:20Z</time>
      </trkpt>
      <trkpt lat="40.496167" lon="-4.983633">
        <ele>1620.0</ele>
        <time>2015-05-17T11:24:22Z</time>
      </trkpt>
      <trkpt lat="40.496250" lon="-4.983633">
        <ele>1623.0</ele>
        <time>2015-05-17T11:24:24Z</time>
      </trkpt>
      <trkpt lat="40.496367" lon="-4.983683">
        <ele>1625.0</ele>
        <time>2015-05-17T11:24:26Z</time>
      </trkpt>
      <trkpt lat="40.496450" lon="-4.983817">
        <ele>1627.0</ele>
        <time>2015-05-17T11:24:28Z</time>
      </trkpt>
      <trkpt lat="40.496500" lon="-4.984033">
        <ele>1626.0</ele>
        <time>2015-05-17T11:24:30Z</time>
      </trkpt>
      <trkpt lat="40.496550" lon="-4.984283">
        <ele>1624.0</ele>
        <time>2015-05-17T11:24:32Z</time>
      </trkpt>
      <trkpt lat="40.496633" lon="-4.984467">
        <ele>1624.0</ele>
        <time>2015-05-17T11:24:34Z</time>
      </trkpt>
      <trkpt lat="40.496750" lon="-4.984550">
        <ele>1623.0</ele>
        <time>2015-05-17T11:24:36Z</time>
      </trkpt>
      <trkpt lat="40.496867" lon="-4.984650">
        <ele>1623.0</ele>
        <time>2015-05-17T11:24:38Z</time>
      </trkpt>
      <trkpt lat="40.496950" lon="-4.984733">
        <ele>1623.0</ele>
        <time>2015-05-17T11:24:40Z</time>
      </trkpt>
      <trkpt lat="40.497033" lon="-4.984733">
        <ele>1622.0</ele>
        <time>2015-05-17T11:24:42Z</time>
      </trkpt>
      <trkpt lat="40.497133" lon="-4.984650">
        <ele>1621.0</ele>
        <time>2015-05-17T11:24:44Z</time>
      </trkpt>
      <trkpt lat="40.497183" lon="-4.984467">
        <ele>1622.0</ele>
        <time>2015-05-17T11:24:46Z</time>
      </trkpt>
      <trkpt lat="40.497217" lon="-4.984350">
        <ele>1628.0</ele>
        <time>2015-05-17T11:24:48Z</time>
      </trkpt>
      <trkpt lat="40.497283" lon="-4.984350">
        <ele>1629.0</ele>
        <time>2015-05-17T11:24:50Z</time>
      </trkpt>
      <trkpt lat="40.497383" lon="-4.984417">
        <ele>1628.0</ele>
        <time>2015-05-17T11:24:52Z</time>
      </trkpt>
      <trkpt lat="40.497450" lon="-4.984617">
        <ele>1625.0</ele>
        <time>2015-05-17T11:24:54Z</time>
      </trkpt>
      <trkpt lat="40.497517" lon="-4.984850">
        <ele>1622.0</ele>
        <time>2015-05-17T11:24:56Z</time>
      </trkpt>
      <trkpt lat="40.497633" lon="-4.985000">
        <ele>1621.0</ele>
        <time>2015-05-17T11:24:58Z</time>
      </trkpt>
      <trkpt lat="40.497733" lon="-4.985133">
        <ele>1622.0</ele>
        <time>2015-05-17T11:25:00Z</time>
      </trkpt>
      <trkpt lat="40.497850" lon="-4.985217">
        <ele>1621.0</ele>
        <time>2015-05-17T11:25:02Z</time>
      </trkpt>
      <trkpt lat="40.498000" lon="-4.985233">
        <ele>1622.0</ele>
        <time>2015-05-17T11:25:04Z</time>
      </trkpt>
      <trkpt lat="40.498117" lon="-4.985233">
        <ele>1624.0</ele>
        <time>2015-05-17T11:25:06Z</time>
      </trkpt>
      <trkpt lat="40.498217" lon="-4.985217">
        <ele>1622.0</ele>
        <time>2015-05-17T11:25:08Z</time>
      </trkpt>
      <trkpt lat="40.498283" lon="-4.985100">
        <ele>1618.0</ele>
        <time>2015-05-17T11:25:10Z</time>
      </trkpt>
      <trkpt lat="40.498267" lon="-4.984917">
        <ele>1616.0</ele>
        <time>2015-05-17T11:25:12Z</time>
      </trkpt>
      <trkpt lat="40.498167" lon="-4.984783">
        <ele>1615.0</ele>
        <time>2015-05-17T11:25:14Z</time>
      </trkpt>
      <trkpt lat="40.498000" lon="-4.984717">
        <ele>1614.0</ele>
        <time>2015-05-17T11:25:16Z</time>
      </trkpt>
      <trkpt lat="40.497800" lon="-4.984667">
        <ele>1611.0</ele>
        <time>2015-05-17T11:25:18Z</time>
      </trkpt>
      <trkpt lat="40.497583" lon="-4.984650">
        <ele>1608.0</ele>
        <time>2015-05-17T11:25:20Z</time>
      </trkpt>
      <trkpt lat="40.497367" lon="-4.984617">
        <ele>1605.0</ele>
        <time>2015-05-17T11:25:22Z</time>
      </trkpt>
      <trkpt lat="40.497150" lon="-4.984533">
        <ele>1604.0</ele>
        <time>2015-05-17T11:25:24Z</time>
      </trkpt>
      <trkpt lat="40.496950" lon="-4.984467">
        <ele>1604.0</ele>
        <time>2015-05-17T11:25:26Z</time>
      </trkpt>
      <trkpt lat="40.496750" lon="-4.984350">
        <ele>1602.0</ele>
        <time>2015-05-17T11:25:28Z</time>
      </trkpt>
      <trkpt lat="40.496600" lon="-4.984183">
        <ele>1599.0</ele>
        <time>2015-05-17T11:25:30Z</time>
      </trkpt>
      <trkpt lat="40.496483" lon="-4.984000">
        <ele>1598.0</ele>
        <time>2015-05-17T11:25:32Z</time>
      </trkpt>
      <trkpt lat="40.496400" lon="-4.983817">
        <ele>1597.0</ele>
        <time>2015-05-17T11:25:34Z</time>
      </trkpt>
      <trkpt lat="40.496350" lon="-4.983617">
        <ele>1597.0</ele>
        <time>2015-05-17T11:25:36Z</time>
      </trkpt>
      <trkpt lat="40.496317" lon="-4.983417">
        <ele>1597.0</ele>
        <time>2015-05-17T11:25:38Z</time>
      </trkpt>
      <trkpt lat="40.496300" lon="-4.983200">
        <ele>1599.0</ele>
        <time>2015-05-17T11:25:40Z</time>
      </trkpt>
      <trkpt lat="40.496317" lon="-4.983050">
        <ele>1603.0</ele>
        <time>2015-05-17T11:25:42Z</time>
      </trkpt>
      <trkpt lat="40.496300" lon="-4.982917">
        <ele>1605.0</ele>
        <time>2015-05-17T11:25:44Z</time>
      </trkpt>
      <trkpt lat="40.496217" lon="-4.982733">
        <ele>1604.0</ele>
        <time>2015-05-17T11:25:46Z</time>
      </trkpt>
      <trkpt lat="40.496100" lon="-4.982533">
        <ele>1603.0</ele>
        <time>2015-05-17T11:25:48Z</time>
      </trkpt>
      <trkpt lat="40.495983" lon="-4.982367">
        <ele>1603.0</ele>
        <time>2015-05-17T11:25:50Z</time>
      </trkpt>
      <trkpt lat="40.495867" lon="-4.982200">
        <ele>1602.0</ele>
        <time>2015-05-17T11:25:52Z</time>
      </trkpt>
      <trkpt lat="40.495767" lon="-4.982000">
        <ele>1598.0</ele>
        <time>2015-05-17T11:25:54Z</time>
      </trkpt>
      <trkpt lat="40.495733" lon="-4.981783">
        <ele>1596.0</ele>
        <time>2015-05-17T11:25:56Z</time>
      </trkpt>
      <trkpt lat="40.495750" lon="-4.981617">
        <ele>1595.0</ele>
        <time>2015-05-17T11:25:58Z</time>
      </trkpt>
      <trkpt lat="40.495817" lon="-4.981500">
        <ele>1591.0</ele>
        <time>2015-05-17T11:26:00Z</time>
      </trkpt>
      <trkpt lat="40.495933" lon="-4.981383">
        <ele>1591.0</ele>
        <time>2015-05-17T11:26:02Z</time>
      </trkpt>
      <trkpt lat="40.496000" lon="-4.981333">
        <ele>1596.0</ele>
        <time>2015-05-17T11:26:04Z</time>
      </trkpt>
      <trkpt lat="40.496067" lon="-4.981317">
        <ele>1595.0</ele>
        <time>2015-05-17T11:26:06Z</time>
      </trkpt>
      <trkpt lat="40.496183" lon="-4.981383">
        <ele>1589.0</ele>
        <time>2015-05-17T11:26:08Z</time>
      </trkpt>
      <trkpt lat="40.496300" lon="-4.981500">
        <ele>1586.0</ele>
        <time>2015-05-17T11:26:10Z</time>
      </trkpt>
      <trkpt lat="40.496400" lon="-4.981567">
        <ele>1584.0</ele>
        <time>2015-05-17T11:26:12Z</time>
      </trkpt>
      <trkpt lat="40.496533" lon="-4.981617">
        <ele>1581.0</ele>
        <time>2015-05-17T11:26:14Z</time>
      </trkpt>
      <trkpt lat="40.496667" lon="-4.981667">
        <ele>1580.0</ele>
        <time>2015-05-17T11:26:16Z</time>
      </trkpt>
      <trkpt lat="40.496767" lon="-4.981783">
        <ele>1582.0</ele>
        <time>2015-05-17T11:26:18Z</time>
      </trkpt>
      <trkpt lat="40.496850" lon="-4.981967">
        <ele>1583.0</ele>
        <time>2015-05-17T11:26:20Z</time>
      </trkpt>
      <trkpt lat="40.496900" lon="-4.982217">
        <ele>1584.0</ele>
        <time>2015-05-17T11:26:22Z</time>
      </trkpt>
      <trkpt lat="40.496933" lon="-4.982433">
        <ele>1588.0</ele>
        <time>2015-05-17T11:26:24Z</time>
      </trkpt>
      <trkpt lat="40.496933" lon="-4.982650">
        <ele>1589.0</ele>
        <time>2015-05-17T11:26:26Z</time>
      </trkpt>
      <trkpt lat="40.496967" lon="-4.982900">
        <ele>1588.0</ele>
        <time>2015-05-17T11:26:28Z</time>
      </trkpt>
      <trkpt lat="40.497050" lon="-4.983117">
        <ele>1588.0</ele>
        <time>2015-05-17T11:26:30Z</time>
      </trkpt>
      <trkpt lat="40.497117" lon="-4.983267">
        <ele>1589.0</ele>
        <time>2015-05-17T11:26:32Z</time>
      </trkpt>
      <trkpt lat="40.497200" lon="-4.983400">
        <ele>1589.0</ele>
        <time>2015-05-17T11:26:34Z</time>
      </trkpt>
      <trkpt lat="40.497300" lon="-4.983517">
        <ele>1589.0</ele>
        <time>2015-05-17T11:26:36Z</time>
      </trkpt>
      <trkpt lat="40.497383" lon="-4.983583">
        <ele>1589.0</ele>
        <time>2015-05-17T11:26:38Z</time>
      </trkpt>
      <trkpt lat="40.497483" lon="-4.983667">
        <ele>1588.0</ele>
        <time>2015-05-17T11:26:40Z</time>
      </trkpt>
      <trkpt lat="40.497550" lon="-4.983767">
        <ele>1585.0</ele>
        <time>2015-05-17T11:26:42Z</time>
      </trkpt>
      <trkpt lat="40.497683" lon="-4.983817">
        <ele>1580.0</ele>
        <time>2015-05-17T11:26:44Z</time>
      </trkpt>
      <trkpt lat="40.497833" lon="-4.983833">
        <ele>1577.0</ele>
        <time>2015-05-17T11:26:46Z</time>
      </trkpt>
      <trkpt lat="40.497950" lon="-4.983883">
        <ele>1578.0</ele>
        <time>2015-05-17T11:26:48Z</time>
      </trkpt>
      <trkpt lat="40.498033" lon="-4.983950">
        <ele>1578.0</ele>
        <time>2015-05-17T11:26:50Z</time>
      </trkpt>
      <trkpt lat="40.498183" lon="-4.984000">
        <ele>1573.0</ele>
        <time>2015-05-17T11:26:52Z</time>
      </trkpt>
      <trkpt lat="40.498317" lon="-4.983950">
        <ele>1575.0</ele>
        <time>2015-05-17T11:26:54Z</time>
      </trkpt>
      <trkpt lat="40.498367" lon="-4.983833">
        <ele>1579.0</ele>
        <time>2015-05-17T11:26:56Z</time>
      </trkpt>
      <trkpt lat="40.498383" lon="-4.983750">
        <ele>1580.0</ele>
        <time>2015-05-17T11:26:58Z</time>
      </trkpt>
      <trkpt lat="40.498333" lon="-4.983617">
        <ele>1573.0</ele>
        <time>2015-05-17T11:27:00Z</time>
      </trkpt>
      <trkpt lat="40.498317" lon="-4.983450">
        <ele>1570.0</ele>
        <time>2015-05-17T11:27:02Z</time>
      </trkpt>
      <trkpt lat="40.498367" lon="-4.983333">
        <ele>1569.0</ele>
        <time>2015-05-17T11:27:04Z</time>
      </trkpt>
      <trkpt lat="40.498433" lon="-4.983217">
        <ele>1567.0</ele>
        <time>2015-05-17T11:27:06Z</time>
      </trkpt>
      <trkpt lat="40.498517" lon="-4.983133">
        <ele>1565.0</ele>
        <time>2015-05-17T11:27:08Z</time>
      </trkpt>
      <trkpt lat="40.498650" lon="-4.983100">
        <ele>1563.0</ele>
        <time>2015-05-17T11:27:10Z</time>
      </trkpt>
      <trkpt lat="40.498767" lon="-4.983100">
        <ele>1562.0</ele>
        <time>2015-05-17T11:27:12Z</time>
      </trkpt>
      <trkpt lat="40.498900" lon="-4.983100">
        <ele>1560.0</ele>
        <time>2015-05-17T11:27:14Z</time>
      </trkpt>
      <trkpt lat="40.499050" lon="-4.983167">
        <ele>1560.0</ele>
        <time>2015-05-17T11:27:16Z</time>
      </trkpt>
      <trkpt lat="40.499183" lon="-4.983200">
        <ele>1560.0</ele>
        <time>2015-05-17T11:27:18Z</time>
      </trkpt>
      <trkpt lat="40.499333" lon="-4.983217">
        <ele>1559.0</ele>
        <time>2015-05-17T11:27:20Z</time>
      </trkpt>
      <trkpt lat="40.499467" lon="-4.983300">
        <ele>1559.0</ele>
        <time>2015-05-17T11:27:22Z</time>
      </trkpt>
      <trkpt lat="40.499617" lon="-4.983383">
        <ele>1561.0</ele>
        <time>2015-05-17T11:27:24Z</time>
      </trkpt>
      <trkpt lat="40.499733" lon="-4.983517">
        <ele>1562.0</ele>
        <time>2015-05-17T11:27:26Z</time>
      </trkpt>
      <trkpt lat="40.499850" lon="-4.983700">
        <ele>1558.0</ele>
        <time>2015-05-17T11:27:28Z</time>
      </trkpt>
      <trkpt lat="40.499983" lon="-4.983867">
        <ele>1555.0</ele>
        <time>2015-05-17T11:27:30Z</time>
      </trkpt>
      <trkpt lat="40.500117" lon="-4.984017">
        <ele>1554.0</ele>
        <time>2015-05-17T11:27:32Z</time>
      </trkpt>
      <trkpt lat="40.500267" lon="-4.984067">
        <ele>1552.0</ele>
        <time>2015-05-17T11:27:34Z</time>
      </trkpt>
      <trkpt lat="40.500383" lon="-4.984133">
        <ele>1551.0</ele>
        <time>2015-05-17T11:27:36Z</time>
      </trkpt>
      <trkpt lat="40.500500" lon="-4.984300">
        <ele>1548.0</ele>
        <time>2015-05-17T11:27:38Z</time>
      </trkpt>
      <trkpt lat="40.500600" lon="-4.984467">
        <ele>1549.0</ele>
        <time>2015-05-17T11:27:40Z</time>
      </trkpt>
      <trkpt lat="40.500650" lon="-4.984650">
        <ele>1548.0</ele>
        <time>2015-05-17T11:27:42Z</time>
      </trkpt>
      <trkpt lat="40.500650" lon="-4.984900">
        <ele>1545.0</ele>
        <time>2015-05-17T11:27:44Z</time>
      </trkpt>
      <trkpt lat="40.500667" lon="-4.985133">
        <ele>1544.0</ele>
        <time>2015-05-17T11:27:46Z</time>
      </trkpt>
      <trkpt lat="40.500783" lon="-4.985283">
        <ele>1543.0</ele>
        <time>2015-05-17T11:27:48Z</time>
      </trkpt>
      <trkpt lat="40.500917" lon="-4.985400">
        <ele>1542.0</ele>
        <time>2015-05-17T11:27:50Z</time>
      </trkpt>
      <trkpt lat="40.501067" lon="-4.985433">
        <ele>1540.0</ele>
        <time>2015-05-17T11:27:52Z</time>
      </trkpt>
      <trkpt lat="40.501183" lon="-4.985383">
        <ele>1540.0</ele>
        <time>2015-05-17T11:27:54Z</time>
      </trkpt>
      <trkpt lat="40.501267" lon="-4.985250">
        <ele>1539.0</ele>
        <time>2015-05-17T11:27:56Z</time>
      </trkpt>
      <trkpt lat="40.501283" lon="-4.985067">
        <ele>1538.0</ele>
        <time>2015-05-17T11:27:58Z</time>
      </trkpt>
      <trkpt lat="40.501233" lon="-4.984883">
        <ele>1536.0</ele>
        <time>2015-05-17T11:28:00Z</time>
      </trkpt>
      <trkpt lat="40.501167" lon="-4.984667">
        <ele>1536.0</ele>
        <time>2015-05-17T11:28:02Z</time>
      </trkpt>
      <trkpt lat="40.501133" lon="-4.984533">
        <ele>1541.0</ele>
        <time>2015-05-17T11:28:04Z</time>
      </trkpt>
      <trkpt lat="40.501150" lon="-4.984400">
        <ele>1542.0</ele>
        <time>2015-05-17T11:28:06Z</time>
      </trkpt>
      <trkpt lat="40.501233" lon="-4.984267">
        <ele>1539.0</ele>
        <time>2015-05-17T11:28:08Z</time>
      </trkpt>
      <trkpt lat="40.501367" lon="-4.984183">
        <ele>1540.0</ele>
        <time>2015-05-17T11:28:10Z</time>
      </trkpt>
      <trkpt lat="40.501500" lon="-4.984150">
        <ele>1540.0</ele>
        <time>2015-05-17T11:28:12Z</time>
      </trkpt>
      <trkpt lat="40.501650" lon="-4.984267">
        <ele>1535.0</ele>
        <time>2015-05-17T11:28:14Z</time>
      </trkpt>
      <trkpt lat="40.501767" lon="-4.984517">
        <ele>1530.0</ele>
        <time>2015-05-17T11:28:16Z</time>
      </trkpt>
      <trkpt lat="40.501733" lon="-4.984783">
        <ele>1528.0</ele>
        <time>2015-05-17T11:28:18Z</time>
      </trkpt>
      <trkpt lat="40.501617" lon="-4.985000">
        <ele>1524.0</ele>
        <time>2015-05-17T11:28:20Z</time>
      </trkpt>
      <trkpt lat="40.501450" lon="-4.985150">
        <ele>1521.0</ele>
        <time>2015-05-17T11:28:22Z</time>
      </trkpt>
      <trkpt lat="40.501233" lon="-4.985167">
        <ele>1519.0</ele>
        <time>2015-05-17T11:28:24Z</time>
      </trkpt>
      <trkpt lat="40.501067" lon="-4.985050">
        <ele>1517.0</ele>
        <time>2015-05-17T11:28:26Z</time>
      </trkpt>
      <trkpt lat="40.500950" lon="-4.984833">
        <ele>1515.0</ele>
        <time>2015-05-17T11:28:28Z</time>
      </trkpt>
      <trkpt lat="40.500883" lon="-4.984600">
        <ele>1515.0</ele>
        <time>2015-05-17T11:28:30Z</time>
      </trkpt>
      <trkpt lat="40.500783" lon="-4.984383">
        <ele>1516.0</ele>
        <time>2015-05-17T11:28:32Z</time>
      </trkpt>
      <trkpt lat="40.500700" lon="-4.984200">
        <ele>1519.0</ele>
        <time>2015-05-17T11:28:34Z</time>
      </trkpt>
      <trkpt lat="40.500617" lon="-4.984017">
        <ele>1519.0</ele>
        <time>2015-05-17T11:28:36Z</time>
      </trkpt>
      <trkpt lat="40.500483" lon="-4.983783">
        <ele>1519.0</ele>
        <time>2015-05-17T11:28:38Z</time>
      </trkpt>
      <trkpt lat="40.500383" lon="-4.983583">
        <ele>1526.0</ele>
        <time>2015-05-17T11:28:40Z</time>
      </trkpt>
      <trkpt lat="40.500350" lon="-4.983467">
        <ele>1532.0</ele>
        <time>2015-05-17T11:28:42Z</time>
      </trkpt>
      <trkpt lat="40.500383" lon="-4.983350">
        <ele>1530.0</ele>
        <time>2015-05-17T11:28:44Z</time>
      </trkpt>
      <trkpt lat="40.500500" lon="-4.983233">
        <ele>1527.0</ele>
        <time>2015-05-17T11:28:46Z</time>
      </trkpt>
      <trkpt lat="40.500650" lon="-4.983233">
        <ele>1531.0</ele>
        <time>2015-05-17T11:28:48Z</time>
      </trkpt>
      <trkpt lat="40.500750" lon="-4.983300">
        <ele>1533.0</ele>
        <time>2015-05-17T11:28:50Z</time>
      </trkpt>
      <trkpt lat="40.500850" lon="-4.983500">
        <ele>1530.0</ele>
        <time>2015-05-17T11:28:52Z</time>
      </trkpt>
      <trkpt lat="40.500883" lon="-4.983817">
        <ele>1531.0</ele>
        <time>2015-05-17T11:28:54Z</time>
      </trkpt>
      <trkpt lat="40.500817" lon="-4.984117">
        <ele>1536.0</ele>
        <time>2015-05-17T11:28:56Z</time>
      </trkpt>
      <trkpt lat="40.500750" lon="-4.984333">
        <ele>1539.0</ele>
        <time>2015-05-17T11:28:58Z</time>
      </trkpt>
      <trkpt lat="40.500700" lon="-4.984550">
        <ele>1538.0</ele>
        <time>2015-05-17T11:29:00Z</time>
      </trkpt>
      <trkpt lat="40.500750" lon="-4.984800">
        <ele>1537.0</ele>
        <time>2015-05-17T11:29:02Z</time>
      </trkpt>
      <trkpt lat="40.500883" lon="-4.984917">
        <ele>1538.0</ele>
        <time>2015-05-17T11:29:04Z</time>
      </trkpt>
      <trkpt lat="40.500983" lon="-4.984883">
        <ele>1540.0</ele>
        <time>2015-05-17T11:29:06Z</time>
      </trkpt>
      <trkpt lat="40.501017" lon="-4.984733">
        <ele>1539.0</ele>
        <time>2015-05-17T11:29:08Z</time>
      </trkpt>
      <trkpt lat="40.500917" lon="-4.984567">
        <ele>1536.0</ele>
        <time>2015-05-17T11:29:10Z</time>
      </trkpt>
      <trkpt lat="40.500767" lon="-4.984433">
        <ele>1536.0</ele>
        <time>2015-05-17T11:29:12Z</time>
      </trkpt>
      <trkpt lat="40.500650" lon="-4.984333">
        <ele>1536.0</ele>
        <time>2015-05-17T11:29:14Z</time>
      </trkpt>
      <trkpt lat="40.500533" lon="-4.984200">
        <ele>1538.0</ele>
        <time>2015-05-17T11:29:16Z</time>
      </trkpt>
      <trkpt lat="40.500400" lon="-4.984083">
        <ele>1541.0</ele>
        <time>2015-05-17T11:29:18Z</time>
      </trkpt>
      <trkpt lat="40.500267" lon="-4.984017">
        <ele>1543.0</ele>
        <time>2015-05-17T11:29:20Z</time>
      </trkpt>
      <trkpt lat="40.500117" lon="-4.983933">
        <ele>1543.0</ele>
        <time>2015-05-17T11:29:22Z</time>
      </trkpt>
      <trkpt lat="40.499967" lon="-4.983833">
        <ele>1545.0</ele>
        <time>2015-05-17T11:29:24Z</time>
      </trkpt>
      <trkpt lat="40.499883" lon="-4.983733">
        <ele>1545.0</ele>
        <time>2015-05-17T11:29:26Z</time>
      </trkpt>
      <trkpt lat="40.499833" lon="-4.983583">
        <ele>1543.0</ele>
        <time>2015-05-17T11:29:28Z</time>
      </trkpt>
      <trkpt lat="40.499883" lon="-4.983450">
        <ele>1540.0</ele>
        <time>2015-05-17T11:29:30Z</time>
      </trkpt>
      <trkpt lat="40.500017" lon="-4.983433">
        <ele>1540.0</ele>
        <time>2015-05-17T11:29:32Z</time>
      </trkpt>
      <trkpt lat="40.500117" lon="-4.983517">
        <ele>1542.0</ele>
        <time>2015-05-17T11:29:34Z</time>
      </trkpt>
      <trkpt lat="40.500233" lon="-4.983650">
        <ele>1541.0</ele>
        <time>2015-05-17T11:29:36Z</time>
      </trkpt>
      <trkpt lat="40.500333" lon="-4.983867">
        <ele>1538.0</ele>
        <time>2015-05-17T11:29:38Z</time>
      </trkpt>
      <trkpt lat="40.500400" lon="-4.984150">
        <ele>1538.0</ele>
        <time>2015-05-17T11:29:40Z</time>
      </trkpt>
      <trkpt lat="40.500467" lon="-4.984433">
        <ele>1541.0</ele>
        <time>2015-05-17T11:29:42Z</time>
      </trkpt>
      <trkpt lat="40.500450" lon="-4.984717">
        <ele>1545.0</ele>
        <time>2015-05-17T11:29:44Z</time>
      </trkpt>
      <trkpt lat="40.500400" lon="-4.984933">
        <ele>1549.0</ele>
        <time>2015-05-17T11:29:46Z</time>
      </trkpt>
      <trkpt lat="40.500317" lon="-4.985133">
        <ele>1550.0</ele>
        <time>2015-05-17T11:29:48Z</time>
      </trkpt>
      <trkpt lat="40.500200" lon="-4.985367">
        <ele>1548.0</ele>
        <time>2015-05-17T11:29:50Z</time>
      </trkpt>
      <trkpt lat="40.500167" lon="-4.985633">
        <ele>1547.0</ele>
        <time>2015-05-17T11:29:52Z</time>
      </trkpt>
      <trkpt lat="40.500233" lon="-4.985850">
        <ele>1546.0</ele>
        <time>2015-05-17T11:29:54Z</time>
      </trkpt>
      <trkpt lat="40.500350" lon="-4.985933">
        <ele>1546.0</ele>
        <time>2015-05-17T11:29:56Z</time>
      </trkpt>
      <trkpt lat="40.500450" lon="-4.985867">
        <ele>1543.0</ele>
        <time>2015-05-17T11:29:58Z</time>
      </trkpt>
      <trkpt lat="40.500483" lon="-4.985700">
        <ele>1541.0</ele>
        <time>2015-05-17T11:30:00Z</time>
      </trkpt>
      <trkpt lat="40.500467" lon="-4.985533">
        <ele>1541.0</ele>
        <time>2015-05-17T11:30:02Z</time>
      </trkpt>
      <trkpt lat="40.500483" lon="-4.985433">
        <ele>1540.0</ele>
        <time>2015-05-17T11:30:04Z</time>
      </trkpt>
      <trkpt lat="40.500500" lon="-4.985300">
        <ele>1537.0</ele>
        <time>2015-05-17T11:30:06Z</time>
      </trkpt>
      <trkpt lat="40.500533" lon="-4.985117">
        <ele>1531.0</ele>
        <time>2015-05-17T11:30:08Z</time>
      </trkpt>
      <trkpt lat="40.500583" lon="-4.984950">
        <ele>1530.0</ele>
        <time>2015-05-17T11:30:10Z</time>
      </trkpt>
      <trkpt lat="40.500633" lon="-4.984817">
        <ele>1531.0</ele>
        <time>2015-05-17T11:30:12Z</time>
      </trkpt>
      <trkpt lat="40.500717" lon="-4.984700">
        <ele>1529.0</ele>
        <time>2015-05-17T11:30:14Z</time>
      </trkpt>
      <trkpt lat="40.500767" lon="-4.984533">
        <ele>1528.0</ele>
        <time>2015-05-17T11:30:16Z</time>
      </trkpt>
      <trkpt lat="40.500733" lon="-4.984333">
        <ele>1529.0</ele>
        <time>2015-05-17T11:30:18Z</time>
      </trkpt>
      <trkpt lat="40.500667" lon="-4.984167">
        <ele>1532.0</ele>
        <time>2015-05-17T11:30:20Z</time>
      </trkpt>
      <trkpt lat="40.500567" lon="-4.984050">
        <ele>1535.0</ele>
        <time>2015-05-17T11:30:22Z</time>
      </trkpt>
      <trkpt lat="40.500433" lon="-4.983950">
        <ele>1533.0</ele>
        <time>2015-05-17T11:30:24Z</time>
      </trkpt>
      <trkpt lat="40.500250" lon="-4.983867">
        <ele>1529.0</ele>
        <time>2015-05-17T11:30:26Z</time>
      </trkpt>
      <trkpt lat="40.500050" lon="-4.983817">
        <ele>1528.0</ele>
        <time>2015-05-17T11:30:28Z</time>
      </trkpt>
      <trkpt lat="40.499883" lon="-4.983783">
        <ele>1528.0</ele>
        <time>2015-05-17T11:30:30Z</time>
      </trkpt>
      <trkpt lat="40.499717" lon="-4.983700">
        <ele>1527.0</ele>
        <time>2015-05-17T11:30:32Z</time>
      </trkpt>
      <trkpt lat="40.499583" lon="-4.983583">
        <ele>1527.0</ele>
        <time>2015-05-17T11:30:34Z</time>
      </trkpt>
      <trkpt lat="40.499500" lon="-4.983450">
        <ele>1527.0</ele>
        <time>2015-05-17T11:30:36Z</time>
      </trkpt>
      <trkpt lat="40.499483" lon="-4.983283">
        <ele>1525.0</ele>
        <time>2015-05-17T11:30:38Z</time>
      </trkpt>
      <trkpt lat="40.499517" lon="-4.983133">
        <ele>1524.0</ele>
        <time>2015-05-17T11:30:40Z</time>
      </trkpt>
      <trkpt lat="40.499583" lon="-4.983017">
        <ele>1525.0</ele>
        <time>2015-05-17T11:30:42Z</time>
      </trkpt>
      <trkpt lat="40.499683" lon="-4.982917">
        <ele>1524.0</ele>
        <time>2015-05-17T11:30:44Z</time>
      </trkpt>
      <trkpt lat="40.499783" lon="-4.982900">
        <ele>1524.0</ele>
        <time>2015-05-17T11:30:46Z</time>
      </trkpt>
      <trkpt lat="40.499917" lon="-4.982917">
        <ele>1522.0</ele>
        <time>2015-05-17T11:30:48Z</time>
      </trkpt>
      <trkpt lat="40.500033" lon="-4.982967">
        <ele>1520.0</ele>
        <time>2015-05-17T11:30:50Z</time>
      </trkpt>
      <trkpt lat="40.500167" lon="-4.983083">
        <ele>1520.0</ele>
        <time>2015-05-17T11:30:52Z</time>
      </trkpt>
      <trkpt lat="40.500283" lon="-4.983250">
        <ele>1521.0</ele>
        <time>2015-05-17T11:30:54Z</time>
      </trkpt>
      <trkpt lat="40.500383" lon="-4.983400">
        <ele>1526.0</ele>
        <time>2015-05-17T11:30:56Z</time>
      </trkpt>
      <trkpt lat="40.500483" lon="-4.983550">
        <ele>1529.0</ele>
        <time>2015-05-17T11:30:58Z</time>
      </trkpt>
      <trkpt lat="40.500567" lon="-4.983750">
        <ele>1530.0</ele>
        <time>2015-05-17T11:31:00Z</time>
      </trkpt>
      <trkpt lat="40.500633" lon="-4.983983">
        <ele>1533.0</ele>
        <time>2015-05-17T11:31:02Z</time>
      </trkpt>
      <trkpt lat="40.500650" lon="-4.984233">
        <ele>1536.0</ele>
        <time>2015-05-17T11:31:04Z</time>
      </trkpt>
      <trkpt lat="40.500717" lon="-4.984500">
        <ele>1537.0</ele>
        <time>2015-05-17T11:31:06Z</time>
      </trkpt>
      <trkpt lat="40.500850" lon="-4.984683">
        <ele>1540.0</ele>
        <time>2015-05-17T11:31:08Z</time>
      </trkpt>
      <trkpt lat="40.500933" lon="-4.984800">
        <ele>1541.0</ele>
        <time>2015-05-17T11:31:10Z</time>
      </trkpt>
      <trkpt lat="40.501017" lon="-4.984833">
        <ele>1537.0</ele>
        <time>2015-05-17T11:31:12Z</time>
      </trkpt>
      <trkpt lat="40.501100" lon="-4.984733">
        <ele>1529.0</ele>
        <time>2015-05-17T11:31:14Z</time>
      </trkpt>
      <trkpt lat="40.501117" lon="-4.984550">
        <ele>1525.0</ele>
        <time>2015-05-17T11:31:16Z</time>
      </trkpt>
      <trkpt lat="40.501083" lon="-4.984417">
        <ele>1522.0</ele>
        <time>2015-05-17T11:31:18Z</time>
      </trkpt>
      <trkpt lat="40.500983" lon="-4.984233">
        <ele>1514.0</ele>
        <time>2015-05-17T11:31:20Z</time>
      </trkpt>
      <trkpt lat="40.500850" lon="-4.984000">
        <ele>1510.0</ele>
        <time>2015-05-17T11:31:22Z</time>
      </trkpt>
      <trkpt lat="40.500717" lon="-4.983850">
        <ele>1513.0</ele>
        <time>2015-05-17T11:31:24Z</time>
      </trkpt>
      <trkpt lat="40.500550" lon="-4.983683">
        <ele>1517.0</ele>
        <time>2015-05-17T11:31:26Z</time>
      </trkpt>
      <trkpt lat="40.500350" lon="-4.983567">
        <ele>1524.0</ele>
        <time>2015-05-17T11:31:28Z</time>
      </trkpt>
      <trkpt lat="40.500217" lon="-4.983467">
        <ele>1529.0</ele>
        <time>2015-05-17T11:31:30Z</time>
      </trkpt>
      <trkpt lat="40.500150" lon="-4.983333">
        <ele>1530.0</ele>
        <time>2015-05-17T11:31:32Z</time>
      </trkpt>
      <trkpt lat="40.500217" lon="-4.983267">
        <ele>1530.0</ele>
        <time>2015-05-17T11:31:34Z</time>
      </trkpt>
      <trkpt lat="40.500333" lon="-4.983367">
        <ele>1530.0</ele>
        <time>2015-05-17T11:31:36Z</time>
      </trkpt>
      <trkpt lat="40.500417" lon="-4.983517">
        <ele>1536.0</ele>
        <time>2015-05-17T11:31:38Z</time>
      </trkpt>
      <trkpt lat="40.500450" lon="-4.983683">
        <ele>1542.0</ele>
        <time>2015-05-17T11:31:40Z</time>
      </trkpt>
      <trkpt lat="40.500450" lon="-4.983950">
        <ele>1541.0</ele>
        <time>2015-05-17T11:31:42Z</time>
      </trkpt>
      <trkpt lat="40.500467" lon="-4.984233">
        <ele>1545.0</ele>
        <time>2015-05-17T11:31:44Z</time>
      </trkpt>
      <trkpt lat="40.500550" lon="-4.984417">
        <ele>1547.0</ele>
        <time>2015-05-17T11:31:46Z</time>
      </trkpt>
      <trkpt lat="40.500650" lon="-4.984467">
        <ele>1548.0</ele>
        <time>2015-05-17T11:31:48Z</time>
      </trkpt>
      <trkpt lat="40.500667" lon="-4.984350">
        <ele>1547.0</ele>
        <time>2015-05-17T11:31:50Z</time>
      </trkpt>
      <trkpt lat="40.500567" lon="-4.984183">
        <ele>1546.0</ele>
        <time>2015-05-17T11:31:52Z</time>
      </trkpt>
      <trkpt lat="40.500400" lon="-4.984067">
        <ele>1548.0</ele>
        <time>2015-05-17T11:31:54Z</time>
      </trkpt>
      <trkpt lat="40.500167" lon="-4.984017">
        <ele>1554.0</ele>
        <time>2015-05-17T11:31:56Z</time>
      </trkpt>
      <trkpt lat="40.499967" lon="-4.984017">
        <ele>1561.0</ele>
        <time>2015-05-17T11:31:58Z</time>
      </trkpt>
      <trkpt lat="40.499767" lon="-4.984067">
        <ele>1563.0</ele>
        <time>2015-05-17T11:32:00Z</time>
      </trkpt>
      <trkpt lat="40.499583" lon="-4.983983">
        <ele>1564.0</ele>
        <time>2015-05-17T11:32:02Z</time>
      </trkpt>
      <trkpt lat="40.499550" lon="-4.983833">
        <ele>1563.0</ele>
        <time>2015-05-17T11:32:04Z</time>
      </trkpt>
      <trkpt lat="40.499650" lon="-4.983767">
        <ele>1564.0</ele>
        <time>2015-05-17T11:32:06Z</time>
      </trkpt>
      <trkpt lat="40.499717" lon="-4.983783">
        <ele>1567.0</ele>
        <time>2015-05-17T11:32:08Z</time>
      </trkpt>
      <trkpt lat="40.499783" lon="-4.983833">
        <ele>1566.0</ele>
        <time>2015-05-17T11:32:10Z</time>
      </trkpt>
      <trkpt lat="40.499883" lon="-4.983933">
        <ele>1562.0</ele>
        <time>2015-05-17T11:32:12Z</time>
      </trkpt>
      <trkpt lat="40.500000" lon="-4.984033">
        <ele>1561.0</ele>
        <time>2015-05-17T11:32:14Z</time>
      </trkpt>
      <trkpt lat="40.500067" lon="-4.984133">
        <ele>1562.0</ele>
        <time>2015-05-17T11:32:16Z</time>
      </trkpt>
      <trkpt lat="40.500133" lon="-4.984317">
        <ele>1559.0</ele>
        <time>2015-05-17T11:32:18Z</time>
      </trkpt>
      <trkpt lat="40.500200" lon="-4.984583">
        <ele>1559.0</ele>
        <time>2015-05-17T11:32:20Z</time>
      </trkpt>
      <trkpt lat="40.500217" lon="-4.984883">
        <ele>1561.0</ele>
        <time>2015-05-17T11:32:22Z</time>
      </trkpt>
      <trkpt lat="40.500183" lon="-4.985167">
        <ele>1562.0</ele>
        <time>2015-05-17T11:32:24Z</time>
      </trkpt>
      <trkpt lat="40.500183" lon="-4.985467">
        <ele>1562.0</ele>
        <time>2015-05-17T11:32:26Z</time>
      </trkpt>
      <trkpt lat="40.500250" lon="-4.985733">
        <ele>1561.0</ele>
        <time>2015-05-17T11:32:28Z</time>
      </trkpt>
      <trkpt lat="40.500367" lon="-4.985850">
        <ele>1561.0</ele>
        <time>2015-05-17T11:32:30Z</time>
      </trkpt>
      <trkpt lat="40.500467" lon="-4.985900">
        <ele>1561.0</ele>
        <time>2015-05-17T11:32:32Z</time>
      </trkpt>
      <trkpt lat="40.500567" lon="-4.986000">
        <ele>1558.0</ele>
        <time>2015-05-17T11:32:34Z</time>
      </trkpt>
      <trkpt lat="40.500700" lon="-4.986167">
        <ele>1557.0</ele>
        <time>2015-05-17T11:32:36Z</time>
      </trkpt>
      <trkpt lat="40.500800" lon="-4.986333">
        <ele>1557.0</ele>
        <time>2015-05-17T11:32:38Z</time>
      </trkpt>
      <trkpt lat="40.500900" lon="-4.986500">
        <ele>1556.0</ele>
        <time>2015-05-17T11:32:40Z</time>
      </trkpt>
      <trkpt lat="40.501000" lon="-4.986667">
        <ele>1559.0</ele>
        <time>2015-05-17T11:32:42Z</time>
      </trkpt>
      <trkpt lat="40.501083" lon="-4.986817">
        <ele>1560.0</ele>
        <time>2015-05-17T11:32:44Z</time>
      </trkpt>
      <trkpt lat="40.501150" lon="-4.986983">
        <ele>1561.0</ele>
        <time>2015-05-17T11:32:46Z</time>
      </trkpt>
      <trkpt lat="40.501233" lon="-4.987183">
        <ele>1558.0</ele>
        <time>2015-05-17T11:32:48Z</time>
      </trkpt>
      <trkpt lat="40.501333" lon="-4.987367">
        <ele>1558.0</ele>
        <time>2015-05-17T11:32:50Z</time>
      </trkpt>
      <trkpt lat="40.501417" lon="-4.987517">
        <ele>1558.0</ele>
        <time>2015-05-17T11:32:52Z</time>
      </trkpt>
      <trkpt lat="40.501500" lon="-4.987717">
        <ele>1556.0</ele>
        <time>2015-05-17T11:32:54Z</time>
      </trkpt>
      <trkpt lat="40.501583" lon="-4.987983">
        <ele>1556.0</ele>
        <time>2015-05-17T11:32:56Z</time>
      </trkpt>
      <trkpt lat="40.501667" lon="-4.988167">
        <ele>1556.0</ele>
        <time>2015-05-17T11:32:58Z</time>
      </trkpt>
      <trkpt lat="40.501783" lon="-4.988350">
        <ele>1554.0</ele>
        <time>2015-05-17T11:33:00Z</time>
      </trkpt>
      <trkpt lat="40.501933" lon="-4.988500">
        <ele>1555.0</ele>
        <time>2015-05-17T11:33:02Z</time>
      </trkpt>
      <trkpt lat="40.502083" lon="-4.988683">
        <ele>1560.0</ele>
        <time>2015-05-17T11:33:04Z</time>
      </trkpt>
      <trkpt lat="40.502200" lon="-4.988850">
        <ele>1564.0</ele>
        <time>2015-05-17T11:33:06Z</time>
      </trkpt>
      <trkpt lat="40.502300" lon="-4.988917">
        <ele>1565.0</ele>
        <time>2015-05-17T11:33:08Z</time>
      </trkpt>
      <trkpt lat="40.502350" lon="-4.988850">
        <ele>1566.0</ele>
        <time>2015-05-17T11:33:10Z</time>
      </trkpt>
      <trkpt lat="40.502283" lon="-4.988733">
        <ele>1570.0</ele>
        <time>2015-05-17T11:33:12Z</time>
      </trkpt>
      <trkpt lat="40.502150" lon="-4.988667">
        <ele>1573.0</ele>
        <time>2015-05-17T11:33:14Z</time>
      </trkpt>
      <trkpt lat="40.501950" lon="-4.988667">
        <ele>1573.0</ele>
        <time>2015-05-17T11:33:16Z</time>
      </trkpt>
      <trkpt lat="40.501717" lon="-4.988833">
        <ele>1574.0</ele>
        <time>2015-05-17T11:33:18Z</time>
      </trkpt>
      <trkpt lat="40.501550" lon="-4.989100">
        <ele>1580.0</ele>
        <time>2015-05-17T11:33:20Z</time>
      </trkpt>
      <trkpt lat="40.501467" lon="-4.989367">
        <ele>1587.0</ele>
        <time>2015-05-17T11:33:22Z</time>
      </trkpt>
      <trkpt lat="40.501417" lon="-4.989650">
        <ele>1592.0</ele>
        <time>2015-05-17T11:33:24Z</time>
      </trkpt>
      <trkpt lat="40.501433" lon="-4.989950">
        <ele>1597.0</ele>
        <time>2015-05-17T11:33:26Z</time>
      </trkpt>
      <trkpt lat="40.501517" lon="-4.990183">
        <ele>1600.0</ele>
        <time>2015-05-17T11:33:28Z</time>
      </trkpt>
      <trkpt lat="40.501600" lon="-4.990250">
        <ele>1603.0</ele>
        <time>2015-05-17T11:33:30Z</time>
      </trkpt>
      <trkpt lat="40.501683" lon="-4.990183">
        <ele>1604.0</ele>
        <time>2015-05-17T11:33:32Z</time>
      </trkpt>
      <trkpt lat="40.501667" lon="-4.990033">
        <ele>1608.0</ele>
        <time>2015-05-17T11:33:34Z</time>
      </trkpt>
      <trkpt lat="40.501533" lon="-4.989900">
        <ele>1612.0</ele>
        <time>2015-05-17T11:33:36Z</time>
      </trkpt>
      <trkpt lat="40.501350" lon="-4.989900">
        <ele>1617.0</ele>
        <time>2015-05-17T11:33:38Z</time>
      </trkpt>
      <trkpt lat="40.501150" lon="-4.990033">
        <ele>1621.0</ele>
        <time>2015-05-17T11:33:40Z</time>
      </trkpt>
      <trkpt lat="40.500967" lon="-4.990250">
        <ele>1625.0</ele>
        <time>2015-05-17T11:33:42Z</time>
      </trkpt>
      <trkpt lat="40.500833" lon="-4.990533">
        <ele>1631.0</ele>
        <time>2015-05-17T11:33:44Z</time>
      </trkpt>
      <trkpt lat="40.500733" lon="-4.990800">
        <ele>1639.0</ele>
        <time>2015-05-17T11:33:46Z</time>
      </trkpt>
      <trkpt lat="40.500717" lon="-4.991033">
        <ele>1640.0</ele>
        <time>2015-05-17T11:33:48Z</time>
      </trkpt>
      <trkpt lat="40.500783" lon="-4.991250">
        <ele>1638.0</ele>
        <time>2015-05-17T11:33:50Z</time>
      </trkpt>
      <trkpt lat="40.500900" lon="-4.991317">
        <ele>1639.0</ele>
        <time>2015-05-17T11:33:52Z</time>
      </trkpt>
      <trkpt lat="40.500967" lon="-4.991217">
        <ele>1642.0</ele>
        <time>2015-05-17T11:33:54Z</time>
      </trkpt>
      <trkpt lat="40.501000" lon="-4.991133">
        <ele>1649.0</ele>
        <time>2015-05-17T11:33:56Z</time>
      </trkpt>
      <trkpt lat="40.500967" lon="-4.991050">
        <ele>1654.0</ele>
        <time>2015-05-17T11:33:58Z</time>
      </trkpt>
      <trkpt lat="40.500867" lon="-4.990933">
        <ele>1659.0</ele>
        <time>2015-05-17T11:34:00Z</time>
      </trkpt>
      <trkpt lat="40.500683" lon="-4.990933">
        <ele>1666.0</ele>
        <time>2015-05-17T11:34:02Z</time>
      </trkpt>
      <trkpt lat="40.500517" lon="-4.991083">
        <ele>1671.0</ele>
        <time>2015-05-17T11:34:04Z</time>
      </trkpt>
      <trkpt lat="40.500433" lon="-4.991350">
        <ele>1675.0</ele>
        <time>2015-05-17T11:34:06Z</time>
      </trkpt>
      <trkpt lat="40.500467" lon="-4.991650">
        <ele>1679.0</ele>
        <time>2015-05-17T11:34:08Z</time>
      </trkpt>
      <trkpt lat="40.500583" lon="-4.991850">
        <ele>1685.0</ele>
        <time>2015-05-17T11:34:10Z</time>
      </trkpt>
      <trkpt lat="40.500700" lon="-4.991933">
        <ele>1690.0</ele>
        <time>2015-05-17T11:34:12Z</time>
      </trkpt>
      <trkpt lat="40.500767" lon="-4.991917">
        <ele>1696.0</ele>
        <time>2015-05-17T11:34:14Z</time>
      </trkpt>
      <trkpt lat="40.500783" lon="-4.991817">
        <ele>1702.0</ele>
        <time>2015-05-17T11:34:16Z</time>
      </trkpt>
      <trkpt lat="40.500650" lon="-4.991717">
        <ele>1705.0</ele>
        <time>2015-05-17T11:34:18Z</time>
      </trkpt>
      <trkpt lat="40.500450" lon="-4.991717">
        <ele>1714.0</ele>
        <time>2015-05-17T11:34:20Z</time>
      </trkpt>
      <trkpt lat="40.500317" lon="-4.991833">
        <ele>1725.0</ele>
        <time>2015-05-17T11:34:22Z</time>
      </trkpt>
      <trkpt lat="40.500217" lon="-4.992067">
        <ele>1728.0</ele>
        <time>2015-05-17T11:34:24Z</time>
      </trkpt>
      <trkpt lat="40.500133" lon="-4.992367">
        <ele>1732.0</ele>
        <time>2015-05-17T11:34:26Z</time>
      </trkpt>
      <trkpt lat="40.500133" lon="-4.992683">
        <ele>1736.0</ele>
        <time>2015-05-17T11:34:28Z</time>
      </trkpt>
      <trkpt lat="40.500250" lon="-4.992883">
        <ele>1740.0</ele>
        <time>2015-05-17T11:34:30Z</time>
      </trkpt>
      <trkpt lat="40.500367" lon="-4.992950">
        <ele>1745.0</ele>
        <time>2015-05-17T11:34:32Z</time>
      </trkpt>
      <trkpt lat="40.500433" lon="-4.992917">
        <ele>1748.0</ele>
        <time>2015-05-17T11:34:34Z</time>
      </trkpt>
      <trkpt lat="40.500517" lon="-4.992783">
        <ele>1750.0</ele>
        <time>2015-05-17T11:34:36Z</time>
      </trkpt>
      <trkpt lat="40.500500" lon="-4.992667">
        <ele>1758.0</ele>
        <time>2015-05-17T11:34:38Z</time>
      </trkpt>
      <trkpt lat="40.500400" lon="-4.992600">
        <ele>1765.0</ele>
        <time>2015-05-17T11:34:40Z</time>
      </trkpt>
      <trkpt lat="40.500300" lon="-4.992533">
        <ele>1770.0</ele>
        <time>2015-05-17T11:34:42Z</time>
      </trkpt>
      <trkpt lat="40.500167" lon="-4.992583">
        <ele>1773.0</ele>
        <time>2015-05-17T11:34:44Z</time>
      </trkpt>
      <trkpt lat="40.500000" lon="-4.992750">
        <ele>1774.0</ele>
        <time>2015-05-17T11:34:46Z</time>
      </trkpt>
      <trkpt lat="40.499850" lon="-4.993000">
        <ele>1776.0</ele>
        <time>2015-05-17T11:34:48Z</time>
      </trkpt>
      <trkpt lat="40.499783" lon="-4.993350">
        <ele>1777.0</ele>
        <time>2015-05-17T11:34:50Z</time>
      </trkpt>
      <trkpt lat="40.499750" lon="-4.993717">
        <ele>1781.0</ele>
        <time>2015-05-17T11:34:52Z</time>
      </trkpt>
      <trkpt lat="40.499783" lon="-4.994033">
        <ele>1786.0</ele>
        <time>2015-05-17T11:34:54Z</time>
      </trkpt>
      <trkpt lat="40.499850" lon="-4.994267">
        <ele>1790.0</ele>
        <time>2015-05-17T11:34:56Z</time>
      </trkpt>
      <trkpt lat="40.499967" lon="-4.994417">
        <ele>1792.0</ele>
        <time>2015-05-17T11:34:58Z</time>
      </trkpt>
      <trkpt lat="40.500117" lon="-4.994483">
        <ele>1794.0</ele>
        <time>2015-05-17T11:35:00Z</time>
      </trkpt>
      <trkpt lat="40.500233" lon="-4.994533">
        <ele>1800.0</ele>
        <time>2015-05-17T11:35:02Z</time>
      </trkpt>
      <trkpt lat="40.500283" lon="-4.994483">
        <ele>1804.0</ele>
        <time>2015-05-17T11:35:04Z</time>
      </trkpt>
      <trkpt lat="40.500317" lon="-4.994367">
        <ele>1805.0</ele>
        <time>2015-05-17T11:35:06Z</time>
      </trkpt>
      <trkpt lat="40.500283" lon="-4.994217">
        <ele>1808.0</ele>
        <time>2015-05-17T11:35:08Z</time>
      </trkpt>
      <trkpt lat="40.500150" lon="-4.994083">
        <ele>1809.0</ele>
        <time>2015-05-17T11:35:10Z</time>
      </trkpt>
      <trkpt lat="40.499983" lon="-4.994000">
        <ele>1811.0</ele>
        <time>2015-05-17T11:35:12Z</time>
      </trkpt>
      <trkpt lat="40.499783" lon="-4.994017">
        <ele>1814.0</ele>
        <time>2015-05-17T11:35:14Z</time>
      </trkpt>
      <trkpt lat="40.499550" lon="-4.994217">
        <ele>1815.0</ele>
        <time>2015-05-17T11:35:16Z</time>
      </trkpt>
      <trkpt lat="40.499400" lon="-4.994500">
        <ele>1820.0</ele>
        <time>2015-05-17T11:35:18Z</time>
      </trkpt>
      <trkpt lat="40.499317" lon="-4.994783">
        <ele>1823.0</ele>
        <time>2015-05-17T11:35:20Z</time>
      </trkpt>
      <trkpt lat="40.499300" lon="-4.995133">
        <ele>1822.0</ele>
        <time>2015-05-17T11:35:22Z</time>
      </trkpt>
      <trkpt lat="40.499367" lon="-4.995400">
        <ele>1826.0</ele>
        <time>2015-05-17T11:35:24Z</time>
      </trkpt>
      <trkpt lat="40.499450" lon="-4.995583">
        <ele>1830.0</ele>
        <time>2015-05-17T11:35:26Z</time>
      </trkpt>
      <trkpt lat="40.499550" lon="-4.995683">
        <ele>1831.0</ele>
        <time>2015-05-17T11:35:28Z</time>
      </trkpt>
      <trkpt lat="40.499683" lon="-4.995783">
        <ele>1833.0</ele>
        <time>2015-05-17T11:35:30Z</time>
      </trkpt>
      <trkpt lat="40.499783" lon="-4.995850">
        <ele>1838.0</ele>
        <time>2015-05-17T11:35:32Z</time>
      </trkpt>
      <trkpt lat="40.499867" lon="-4.995833">
        <ele>1841.0</ele>
        <time>2015-05-17T11:35:34Z</time>
      </trkpt>
      <trkpt lat="40.499933" lon="-4.995750">
        <ele>1843.0</ele>
        <time>2015-05-17T11:35:36Z</time>
      </trkpt>
      <trkpt lat="40.499950" lon="-4.995583">
        <ele>1845.0</ele>
        <time>2015-05-17T11:35:38Z</time>
      </trkpt>
      <trkpt lat="40.499933" lon="-4.995400">
        <ele>1849.0</ele>
        <time>2015-05-17T11:35:40Z</time>
      </trkpt>
      <trkpt lat="40.499900" lon="-4.995233">
        <ele>1850.0</ele>
        <time>2015-05-17T11:35:42Z</time>
      </trkpt>
      <trkpt lat="40.499817" lon="-4.995083">
        <ele>1850.0</ele>
        <time>2015-05-17T11:35:44Z</time>
      </trkpt>
      <trkpt lat="40.499700" lon="-4.994983">
        <ele>1850.0</ele>
        <time>2015-05-17T11:35:46Z</time>
      </trkpt>
      <trkpt lat="40.499550" lon="-4.994900">
        <ele>1851.0</ele>
        <time>2015-05-17T11:35:48Z</time>
      </trkpt>
      <trkpt lat="40.499383" lon="-4.994833">
        <ele>1854.0</ele>
        <time>2015-05-17T11:35:50Z</time>
      </trkpt>
      <trkpt lat="40.499267" lon="-4.994817">
        <ele>1855.0</ele>
        <time>2015-05-17T11:35:52Z</time>
      </trkpt>
      <trkpt lat="40.499117" lon="-4.994850">
        <ele>1850.0</ele>
        <time>2015-05-17T11:35:54Z</time>
      </trkpt>
      <trkpt lat="40.498933" lon="-4.994950">
        <ele>1845.0</ele>
        <time>2015-05-17T11:35:56Z</time>
      </trkpt>
      <trkpt lat="40.498717" lon="-4.995100">
        <ele>1845.0</ele>
        <time>2015-05-17T11:35:58Z</time>
      </trkpt>
      <trkpt lat="40.498500" lon="-4.995283">
        <ele>1848.0</ele>
        <time>2015-05-17T11:36:00Z</time>
      </trkpt>
      <trkpt lat="40.498317" lon="-4.995483">
        <ele>1853.0</ele>
        <time>2015-05-17T11:36:02Z</time>
      </trkpt>
      <trkpt lat="40.498183" lon="-4.995767">
        <ele>1853.0</ele>
        <time>2015-05-17T11:36:04Z</time>
      </trkpt>
      <trkpt lat="40.498150" lon="-4.996133">
        <ele>1854.0</ele>
        <time>2015-05-17T11:36:06Z</time>
      </trkpt>
      <trkpt lat="40.498167" lon="-4.996467">
        <ele>1859.0</ele>
        <time>2015-05-17T11:36:08Z</time>
      </trkpt>
      <trkpt lat="40.498200" lon="-4.996750">
        <ele>1863.0</ele>
        <time>2015-05-17T11:36:10Z</time>
      </trkpt>
      <trkpt lat="40.498317" lon="-4.996983">
        <ele>1865.0</ele>
        <time>2015-05-17T11:36:12Z</time>
      </trkpt>
      <trkpt lat="40.498433" lon="-4.997133">
        <ele>1870.0</ele>
        <time>2015-05-17T11:36:14Z</time>
      </trkpt>
      <trkpt lat="40.498550" lon="-4.997217">
        <ele>1876.0</ele>
        <time>2015-05-17T11:36:16Z</time>
      </trkpt>
      <trkpt lat="40.498633" lon="-4.997217">
        <ele>1879.0</ele>
        <time>2015-05-17T11:36:18Z</time>
      </trkpt>
      <trkpt lat="40.498700" lon="-4.997133">
        <ele>1879.0</ele>
        <time>2015-05-17T11:36:20Z</time>
      </trkpt>
      <trkpt lat="40.498733" lon="-4.996983">
        <ele>1882.0</ele>
        <time>2015-05-17T11:36:22Z</time>
      </trkpt>
      <trkpt lat="40.498667" lon="-4.996817">
        <ele>1886.0</ele>
        <time>2015-05-17T11:36:24Z</time>
      </trkpt>
      <trkpt lat="40.498533" lon="-4.996683">
        <ele>1888.0</ele>
        <time>2015-05-17T11:36:26Z</time>
      </trkpt>
      <trkpt lat="40.498383" lon="-4.996583">
        <ele>1889.0</ele>
        <time>2015-05-17T11:36:28Z</time>
      </trkpt>
      <trkpt lat="40.498200" lon="-4.996550">
        <ele>1891.0</ele>
        <time>2015-05-17T11:36:30Z</time>
      </trkpt>
      <trkpt lat="40.498000" lon="-4.996583">
        <ele>1894.0</ele>
        <time>2015-05-17T11:36:32Z</time>
      </trkpt>
      <trkpt lat="40.497833" lon="-4.996683">
        <ele>1898.0</ele>
        <time>2015-05-17T11:36:34Z</time>
      </trkpt>
      <trkpt lat="40.497667" lon="-4.996883">
        <ele>1901.0</ele>
        <time>2015-05-17T11:36:36Z</time>
      </trkpt>
      <trkpt lat="40.497517" lon="-4.997183">
        <ele>1903.0</ele>
        <time>2015-05-17T11:36:38Z</time>
      </trkpt>
      <trkpt lat="40.497450" lon="-4.997517">
        <ele>1907.0</ele>
        <time>2015-05-17T11:36:40Z</time>
      </trkpt>
      <trkpt lat="40.497433" lon="-4.997817">
        <ele>1912.0</ele>
        <time>2015-05-17T11:36:42Z</time>
      </trkpt>
      <trkpt lat="40.497483" lon="-4.998100">
        <ele>1916.0</ele>
        <time>2015-05-17T11:36:44Z</time>
      </trkpt>
      <trkpt lat="40.497600" lon="-4.998317">
        <ele>1921.0</ele>
        <time>2015-05-17T11:36:46Z</time>
      </trkpt>
      <trkpt lat="40.497683" lon="-4.998417">
        <ele>1928.0</ele>
        <time>2015-05-17T11:36:48Z</time>
      </trkpt>
      <trkpt lat="40.497750" lon="-4.998467">
        <ele>1931.0</ele>
        <time>2015-05-17T11:36:50Z</time>
      </trkpt>
      <trkpt lat="40.497850" lon="-4.998450">
        <ele>1930.0</ele>
        <time>2015-05-17T11:36:52Z</time>
      </trkpt>
      <trkpt lat="40.497933" lon="-4.998350">
        <ele>1933.0</ele>
        <time>2015-05-17T11:36:54Z</time>
      </trkpt>
      <trkpt lat="40.497967" lon="-4.998250">
        <ele>1936.0</ele>
        <time>2015-05-17T11:36:56Z</time>
      </trkpt>
      <trkpt lat="40.497950" lon="-4.998100">
        <ele>1936.0</ele>
        <time>2015-05-17T11:36:58Z</time>
      </trkpt>
      <trkpt lat="40.497867" lon="-4.997917">
        <ele>1935.0</ele>
        <time>2015-05-17T11:37:00Z</time>
      </trkpt>
      <trkpt lat="40.497767" lon="-4.997800">
        <ele>1936.0</ele>
        <time>2015-05-17T11:37:02Z</time>
      </trkpt>
      <trkpt lat="40.497650" lon="-4.997700">
        <ele>1936.0</ele>
        <time>2015-05-17T11:37:04Z</time>
      </trkpt>
      <trkpt lat="40.497483" lon="-4.997600">
        <ele>1934.0</ele>
        <time>2015-05-17T11:37:06Z</time>
      </trkpt>
      <trkpt lat="40.497300" lon="-4.997567">
        <ele>1936.0</ele>
        <time>2015-05-17T11:37:08Z</time>
      </trkpt>
      <trkpt lat="40.497133" lon="-4.997600">
        <ele>1939.0</ele>
        <time>2015-05-17T11:37:10Z</time>
      </trkpt>
      <trkpt lat="40.496967" lon="-4.997683">
        <ele>1941.0</ele>
        <time>2015-05-17T11:37:12Z</time>
      </trkpt>
      <trkpt lat="40.496800" lon="-4.997867">
        <ele>1941.0</ele>
        <time>2015-05-17T11:37:14Z</time>
      </trkpt>
      <trkpt lat="40.496650" lon="-4.998133">
        <ele>1944.0</ele>
        <time>2015-05-17T11:37:16Z</time>
      </trkpt>
      <trkpt lat="40.496583" lon="-4.998450">
        <ele>1950.0</ele>
        <time>2015-05-17T11:37:18Z</time>
      </trkpt>
      <trkpt lat="40.496550" lon="-4.998750">
        <ele>1955.0</ele>
        <time>2015-05-17T11:37:20Z</time>
      </trkpt>
      <trkpt lat="40.496600" lon="-4.999017">
        <ele>1959.0</ele>
        <time>2015-05-17T11:37:22Z</time>
      </trkpt>
      <trkpt lat="40.496683" lon="-4.999217">
        <ele>1963.0</ele>
        <time>2015-05-17T11:37:24Z</time>
      </trkpt>
      <trkpt lat="40.496767" lon="-4.999350">
        <ele>1966.0</ele>
        <time>2015-05-17T11:37:26Z</time>
      </trkpt>
      <trkpt lat="40.496883" lon="-4.999383">
        <ele>1968.0</ele>
        <time>2015-05-17T11:37:28Z</time>
      </trkpt>
      <trkpt lat="40.497000" lon="-4.999383">
        <ele>1972.0</ele>
        <time>2015-05-17T11:37:30Z</time>
      </trkpt>
      <trkpt lat="40.497050" lon="-4.999317">
        <ele>1974.0</ele>
        <time>2015-05-17T11:37:32Z</time>
      </trkpt>
      <trkpt lat="40.497083" lon="-4.999183">
        <ele>1972.0</ele>
        <time>2015-05-17T11:37:34Z</time>
      </trkpt>
      <trkpt lat="40.497017" lon="-4.998983">
        <ele>1969.0</ele>
        <time>2015-05-17T11:37:36Z</time>
      </trkpt>
      <trkpt lat="40.496817" lon="-4.998850">
        <ele>1967.0</ele>
        <time>2015-05-17T11:37:38Z</time>
      </trkpt>
      <trkpt lat="40.496650" lon="-4.998817">
        <ele>1972.0</ele>
        <time>2015-05-17T11:37:40Z</time>
      </trkpt>
      <trkpt lat="40.496483" lon="-4.998817">
        <ele>1976.0</ele>
        <time>2015-05-17T11:37:42Z</time>
      </trkpt>
      <trkpt lat="40.496267" lon="-4.998867">
        <ele>1979.0</ele>
        <time>2015-05-17T11:37:44Z</time>
      </trkpt>
      <trkpt lat="40.496067" lon="-4.998983">
        <ele>1985.0</ele>
        <time>2015-05-17T11:37:46Z</time>
      </trkpt>
      <trkpt lat="40.495883" lon="-4.999150">
        <ele>1989.0</ele>
        <time>2015-05-17T11:37:48Z</time>
      </trkpt>
      <trkpt lat="40.495700" lon="-4.999383">
        <ele>1993.0</ele>
        <time>2015-05-17T11:37:50Z</time>
      </trkpt>
      <trkpt lat="40.495583" lon="-4.999683">
        <ele>1995.0</ele>
        <time>2015-05-17T11:37:52Z</time>
      </trkpt>
      <trkpt lat="40.495550" lon="-5.000033">
        <ele>1999.0</ele>
        <time>2015-05-17T11:37:54Z</time>
      </trkpt>
      <trkpt lat="40.495550" lon="-5.000333">
        <ele>2005.0</ele>
        <time>2015-05-17T11:37:56Z</time>
      </trkpt>
      <trkpt lat="40.495633" lon="-5.000583">
        <ele>2009.0</ele>
        <time>2015-05-17T11:37:58Z</time>
      </trkpt>
      <trkpt lat="40.495750" lon="-5.000717">
        <ele>2013.0</ele>
        <time>2015-05-17T11:38:00Z</time>
      </trkpt>
      <trkpt lat="40.495850" lon="-5.000783">
        <ele>2015.0</ele>
        <time>2015-05-17T11:38:02Z</time>
      </trkpt>
      <trkpt lat="40.495950" lon="-5.000783">
        <ele>2015.0</ele>
        <time>2015-05-17T11:38:04Z</time>
      </trkpt>
      <trkpt lat="40.496017" lon="-5.000700">
        <ele>2018.0</ele>
        <time>2015-05-17T11:38:06Z</time>
      </trkpt>
      <trkpt lat="40.496017" lon="-5.000600">
        <ele>2019.0</ele>
        <time>2015-05-17T11:38:08Z</time>
      </trkpt>
      <trkpt lat="40.495983" lon="-5.000417">
        <ele>2018.0</ele>
        <time>2015-05-17T11:38:10Z</time>
      </trkpt>
      <trkpt lat="40.495900" lon="-5.000217">
        <ele>2018.0</ele>
        <time>2015-05-17T11:38:12Z</time>
      </trkpt>
      <trkpt lat="40.495783" lon="-5.000083">
        <ele>2018.0</ele>
        <time>2015-05-17T11:38:14Z</time>
      </trkpt>
      <trkpt lat="40.495600" lon="-4.999917">
        <ele>2018.0</ele>
        <time>2015-05-17T11:38:16Z</time>
      </trkpt>
      <trkpt lat="40.495433" lon="-4.999783">
        <ele>2023.0</ele>
        <time>2015-05-17T11:38:18Z</time>
      </trkpt>
      <trkpt lat="40.495300" lon="-4.999767">
        <ele>2025.0</ele>
        <time>2015-05-17T11:38:20Z</time>
      </trkpt>
      <trkpt lat="40.495150" lon="-4.999733">
        <ele>2021.0</ele>
        <time>2015-05-17T11:38:22Z</time>
      </trkpt>
      <trkpt lat="40.494933" lon="-4.999683">
        <ele>2016.0</ele>
        <time>2015-05-17T11:38:24Z</time>
      </trkpt>
      <trkpt lat="40.494717" lon="-4.999783">
        <ele>2014.0</ele>
        <time>2015-05-17T11:38:26Z</time>
      </trkpt>
      <trkpt lat="40.494550" lon="-4.999933">
        <ele>2013.0</ele>
        <time>2015-05-17T11:38:28Z</time>
      </trkpt>
      <trkpt lat="40.494400" lon="-5.000167">
        <ele>2011.0</ele>
        <time>2015-05-17T11:38:30Z</time>
      </trkpt>
      <trkpt lat="40.494317" lon="-5.000467">
        <ele>2009.0</ele>
        <time>2015-05-17T11:38:32Z</time>
      </trkpt>
      <trkpt lat="40.494267" lon="-5.000767">
        <ele>2008.0</ele>
        <time>2015-05-17T11:38:34Z</time>
      </trkpt>
      <trkpt lat="40.494233" lon="-5.001067">
        <ele>2007.0</ele>
        <time>2015-05-17T11:38:36Z</time>
      </trkpt>
      <trkpt lat="40.494267" lon="-5.001417">
        <ele>2007.0</ele>
        <time>2015-05-17T11:38:38Z</time>
      </trkpt>
      <trkpt lat="40.494317" lon="-5.001700">
        <ele>2011.0</ele>
        <time>2015-05-17T11:38:40Z</time>
      </trkpt>
      <trkpt lat="40.494383" lon="-5.001933">
        <ele>2015.0</ele>
        <time>2015-05-17T11:38:42Z</time>
      </trkpt>
      <trkpt lat="40.494467" lon="-5.002133">
        <ele>2016.0</ele>
        <time>2015-05-17T11:38:44Z</time>
      </trkpt>
      <trkpt lat="40.494567" lon="-5.002300">
        <ele>2018.0</ele>
        <time>2015-05-17T11:38:46Z</time>
      </trkpt>
      <trkpt lat="40.494683" lon="-5.002383">
        <ele>2020.0</ele>
        <time>2015-05-17T11:38:48Z</time>
      </trkpt>
      <trkpt lat="40.494717" lon="-5.002417">
        <ele>2023.0</ele>
        <time>2015-05-17T11:38:50Z</time>
      </trkpt>
      <trkpt lat="40.494800" lon="-5.002433">
        <ele>2023.0</ele>
        <time>2015-05-17T11:38:52Z</time>
      </trkpt>
      <trkpt lat="40.494900" lon="-5.002417">
        <ele>2023.0</ele>
        <time>2015-05-17T11:38:54Z</time>
      </trkpt>
      <trkpt lat="40.494983" lon="-5.002317">
        <ele>2024.0</ele>
        <time>2015-05-17T11:38:56Z</time>
      </trkpt>
      <trkpt lat="40.495017" lon="-5.002217">
        <ele>2023.0</ele>
        <time>2015-05-17T11:38:58Z</time>
      </trkpt>
      <trkpt lat="40.495067" lon="-5.002083">
        <ele>2021.0</ele>
        <time>2015-05-17T11:39:00Z</time>
      </trkpt>
      <trkpt lat="40.495083" lon="-5.001933">
        <ele>2021.0</ele>
        <time>2015-05-17T11:39:02Z</time>
      </trkpt>
      <trkpt lat="40.495033" lon="-5.001767">
        <ele>2018.0</ele>
        <time>2015-05-17T11:39:04Z</time>
      </trkpt>
      <trkpt lat="40.495000" lon="-5.001567">
        <ele>2016.0</ele>
        <time>2015-05-17T11:39:06Z</time>
      </trkpt>
      <trkpt lat="40.494983" lon="-5.001383">
        <ele>2016.0</ele>
        <time>2015-05-17T11:39:08Z</time>
      </trkpt>
      <trkpt lat="40.494967" lon="-5.001200">
        <ele>2018.0</ele>
        <time>2015-05-17T11:39:10Z</time>
      </trkpt>
      <trkpt lat="40.494967" lon="-5.001017">
        <ele>2020.0</ele>
        <time>2015-05-17T11:39:12Z</time>
      </trkpt>
      <trkpt lat="40.495000" lon="-5.000850">
        <ele>2022.0</ele>
        <time>2015-05-17T11:39:14Z</time>
      </trkpt>
      <trkpt lat="40.495000" lon="-5.000700">
        <ele>2023.0</ele>
        <time>2015-05-17T11:39:16Z</time>
      </trkpt>
      <trkpt lat="40.494983" lon="-5.000533">
        <ele>2020.0</ele>
        <time>2015-05-17T11:39:18Z</time>
      </trkpt>
      <trkpt lat="40.494933" lon="-5.000350">
        <ele>2017.0</ele>
        <time>2015-05-17T11:39:20Z</time>
      </trkpt>
      <trkpt lat="40.494917" lon="-5.000183">
        <ele>2017.0</ele>
        <time>2015-05-17T11:39:22Z</time>
      </trkpt>
      <trkpt lat="40.494950" lon="-5.000050">
        <ele>2015.0</ele>
        <time>2015-05-17T11:39:24Z</time>
      </trkpt>
      <trkpt lat="40.495067" lon="-4.999950">
        <ele>2010.0</ele>
        <time>2015-05-17T11:39:26Z</time>
      </trkpt>
      <trkpt lat="40.495217" lon="-4.999967">
        <ele>2007.0</ele>
        <time>2015-05-17T11:39:28Z</time>
      </trkpt>
      <trkpt lat="40.495333" lon="-5.000067">
        <ele>2006.0</ele>
        <time>2015-05-17T11:39:30Z</time>
      </trkpt>
      <trkpt lat="40.495450" lon="-5.000200">
        <ele>2003.0</ele>
        <time>2015-05-17T11:39:32Z</time>
      </trkpt>
      <trkpt lat="40.495550" lon="-5.000400">
        <ele>1997.0</ele>
        <time>2015-05-17T11:39:34Z</time>
      </trkpt>
      <trkpt lat="40.495650" lon="-5.000617">
        <ele>1994.0</ele>
        <time>2015-05-17T11:39:36Z</time>
      </trkpt>
      <trkpt lat="40.495733" lon="-5.000833">
        <ele>1991.0</ele>
        <time>2015-05-17T11:39:38Z</time>
      </trkpt>
      <trkpt lat="40.495817" lon="-5.001067">
        <ele>1985.0</ele>
        <time>2015-05-17T11:39:40Z</time>
      </trkpt>
      <trkpt lat="40.495933" lon="-5.001317">
        <ele>1981.0</ele>
        <time>2015-05-17T11:39:42Z</time>
      </trkpt>
      <trkpt lat="40.496033" lon="-5.001550">
        <ele>1980.0</ele>
        <time>2015-05-17T11:39:44Z</time>
      </trkpt>
      <trkpt lat="40.496117" lon="-5.001767">
        <ele>1979.0</ele>
        <time>2015-05-17T11:39:46Z</time>
      </trkpt>
      <trkpt lat="40.496200" lon="-5.002000">
        <ele>1976.0</ele>
        <time>2015-05-17T11:39:48Z</time>
      </trkpt>
      <trkpt lat="40.496333" lon="-5.002217">
        <ele>1972.0</ele>
        <time>2015-05-17T11:39:50Z</time>
      </trkpt>
      <trkpt lat="40.496433" lon="-5.002417">
        <ele>1972.0</ele>
        <time>2015-05-17T11:39:52Z</time>
      </trkpt>
      <trkpt lat="40.496533" lon="-5.002617">
        <ele>1971.0</ele>
        <time>2015-05-17T11:39:54Z</time>
      </trkpt>
      <trkpt lat="40.496667" lon="-5.002800">
        <ele>1968.0</ele>
        <time>2015-05-17T11:39:56Z</time>
      </trkpt>
      <trkpt lat="40.496750" lon="-5.003000">
        <ele>1967.0</ele>
        <time>2015-05-17T11:39:58Z</time>
      </trkpt>
      <trkpt lat="40.496817" lon="-5.003183">
        <ele>1964.0</ele>
        <time>2015-05-17T11:40:00Z</time>
      </trkpt>
      <trkpt lat="40.496883" lon="-5.003400">
        <ele>1958.0</ele>
        <time>2015-05-17T11:40:02Z</time>
      </trkpt>
      <trkpt lat="40.496950" lon="-5.003633">
        <ele>1953.0</ele>
        <time>2015-05-17T11:40:04Z</time>
      </trkpt>
      <trkpt lat="40.497017" lon="-5.003833">
        <ele>1949.0</ele>
        <time>2015-05-17T11:40:06Z</time>
      </trkpt>
      <trkpt lat="40.497100" lon="-5.004033">
        <ele>1943.0</ele>
        <time>2015-05-17T11:40:08Z</time>
      </trkpt>
      <trkpt lat="40.497183" lon="-5.004217">
        <ele>1937.0</ele>
        <time>2015-05-17T11:40:10Z</time>
      </trkpt>
      <trkpt lat="40.497267" lon="-5.004417">
        <ele>1928.0</ele>
        <time>2015-05-17T11:40:12Z</time>
      </trkpt>
      <trkpt lat="40.497333" lon="-5.004667">
        <ele>1920.0</ele>
        <time>2015-05-17T11:40:14Z</time>
      </trkpt>
      <trkpt lat="40.497283" lon="-5.004950">
        <ele>1914.0</ele>
        <time>2015-05-17T11:40:16Z</time>
      </trkpt>
      <trkpt lat="40.497100" lon="-5.005133">
        <ele>1909.0</ele>
        <time>2015-05-17T11:40:18Z</time>
      </trkpt>
      <trkpt lat="40.496900" lon="-5.005267">
        <ele>1907.0</ele>
        <time>2015-05-17T11:40:20Z</time>
      </trkpt>
      <trkpt lat="40.496733" lon="-5.005467">
        <ele>1903.0</ele>
        <time>2015-05-17T11:40:22Z</time>
      </trkpt>
      <trkpt lat="40.496567" lon="-5.005717">
        <ele>1899.0</ele>
        <time>2015-05-17T11:40:24Z</time>
      </trkpt>
      <trkpt lat="40.496417" lon="-5.006000">
        <ele>1899.0</ele>
        <time>2015-05-17T11:40:26Z</time>
      </trkpt>
      <trkpt lat="40.496367" lon="-5.006283">
        <ele>1902.0</ele>
        <time>2015-05-17T11:40:28Z</time>
      </trkpt>
      <trkpt lat="40.496350" lon="-5.006533">
        <ele>1904.0</ele>
        <time>2015-05-17T11:40:30Z</time>
      </trkpt>
      <trkpt lat="40.496417" lon="-5.006783">
        <ele>1907.0</ele>
        <time>2015-05-17T11:40:32Z</time>
      </trkpt>
      <trkpt lat="40.496483" lon="-5.006950">
        <ele>1911.0</ele>
        <time>2015-05-17T11:40:34Z</time>
      </trkpt>
      <trkpt lat="40.496567" lon="-5.007067">
        <ele>1915.0</ele>
        <time>2015-05-17T11:40:36Z</time>
      </trkpt>
      <trkpt lat="40.496667" lon="-5.007167">
        <ele>1914.0</ele>
        <time>2015-05-17T11:40:38Z</time>
      </trkpt>
      <trkpt lat="40.496800" lon="-5.007267">
        <ele>1913.0</ele>
        <time>2015-05-17T11:40:40Z</time>
      </trkpt>
      <trkpt lat="40.496917" lon="-5.007417">
        <ele>1912.0</ele>
        <time>2015-05-17T11:40:42Z</time>
      </trkpt>
      <trkpt lat="40.497033" lon="-5.007550">
        <ele>1911.0</ele>
        <time>2015-05-17T11:40:44Z</time>
      </trkpt>
      <trkpt lat="40.497150" lon="-5.007633">
        <ele>1909.0</ele>
        <time>2015-05-17T11:40:46Z</time>
      </trkpt>
      <trkpt lat="40.497283" lon="-5.007683">
        <ele>1908.0</ele>
        <time>2015-05-17T11:40:48Z</time>
      </trkpt>
      <trkpt lat="40.497417" lon="-5.007783">
        <ele>1907.0</ele>
        <time>2015-05-17T11:40:50Z</time>
      </trkpt>
      <trkpt lat="40.497533" lon="-5.007900">
        <ele>1905.0</ele>
        <time>2015-05-17T11:40:52Z</time>
      </trkpt>
      <trkpt lat="40.497650" lon="-5.008067">
        <ele>1902.0</ele>
        <time>2015-05-17T11:40:54Z</time>
      </trkpt>
      <trkpt lat="40.497767" lon="-5.008250">
        <ele>1900.0</ele>
        <time>2015-05-17T11:40:56Z</time>
      </trkpt>
      <trkpt lat="40.497867" lon="-5.008400">
        <ele>1898.0</ele>
        <time>2015-05-17T11:40:58Z</time>
      </trkpt>
      <trkpt lat="40.497983" lon="-5.008500">
        <ele>1891.0</ele>
        <time>2015-05-17T11:41:00Z</time>
      </trkpt>
      <trkpt lat="40.498117" lon="-5.008600">
        <ele>1884.0</ele>
        <time>2015-05-17T11:41:02Z</time>
      </trkpt>
      <trkpt lat="40.498233" lon="-5.008683">
        <ele>1880.0</ele>
        <time>2015-05-17T11:41:04Z</time>
      </trkpt>
      <trkpt lat="40.498333" lon="-5.008767">
        <ele>1876.0</ele>
        <time>2015-05-17T11:41:06Z</time>
      </trkpt>
      <trkpt lat="40.498433" lon="-5.008850">
        <ele>1872.0</ele>
        <time>2015-05-17T11:41:08Z</time>
      </trkpt>
      <trkpt lat="40.498550" lon="-5.008950">
        <ele>1866.0</ele>
        <time>2015-05-17T11:41:10Z</time>
      </trkpt>
      <trkpt lat="40.498667" lon="-5.009067">
        <ele>1860.0</ele>
        <time>2015-05-17T11:41:12Z</time>
      </trkpt>
      <trkpt lat="40.498750" lon="-5.009200">
        <ele>1856.0</ele>
        <time>2015-05-17T11:41:14Z</time>
      </trkpt>
      <trkpt lat="40.498817" lon="-5.009300">
        <ele>1854.0</ele>
        <time>2015-05-17T11:41:16Z</time>
      </trkpt>
      <trkpt lat="40.498917" lon="-5.009433">
        <ele>1847.0</ele>
        <time>2015-05-17T11:41:18Z</time>
      </trkpt>
      <trkpt lat="40.499033" lon="-5.009550">
        <ele>1844.0</ele>
        <time>2015-05-17T11:41:20Z</time>
      </trkpt>
      <trkpt lat="40.499100" lon="-5.009700">
        <ele>1839.0</ele>
        <time>2015-05-17T11:41:22Z</time>
      </trkpt>
      <trkpt lat="40.499217" lon="-5.009867">
        <ele>1830.0</ele>
        <time>2015-05-17T11:41:24Z</time>
      </trkpt>
      <trkpt lat="40.499317" lon="-5.010000">
        <ele>1826.0</ele>
        <time>2015-05-17T11:41:26Z</time>
      </trkpt>
      <trkpt lat="40.499400" lon="-5.010100">
        <ele>1824.0</ele>
        <time>2015-05-17T11:41:28Z</time>
      </trkpt>
      <trkpt lat="40.499500" lon="-5.010200">
        <ele>1820.0</ele>
        <time>2015-05-17T11:41:30Z</time>
      </trkpt>
      <trkpt lat="40.499633" lon="-5.010333">
        <ele>1814.0</ele>
        <time>2015-05-17T11:41:32Z</time>
      </trkpt>
      <trkpt lat="40.499733" lon="-5.010450">
        <ele>1813.0</ele>
        <time>2015-05-17T11:41:34Z</time>
      </trkpt>
      <trkpt lat="40.499833" lon="-5.010533">
        <ele>1811.0</ele>
        <time>2015-05-17T11:41:36Z</time>
      </trkpt>
      <trkpt lat="40.499950" lon="-5.010600">
        <ele>1806.0</ele>
        <time>2015-05-17T11:41:38Z</time>
      </trkpt>
      <trkpt lat="40.500083" lon="-5.010667">
        <ele>1801.0</ele>
        <time>2015-05-17T11:41:40Z</time>
      </trkpt>
      <trkpt lat="40.500200" lon="-5.010717">
        <ele>1799.0</ele>
        <time>2015-05-17T11:41:42Z</time>
      </trkpt>
      <trkpt lat="40.500283" lon="-5.010767">
        <ele>1799.0</ele>
        <time>2015-05-17T11:41:44Z</time>
      </trkpt>
      <trkpt lat="40.500383" lon="-5.010817">
        <ele>1796.0</ele>
        <time>2015-05-17T11:41:46Z</time>
      </trkpt>
      <trkpt lat="40.500517" lon="-5.010850">
        <ele>1791.0</ele>
        <time>2015-05-17T11:41:48Z</time>
      </trkpt>
      <trkpt lat="40.500617" lon="-5.010933">
        <ele>1790.0</ele>
        <time>2015-05-17T11:41:50Z</time>
      </trkpt>
      <trkpt lat="40.500700" lon="-5.011017">
        <ele>1791.0</ele>
        <time>2015-05-17T11:41:52Z</time>
      </trkpt>
      <trkpt lat="40.500767" lon="-5.011083">
        <ele>1791.0</ele>
        <time>2015-05-17T11:41:54Z</time>
      </trkpt>
      <trkpt lat="40.500850" lon="-5.011167">
        <ele>1791.0</ele>
        <time>2015-05-17T11:41:56Z</time>
      </trkpt>
      <trkpt lat="40.500933" lon="-5.011250">
        <ele>1788.0</ele>
        <time>2015-05-17T11:41:58Z</time>
      </trkpt>
      <trkpt lat="40.501050" lon="-5.011317">
        <ele>1784.0</ele>
        <time>2015-05-17T11:42:00Z</time>
      </trkpt>
      <trkpt lat="40.501233" lon="-5.011367">
        <ele>1779.0</ele>
        <time>2015-05-17T11:42:02Z</time>
      </trkpt>
      <trkpt lat="40.501350" lon="-5.011433">
        <ele>1774.0</ele>
        <time>2015-05-17T11:42:04Z</time>
      </trkpt>
      <trkpt lat="40.501400" lon="-5.011467">
        <ele>1769.0</ele>
        <time>2015-05-17T11:42:06Z</time>
      </trkpt>
      <trkpt lat="40.501500" lon="-5.011517">
        <ele>1762.0</ele>
        <time>2015-05-17T11:42:08Z</time>
      </trkpt>
      <trkpt lat="40.501583" lon="-5.011567">
        <ele>1759.0</ele>
        <time>2015-05-17T11:42:10Z</time>
      </trkpt>
      <trkpt lat="40.501650" lon="-5.011600">
        <ele>1754.0</ele>
        <time>2015-05-17T11:42:12Z</time>
      </trkpt>
      <trkpt lat="40.501733" lon="-5.011633">
        <ele>1749.0</ele>
        <time>2015-05-17T11:42:14Z</time>
      </trkpt>
      <trkpt lat="40.501817" lon="-5.011650">
        <ele>1743.0</ele>
        <time>2015-05-17T11:42:16Z</time>
      </trkpt>
      <trkpt lat="40.501900" lon="-5.011700">
        <ele>1739.0</ele>
        <time>2015-05-17T11:42:18Z</time>
      </trkpt>
      <trkpt lat="40.501983" lon="-5.011750">
        <ele>1736.0</ele>
        <time>2015-05-17T11:42:20Z</time>
      </trkpt>
      <trkpt lat="40.502067" lon="-5.011817">
        <ele>1732.0</ele>
        <time>2015-05-17T11:42:22Z</time>
      </trkpt>
      <trkpt lat="40.502183" lon="-5.011883">
        <ele>1729.0</ele>
        <time>2015-05-17T11:42:24Z</time>
      </trkpt>
      <trkpt lat="40.502250" lon="-5.011933">
        <ele>1732.0</ele>
        <time>2015-05-17T11:42:26Z</time>
      </trkpt>
      <trkpt lat="40.502333" lon="-5.011983">
        <ele>1733.0</ele>
        <time>2015-05-17T11:42:28Z</time>
      </trkpt>
      <trkpt lat="40.502450" lon="-5.012000">
        <ele>1732.0</ele>
        <time>2015-05-17T11:42:30Z</time>
      </trkpt>
      <trkpt lat="40.502550" lon="-5.012017">
        <ele>1734.0</ele>
        <time>2015-05-17T11:42:32Z</time>
      </trkpt>
      <trkpt lat="40.502667" lon="-5.012017">
        <ele>1738.0</ele>
        <time>2015-05-17T11:42:34Z</time>
      </trkpt>
      <trkpt lat="40.502783" lon="-5.012017">
        <ele>1739.0</ele>
        <time>2015-05-17T11:42:36Z</time>
      </trkpt>
      <trkpt lat="40.502900" lon="-5.012000">
        <ele>1742.0</ele>
        <time>2015-05-17T11:42:38Z</time>
      </trkpt>
      <trkpt lat="40.503017" lon="-5.012017">
        <ele>1745.0</ele>
        <time>2015-05-17T11:42:40Z</time>
      </trkpt>
      <trkpt lat="40.503133" lon="-5.012000">
        <ele>1747.0</ele>
        <time>2015-05-17T11:42:42Z</time>
      </trkpt>
      <trkpt lat="40.503250" lon="-5.011967">
        <ele>1749.0</ele>
        <time>2015-05-17T11:42:44Z</time>
      </trkpt>
      <trkpt lat="40.503350" lon="-5.011933">
        <ele>1754.0</ele>
        <time>2015-05-17T11:42:46Z</time>
      </trkpt>
      <trkpt lat="40.503450" lon="-5.011917">
        <ele>1759.0</ele>
        <time>2015-05-17T11:42:48Z</time>
      </trkpt>
      <trkpt lat="40.503533" lon="-5.011933">
        <ele>1764.0</ele>
        <time>2015-05-17T11:42:50Z</time>
      </trkpt>
      <trkpt lat="40.503650" lon="-5.011967">
        <ele>1766.0</ele>
        <time>2015-05-17T11:42:52Z</time>
      </trkpt>
      <trkpt lat="40.503817" lon="-5.012000">
        <ele>1767.0</ele>
        <time>2015-05-17T11:42:54Z</time>
      </trkpt>
      <trkpt lat="40.503950" lon="-5.012017">
        <ele>1772.0</ele>
        <time>2015-05-17T11:42:56Z</time>
      </trkpt>
      <trkpt lat="40.504083" lon="-5.012050">
        <ele>1776.0</ele>
        <time>2015-05-17T11:42:58Z</time>
      </trkpt>
      <trkpt lat="40.504233" lon="-5.012117">
        <ele>1781.0</ele>
        <time>2015-05-17T11:43:00Z</time>
      </trkpt>
      <trkpt lat="40.504317" lon="-5.012183">
        <ele>1790.0</ele>
        <time>2015-05-17T11:43:02Z</time>
      </trkpt>
      <trkpt lat="40.504400" lon="-5.012250">
        <ele>1793.0</ele>
        <time>2015-05-17T11:43:04Z</time>
      </trkpt>
      <trkpt lat="40.504517" lon="-5.012367">
        <ele>1792.0</ele>
        <time>2015-05-17T11:43:06Z</time>
      </trkpt>
      <trkpt lat="40.504633" lon="-5.012550">
        <ele>1791.0</ele>
        <time>2015-05-17T11:43:08Z</time>
      </trkpt>
      <trkpt lat="40.504717" lon="-5.012667">
        <ele>1798.0</ele>
        <time>2015-05-17T11:43:10Z</time>
      </trkpt>
      <trkpt lat="40.504800" lon="-5.012683">
        <ele>1801.0</ele>
        <time>2015-05-17T11:43:12Z</time>
      </trkpt>
      <trkpt lat="40.504900" lon="-5.012650">
        <ele>1803.0</ele>
        <time>2015-05-17T11:43:14Z</time>
      </trkpt>
      <trkpt lat="40.504967" lon="-5.012583">
        <ele>1806.0</ele>
        <time>2015-05-17T11:43:16Z</time>
      </trkpt>
      <trkpt lat="40.505017" lon="-5.012450">
        <ele>1806.0</ele>
        <time>2015-05-17T11:43:18Z</time>
      </trkpt>
      <trkpt lat="40.505100" lon="-5.012333">
        <ele>1805.0</ele>
        <time>2015-05-17T11:43:20Z</time>
      </trkpt>
      <trkpt lat="40.505150" lon="-5.012283">
        <ele>1806.0</ele>
        <time>2015-05-17T11:43:22Z</time>
      </trkpt>
      <trkpt lat="40.505233" lon="-5.012283">
        <ele>1804.0</ele>
        <time>2015-05-17T11:43:24Z</time>
      </trkpt>
      <trkpt lat="40.505400" lon="-5.012283">
        <ele>1799.0</ele>
        <time>2015-05-17T11:43:26Z</time>
      </trkpt>
      <trkpt lat="40.505567" lon="-5.012367">
        <ele>1800.0</ele>
        <time>2015-05-17T11:43:28Z</time>
      </trkpt>
      <trkpt lat="40.505667" lon="-5.012467">
        <ele>1802.0</ele>
        <time>2015-05-17T11:43:30Z</time>
      </trkpt>
      <trkpt lat="40.505817" lon="-5.012567">
        <ele>1798.0</ele>
        <time>2015-05-17T11:43:32Z</time>
      </trkpt>
      <trkpt lat="40.505967" lon="-5.012650">
        <ele>1794.0</ele>
        <time>2015-05-17T11:43:34Z</time>
      </trkpt>
      <trkpt lat="40.506050" lon="-5.012783">
        <ele>1794.0</ele>
        <time>2015-05-17T11:43:36Z</time>
      </trkpt>
      <trkpt lat="40.506133" lon="-5.012967">
        <ele>1789.0</ele>
        <time>2015-05-17T11:43:38Z</time>
      </trkpt>
      <trkpt lat="40.506250" lon="-5.013117">
        <ele>1784.0</ele>
        <time>2015-05-17T11:43:40Z</time>
      </trkpt>
      <trkpt lat="40.506333" lon="-5.013217">
        <ele>1779.0</ele>
        <time>2015-05-17T11:43:42Z</time>
      </trkpt>
      <trkpt lat="40.506400" lon="-5.013417">
        <ele>1774.0</ele>
        <time>2015-05-17T11:43:44Z</time>
      </trkpt>
      <trkpt lat="40.506500" lon="-5.013600">
        <ele>1766.0</ele>
        <time>2015-05-17T11:43:46Z</time>
      </trkpt>
      <trkpt lat="40.506617" lon="-5.013717">
        <ele>1762.0</ele>
        <time>2015-05-17T11:43:48Z</time>
      </trkpt>
      <trkpt lat="40.506750" lon="-5.013817">
        <ele>1759.0</ele>
        <time>2015-05-17T11:43:50Z</time>
      </trkpt>
      <trkpt lat="40.506883" lon="-5.013867">
        <ele>1756.0</ele>
        <time>2015-05-17T11:43:52Z</time>
      </trkpt>
      <trkpt lat="40.507017" lon="-5.013917">
        <ele>1754.0</ele>
        <time>2015-05-17T11:43:54Z</time>
      </trkpt>
      <trkpt lat="40.507150" lon="-5.013983">
        <ele>1752.0</ele>
        <time>2015-05-17T11:43:56Z</time>
      </trkpt>
      <trkpt lat="40.507283" lon="-5.014017">
        <ele>1749.0</ele>
        <time>2015-05-17T11:43:58Z</time>
      </trkpt>
      <trkpt lat="40.507433" lon="-5.014050">
        <ele>1746.0</ele>
        <time>2015-05-17T11:44:00Z</time>
      </trkpt>
      <trkpt lat="40.507567" lon="-5.014083">
        <ele>1743.0</ele>
        <time>2015-05-17T11:44:02Z</time>
      </trkpt>
      <trkpt lat="40.507717" lon="-5.014100">
        <ele>1740.0</ele>
        <time>2015-05-17T11:44:04Z</time>
      </trkpt>
      <trkpt lat="40.507850" lon="-5.014133">
        <ele>1736.0</ele>
        <time>2015-05-17T11:44:06Z</time>
      </trkpt>
      <trkpt lat="40.508017" lon="-5.014150">
        <ele>1733.0</ele>
        <time>2015-05-17T11:44:08Z</time>
      </trkpt>
      <trkpt lat="40.508167" lon="-5.014167">
        <ele>1731.0</ele>
        <time>2015-05-17T11:44:10Z</time>
      </trkpt>
      <trkpt lat="40.508317" lon="-5.014183">
        <ele>1730.0</ele>
        <time>2015-05-17T11:44:12Z</time>
      </trkpt>
      <trkpt lat="40.508467" lon="-5.014217">
        <ele>1729.0</ele>
        <time>2015-05-17T11:44:14Z</time>
      </trkpt>
      <trkpt lat="40.508600" lon="-5.014283">
        <ele>1729.0</ele>
        <time>2015-05-17T11:44:16Z</time>
      </trkpt>
      <trkpt lat="40.508733" lon="-5.014333">
        <ele>1729.0</ele>
        <time>2015-05-17T11:44:18Z</time>
      </trkpt>
      <trkpt lat="40.508867" lon="-5.014367">
        <ele>1728.0</ele>
        <time>2015-05-17T11:44:20Z</time>
      </trkpt>
      <trkpt lat="40.509017" lon="-5.014433">
        <ele>1727.0</ele>
        <time>2015-05-17T11:44:22Z</time>
      </trkpt>
      <trkpt lat="40.509100" lon="-5.014500">
        <ele>1729.0</ele>
        <time>2015-05-17T11:44:24Z</time>
      </trkpt>
      <trkpt lat="40.509217" lon="-5.014600">
        <ele>1727.0</ele>
        <time>2015-05-17T11:44:26Z</time>
      </trkpt>
      <trkpt lat="40.509317" lon="-5.014683">
        <ele>1725.0</ele>
        <time>2015-05-17T11:44:28Z</time>
      </trkpt>
      <trkpt lat="40.509417" lon="-5.014733">
        <ele>1725.0</ele>
        <time>2015-05-17T11:44:30Z</time>
      </trkpt>
      <trkpt lat="40.509533" lon="-5.014800">
        <ele>1721.0</ele>
        <time>2015-05-17T11:44:32Z</time>
      </trkpt>
      <trkpt lat="40.509650" lon="-5.014850">
        <ele>1718.0</ele>
        <time>2015-05-17T11:44:34Z</time>
      </trkpt>
      <trkpt lat="40.509750" lon="-5.014917">
        <ele>1718.0</ele>
        <time>2015-05-17T11:44:36Z</time>
      </trkpt>
      <trkpt lat="40.509850" lon="-5.015000">
        <ele>1716.0</ele>
        <time>2015-05-17T11:44:38Z</time>
      </trkpt>
      <trkpt lat="40.509967" lon="-5.015117">
        <ele>1714.0</ele>
        <time>2015-05-17T11:44:40Z</time>
      </trkpt>
      <trkpt lat="40.510100" lon="-5.015200">
        <ele>1713.0</ele>
        <time>2015-05-17T11:44:42Z</time>
      </trkpt>
      <trkpt lat="40.510200" lon="-5.015300">
        <ele>1714.0</ele>
        <time>2015-05-17T11:44:44Z</time>
      </trkpt>
      <trkpt lat="40.510317" lon="-5.015417">
        <ele>1712.0</ele>
        <time>2015-05-17T11:44:46Z</time>
      </trkpt>
      <trkpt lat="40.510433" lon="-5.015517">
        <ele>1708.0</ele>
        <time>2015-05-17T11:44:48Z</time>
      </trkpt>
      <trkpt lat="40.510567" lon="-5.015600">
        <ele>1704.0</ele>
        <time>2015-05-17T11:44:50Z</time>
      </trkpt>
      <trkpt lat="40.510683" lon="-5.015683">
        <ele>1702.0</ele>
        <time>2015-05-17T11:44:52Z</time>
      </trkpt>
      <trkpt lat="40.510783" lon="-5.015750">
        <ele>1700.0</ele>
        <time>2015-05-17T11:44:54Z</time>
      </trkpt>
      <trkpt lat="40.510917" lon="-5.015817">
        <ele>1694.0</ele>
        <time>2015-05-17T11:44:56Z</time>
      </trkpt>
      <trkpt lat="40.511067" lon="-5.015833">
        <ele>1687.0</ele>
        <time>2015-05-17T11:44:58Z</time>
      </trkpt>
      <trkpt lat="40.511167" lon="-5.015833">
        <ele>1684.0</ele>
        <time>2015-05-17T11:45:00Z</time>
      </trkpt>
      <trkpt lat="40.511300" lon="-5.015833">
        <ele>1680.0</ele>
        <time>2015-05-17T11:45:02Z</time>
      </trkpt>
      <trkpt lat="40.511450" lon="-5.015883">
        <ele>1676.0</ele>
        <time>2015-05-17T11:45:04Z</time>
      </trkpt>
      <trkpt lat="40.511567" lon="-5.015900">
        <ele>1676.0</ele>
        <time>2015-05-17T11:45:06Z</time>
      </trkpt>
      <trkpt lat="40.511667" lon="-5.015900">
        <ele>1673.0</ele>
        <time>2015-05-17T11:45:08Z</time>
      </trkpt>
      <trkpt lat="40.511783" lon="-5.015883">
        <ele>1668.0</ele>
        <time>2015-05-17T11:45:10Z</time>
      </trkpt>
      <trkpt lat="40.511883" lon="-5.015817">
        <ele>1662.0</ele>
        <time>2015-05-17T11:45:12Z</time>
      </trkpt>
      <trkpt lat="40.511950" lon="-5.015750">
        <ele>1658.0</ele>
        <time>2015-05-17T11:45:14Z</time>
      </trkpt>
      <trkpt lat="40.512033" lon="-5.015667">
        <ele>1651.0</ele>
        <time>2015-05-17T11:45:16Z</time>
      </trkpt>
      <trkpt lat="40.512100" lon="-5.015533">
        <ele>1644.0</ele>
        <time>2015-05-17T11:45:18Z</time>
      </trkpt>
      <trkpt lat="40.512150" lon="-5.015483">
        <ele>1643.0</ele>
        <time>2015-05-17T11:45:20Z</time>
      </trkpt>
      <trkpt lat="40.512233" lon="-5.015433">
        <ele>1641.0</ele>
        <time>2015-05-17T11:45:22Z</time>
      </trkpt>
      <trkpt lat="40.512283" lon="-5.015350">
        <ele>1641.0</ele>
        <time>2015-05-17T11:45:24Z</time>
      </trkpt>
      <trkpt lat="40.512333" lon="-5.015333">
        <ele>1645.0</ele>
        <time>2015-05-17T11:45:26Z</time>
      </trkpt>
      <trkpt lat="40.512383" lon="-5.015333">
        <ele>1645.0</ele>
        <time>2015-05-17T11:45:28Z</time>
      </trkpt>
      <trkpt lat="40.512450" lon="-5.015250">
        <ele>1640.0</ele>
        <time>2015-05-17T11:45:30Z</time>
      </trkpt>
      <trkpt lat="40.512517" lon="-5.015150">
        <ele>1635.0</ele>
        <time>2015-05-17T11:45:32Z</time>
      </trkpt>
      <trkpt lat="40.512567" lon="-5.015117">
        <ele>1634.0</ele>
        <time>2015-05-17T11:45:34Z</time>
      </trkpt>
      <trkpt lat="40.512633" lon="-5.015050">
        <ele>1628.0</ele>
        <time>2015-05-17T11:45:36Z</time>
      </trkpt>
      <trkpt lat="40.512717" lon="-5.014933">
        <ele>1621.0</ele>
        <time>2015-05-17T11:45:38Z</time>
      </trkpt>
      <trkpt lat="40.512783" lon="-5.014850">
        <ele>1619.0</ele>
        <time>2015-05-17T11:45:40Z</time>
      </trkpt>
      <trkpt lat="40.512833" lon="-5.014800">
        <ele>1616.0</ele>
        <time>2015-05-17T11:45:42Z</time>
      </trkpt>
      <trkpt lat="40.512883" lon="-5.014650">
        <ele>1607.0</ele>
        <time>2015-05-17T11:45:44Z</time>
      </trkpt>
      <trkpt lat="40.512950" lon="-5.014500">
        <ele>1602.0</ele>
        <time>2015-05-17T11:45:46Z</time>
      </trkpt>
      <trkpt lat="40.512967" lon="-5.014400">
        <ele>1602.0</ele>
        <time>2015-05-17T11:45:48Z</time>
      </trkpt>
      <trkpt lat="40.512983" lon="-5.014317">
        <ele>1600.0</ele>
        <time>2015-05-17T11:45:50Z</time>
      </trkpt>
      <trkpt lat="40.513017" lon="-5.014150">
        <ele>1594.0</ele>
        <time>2015-05-17T11:45:52Z</time>
      </trkpt>
      <trkpt lat="40.513050" lon="-5.014017">
        <ele>1593.0</ele>
        <time>2015-05-17T11:45:54Z</time>
      </trkpt>
      <trkpt lat="40.513067" lon="-5.013950">
        <ele>1594.0</ele>
        <time>2015-05-17T11:45:56Z</time>
      </trkpt>
      <trkpt lat="40.513133" lon="-5.013833">
        <ele>1590.0</ele>
        <time>2015-05-17T11:45:58Z</time>
      </trkpt>
      <trkpt lat="40.513167" lon="-5.013717">
        <ele>1590.0</ele>
        <time>2015-05-17T11:46:00Z</time>
      </trkpt>
      <trkpt lat="40.513200" lon="-5.013617">
        <ele>1590.0</ele>
        <time>2015-05-17T11:46:02Z</time>
      </trkpt>
      <trkpt lat="40.513250" lon="-5.013467">
        <ele>1586.0</ele>
        <time>2015-05-17T11:46:04Z</time>
      </trkpt>
      <trkpt lat="40.513267" lon="-5.013333">
        <ele>1586.0</ele>
        <time>2015-05-17T11:46:06Z</time>
      </trkpt>
      <trkpt lat="40.513283" lon="-5.013250">
        <ele>1587.0</ele>
        <time>2015-05-17T11:46:08Z</time>
      </trkpt>
      <trkpt lat="40.513317" lon="-5.013150">
        <ele>1584.0</ele>
        <time>2015-05-17T11:46:10Z</time>
      </trkpt>
      <trkpt lat="40.513350" lon="-5.012983">
        <ele>1580.0</ele>
        <time>2015-05-17T11:46:12Z</time>
      </trkpt>
      <trkpt lat="40.513367" lon="-5.012867">
        <ele>1581.0</ele>
        <time>2015-05-17T11:46:14Z</time>
      </trkpt>
      <trkpt lat="40.513350" lon="-5.012767">
        <ele>1582.0</ele>
        <time>2015-05-17T11:46:16Z</time>
      </trkpt>
      <trkpt lat="40.513350" lon="-5.012650">
        <ele>1581.0</ele>
        <time>2015-05-17T11:46:18Z</time>
      </trkpt>
      <trkpt lat="40.513350" lon="-5.012500">
        <ele>1580.0</ele>
        <time>2015-05-17T11:46:20Z</time>
      </trkpt>
      <trkpt lat="40.513333" lon="-5.012383">
        <ele>1579.0</ele>
        <time>2015-05-17T11:46:22Z</time>
      </trkpt>
      <trkpt lat="40.513300" lon="-5.012250">
        <ele>1575.0</ele>
        <time>2015-05-17T11:46:24Z</time>
      </trkpt>
      <trkpt lat="40.513267" lon="-5.012067">
        <ele>1571.0</ele>
        <time>2015-05-17T11:46:26Z</time>
      </trkpt>
      <trkpt lat="40.513217" lon="-5.011917">
        <ele>1569.0</ele>
        <time>2015-05-17T11:46:28Z</time>
      </trkpt>
      <trkpt lat="40.513183" lon="-5.011767">
        <ele>1568.0</ele>
        <time>2015-05-17T11:46:30Z</time>
      </trkpt>
      <trkpt lat="40.513133" lon="-5.011617">
        <ele>1564.0</ele>
        <time>2015-05-17T11:46:32Z</time>
      </trkpt>
      <trkpt lat="40.513117" lon="-5.011450">
        <ele>1561.0</ele>
        <time>2015-05-17T11:46:34Z</time>
      </trkpt>
      <trkpt lat="40.513133" lon="-5.011317">
        <ele>1558.0</ele>
        <time>2015-05-17T11:46:36Z</time>
      </trkpt>
      <trkpt lat="40.513150" lon="-5.011133">
        <ele>1552.0</ele>
        <time>2015-05-17T11:46:38Z</time>
      </trkpt>
      <trkpt lat="40.513183" lon="-5.010967">
        <ele>1547.0</ele>
        <time>2015-05-17T11:46:40Z</time>
      </trkpt>
      <trkpt lat="40.513183" lon="-5.010833">
        <ele>1545.0</ele>
        <time>2015-05-17T11:46:42Z</time>
      </trkpt>
      <trkpt lat="40.513217" lon="-5.010667">
        <ele>1542.0</ele>
        <time>2015-05-17T11:46:44Z</time>
      </trkpt>
      <trkpt lat="40.513267" lon="-5.010500">
        <ele>1537.0</ele>
        <time>2015-05-17T11:46:46Z</time>
      </trkpt>
      <trkpt lat="40.513317" lon="-5.010350">
        <ele>1532.0</ele>
        <time>2015-05-17T11:46:48Z</time>
      </trkpt>
      <trkpt lat="40.513367" lon="-5.010183">
        <ele>1527.0</ele>
        <time>2015-05-17T11:46:50Z</time>
      </trkpt>
      <trkpt lat="40.513417" lon="-5.010017">
        <ele>1522.0</ele>
        <time>2015-05-17T11:46:52Z</time>
      </trkpt>
      <trkpt lat="40.513433" lon="-5.009850">
        <ele>1519.0</ele>
        <time>2015-05-17T11:46:54Z</time>
      </trkpt>
      <trkpt lat="40.513450" lon="-5.009700">
        <ele>1520.0</ele>
        <time>2015-05-17T11:46:56Z</time>
      </trkpt>
      <trkpt lat="40.513450" lon="-5.009583">
        <ele>1523.0</ele>
        <time>2015-05-17T11:46:58Z</time>
      </trkpt>
      <trkpt lat="40.513433" lon="-5.009450">
        <ele>1522.0</ele>
        <time>2015-05-17T11:47:00Z</time>
      </trkpt>
      <trkpt lat="40.513450" lon="-5.009283">
        <ele>1520.0</ele>
        <time>2015-05-17T11:47:02Z</time>
      </trkpt>
      <trkpt lat="40.513500" lon="-5.009117">
        <ele>1523.0</ele>
        <time>2015-05-17T11:47:04Z</time>
      </trkpt>
      <trkpt lat="40.513583" lon="-5.009083">
        <ele>1530.0</ele>
        <time>2015-05-17T11:47:06Z</time>
      </trkpt>
      <trkpt lat="40.513683" lon="-5.009117">
        <ele>1533.0</ele>
        <time>2015-05-17T11:47:08Z</time>
      </trkpt>
      <trkpt lat="40.513833" lon="-5.009067">
        <ele>1531.0</ele>
        <time>2015-05-17T11:47:10Z</time>
      </trkpt>
      <trkpt lat="40.513917" lon="-5.009017">
        <ele>1533.0</ele>
        <time>2015-05-17T11:47:12Z</time>
      </trkpt>
      <trkpt lat="40.513967" lon="-5.008950">
        <ele>1532.0</ele>
        <time>2015-05-17T11:47:14Z</time>
      </trkpt>
      <trkpt lat="40.514000" lon="-5.008783">
        <ele>1526.0</ele>
        <time>2015-05-17T11:47:16Z</time>
      </trkpt>
      <trkpt lat="40.513950" lon="-5.008633">
        <ele>1523.0</ele>
        <time>2015-05-17T11:47:18Z</time>
      </trkpt>
      <trkpt lat="40.513833" lon="-5.008533">
        <ele>1520.0</ele>
        <time>2015-05-17T11:47:20Z</time>
      </trkpt>
      <trkpt lat="40.513717" lon="-5.008417">
        <ele>1516.0</ele>
        <time>2015-05-17T11:47:22Z</time>
      </trkpt>
      <trkpt lat="40.513533" lon="-5.008383">
        <ele>1512.0</ele>
        <time>2015-05-17T11:47:24Z</time>
      </trkpt>
      <trkpt lat="40.513317" lon="-5.008483">
        <ele>1509.0</ele>
        <time>2015-05-17T11:47:26Z</time>
      </trkpt>
      <trkpt lat="40.513183" lon="-5.008700">
        <ele>1510.0</ele>
        <time>2015-05-17T11:47:28Z</time>
      </trkpt>
      <trkpt lat="40.513117" lon="-5.008900">
        <ele>1511.0</ele>
        <time>2015-05-17T11:47:30Z</time>
      </trkpt>
      <trkpt lat="40.513117" lon="-5.009150">
        <ele>1510.0</ele>
        <time>2015-05-17T11:47:32Z</time>
      </trkpt>
      <trkpt lat="40.513117" lon="-5.009450">
        <ele>1509.0</ele>
        <time>2015-05-17T11:47:34Z</time>
      </trkpt>
      <trkpt lat="40.513133" lon="-5.009717">
        <ele>1514.0</ele>
        <time>2015-05-17T11:47:36Z</time>
      </trkpt>
      <trkpt lat="40.513183" lon="-5.009950">
        <ele>1518.0</ele>
        <time>2015-05-17T11:47:38Z</time>
      </trkpt>
      <trkpt lat="40.513300" lon="-5.010167">
        <ele>1520.0</ele>
        <time>2015-05-17T11:47:40Z</time>
      </trkpt>
      <trkpt lat="40.513450" lon="-5.010283">
        <ele>1524.0</ele>
        <time>2015-05-17T11:47:42Z</time>
      </trkpt>
      <trkpt lat="40.513567" lon="-5.010317">
        <ele>1529.0</ele>
        <time>2015-05-17T11:47:44Z</time>
      </trkpt>
      <trkpt lat="40.513633" lon="-5.010283">
        <ele>1531.0</ele>
        <time>2015-05-17T11:47:46Z</time>
      </trkpt>
      <trkpt lat="40.513650" lon="-5.010167">
        <ele>1528.0</ele>
        <time>2015-05-17T11:47:48Z</time>
      </trkpt>
      <trkpt lat="40.513583" lon="-5.010033">
        <ele>1525.0</ele>
        <time>2015-05-17T11:47:50Z</time>
      </trkpt>
      <trkpt lat="40.513417" lon="-5.009983">
        <ele>1521.0</ele>
        <time>2015-05-17T11:47:52Z</time>
      </trkpt>
      <trkpt lat="40.513217" lon="-5.010050">
        <ele>1515.0</ele>
        <time>2015-05-17T11:47:54Z</time>
      </trkpt>
      <trkpt lat="40.513017" lon="-5.010283">
        <ele>1511.0</ele>
        <time>2015-05-17T11:47:56Z</time>
      </trkpt>
      <trkpt lat="40.512933" lon="-5.010600">
        <ele>1513.0</ele>
        <time>2015-05-17T11:47:58Z</time>
      </trkpt>
      <trkpt lat="40.512950" lon="-5.010850">
        <ele>1517.0</ele>
        <time>2015-05-17T11:48:00Z</time>
      </trkpt>
      <trkpt lat="40.513033" lon="-5.011033">
        <ele>1520.0</ele>
        <time>2015-05-17T11:48:02Z</time>
      </trkpt>
      <trkpt lat="40.513200" lon="-5.011133">
        <ele>1518.0</ele>
        <time>2015-05-17T11:48:04Z</time>
      </trkpt>
      <trkpt lat="40.513350" lon="-5.011150">
        <ele>1519.0</ele>
        <time>2015-05-17T11:48:06Z</time>
      </trkpt>
      <trkpt lat="40.513433" lon="-5.011117">
        <ele>1524.0</ele>
        <time>2015-05-17T11:48:08Z</time>
      </trkpt>
      <trkpt lat="40.513483" lon="-5.011033">
        <ele>1527.0</ele>
        <time>2015-05-17T11:48:10Z</time>
      </trkpt>
      <trkpt lat="40.513517" lon="-5.010900">
        <ele>1527.0</ele>
        <time>2015-05-17T11:48:12Z</time>
      </trkpt>
      <trkpt lat="40.513483" lon="-5.010767">
        <ele>1524.0</ele>
        <time>2015-05-17T11:48:14Z</time>
      </trkpt>
      <trkpt lat="40.513400" lon="-5.010633">
        <ele>1518.0</ele>
        <time>2015-05-17T11:48:16Z</time>
      </trkpt>
      <trkpt lat="40.513250" lon="-5.010533">
        <ele>1513.0</ele>
        <time>2015-05-17T11:48:18Z</time>
      </trkpt>
      <trkpt lat="40.513100" lon="-5.010467">
        <ele>1509.0</ele>
        <time>2015-05-17T11:48:20Z</time>
      </trkpt>
      <trkpt lat="40.513000" lon="-5.010333">
        <ele>1506.0</ele>
        <time>2015-05-17T11:48:22Z</time>
      </trkpt>
      <trkpt lat="40.512950" lon="-5.010167">
        <ele>1502.0</ele>
        <time>2015-05-17T11:48:24Z</time>
      </trkpt>
      <trkpt lat="40.512983" lon="-5.010050">
        <ele>1501.0</ele>
        <time>2015-05-17T11:48:26Z</time>
      </trkpt>
      <trkpt lat="40.513050" lon="-5.009983">
        <ele>1501.0</ele>
        <time>2015-05-17T11:48:28Z</time>
      </trkpt>
      <trkpt lat="40.513133" lon="-5.009933">
        <ele>1501.0</ele>
        <time>2015-05-17T11:48:30Z</time>
      </trkpt>
      <trkpt lat="40.513250" lon="-5.009917">
        <ele>1503.0</ele>
        <time>2015-05-17T11:48:32Z</time>
      </trkpt>
      <trkpt lat="40.513367" lon="-5.009933">
        <ele>1506.0</ele>
        <time>2015-05-17T11:48:34Z</time>
      </trkpt>
      <trkpt lat="40.513467" lon="-5.010083">
        <ele>1508.0</ele>
        <time>2015-05-17T11:48:36Z</time>
      </trkpt>
      <trkpt lat="40.513533" lon="-5.010317">
        <ele>1508.0</ele>
        <time>2015-05-17T11:48:38Z</time>
      </trkpt>
      <trkpt lat="40.513600" lon="-5.010600">
        <ele>1510.0</ele>
        <time>2015-05-17T11:48:40Z</time>
      </trkpt>
      <trkpt lat="40.513683" lon="-5.010850">
        <ele>1514.0</ele>
        <time>2015-05-17T11:48:42Z</time>
      </trkpt>
      <trkpt lat="40.513800" lon="-5.011017">
        <ele>1519.0</ele>
        <time>2015-05-17T11:48:44Z</time>
      </trkpt>
      <trkpt lat="40.513933" lon="-5.011083">
        <ele>1522.0</ele>
        <time>2015-05-17T11:48:46Z</time>
      </trkpt>
      <trkpt lat="40.514033" lon="-5.011033">
        <ele>1523.0</ele>
        <time>2015-05-17T11:48:48Z</time>
      </trkpt>
      <trkpt lat="40.514050" lon="-5.010867">
        <ele>1525.0</ele>
        <time>2015-05-17T11:48:50Z</time>
      </trkpt>
      <trkpt lat="40.513967" lon="-5.010767">
        <ele>1527.0</ele>
        <time>2015-05-17T11:48:52Z</time>
      </trkpt>
      <trkpt lat="40.513800" lon="-5.010733">
        <ele>1526.0</ele>
        <time>2015-05-17T11:48:54Z</time>
      </trkpt>
      <trkpt lat="40.513567" lon="-5.010767">
        <ele>1521.0</ele>
        <time>2015-05-17T11:48:56Z</time>
      </trkpt>
      <trkpt lat="40.513300" lon="-5.010917">
        <ele>1519.0</ele>
        <time>2015-05-17T11:48:58Z</time>
      </trkpt>
      <trkpt lat="40.513050" lon="-5.010967">
        <ele>1523.0</ele>
        <time>2015-05-17T11:49:00Z</time>
      </trkpt>
      <trkpt lat="40.512933" lon="-5.010983">
        <ele>1531.0</ele>
        <time>2015-05-17T11:49:02Z</time>
      </trkpt>
      <trkpt lat="40.512850" lon="-5.010933">
        <ele>1536.0</ele>
        <time>2015-05-17T11:49:04Z</time>
      </trkpt>
      <trkpt lat="40.512783" lon="-5.010817">
        <ele>1536.0</ele>
        <time>2015-05-17T11:49:06Z</time>
      </trkpt>
      <trkpt lat="40.512883" lon="-5.010750">
        <ele>1537.0</ele>
        <time>2015-05-17T11:49:08Z</time>
      </trkpt>
      <trkpt lat="40.513033" lon="-5.010900">
        <ele>1539.0</ele>
        <time>2015-05-17T11:49:10Z</time>
      </trkpt>
      <trkpt lat="40.513100" lon="-5.011017">
        <ele>1546.0</ele>
        <time>2015-05-17T11:49:12Z</time>
      </trkpt>
      <trkpt lat="40.513167" lon="-5.011200">
        <ele>1546.0</ele>
        <time>2015-05-17T11:49:14Z</time>
      </trkpt>
      <trkpt lat="40.513250" lon="-5.011400">
        <ele>1542.0</ele>
        <time>2015-05-17T11:49:16Z</time>
      </trkpt>
      <trkpt lat="40.513367" lon="-5.011467">
        <ele>1539.0</ele>
        <time>2015-05-17T11:49:18Z</time>
      </trkpt>
      <trkpt lat="40.513450" lon="-5.011467">
        <ele>1536.0</ele>
        <time>2015-05-17T11:49:20Z</time>
      </trkpt>
      <trkpt lat="40.513483" lon="-5.011400">
        <ele>1532.0</ele>
        <time>2015-05-17T11:49:22Z</time>
      </trkpt>
      <trkpt lat="40.513467" lon="-5.011283">
        <ele>1526.0</ele>
        <time>2015-05-17T11:49:24Z</time>
      </trkpt>
      <trkpt lat="40.513400" lon="-5.011183">
        <ele>1524.0</ele>
        <time>2015-05-17T11:49:26Z</time>
      </trkpt>
      <trkpt lat="40.513267" lon="-5.011117">
        <ele>1521.0</ele>
        <time>2015-05-17T11:49:28Z</time>
      </trkpt>
      <trkpt lat="40.513133" lon="-5.011000">
        <ele>1517.0</ele>
        <time>2015-05-17T11:49:30Z</time>
      </trkpt>
      <trkpt lat="40.513017" lon="-5.010933">
        <ele>1516.0</ele>
        <time>2015-05-17T11:49:32Z</time>
      </trkpt>
      <trkpt lat="40.512867" lon="-5.010833">
        <ele>1514.0</ele>
        <time>2015-05-17T11:49:34Z</time>
      </trkpt>
      <trkpt lat="40.512767" lon="-5.010717">
        <ele>1512.0</ele>
        <time>2015-05-17T11:49:36Z</time>
      </trkpt>
      <trkpt lat="40.512700" lon="-5.010617">
        <ele>1511.0</ele>
        <time>2015-05-17T11:49:38Z</time>
      </trkpt>
      <trkpt lat="40.512667" lon="-5.010500">
        <ele>1507.0</ele>
        <time>2015-05-17T11:49:40Z</time>
      </trkpt>
      <trkpt lat="40.512667" lon="-5.010350">
        <ele>1501.0</ele>
        <time>2015-05-17T11:49:42Z</time>
      </trkpt>
      <trkpt lat="40.512683" lon="-5.010250">
        <ele>1498.0</ele>
        <time>2015-05-17T11:49:44Z</time>
      </trkpt>
      <trkpt lat="40.512683" lon="-5.010150">
        <ele>1494.0</ele>
        <time>2015-05-17T11:49:46Z</time>
      </trkpt>
      <trkpt lat="40.512667" lon="-5.009967">
        <ele>1488.0</ele>
        <time>2015-05-17T11:49:48Z</time>
      </trkpt>
      <trkpt lat="40.512683" lon="-5.009850">
        <ele>1487.0</ele>
        <time>2015-05-17T11:49:50Z</time>
      </trkpt>
      <trkpt lat="40.512717" lon="-5.009767">
        <ele>1487.0</ele>
        <time>2015-05-17T11:49:52Z</time>
      </trkpt>
      <trkpt lat="40.512783" lon="-5.009683">
        <ele>1485.0</ele>
        <time>2015-05-17T11:49:54Z</time>
      </trkpt>
      <trkpt lat="40.512850" lon="-5.009617">
        <ele>1482.0</ele>
        <time>2015-05-17T11:49:56Z</time>
      </trkpt>
      <trkpt lat="40.512917" lon="-5.009517">
        <ele>1480.0</ele>
        <time>2015-05-17T11:49:58Z</time>
      </trkpt>
      <trkpt lat="40.512983" lon="-5.009417">
        <ele>1479.0</ele>
        <time>2015-05-17T11:50:00Z</time>
      </trkpt>
      <trkpt lat="40.513067" lon="-5.009350">
        <ele>1479.0</ele>
        <time>2015-05-17T11:50:02Z</time>
      </trkpt>
      <trkpt lat="40.513100" lon="-5.009267">
        <ele>1480.0</ele>
        <time>2015-05-17T11:50:04Z</time>
      </trkpt>
      <trkpt lat="40.513100" lon="-5.009150">
        <ele>1479.0</ele>
        <time>2015-05-17T11:50:06Z</time>
      </trkpt>
      <trkpt lat="40.513083" lon="-5.009017">
        <ele>1478.0</ele>
        <time>2015-05-17T11:50:08Z</time>
      </trkpt>
      <trkpt lat="40.513083" lon="-5.008883">
        <ele>1478.0</ele>
        <time>2015-05-17T11:50:10Z</time>
      </trkpt>
      <trkpt lat="40.513100" lon="-5.008750">
        <ele>1477.0</ele>
        <time>2015-05-17T11:50:12Z</time>
      </trkpt>
      <trkpt lat="40.513117" lon="-5.008600">
        <ele>1478.0</ele>
        <time>2015-05-17T11:50:14Z</time>
      </trkpt>
      <trkpt lat="40.513167" lon="-5.008500">
        <ele>1482.0</ele>
        <time>2015-05-17T11:50:16Z</time>
      </trkpt>
      <trkpt lat="40.513267" lon="-5.008467">
        <ele>1484.0</ele>
        <time>2015-05-17T11:50:18Z</time>
      </trkpt>
      <trkpt lat="40.513400" lon="-5.008467">
        <ele>1486.0</ele>
        <time>2015-05-17T11:50:20Z</time>
      </trkpt>
      <trkpt lat="40.513517" lon="-5.008533">
        <ele>1490.0</ele>
        <time>2015-05-17T11:50:22Z</time>
      </trkpt>
      <trkpt lat="40.513617" lon="-5.008700">
        <ele>1492.0</ele>
        <time>2015-05-17T11:50:24Z</time>
      </trkpt>
      <trkpt lat="40.513733" lon="-5.008933">
        <ele>1492.0</ele>
        <time>2015-05-17T11:50:26Z</time>
      </trkpt>
      <trkpt lat="40.513867" lon="-5.009067">
        <ele>1494.0</ele>
        <time>2015-05-17T11:50:28Z</time>
      </trkpt>
      <trkpt lat="40.513950" lon="-5.009067">
        <ele>1497.0</ele>
        <time>2015-05-17T11:50:30Z</time>
      </trkpt>
      <trkpt lat="40.514017" lon="-5.009017">
        <ele>1499.0</ele>
        <time>2015-05-17T11:50:32Z</time>
      </trkpt>
      <trkpt lat="40.513983" lon="-5.008867">
        <ele>1499.0</ele>
        <time>2015-05-17T11:50:34Z</time>
      </trkpt>
      <trkpt lat="40.513883" lon="-5.008717">
        <ele>1501.0</ele>
        <time>2015-05-17T11:50:36Z</time>
      </trkpt>
      <trkpt lat="40.513750" lon="-5.008633">
        <ele>1507.0</ele>
        <time>2015-05-17T11:50:38Z</time>
      </trkpt>
      <trkpt lat="40.513600" lon="-5.008583">
        <ele>1511.0</ele>
        <time>2015-05-17T11:50:40Z</time>
      </trkpt>
      <trkpt lat="40.513367" lon="-5.008550">
        <ele>1510.0</ele>
        <time>2015-05-17T11:50:42Z</time>
      </trkpt>
      <trkpt lat="40.513150" lon="-5.008517">
        <ele>1510.0</ele>
        <time>2015-05-17T11:50:44Z</time>
      </trkpt>
      <trkpt lat="40.513017" lon="-5.008450">
        <ele>1512.0</ele>
        <time>2015-05-17T11:50:46Z</time>
      </trkpt>
      <trkpt lat="40.512933" lon="-5.008317">
        <ele>1509.0</ele>
        <time>2015-05-17T11:50:48Z</time>
      </trkpt>
      <trkpt lat="40.512933" lon="-5.008167">
        <ele>1506.0</ele>
        <time>2015-05-17T11:50:50Z</time>
      </trkpt>
      <trkpt lat="40.513000" lon="-5.008100">
        <ele>1503.0</ele>
        <time>2015-05-17T11:50:52Z</time>
      </trkpt>
      <trkpt lat="40.513083" lon="-5.008083">
        <ele>1502.0</ele>
        <time>2015-05-17T11:50:54Z</time>
      </trkpt>
      <trkpt lat="40.513183" lon="-5.008150">
        <ele>1499.0</ele>
        <time>2015-05-17T11:50:56Z</time>
      </trkpt>
      <trkpt lat="40.513300" lon="-5.008217">
        <ele>1493.0</ele>
        <time>2015-05-17T11:50:58Z</time>
      </trkpt>
      <trkpt lat="40.513433" lon="-5.008183">
        <ele>1487.0</ele>
        <time>2015-05-17T11:51:00Z</time>
      </trkpt>
      <trkpt lat="40.513483" lon="-5.008050">
        <ele>1485.0</ele>
        <time>2015-05-17T11:51:02Z</time>
      </trkpt>
      <trkpt lat="40.513500" lon="-5.007917">
        <ele>1484.0</ele>
        <time>2015-05-17T11:51:04Z</time>
      </trkpt>
      <trkpt lat="40.513533" lon="-5.007767">
        <ele>1482.0</ele>
        <time>2015-05-17T11:51:06Z</time>
      </trkpt>
      <trkpt lat="40.513533" lon="-5.007633">
        <ele>1480.0</ele>
        <time>2015-05-17T11:51:08Z</time>
      </trkpt>
      <trkpt lat="40.513483" lon="-5.007517">
        <ele>1481.0</ele>
        <time>2015-05-17T11:51:10Z</time>
      </trkpt>
      <trkpt lat="40.513417" lon="-5.007433">
        <ele>1480.0</ele>
        <time>2015-05-17T11:51:12Z</time>
      </trkpt>
      <trkpt lat="40.513317" lon="-5.007317">
        <ele>1476.0</ele>
        <time>2015-05-17T11:51:14Z</time>
      </trkpt>
      <trkpt lat="40.513233" lon="-5.007150">
        <ele>1471.0</ele>
        <time>2015-05-17T11:51:16Z</time>
      </trkpt>
      <trkpt lat="40.513183" lon="-5.007000">
        <ele>1470.0</ele>
        <time>2015-05-17T11:51:18Z</time>
      </trkpt>
      <trkpt lat="40.513117" lon="-5.006900">
        <ele>1472.0</ele>
        <time>2015-05-17T11:51:20Z</time>
      </trkpt>
      <trkpt lat="40.513050" lon="-5.006800">
        <ele>1469.0</ele>
        <time>2015-05-17T11:51:22Z</time>
      </trkpt>
      <trkpt lat="40.512950" lon="-5.006667">
        <ele>1465.0</ele>
        <time>2015-05-17T11:51:24Z</time>
      </trkpt>
      <trkpt lat="40.512883" lon="-5.006517">
        <ele>1463.0</ele>
        <time>2015-05-17T11:51:26Z</time>
      </trkpt>
      <trkpt lat="40.512867" lon="-5.006383">
        <ele>1461.0</ele>
        <time>2015-05-17T11:51:28Z</time>
      </trkpt>
      <trkpt lat="40.512833" lon="-5.006233">
        <ele>1457.0</ele>
        <time>2015-05-17T11:51:30Z</time>
      </trkpt>
      <trkpt lat="40.512833" lon="-5.006067">
        <ele>1453.0</ele>
        <time>2015-05-17T11:51:32Z</time>
      </trkpt>
      <trkpt lat="40.512817" lon="-5.005883">
        <ele>1451.0</ele>
        <time>2015-05-17T11:51:34Z</time>
      </trkpt>
      <trkpt lat="40.512817" lon="-5.005767">
        <ele>1455.0</ele>
        <time>2015-05-17T11:51:36Z</time>
      </trkpt>
      <trkpt lat="40.512850" lon="-5.005717">
        <ele>1459.0</ele>
        <time>2015-05-17T11:51:38Z</time>
      </trkpt>
      <trkpt lat="40.512933" lon="-5.005667">
        <ele>1459.0</ele>
        <time>2015-05-17T11:51:40Z</time>
      </trkpt>
      <trkpt lat="40.513050" lon="-5.005650">
        <ele>1460.0</ele>
        <time>2015-05-17T11:51:42Z</time>
      </trkpt>
      <trkpt lat="40.513133" lon="-5.005717">
        <ele>1465.0</ele>
        <time>2015-05-17T11:51:44Z</time>
      </trkpt>
      <trkpt lat="40.513250" lon="-5.005850">
        <ele>1467.0</ele>
        <time>2015-05-17T11:51:46Z</time>
      </trkpt>
      <trkpt lat="40.513350" lon="-5.006117">
        <ele>1467.0</ele>
        <time>2015-05-17T11:51:48Z</time>
      </trkpt>
      <trkpt lat="40.513367" lon="-5.006483">
        <ele>1467.0</ele>
        <time>2015-05-17T11:51:50Z</time>
      </trkpt>
      <trkpt lat="40.513283" lon="-5.006783">
        <ele>1471.0</ele>
        <time>2015-05-17T11:51:52Z</time>
      </trkpt>
      <trkpt lat="40.513150" lon="-5.007033">
        <ele>1473.0</ele>
        <time>2015-05-17T11:51:54Z</time>
      </trkpt>
      <trkpt lat="40.512933" lon="-5.007100">
        <ele>1472.0</ele>
        <time>2015-05-17T11:51:56Z</time>
      </trkpt>
      <trkpt lat="40.512750" lon="-5.007000">
        <ele>1471.0</ele>
        <time>2015-05-17T11:51:58Z</time>
      </trkpt>
      <trkpt lat="40.512667" lon="-5.006933">
        <ele>1476.0</ele>
        <time>2015-05-17T11:52:00Z</time>
      </trkpt>
      <trkpt lat="40.512667" lon="-5.006833">
        <ele>1479.0</ele>
        <time>2015-05-17T11:52:02Z</time>
      </trkpt>
      <trkpt lat="40.512717" lon="-5.006717">
        <ele>1479.0</ele>
        <time>2015-05-17T11:52:04Z</time>
      </trkpt>
      <trkpt lat="40.512833" lon="-5.006700">
        <ele>1483.0</ele>
        <time>2015-05-17T11:52:06Z</time>
      </trkpt>
      <trkpt lat="40.512933" lon="-5.006767">
        <ele>1486.0</ele>
        <time>2015-05-17T11:52:08Z</time>
      </trkpt>
      <trkpt lat="40.513083" lon="-5.006900">
        <ele>1486.0</ele>
        <time>2015-05-17T11:52:10Z</time>
      </trkpt>
      <trkpt lat="40.513233" lon="-5.007117">
        <ele>1486.0</ele>
        <time>2015-05-17T11:52:12Z</time>
      </trkpt>
      <trkpt lat="40.513300" lon="-5.007367">
        <ele>1490.0</ele>
        <time>2015-05-17T11:52:14Z</time>
      </trkpt>
      <trkpt lat="40.513317" lon="-5.007750">
        <ele>1489.0</ele>
        <time>2015-05-17T11:52:16Z</time>
      </trkpt>
      <trkpt lat="40.513217" lon="-5.008133">
        <ele>1488.0</ele>
        <time>2015-05-17T11:52:18Z</time>
      </trkpt>
      <trkpt lat="40.513083" lon="-5.008367">
        <ele>1491.0</ele>
        <time>2015-05-17T11:52:20Z</time>
      </trkpt>
      <trkpt lat="40.512867" lon="-5.008550">
        <ele>1487.0</ele>
        <time>2015-05-17T11:52:22Z</time>
      </trkpt>
      <trkpt lat="40.512583" lon="-5.008600">
        <ele>1482.0</ele>
        <time>2015-05-17T11:52:24Z</time>
      </trkpt>
      <trkpt lat="40.512417" lon="-5.008550">
        <ele>1485.0</ele>
        <time>2015-05-17T11:52:26Z</time>
      </trkpt>
      <trkpt lat="40.512300" lon="-5.008500">
        <ele>1491.0</ele>
        <time>2015-05-17T11:52:28Z</time>
      </trkpt>
      <trkpt lat="40.512217" lon="-5.008383">
        <ele>1490.0</ele>
        <time>2015-05-17T11:52:30Z</time>
      </trkpt>
      <trkpt lat="40.512183" lon="-5.008250">
        <ele>1496.0</ele>
        <time>2015-05-17T11:52:32Z</time>
      </trkpt>
      <trkpt lat="40.512183" lon="-5.008200">
        <ele>1505.0</ele>
        <time>2015-05-17T11:52:34Z</time>
      </trkpt>
      <trkpt lat="40.512250" lon="-5.008150">
        <ele>1505.0</ele>
        <time>2015-05-17T11:52:36Z</time>
      </trkpt>
      <trkpt lat="40.512400" lon="-5.008133">
        <ele>1509.0</ele>
        <time>2015-05-17T11:52:38Z</time>
      </trkpt>
      <trkpt lat="40.512533" lon="-5.008183">
        <ele>1517.0</ele>
        <time>2015-05-17T11:52:40Z</time>
      </trkpt>
      <trkpt lat="40.512633" lon="-5.008283">
        <ele>1520.0</ele>
        <time>2015-05-17T11:52:42Z</time>
      </trkpt>
      <trkpt lat="40.512750" lon="-5.008417">
        <ele>1518.0</ele>
        <time>2015-05-17T11:52:44Z</time>
      </trkpt>
      <trkpt lat="40.512850" lon="-5.008467">
        <ele>1513.0</ele>
        <time>2015-05-17T11:52:46Z</time>
      </trkpt>
      <trkpt lat="40.512867" lon="-5.008383">
        <ele>1509.0</ele>
        <time>2015-05-17T11:52:48Z</time>
      </trkpt>
      <trkpt lat="40.512817" lon="-5.008300">
        <ele>1506.0</ele>
        <time>2015-05-17T11:52:50Z</time>
      </trkpt>
      <trkpt lat="40.512733" lon="-5.008217">
        <ele>1503.0</ele>
        <time>2015-05-17T11:52:52Z</time>
      </trkpt>
      <trkpt lat="40.512617" lon="-5.008150">
        <ele>1500.0</ele>
        <time>2015-05-17T11:52:54Z</time>
      </trkpt>
      <trkpt lat="40.512500" lon="-5.008100">
        <ele>1499.0</ele>
        <time>2015-05-17T11:52:56Z</time>
      </trkpt>
      <trkpt lat="40.512433" lon="-5.008000">
        <ele>1496.0</ele>
        <time>2015-05-17T11:52:58Z</time>
      </trkpt>
      <trkpt lat="40.512383" lon="-5.007867">
        <ele>1498.0</ele>
        <time>2015-05-17T11:53:00Z</time>
      </trkpt>
      <trkpt lat="40.512350" lon="-5.007783">
        <ele>1502.0</ele>
        <time>2015-05-17T11:53:02Z</time>
      </trkpt>
      <trkpt lat="40.512367" lon="-5.007717">
        <ele>1504.0</ele>
        <time>2015-05-17T11:53:04Z</time>
      </trkpt>
      <trkpt lat="40.512450" lon="-5.007633">
        <ele>1506.0</ele>
        <time>2015-05-17T11:53:06Z</time>
      </trkpt>
      <trkpt lat="40.512550" lon="-5.007617">
        <ele>1512.0</ele>
        <time>2015-05-17T11:53:08Z</time>
      </trkpt>
      <trkpt lat="40.512667" lon="-5.007667">
        <ele>1515.0</ele>
        <time>2015-05-17T11:53:10Z</time>
      </trkpt>
      <trkpt lat="40.512817" lon="-5.007833">
        <ele>1516.0</ele>
        <time>2015-05-17T11:53:12Z</time>
      </trkpt>
      <trkpt lat="40.512917" lon="-5.008067">
        <ele>1520.0</ele>
        <time>2015-05-17T11:53:14Z</time>
      </trkpt>
      <trkpt lat="40.512933" lon="-5.008317">
        <ele>1520.0</ele>
        <time>2015-05-17T11:53:16Z</time>
      </trkpt>
      <trkpt lat="40.512917" lon="-5.008633">
        <ele>1516.0</ele>
        <time>2015-05-17T11:53:18Z</time>
      </trkpt>
      <trkpt lat="40.512983" lon="-5.008933">
        <ele>1514.0</ele>
        <time>2015-05-17T11:53:20Z</time>
      </trkpt>
      <trkpt lat="40.513100" lon="-5.009150">
        <ele>1513.0</ele>
        <time>2015-05-17T11:53:22Z</time>
      </trkpt>
      <trkpt lat="40.513200" lon="-5.009267">
        <ele>1515.0</ele>
        <time>2015-05-17T11:53:24Z</time>
      </trkpt>
      <trkpt lat="40.513283" lon="-5.009267">
        <ele>1515.0</ele>
        <time>2015-05-17T11:53:26Z</time>
      </trkpt>
      <trkpt lat="40.513333" lon="-5.009183">
        <ele>1515.0</ele>
        <time>2015-05-17T11:53:28Z</time>
      </trkpt>
      <trkpt lat="40.513333" lon="-5.009100">
        <ele>1515.0</ele>
        <time>2015-05-17T11:53:30Z</time>
      </trkpt>
      <trkpt lat="40.513333" lon="-5.009000">
        <ele>1515.0</ele>
        <time>2015-05-17T11:53:32Z</time>
      </trkpt>
      <trkpt lat="40.513267" lon="-5.008900">
        <ele>1514.0</ele>
        <time>2015-05-17T11:53:34Z</time>
      </trkpt>
      <trkpt lat="40.513183" lon="-5.008783">
        <ele>1512.0</ele>
        <time>2015-05-17T11:53:36Z</time>
      </trkpt>
      <trkpt lat="40.513117" lon="-5.008617">
        <ele>1509.0</ele>
        <time>2015-05-17T11:53:38Z</time>
      </trkpt>
      <trkpt lat="40.512983" lon="-5.008300">
        <ele>1502.0</ele>
        <time>2015-05-17T11:53:43Z</time>
      </trkpt>
      <trkpt lat="40.512917" lon="-5.008200">
        <ele>1499.0</ele>
        <time>2015-05-17T11:53:45Z</time>
      </trkpt>
      <trkpt lat="40.512850" lon="-5.008133">
        <ele>1500.0</ele>
        <time>2015-05-17T11:53:47Z</time>
      </trkpt>
      <trkpt lat="40.512867" lon="-5.008067">
        <ele>1498.0</ele>
        <time>2015-05-17T11:53:49Z</time>
      </trkpt>
      <trkpt lat="40.512933" lon="-5.007983">
        <ele>1496.0</ele>
        <time>2015-05-17T11:53:51Z</time>
      </trkpt>
      <trkpt lat="40.513033" lon="-5.008033">
        <ele>1495.0</ele>
        <time>2015-05-17T11:53:53Z</time>
      </trkpt>
      <trkpt lat="40.513117" lon="-5.008133">
        <ele>1492.0</ele>
        <time>2015-05-17T11:53:55Z</time>
      </trkpt>
      <trkpt lat="40.513250" lon="-5.008267">
        <ele>1486.0</ele>
        <time>2015-05-17T11:53:57Z</time>
      </trkpt>
      <trkpt lat="40.513400" lon="-5.008350">
        <ele>1483.0</ele>
        <time>2015-05-17T11:53:59Z</time>
      </trkpt>
      <trkpt lat="40.513517" lon="-5.008400">
        <ele>1482.0</ele>
        <time>2015-05-17T11:54:01Z</time>
      </trkpt>
      <trkpt lat="40.513600" lon="-5.008400">
        <ele>1478.0</ele>
        <time>2015-05-17T11:54:03Z</time>
      </trkpt>
      <trkpt lat="40.513633" lon="-5.008283">
        <ele>1472.0</ele>
        <time>2015-05-17T11:54:05Z</time>
      </trkpt>
      <trkpt lat="40.513617" lon="-5.008167">
        <ele>1470.0</ele>
        <time>2015-05-17T11:54:07Z</time>
      </trkpt>
      <trkpt lat="40.513567" lon="-5.008083">
        <ele>1468.0</ele>
        <time>2015-05-17T11:54:09Z</time>
      </trkpt>
      <trkpt lat="40.513483" lon="-5.007967">
        <ele>1462.0</ele>
        <time>2015-05-17T11:54:11Z</time>
      </trkpt>
      <trkpt lat="40.513433" lon="-5.007817">
        <ele>1459.0</ele>
        <time>2015-05-17T11:54:13Z</time>
      </trkpt>
      <trkpt lat="40.513383" lon="-5.007700">
        <ele>1460.0</ele>
        <time>2015-05-17T11:54:15Z</time>
      </trkpt>
      <trkpt lat="40.513333" lon="-5.007617">
        <ele>1463.0</ele>
        <time>2015-05-17T11:54:17Z</time>
      </trkpt>
      <trkpt lat="40.513200" lon="-5.007533">
        <ele>1465.0</ele>
        <time>2015-05-17T11:54:19Z</time>
      </trkpt>
      <trkpt lat="40.513067" lon="-5.007467">
        <ele>1472.0</ele>
        <time>2015-05-17T11:54:21Z</time>
      </trkpt>
      <trkpt lat="40.512900" lon="-5.007517">
        <ele>1478.0</ele>
        <time>2015-05-17T11:54:23Z</time>
      </trkpt>
      <trkpt lat="40.512700" lon="-5.007633">
        <ele>1480.0</ele>
        <time>2015-05-17T11:54:25Z</time>
      </trkpt>
      <trkpt lat="40.512533" lon="-5.007833">
        <ele>1483.0</ele>
        <time>2015-05-17T11:54:27Z</time>
      </trkpt>
      <trkpt lat="40.512383" lon="-5.008133">
        <ele>1484.0</ele>
        <time>2015-05-17T11:54:29Z</time>
      </trkpt>
      <trkpt lat="40.512300" lon="-5.008500">
        <ele>1490.0</ele>
        <time>2015-05-17T11:54:31Z</time>
      </trkpt>
      <trkpt lat="40.512333" lon="-5.008767">
        <ele>1497.0</ele>
        <time>2015-05-17T11:54:33Z</time>
      </trkpt>
      <trkpt lat="40.512433" lon="-5.008950">
        <ele>1498.0</ele>
        <time>2015-05-17T11:54:35Z</time>
      </trkpt>
      <trkpt lat="40.512567" lon="-5.009067">
        <ele>1499.0</ele>
        <time>2015-05-17T11:54:37Z</time>
      </trkpt>
      <trkpt lat="40.512633" lon="-5.009067">
        <ele>1503.0</ele>
        <time>2015-05-17T11:54:39Z</time>
      </trkpt>
      <trkpt lat="40.512633" lon="-5.009050">
        <ele>1506.0</ele>
        <time>2015-05-17T11:54:41Z</time>
      </trkpt>
      <trkpt lat="40.512667" lon="-5.008967">
        <ele>1507.0</ele>
        <time>2015-05-17T11:54:43Z</time>
      </trkpt>
      <trkpt lat="40.512667" lon="-5.008833">
        <ele>1508.0</ele>
        <time>2015-05-17T11:54:45Z</time>
      </trkpt>
      <trkpt lat="40.512617" lon="-5.008733">
        <ele>1518.0</ele>
        <time>2015-05-17T11:54:47Z</time>
      </trkpt>
      <trkpt lat="40.512533" lon="-5.008700">
        <ele>1522.0</ele>
        <time>2015-05-17T11:54:49Z</time>
      </trkpt>
      <trkpt lat="40.512383" lon="-5.008650">
        <ele>1521.0</ele>
        <time>2015-05-17T11:54:51Z</time>
      </trkpt>
      <trkpt lat="40.512150" lon="-5.008667">
        <ele>1523.0</ele>
        <time>2015-05-17T11:54:53Z</time>
      </trkpt>
      <trkpt lat="40.511933" lon="-5.008783">
        <ele>1526.0</ele>
        <time>2015-05-17T11:54:55Z</time>
      </trkpt>
      <trkpt lat="40.511750" lon="-5.009033">
        <ele>1524.0</ele>
        <time>2015-05-17T11:54:57Z</time>
      </trkpt>
      <trkpt lat="40.511633" lon="-5.009417">
        <ele>1526.0</ele>
        <time>2015-05-17T11:54:59Z</time>
      </trkpt>
      <trkpt lat="40.511633" lon="-5.009750">
        <ele>1534.0</ele>
        <time>2015-05-17T11:55:01Z</time>
      </trkpt>
      <trkpt lat="40.511683" lon="-5.009967">
        <ele>1540.0</ele>
        <time>2015-05-17T11:55:03Z</time>
      </trkpt>
      <trkpt lat="40.511800" lon="-5.010133">
        <ele>1544.0</ele>
        <time>2015-05-17T11:55:05Z</time>
      </trkpt>
      <trkpt lat="40.511917" lon="-5.010300">
        <ele>1550.0</ele>
        <time>2015-05-17T11:55:07Z</time>
      </trkpt>
      <trkpt lat="40.512033" lon="-5.010383">
        <ele>1553.0</ele>
        <time>2015-05-17T11:55:09Z</time>
      </trkpt>
      <trkpt lat="40.512117" lon="-5.010367">
        <ele>1553.0</ele>
        <time>2015-05-17T11:55:11Z</time>
      </trkpt>
      <trkpt lat="40.512150" lon="-5.010283">
        <ele>1557.0</ele>
        <time>2015-05-17T11:55:13Z</time>
      </trkpt>
      <trkpt lat="40.512117" lon="-5.010200">
        <ele>1562.0</ele>
        <time>2015-05-17T11:55:15Z</time>
      </trkpt>
      <trkpt lat="40.512000" lon="-5.010117">
        <ele>1566.0</ele>
        <time>2015-05-17T11:55:17Z</time>
      </trkpt>
      <trkpt lat="40.511850" lon="-5.010067">
        <ele>1568.0</ele>
        <time>2015-05-17T11:55:19Z</time>
      </trkpt>
      <trkpt lat="40.511617" lon="-5.010100">
        <ele>1568.0</ele>
        <time>2015-05-17T11:55:21Z</time>
      </trkpt>
      <trkpt lat="40.511400" lon="-5.010283">
        <ele>1571.0</ele>
        <time>2015-05-17T11:55:23Z</time>
      </trkpt>
      <trkpt lat="40.511250" lon="-5.010567">
        <ele>1572.0</ele>
        <time>2015-05-17T11:55:25Z</time>
      </trkpt>
      <trkpt lat="40.511200" lon="-5.010917">
        <ele>1572.0</ele>
        <time>2015-05-17T11:55:27Z</time>
      </trkpt>
      <trkpt lat="40.511250" lon="-5.011233">
        <ele>1578.0</ele>
        <time>2015-05-17T11:55:29Z</time>
      </trkpt>
      <trkpt lat="40.511333" lon="-5.011433">
        <ele>1584.0</ele>
        <time>2015-05-17T11:55:31Z</time>
      </trkpt>
      <trkpt lat="40.511433" lon="-5.011533">
        <ele>1588.0</ele>
        <time>2015-05-17T11:55:33Z</time>
      </trkpt>
      <trkpt lat="40.511550" lon="-5.011567">
        <ele>1592.0</ele>
        <time>2015-05-17T11:55:35Z</time>
      </trkpt>
      <trkpt lat="40.511650" lon="-5.011567">
        <ele>1597.0</ele>
        <time>2015-05-17T11:55:37Z</time>
      </trkpt>
      <trkpt lat="40.511700" lon="-5.011483">
        <ele>1600.0</ele>
        <time>2015-05-17T11:55:39Z</time>
      </trkpt>
      <trkpt lat="40.511683" lon="-5.011317">
        <ele>1602.0</ele>
        <time>2015-05-17T11:55:41Z</time>
      </trkpt>
      <trkpt lat="40.511567" lon="-5.011200">
        <ele>1608.0</ele>
        <time>2015-05-17T11:55:43Z</time>
      </trkpt>
      <trkpt lat="40.511417" lon="-5.011150">
        <ele>1610.0</ele>
        <time>2015-05-17T11:55:45Z</time>
      </trkpt>
      <trkpt lat="40.511200" lon="-5.011183">
        <ele>1606.0</ele>
        <time>2015-05-17T11:55:47Z</time>
      </trkpt>
      <trkpt lat="40.510983" lon="-5.011317">
        <ele>1605.0</ele>
        <time>2015-05-17T11:55:49Z</time>
      </trkpt>
      <trkpt lat="40.510817" lon="-5.011550">
        <ele>1605.0</ele>
        <time>2015-05-17T11:55:51Z</time>
      </trkpt>
      <trkpt lat="40.510683" lon="-5.011883">
        <ele>1606.0</ele>
        <time>2015-05-17T11:55:53Z</time>
      </trkpt>
      <trkpt lat="40.510650" lon="-5.012217">
        <ele>1609.0</ele>
        <time>2015-05-17T11:55:55Z</time>
      </trkpt>
      <trkpt lat="40.510717" lon="-5.012467">
        <ele>1614.0</ele>
        <time>2015-05-17T11:55:57Z</time>
      </trkpt>
      <trkpt lat="40.510817" lon="-5.012617">
        <ele>1621.0</ele>
        <time>2015-05-17T11:55:59Z</time>
      </trkpt>
      <trkpt lat="40.510917" lon="-5.012717">
        <ele>1625.0</ele>
        <time>2015-05-17T11:56:01Z</time>
      </trkpt>
      <trkpt lat="40.511017" lon="-5.012750">
        <ele>1632.0</ele>
        <time>2015-05-17T11:56:03Z</time>
      </trkpt>
      <trkpt lat="40.511067" lon="-5.012717">
        <ele>1637.0</ele>
        <time>2015-05-17T11:56:05Z</time>
      </trkpt>
      <trkpt lat="40.511050" lon="-5.012617">
        <ele>1639.0</ele>
        <time>2015-05-17T11:56:07Z</time>
      </trkpt>
      <trkpt lat="40.510967" lon="-5.012517">
        <ele>1641.0</ele>
        <time>2015-05-17T11:56:09Z</time>
      </trkpt>
      <trkpt lat="40.510750" lon="-5.012483">
        <ele>1642.0</ele>
        <time>2015-05-17T11:56:11Z</time>
      </trkpt>
      <trkpt lat="40.510517" lon="-5.012550">
        <ele>1645.0</ele>
        <time>2015-05-17T11:56:13Z</time>
      </trkpt>
      <trkpt lat="40.510317" lon="-5.012717">
        <ele>1649.0</ele>
        <time>2015-05-17T11:56:15Z</time>
      </trkpt>
      <trkpt lat="40.510133" lon="-5.013000">
        <ele>1650.0</ele>
        <time>2015-05-17T11:56:17Z</time>
      </trkpt>
      <trkpt lat="40.510017" lon="-5.013383">
        <ele>1655.0</ele>
        <time>2015-05-17T11:56:19Z</time>
      </trkpt>
      <trkpt lat="40.510050" lon="-5.013650">
        <ele>1662.0</ele>
        <time>2015-05-17T11:56:21Z</time>
      </trkpt>
      <trkpt lat="40.510083" lon="-5.013833">
        <ele>1667.0</ele>
        <time>2015-05-17T11:56:23Z</time>
      </trkpt>
      <trkpt lat="40.510183" lon="-5.013967">
        <ele>1669.0</ele>
        <time>2015-05-17T11:56:25Z</time>
      </trkpt>
      <trkpt lat="40.510283" lon="-5.014000">
        <ele>1675.0</ele>
        <time>2015-05-17T11:56:27Z</time>
      </trkpt>
      <trkpt lat="40.510283" lon="-5.013950">
        <ele>1679.0</ele>
        <time>2015-05-17T11:56:29Z</time>
      </trkpt>
      <trkpt lat="40.510233" lon="-5.013883">
        <ele>1682.0</ele>
        <time>2015-05-17T11:56:31Z</time>
      </trkpt>
      <trkpt lat="40.510100" lon="-5.013817">
        <ele>1686.0</ele>
        <time>2015-05-17T11:56:33Z</time>
      </trkpt>
      <trkpt lat="40.509883" lon="-5.013800">
        <ele>1689.0</ele>
        <time>2015-05-17T11:56:35Z</time>
      </trkpt>
      <trkpt lat="40.509633" lon="-5.013933">
        <ele>1691.0</ele>
        <time>2015-05-17T11:56:37Z</time>
      </trkpt>
      <trkpt lat="40.509417" lon="-5.014217">
        <ele>1695.0</ele>
        <time>2015-05-17T11:56:39Z</time>
      </trkpt>
      <trkpt lat="40.509300" lon="-5.014583">
        <ele>1701.0</ele>
        <time>2015-05-17T11:56:41Z</time>
      </trkpt>
      <trkpt lat="40.509250" lon="-5.014933">
        <ele>1705.0</ele>
        <time>2015-05-17T11:56:43Z</time>
      </trkpt>
      <trkpt lat="40.509300" lon="-5.015233">
        <ele>1710.0</ele>
        <time>2015-05-17T11:56:45Z</time>
      </trkpt>
      <trkpt lat="40.509367" lon="-5.015400">
        <ele>1717.0</ele>
        <time>2015-05-17T11:56:47Z</time>
      </trkpt>
      <trkpt lat="40.509417" lon="-5.015500">
        <ele>1723.0</ele>
        <time>2015-05-17T11:56:49Z</time>
      </trkpt>
      <trkpt lat="40.509467" lon="-5.015500">
        <ele>1725.0</ele>
        <time>2015-05-17T11:56:51Z</time>
      </trkpt>
      <trkpt lat="40.509467" lon="-5.015400">
        <ele>1728.0</ele>
        <time>2015-05-17T11:56:53Z</time>
      </trkpt>
      <trkpt lat="40.509417" lon="-5.015367">
        <ele>1737.0</ele>
        <time>2015-05-17T11:56:55Z</time>
      </trkpt>
      <trkpt lat="40.509300" lon="-5.015383">
        <ele>1741.0</ele>
        <time>2015-05-17T11:56:57Z</time>
      </trkpt>
      <trkpt lat="40.509100" lon="-5.015317">
        <ele>1740.0</ele>
        <time>2015-05-17T11:56:59Z</time>
      </trkpt>
      <trkpt lat="40.508800" lon="-5.015383">
        <ele>1746.0</ele>
        <time>2015-05-17T11:57:01Z</time>
      </trkpt>
      <trkpt lat="40.508567" lon="-5.015667">
        <ele>1750.0</ele>
        <time>2015-05-17T11:57:03Z</time>
      </trkpt>
      <trkpt lat="40.508433" lon="-5.016050">
        <ele>1754.0</ele>
        <time>2015-05-17T11:57:05Z</time>
      </trkpt>
      <trkpt lat="40.508383" lon="-5.016467">
        <ele>1760.0</ele>
        <time>2015-05-17T11:57:07Z</time>
      </trkpt>
      <trkpt lat="40.508417" lon="-5.016783">
        <ele>1765.0</ele>
        <time>2015-05-17T11:57:09Z</time>
      </trkpt>
      <trkpt lat="40.508500" lon="-5.017017">
        <ele>1771.0</ele>
        <time>2015-05-17T11:57:11Z</time>
      </trkpt>
      <trkpt lat="40.508567" lon="-5.017167">
        <ele>1777.0</ele>
        <time>2015-05-17T11:57:13Z</time>
      </trkpt>
      <trkpt lat="40.508633" lon="-5.017250">
        <ele>1779.0</ele>
        <time>2015-05-17T11:57:15Z</time>
      </trkpt>
      <trkpt lat="40.508700" lon="-5.017267">
        <ele>1780.0</ele>
        <time>2015-05-17T11:57:17Z</time>
      </trkpt>
      <trkpt lat="40.508683" lon="-5.017200">
        <ele>1782.0</ele>
        <time>2015-05-17T11:57:19Z</time>
      </trkpt>
      <trkpt lat="40.508583" lon="-5.017133">
        <ele>1788.0</ele>
        <time>2015-05-17T11:57:21Z</time>
      </trkpt>
      <trkpt lat="40.508450" lon="-5.017133">
        <ele>1795.0</ele>
        <time>2015-05-17T11:57:23Z</time>
      </trkpt>
      <trkpt lat="40.508233" lon="-5.017200">
        <ele>1798.0</ele>
        <time>2015-05-17T11:57:25Z</time>
      </trkpt>
      <trkpt lat="40.507967" lon="-5.017450">
        <ele>1802.0</ele>
        <time>2015-05-17T11:57:27Z</time>
      </trkpt>
      <trkpt lat="40.507800" lon="-5.017767">
        <ele>1807.0</ele>
        <time>2015-05-17T11:57:29Z</time>
      </trkpt>
      <trkpt lat="40.507767" lon="-5.018117">
        <ele>1810.0</ele>
        <time>2015-05-17T11:57:31Z</time>
      </trkpt>
      <trkpt lat="40.507833" lon="-5.018417">
        <ele>1813.0</ele>
        <time>2015-05-17T11:57:33Z</time>
      </trkpt>
      <trkpt lat="40.507933" lon="-5.018583">
        <ele>1820.0</ele>
        <time>2015-05-17T11:57:35Z</time>
      </trkpt>
      <trkpt lat="40.508000" lon="-5.018700">
        <ele>1826.0</ele>
        <time>2015-05-17T11:57:37Z</time>
      </trkpt>
      <trkpt lat="40.508050" lon="-5.018767">
        <ele>1828.0</ele>
        <time>2015-05-17T11:57:39Z</time>
      </trkpt>
      <trkpt lat="40.508150" lon="-5.018783">
        <ele>1830.0</ele>
        <time>2015-05-17T11:57:41Z</time>
      </trkpt>
      <trkpt lat="40.508200" lon="-5.018700">
        <ele>1837.0</ele>
        <time>2015-05-17T11:57:43Z</time>
      </trkpt>
      <trkpt lat="40.508150" lon="-5.018633">
        <ele>1843.0</ele>
        <time>2015-05-17T11:57:45Z</time>
      </trkpt>
      <trkpt lat="40.508050" lon="-5.018567">
        <ele>1846.0</ele>
        <time>2015-05-17T11:57:47Z</time>
      </trkpt>
      <trkpt lat="40.507850" lon="-5.018550">
        <ele>1849.0</ele>
        <time>2015-05-17T11:57:49Z</time>
      </trkpt>
      <trkpt lat="40.507583" lon="-5.018717">
        <ele>1852.0</ele>
        <time>2015-05-17T11:57:51Z</time>
      </trkpt>
      <trkpt lat="40.507383" lon="-5.019000">
        <ele>1855.0</ele>
        <time>2015-05-17T11:57:53Z</time>
      </trkpt>
      <trkpt lat="40.507300" lon="-5.019400">
        <ele>1857.0</ele>
        <time>2015-05-17T11:57:55Z</time>
      </trkpt>
      <trkpt lat="40.507333" lon="-5.019733">
        <ele>1861.0</ele>
        <time>2015-05-17T11:57:57Z</time>
      </trkpt>
      <trkpt lat="40.507417" lon="-5.019917">
        <ele>1866.0</ele>
        <time>2015-05-17T11:57:59Z</time>
      </trkpt>
      <trkpt lat="40.507500" lon="-5.020017">
        <ele>1871.0</ele>
        <time>2015-05-17T11:58:01Z</time>
      </trkpt>
      <trkpt lat="40.507600" lon="-5.020067">
        <ele>1874.0</ele>
        <time>2015-05-17T11:58:03Z</time>
      </trkpt>
      <trkpt lat="40.507667" lon="-5.020000">
        <ele>1876.0</ele>
        <time>2015-05-17T11:58:05Z</time>
      </trkpt>
      <trkpt lat="40.507633" lon="-5.019900">
        <ele>1881.0</ele>
        <time>2015-05-17T11:58:07Z</time>
      </trkpt>
      <trkpt lat="40.507533" lon="-5.019850">
        <ele>1884.0</ele>
        <time>2015-05-17T11:58:09Z</time>
      </trkpt>
      <trkpt lat="40.507367" lon="-5.019783">
        <ele>1884.0</ele>
        <time>2015-05-17T11:58:11Z</time>
      </trkpt>
      <trkpt lat="40.507100" lon="-5.019800">
        <ele>1885.0</ele>
        <time>2015-05-17T11:58:13Z</time>
      </trkpt>
      <trkpt lat="40.506867" lon="-5.019983">
        <ele>1888.0</ele>
        <time>2015-05-17T11:58:15Z</time>
      </trkpt>
      <trkpt lat="40.506683" lon="-5.020300">
        <ele>1889.0</ele>
        <time>2015-05-17T11:58:17Z</time>
      </trkpt>
      <trkpt lat="40.506567" lon="-5.020683">
        <ele>1892.0</ele>
        <time>2015-05-17T11:58:19Z</time>
      </trkpt>
      <trkpt lat="40.506533" lon="-5.021067">
        <ele>1895.0</ele>
        <time>2015-05-17T11:58:21Z</time>
      </trkpt>
      <trkpt lat="40.506567" lon="-5.021383">
        <ele>1899.0</ele>
        <time>2015-05-17T11:58:23Z</time>
      </trkpt>
      <trkpt lat="40.506617" lon="-5.021633">
        <ele>1902.0</ele>
        <time>2015-05-17T11:58:25Z</time>
      </trkpt>
      <trkpt lat="40.506683" lon="-5.021800">
        <ele>1904.0</ele>
        <time>2015-05-17T11:58:27Z</time>
      </trkpt>
      <trkpt lat="40.506800" lon="-5.021883">
        <ele>1905.0</ele>
        <time>2015-05-17T11:58:29Z</time>
      </trkpt>
      <trkpt lat="40.506883" lon="-5.021867">
        <ele>1908.0</ele>
        <time>2015-05-17T11:58:31Z</time>
      </trkpt>
      <trkpt lat="40.506917" lon="-5.021817">
        <ele>1912.0</ele>
        <time>2015-05-17T11:58:33Z</time>
      </trkpt>
      <trkpt lat="40.506917" lon="-5.021717">
        <ele>1913.0</ele>
        <time>2015-05-17T11:58:35Z</time>
      </trkpt>
      <trkpt lat="40.506833" lon="-5.021550">
        <ele>1913.0</ele>
        <time>2015-05-17T11:58:37Z</time>
      </trkpt>
      <trkpt lat="40.506650" lon="-5.021433">
        <ele>1915.0</ele>
        <time>2015-05-17T11:58:39Z</time>
      </trkpt>
      <trkpt lat="40.506417" lon="-5.021417">
        <ele>1917.0</ele>
        <time>2015-05-17T11:58:41Z</time>
      </trkpt>
      <trkpt lat="40.506167" lon="-5.021533">
        <ele>1918.0</ele>
        <time>2015-05-17T11:58:43Z</time>
      </trkpt>
      <trkpt lat="40.505950" lon="-5.021783">
        <ele>1918.0</ele>
        <time>2015-05-17T11:58:45Z</time>
      </trkpt>
      <trkpt lat="40.505833" lon="-5.022167">
        <ele>1918.0</ele>
        <time>2015-05-17T11:58:47Z</time>
      </trkpt>
      <trkpt lat="40.505850" lon="-5.022500">
        <ele>1920.0</ele>
        <time>2015-05-17T11:58:49Z</time>
      </trkpt>
      <trkpt lat="40.505933" lon="-5.022717">
        <ele>1921.0</ele>
        <time>2015-05-17T11:58:51Z</time>
      </trkpt>
      <trkpt lat="40.506033" lon="-5.022833">
        <ele>1922.0</ele>
        <time>2015-05-17T11:58:53Z</time>
      </trkpt>
      <trkpt lat="40.506117" lon="-5.022850">
        <ele>1923.0</ele>
        <time>2015-05-17T11:58:55Z</time>
      </trkpt>
      <trkpt lat="40.506200" lon="-5.022800">
        <ele>1925.0</ele>
        <time>2015-05-17T11:58:57Z</time>
      </trkpt>
      <trkpt lat="40.506217" lon="-5.022717">
        <ele>1928.0</ele>
        <time>2015-05-17T11:58:59Z</time>
      </trkpt>
      <trkpt lat="40.506233" lon="-5.022617">
        <ele>1927.0</ele>
        <time>2015-05-17T11:59:01Z</time>
      </trkpt>
      <trkpt lat="40.506217" lon="-5.022467">
        <ele>1926.0</ele>
        <time>2015-05-17T11:59:03Z</time>
      </trkpt>
      <trkpt lat="40.506250" lon="-5.022350">
        <ele>1927.0</ele>
        <time>2015-05-17T11:59:05Z</time>
      </trkpt>
      <trkpt lat="40.506283" lon="-5.022300">
        <ele>1927.0</ele>
        <time>2015-05-17T11:59:07Z</time>
      </trkpt>
      <trkpt lat="40.506333" lon="-5.022233">
        <ele>1924.0</ele>
        <time>2015-05-17T11:59:09Z</time>
      </trkpt>
      <trkpt lat="40.506417" lon="-5.022183">
        <ele>1921.0</ele>
        <time>2015-05-17T11:59:11Z</time>
      </trkpt>
      <trkpt lat="40.506517" lon="-5.022167">
        <ele>1920.0</ele>
        <time>2015-05-17T11:59:13Z</time>
      </trkpt>
      <trkpt lat="40.506600" lon="-5.022150">
        <ele>1918.0</ele>
        <time>2015-05-17T11:59:15Z</time>
      </trkpt>
      <trkpt lat="40.506733" lon="-5.022150">
        <ele>1916.0</ele>
        <time>2015-05-17T11:59:17Z</time>
      </trkpt>
      <trkpt lat="40.506817" lon="-5.022133">
        <ele>1915.0</ele>
        <time>2015-05-17T11:59:19Z</time>
      </trkpt>
      <trkpt lat="40.506900" lon="-5.022083">
        <ele>1912.0</ele>
        <time>2015-05-17T11:59:21Z</time>
      </trkpt>
      <trkpt lat="40.507017" lon="-5.022067">
        <ele>1908.0</ele>
        <time>2015-05-17T11:59:23Z</time>
      </trkpt>
      <trkpt lat="40.507117" lon="-5.022050">
        <ele>1905.0</ele>
        <time>2015-05-17T11:59:25Z</time>
      </trkpt>
      <trkpt lat="40.507200" lon="-5.022000">
        <ele>1900.0</ele>
        <time>2015-05-17T11:59:27Z</time>
      </trkpt>
      <trkpt lat="40.507300" lon="-5.021950">
        <ele>1894.0</ele>
        <time>2015-05-17T11:59:29Z</time>
      </trkpt>
      <trkpt lat="40.507417" lon="-5.021917">
        <ele>1889.0</ele>
        <time>2015-05-17T11:59:31Z</time>
      </trkpt>
      <trkpt lat="40.507500" lon="-5.021850">
        <ele>1884.0</ele>
        <time>2015-05-17T11:59:33Z</time>
      </trkpt>
      <trkpt lat="40.507583" lon="-5.021750">
        <ele>1878.0</ele>
        <time>2015-05-17T11:59:35Z</time>
      </trkpt>
      <trkpt lat="40.507667" lon="-5.021700">
        <ele>1873.0</ele>
        <time>2015-05-17T11:59:37Z</time>
      </trkpt>
      <trkpt lat="40.507767" lon="-5.021650">
        <ele>1868.0</ele>
        <time>2015-05-17T11:59:39Z</time>
      </trkpt>
      <trkpt lat="40.507867" lon="-5.021633">
        <ele>1863.0</ele>
        <time>2015-05-17T11:59:41Z</time>
      </trkpt>
      <trkpt lat="40.507983" lon="-5.021633">
        <ele>1859.0</ele>
        <time>2015-05-17T11:59:43Z</time>
      </trkpt>
      <trkpt lat="40.508083" lon="-5.021617">
        <ele>1856.0</ele>
        <time>2015-05-17T11:59:45Z</time>
      </trkpt>
      <trkpt lat="40.508200" lon="-5.021617">
        <ele>1851.0</ele>
        <time>2015-05-17T11:59:47Z</time>
      </trkpt>
      <trkpt lat="40.508333" lon="-5.021583">
        <ele>1847.0</ele>
        <time>2015-05-17T11:59:49Z</time>
      </trkpt>
      <trkpt lat="40.508450" lon="-5.021533">
        <ele>1845.0</ele>
        <time>2015-05-17T11:59:51Z</time>
      </trkpt>
      <trkpt lat="40.508567" lon="-5.021517">
        <ele>1844.0</ele>
        <time>2015-05-17T11:59:53Z</time>
      </trkpt>
      <trkpt lat="40.508717" lon="-5.021517">
        <ele>1840.0</ele>
        <time>2015-05-17T11:59:55Z</time>
      </trkpt>
      <trkpt lat="40.508850" lon="-5.021500">
        <ele>1837.0</ele>
        <time>2015-05-17T11:59:57Z</time>
      </trkpt>
      <trkpt lat="40.508983" lon="-5.021500">
        <ele>1832.0</ele>
        <time>2015-05-17T11:59:59Z</time>
      </trkpt>
      <trkpt lat="40.509133" lon="-5.021483">
        <ele>1828.0</ele>
        <time>2015-05-17T12:00:01Z</time>
      </trkpt>
      <trkpt lat="40.509300" lon="-5.021433">
        <ele>1824.0</ele>
        <time>2015-05-17T12:00:03Z</time>
      </trkpt>
      <trkpt lat="40.509450" lon="-5.021383">
        <ele>1820.0</ele>
        <time>2015-05-17T12:00:05Z</time>
      </trkpt>
      <trkpt lat="40.509600" lon="-5.021333">
        <ele>1817.0</ele>
        <time>2015-05-17T12:00:07Z</time>
      </trkpt>
      <trkpt lat="40.509767" lon="-5.021317">
        <ele>1815.0</ele>
        <time>2015-05-17T12:00:09Z</time>
      </trkpt>
      <trkpt lat="40.509950" lon="-5.021300">
        <ele>1816.0</ele>
        <time>2015-05-17T12:00:11Z</time>
      </trkpt>
      <trkpt lat="40.510083" lon="-5.021283">
        <ele>1819.0</ele>
        <time>2015-05-17T12:00:13Z</time>
      </trkpt>
      <trkpt lat="40.510183" lon="-5.021267">
        <ele>1819.0</ele>
        <time>2015-05-17T12:00:15Z</time>
      </trkpt>
      <trkpt lat="40.510317" lon="-5.021217">
        <ele>1817.0</ele>
        <time>2015-05-17T12:00:17Z</time>
      </trkpt>
      <trkpt lat="40.510467" lon="-5.021200">
        <ele>1816.0</ele>
        <time>2015-05-17T12:00:19Z</time>
      </trkpt>
      <trkpt lat="40.510583" lon="-5.021183">
        <ele>1817.0</ele>
        <time>2015-05-17T12:00:21Z</time>
      </trkpt>
      <trkpt lat="40.510683" lon="-5.021133">
        <ele>1815.0</ele>
        <time>2015-05-17T12:00:23Z</time>
      </trkpt>
      <trkpt lat="40.510817" lon="-5.021100">
        <ele>1813.0</ele>
        <time>2015-05-17T12:00:25Z</time>
      </trkpt>
      <trkpt lat="40.510917" lon="-5.021117">
        <ele>1810.0</ele>
        <time>2015-05-17T12:00:27Z</time>
      </trkpt>
      <trkpt lat="40.511017" lon="-5.021150">
        <ele>1802.0</ele>
        <time>2015-05-17T12:00:29Z</time>
      </trkpt>
      <trkpt lat="40.511167" lon="-5.021150">
        <ele>1794.0</ele>
        <time>2015-05-17T12:00:31Z</time>
      </trkpt>
      <trkpt lat="40.511300" lon="-5.021167">
        <ele>1789.0</ele>
        <time>2015-05-17T12:00:33Z</time>
      </trkpt>
      <trkpt lat="40.511417" lon="-5.021167">
        <ele>1781.0</ele>
        <time>2015-05-17T12:00:35Z</time>
      </trkpt>
      <trkpt lat="40.511567" lon="-5.021217">
        <ele>1773.0</ele>
        <time>2015-05-17T12:00:37Z</time>
      </trkpt>
      <trkpt lat="40.511733" lon="-5.021300">
        <ele>1768.0</ele>
        <time>2015-05-17T12:00:39Z</time>
      </trkpt>
      <trkpt lat="40.511883" lon="-5.021333">
        <ele>1765.0</ele>
        <time>2015-05-17T12:00:41Z</time>
      </trkpt>
      <trkpt lat="40.512033" lon="-5.021367">
        <ele>1762.0</ele>
        <time>2015-05-17T12:00:43Z</time>
      </trkpt>
      <trkpt lat="40.512183" lon="-5.021383">
        <ele>1759.0</ele>
        <time>2015-05-17T12:00:45Z</time>
      </trkpt>
      <trkpt lat="40.512333" lon="-5.021400">
        <ele>1758.0</ele>
        <time>2015-05-17T12:00:47Z</time>
      </trkpt>
      <trkpt lat="40.512483" lon="-5.021450">
        <ele>1757.0</ele>
        <time>2015-05-17T12:00:49Z</time>
      </trkpt>
      <trkpt lat="40.512633" lon="-5.021483">
        <ele>1753.0</ele>
        <time>2015-05-17T12:00:51Z</time>
      </trkpt>
      <trkpt lat="40.512817" lon="-5.021533">
        <ele>1750.0</ele>
        <time>2015-05-17T12:00:53Z</time>
      </trkpt>
      <trkpt lat="40.512967" lon="-5.021567">
        <ele>1749.0</ele>
        <time>2015-05-17T12:00:55Z</time>
      </trkpt>
      <trkpt lat="40.513100" lon="-5.021633">
        <ele>1749.0</ele>
        <time>2015-05-17T12:00:57Z</time>
      </trkpt>
      <trkpt lat="40.513233" lon="-5.021717">
        <ele>1744.0</ele>
        <time>2015-05-17T12:00:59Z</time>
      </trkpt>
      <trkpt lat="40.513383" lon="-5.021783">
        <ele>1740.0</ele>
        <time>2015-05-17T12:01:01Z</time>
      </trkpt>
      <trkpt lat="40.513500" lon="-5.021833">
        <ele>1738.0</ele>
        <time>2015-05-17T12:01:03Z</time>
      </trkpt>
      <trkpt lat="40.513617" lon="-5.021933">
        <ele>1735.0</ele>
        <time>2015-05-17T12:01:05Z</time>
      </trkpt>
      <trkpt lat="40.513767" lon="-5.022017">
        <ele>1731.0</ele>
        <time>2015-05-17T12:01:07Z</time>
      </trkpt>
      <trkpt lat="40.513900" lon="-5.022100">
        <ele>1728.0</ele>
        <time>2015-05-17T12:01:09Z</time>
      </trkpt>
      <trkpt lat="40.514033" lon="-5.022183">
        <ele>1725.0</ele>
        <time>2015-05-17T12:01:11Z</time>
      </trkpt>
      <trkpt lat="40.514183" lon="-5.022267">
        <ele>1720.0</ele>
        <time>2015-05-17T12:01:13Z</time>
      </trkpt>
      <trkpt lat="40.514367" lon="-5.022350">
        <ele>1716.0</ele>
        <time>2015-05-17T12:01:15Z</time>
      </trkpt>
      <trkpt lat="40.514533" lon="-5.022450">
        <ele>1713.0</ele>
        <time>2015-05-17T12:01:17Z</time>
      </trkpt>
      <trkpt lat="40.514683" lon="-5.022550">
        <ele>1711.0</ele>
        <time>2015-05-17T12:01:19Z</time>
      </trkpt>
      <trkpt lat="40.514850" lon="-5.022667">
        <ele>1708.0</ele>
        <time>2015-05-17T12:01:21Z</time>
      </trkpt>
      <trkpt lat="40.515017" lon="-5.022750">
        <ele>1707.0</ele>
        <time>2015-05-17T12:01:23Z</time>
      </trkpt>
      <trkpt lat="40.515167" lon="-5.022833">
        <ele>1707.0</ele>
        <time>2015-05-17T12:01:25Z</time>
      </trkpt>
      <trkpt lat="40.515317" lon="-5.022900">
        <ele>1706.0</ele>
        <time>2015-05-17T12:01:27Z</time>
      </trkpt>
      <trkpt lat="40.515483" lon="-5.023000">
        <ele>1706.0</ele>
        <time>2015-05-17T12:01:29Z</time>
      </trkpt>
      <trkpt lat="40.515650" lon="-5.023150">
        <ele>1707.0</ele>
        <time>2015-05-17T12:01:31Z</time>
      </trkpt>
      <trkpt lat="40.515800" lon="-5.023283">
        <ele>1708.0</ele>
        <time>2015-05-17T12:01:33Z</time>
      </trkpt>
      <trkpt lat="40.515967" lon="-5.023433">
        <ele>1709.0</ele>
        <time>2015-05-17T12:01:35Z</time>
      </trkpt>
      <trkpt lat="40.516083" lon="-5.023733">
        <ele>1717.0</ele>
        <time>2015-05-17T12:01:37Z</time>
      </trkpt>
      <trkpt lat="40.516100" lon="-5.024033">
        <ele>1727.0</ele>
        <time>2015-05-17T12:01:39Z</time>
      </trkpt>
      <trkpt lat="40.516017" lon="-5.024283">
        <ele>1732.0</ele>
        <time>2015-05-17T12:01:41Z</time>
      </trkpt>
      <trkpt lat="40.515850" lon="-5.024550">
        <ele>1732.0</ele>
        <time>2015-05-17T12:01:43Z</time>
      </trkpt>
      <trkpt lat="40.515550" lon="-5.024650">
        <ele>1729.0</ele>
        <time>2015-05-17T12:01:45Z</time>
      </trkpt>
      <trkpt lat="40.515283" lon="-5.024467">
        <ele>1734.0</ele>
        <time>2015-05-17T12:01:47Z</time>
      </trkpt>
      <trkpt lat="40.515100" lon="-5.024383">
        <ele>1748.0</ele>
        <time>2015-05-17T12:01:49Z</time>
      </trkpt>
      <trkpt lat="40.514950" lon="-5.024400">
        <ele>1755.0</ele>
        <time>2015-05-17T12:01:51Z</time>
      </trkpt>
      <trkpt lat="40.514783" lon="-5.024283">
        <ele>1756.0</ele>
        <time>2015-05-17T12:01:53Z</time>
      </trkpt>
      <trkpt lat="40.514733" lon="-5.024100">
        <ele>1758.0</ele>
        <time>2015-05-17T12:01:55Z</time>
      </trkpt>
      <trkpt lat="40.514800" lon="-5.024000">
        <ele>1761.0</ele>
        <time>2015-05-17T12:01:57Z</time>
      </trkpt>
      <trkpt lat="40.514917" lon="-5.023950">
        <ele>1764.0</ele>
        <time>2015-05-17T12:01:59Z</time>
      </trkpt>
      <trkpt lat="40.515033" lon="-5.023967">
        <ele>1765.0</ele>
        <time>2015-05-17T12:02:01Z</time>
      </trkpt>
      <trkpt lat="40.515200" lon="-5.024067">
        <ele>1765.0</ele>
        <time>2015-05-17T12:02:03Z</time>
      </trkpt>
      <trkpt lat="40.515333" lon="-5.024267">
        <ele>1766.0</ele>
        <time>2015-05-17T12:02:05Z</time>
      </trkpt>
      <trkpt lat="40.515383" lon="-5.024550">
        <ele>1770.0</ele>
        <time>2015-05-17T12:02:07Z</time>
      </trkpt>
      <trkpt lat="40.515350" lon="-5.024883">
        <ele>1779.0</ele>
        <time>2015-05-17T12:02:09Z</time>
      </trkpt>
      <trkpt lat="40.515300" lon="-5.025150">
        <ele>1785.0</ele>
        <time>2015-05-17T12:02:11Z</time>
      </trkpt>
      <trkpt lat="40.515150" lon="-5.025417">
        <ele>1787.0</ele>
        <time>2015-05-17T12:02:13Z</time>
      </trkpt>
      <trkpt lat="40.514917" lon="-5.025583">
        <ele>1789.0</ele>
        <time>2015-05-17T12:02:15Z</time>
      </trkpt>
      <trkpt lat="40.514683" lon="-5.025567">
        <ele>1793.0</ele>
        <time>2015-05-17T12:02:17Z</time>
      </trkpt>
      <trkpt lat="40.514550" lon="-5.025467">
        <ele>1801.0</ele>
        <time>2015-05-17T12:02:19Z</time>
      </trkpt>
      <trkpt lat="40.514500" lon="-5.025317">
        <ele>1806.0</ele>
        <time>2015-05-17T12:02:21Z</time>
      </trkpt>
      <trkpt lat="40.514567" lon="-5.025167">
        <ele>1811.0</ele>
        <time>2015-05-17T12:02:23Z</time>
      </trkpt>
      <trkpt lat="40.514667" lon="-5.025100">
        <ele>1817.0</ele>
        <time>2015-05-17T12:02:25Z</time>
      </trkpt>
      <trkpt lat="40.514800" lon="-5.025133">
        <ele>1818.0</ele>
        <time>2015-05-17T12:02:27Z</time>
      </trkpt>
      <trkpt lat="40.514967" lon="-5.025217">
        <ele>1819.0</ele>
        <time>2015-05-17T12:02:29Z</time>
      </trkpt>
      <trkpt lat="40.515117" lon="-5.025283">
        <ele>1822.0</ele>
        <time>2015-05-17T12:02:31Z</time>
      </trkpt>
      <trkpt lat="40.515267" lon="-5.025367">
        <ele>1822.0</ele>
        <time>2015-05-17T12:02:33Z</time>
      </trkpt>
      <trkpt lat="40.515433" lon="-5.025567">
        <ele>1825.0</ele>
        <time>2015-05-17T12:02:35Z</time>
      </trkpt>
      <trkpt lat="40.515550" lon="-5.025767">
        <ele>1833.0</ele>
        <time>2015-05-17T12:02:37Z</time>
      </trkpt>
      <trkpt lat="40.515633" lon="-5.025933">
        <ele>1834.0</ele>
        <time>2015-05-17T12:02:39Z</time>
      </trkpt>
      <trkpt lat="40.515717" lon="-5.026150">
        <ele>1835.0</ele>
        <time>2015-05-17T12:02:41Z</time>
      </trkpt>
      <trkpt lat="40.515783" lon="-5.026367">
        <ele>1835.0</ele>
        <time>2015-05-17T12:02:43Z</time>
      </trkpt>
      <trkpt lat="40.515867" lon="-5.026533">
        <ele>1833.0</ele>
        <time>2015-05-17T12:02:45Z</time>
      </trkpt>
      <trkpt lat="40.515950" lon="-5.026683">
        <ele>1830.0</ele>
        <time>2015-05-17T12:02:47Z</time>
      </trkpt>
      <trkpt lat="40.516050" lon="-5.026833">
        <ele>1826.0</ele>
        <time>2015-05-17T12:02:49Z</time>
      </trkpt>
      <trkpt lat="40.516167" lon="-5.026950">
        <ele>1824.0</ele>
        <time>2015-05-17T12:02:51Z</time>
      </trkpt>
      <trkpt lat="40.516267" lon="-5.027083">
        <ele>1822.0</ele>
        <time>2015-05-17T12:02:53Z</time>
      </trkpt>
      <trkpt lat="40.516383" lon="-5.027217">
        <ele>1819.0</ele>
        <time>2015-05-17T12:02:55Z</time>
      </trkpt>
      <trkpt lat="40.516517" lon="-5.027300">
        <ele>1815.0</ele>
        <time>2015-05-17T12:02:57Z</time>
      </trkpt>
      <trkpt lat="40.516633" lon="-5.027417">
        <ele>1812.0</ele>
        <time>2015-05-17T12:02:59Z</time>
      </trkpt>
      <trkpt lat="40.516750" lon="-5.027517">
        <ele>1808.0</ele>
        <time>2015-05-17T12:03:01Z</time>
      </trkpt>
      <trkpt lat="40.516900" lon="-5.027583">
        <ele>1804.0</ele>
        <time>2015-05-17T12:03:03Z</time>
      </trkpt>
      <trkpt lat="40.517033" lon="-5.027650">
        <ele>1801.0</ele>
        <time>2015-05-17T12:03:05Z</time>
      </trkpt>
      <trkpt lat="40.517167" lon="-5.027750">
        <ele>1797.0</ele>
        <time>2015-05-17T12:03:07Z</time>
      </trkpt>
      <trkpt lat="40.517300" lon="-5.027850">
        <ele>1793.0</ele>
        <time>2015-05-17T12:03:09Z</time>
      </trkpt>
      <trkpt lat="40.517450" lon="-5.027967">
        <ele>1789.0</ele>
        <time>2015-05-17T12:03:11Z</time>
      </trkpt>
      <trkpt lat="40.517600" lon="-5.028067">
        <ele>1787.0</ele>
        <time>2015-05-17T12:03:13Z</time>
      </trkpt>
      <trkpt lat="40.517733" lon="-5.028183">
        <ele>1785.0</ele>
        <time>2015-05-17T12:03:15Z</time>
      </trkpt>
      <trkpt lat="40.517850" lon="-5.028300">
        <ele>1782.0</ele>
        <time>2015-05-17T12:03:17Z</time>
      </trkpt>
      <trkpt lat="40.518033" lon="-5.028400">
        <ele>1777.0</ele>
        <time>2015-05-17T12:03:19Z</time>
      </trkpt>
      <trkpt lat="40.518200" lon="-5.028517">
        <ele>1777.0</ele>
        <time>2015-05-17T12:03:21Z</time>
      </trkpt>
      <trkpt lat="40.518333" lon="-5.028617">
        <ele>1779.0</ele>
        <time>2015-05-17T12:03:23Z</time>
      </trkpt>
      <trkpt lat="40.518433" lon="-5.028750">
        <ele>1777.0</ele>
        <time>2015-05-17T12:03:25Z</time>
      </trkpt>
      <trkpt lat="40.518567" lon="-5.028900">
        <ele>1775.0</ele>
        <time>2015-05-17T12:03:27Z</time>
      </trkpt>
      <trkpt lat="40.518717" lon="-5.029033">
        <ele>1774.0</ele>
        <time>2015-05-17T12:03:29Z</time>
      </trkpt>
      <trkpt lat="40.518833" lon="-5.029167">
        <ele>1773.0</ele>
        <time>2015-05-17T12:03:31Z</time>
      </trkpt>
      <trkpt lat="40.518967" lon="-5.029300">
        <ele>1773.0</ele>
        <time>2015-05-17T12:03:33Z</time>
      </trkpt>
      <trkpt lat="40.519067" lon="-5.029450">
        <ele>1771.0</ele>
        <time>2015-05-17T12:03:35Z</time>
      </trkpt>
      <trkpt lat="40.519200" lon="-5.029617">
        <ele>1768.0</ele>
        <time>2015-05-17T12:03:37Z</time>
      </trkpt>
      <trkpt lat="40.519367" lon="-5.029783">
        <ele>1767.0</ele>
        <time>2015-05-17T12:03:39Z</time>
      </trkpt>
      <trkpt lat="40.519500" lon="-5.029950">
        <ele>1767.0</ele>
        <time>2015-05-17T12:03:41Z</time>
      </trkpt>
      <trkpt lat="40.519633" lon="-5.030167">
        <ele>1765.0</ele>
        <time>2015-05-17T12:03:43Z</time>
      </trkpt>
      <trkpt lat="40.519767" lon="-5.030433">
        <ele>1766.0</ele>
        <time>2015-05-17T12:03:45Z</time>
      </trkpt>
      <trkpt lat="40.519883" lon="-5.030700">
        <ele>1770.0</ele>
        <time>2015-05-17T12:03:47Z</time>
      </trkpt>
      <trkpt lat="40.520000" lon="-5.030917">
        <ele>1773.0</ele>
        <time>2015-05-17T12:03:49Z</time>
      </trkpt>
      <trkpt lat="40.520117" lon="-5.031083">
        <ele>1777.0</ele>
        <time>2015-05-17T12:03:51Z</time>
      </trkpt>
      <trkpt lat="40.520250" lon="-5.031200">
        <ele>1782.0</ele>
        <time>2015-05-17T12:03:53Z</time>
      </trkpt>
      <trkpt lat="40.520350" lon="-5.031217">
        <ele>1786.0</ele>
        <time>2015-05-17T12:03:55Z</time>
      </trkpt>
      <trkpt lat="40.520417" lon="-5.031167">
        <ele>1791.0</ele>
        <time>2015-05-17T12:03:57Z</time>
      </trkpt>
      <trkpt lat="40.520400" lon="-5.031083">
        <ele>1794.0</ele>
        <time>2015-05-17T12:03:59Z</time>
      </trkpt>
      <trkpt lat="40.520283" lon="-5.031000">
        <ele>1799.0</ele>
        <time>2015-05-17T12:04:01Z</time>
      </trkpt>
      <trkpt lat="40.520117" lon="-5.031033">
        <ele>1802.0</ele>
        <time>2015-05-17T12:04:03Z</time>
      </trkpt>
      <trkpt lat="40.519917" lon="-5.031217">
        <ele>1802.0</ele>
        <time>2015-05-17T12:04:05Z</time>
      </trkpt>
      <trkpt lat="40.519733" lon="-5.031500">
        <ele>1803.0</ele>
        <time>2015-05-17T12:04:07Z</time>
      </trkpt>
      <trkpt lat="40.519617" lon="-5.031867">
        <ele>1806.0</ele>
        <time>2015-05-17T12:04:09Z</time>
      </trkpt>
      <trkpt lat="40.519600" lon="-5.032250">
        <ele>1812.0</ele>
        <time>2015-05-17T12:04:11Z</time>
      </trkpt>
      <trkpt lat="40.519650" lon="-5.032533">
        <ele>1821.0</ele>
        <time>2015-05-17T12:04:13Z</time>
      </trkpt>
      <trkpt lat="40.519750" lon="-5.032750">
        <ele>1826.0</ele>
        <time>2015-05-17T12:04:15Z</time>
      </trkpt>
      <trkpt lat="40.519900" lon="-5.032883">
        <ele>1831.0</ele>
        <time>2015-05-17T12:04:17Z</time>
      </trkpt>
      <trkpt lat="40.520033" lon="-5.032933">
        <ele>1837.0</ele>
        <time>2015-05-17T12:04:19Z</time>
      </trkpt>
      <trkpt lat="40.520117" lon="-5.032883">
        <ele>1842.0</ele>
        <time>2015-05-17T12:04:21Z</time>
      </trkpt>
      <trkpt lat="40.520117" lon="-5.032800">
        <ele>1847.0</ele>
        <time>2015-05-17T12:04:23Z</time>
      </trkpt>
      <trkpt lat="40.520017" lon="-5.032700">
        <ele>1850.0</ele>
        <time>2015-05-17T12:04:25Z</time>
      </trkpt>
      <trkpt lat="40.519833" lon="-5.032683">
        <ele>1857.0</ele>
        <time>2015-05-17T12:04:27Z</time>
      </trkpt>
      <trkpt lat="40.519633" lon="-5.032800">
        <ele>1865.0</ele>
        <time>2015-05-17T12:04:29Z</time>
      </trkpt>
      <trkpt lat="40.519467" lon="-5.033017">
        <ele>1870.0</ele>
        <time>2015-05-17T12:04:31Z</time>
      </trkpt>
      <trkpt lat="40.519333" lon="-5.033350">
        <ele>1872.0</ele>
        <time>2015-05-17T12:04:33Z</time>
      </trkpt>
      <trkpt lat="40.519267" lon="-5.033750">
        <ele>1877.0</ele>
        <time>2015-05-17T12:04:35Z</time>
      </trkpt>
      <trkpt lat="40.519333" lon="-5.034067">
        <ele>1887.0</ele>
        <time>2015-05-17T12:04:37Z</time>
      </trkpt>
      <trkpt lat="40.519433" lon="-5.034283">
        <ele>1894.0</ele>
        <time>2015-05-17T12:04:39Z</time>
      </trkpt>
      <trkpt lat="40.519550" lon="-5.034433">
        <ele>1896.0</ele>
        <time>2015-05-17T12:04:41Z</time>
      </trkpt>
      <trkpt lat="40.519700" lon="-5.034500">
        <ele>1897.0</ele>
        <time>2015-05-17T12:04:43Z</time>
      </trkpt>
      <trkpt lat="40.519750" lon="-5.034433">
        <ele>1898.0</ele>
        <time>2015-05-17T12:04:45Z</time>
      </trkpt>
      <trkpt lat="40.519733" lon="-5.034283">
        <ele>1900.0</ele>
        <time>2015-05-17T12:04:47Z</time>
      </trkpt>
      <trkpt lat="40.519667" lon="-5.034167">
        <ele>1905.0</ele>
        <time>2015-05-17T12:04:49Z</time>
      </trkpt>
      <trkpt lat="40.519500" lon="-5.034133">
        <ele>1910.0</ele>
        <time>2015-05-17T12:04:51Z</time>
      </trkpt>
      <trkpt lat="40.519267" lon="-5.034200">
        <ele>1916.0</ele>
        <time>2015-05-17T12:04:53Z</time>
      </trkpt>
      <trkpt lat="40.519100" lon="-5.034383">
        <ele>1926.0</ele>
        <time>2015-05-17T12:04:55Z</time>
      </trkpt>
      <trkpt lat="40.519000" lon="-5.034667">
        <ele>1933.0</ele>
        <time>2015-05-17T12:04:57Z</time>
      </trkpt>
      <trkpt lat="40.518967" lon="-5.034983">
        <ele>1939.0</ele>
        <time>2015-05-17T12:04:59Z</time>
      </trkpt>
      <trkpt lat="40.519017" lon="-5.035267">
        <ele>1943.0</ele>
        <time>2015-05-17T12:05:01Z</time>
      </trkpt>
      <trkpt lat="40.519117" lon="-5.035467">
        <ele>1945.0</ele>
        <time>2015-05-17T12:05:03Z</time>
      </trkpt>
      <trkpt lat="40.519267" lon="-5.035533">
        <ele>1944.0</ele>
        <time>2015-05-17T12:05:05Z</time>
      </trkpt>
      <trkpt lat="40.519367" lon="-5.035450">
        <ele>1946.0</ele>
        <time>2015-05-17T12:05:07Z</time>
      </trkpt>
      <trkpt lat="40.519367" lon="-5.035317">
        <ele>1949.0</ele>
        <time>2015-05-17T12:05:09Z</time>
      </trkpt>
      <trkpt lat="40.519333" lon="-5.035167">
        <ele>1953.0</ele>
        <time>2015-05-17T12:05:11Z</time>
      </trkpt>
      <trkpt lat="40.519217" lon="-5.035000">
        <ele>1956.0</ele>
        <time>2015-05-17T12:05:13Z</time>
      </trkpt>
      <trkpt lat="40.519017" lon="-5.034917">
        <ele>1963.0</ele>
        <time>2015-05-17T12:05:15Z</time>
      </trkpt>
      <trkpt lat="40.518817" lon="-5.035033">
        <ele>1968.0</ele>
        <time>2015-05-17T12:05:17Z</time>
      </trkpt>
      <trkpt lat="40.518667" lon="-5.035233">
        <ele>1974.0</ele>
        <time>2015-05-17T12:05:19Z</time>
      </trkpt>
      <trkpt lat="40.518583" lon="-5.035500">
        <ele>1977.0</ele>
        <time>2015-05-17T12:05:21Z</time>
      </trkpt>
      <trkpt lat="40.518550" lon="-5.035800">
        <ele>1982.0</ele>
        <time>2015-05-17T12:05:23Z</time>
      </trkpt>
      <trkpt lat="40.518567" lon="-5.036033">
        <ele>1990.0</ele>
        <time>2015-05-17T12:05:25Z</time>
      </trkpt>
      <trkpt lat="40.518650" lon="-5.036167">
        <ele>1993.0</ele>
        <time>2015-05-17T12:05:27Z</time>
      </trkpt>
      <trkpt lat="40.518783" lon="-5.036200">
        <ele>1994.0</ele>
        <time>2015-05-17T12:05:29Z</time>
      </trkpt>
      <trkpt lat="40.518883" lon="-5.036100">
        <ele>1999.0</ele>
        <time>2015-05-17T12:05:31Z</time>
      </trkpt>
      <trkpt lat="40.518883" lon="-5.035933">
        <ele>2005.0</ele>
        <time>2015-05-17T12:05:33Z</time>
      </trkpt>
      <trkpt lat="40.518800" lon="-5.035783">
        <ele>2009.0</ele>
        <time>2015-05-17T12:05:35Z</time>
      </trkpt>
      <trkpt lat="40.518650" lon="-5.035717">
        <ele>2010.0</ele>
        <time>2015-05-17T12:05:37Z</time>
      </trkpt>
      <trkpt lat="40.518450" lon="-5.035783">
        <ele>2009.0</ele>
        <time>2015-05-17T12:05:39Z</time>
      </trkpt>
      <trkpt lat="40.518283" lon="-5.036000">
        <ele>2009.0</ele>
        <time>2015-05-17T12:05:41Z</time>
      </trkpt>
      <trkpt lat="40.518200" lon="-5.036267">
        <ele>2011.0</ele>
        <time>2015-05-17T12:05:43Z</time>
      </trkpt>
      <trkpt lat="40.518200" lon="-5.036517">
        <ele>2015.0</ele>
        <time>2015-05-17T12:05:45Z</time>
      </trkpt>
      <trkpt lat="40.518283" lon="-5.036717">
        <ele>2019.0</ele>
        <time>2015-05-17T12:05:47Z</time>
      </trkpt>
      <trkpt lat="40.518367" lon="-5.036833">
        <ele>2022.0</ele>
        <time>2015-05-17T12:05:49Z</time>
      </trkpt>
      <trkpt lat="40.518500" lon="-5.036850">
        <ele>2024.0</ele>
        <time>2015-05-17T12:05:51Z</time>
      </trkpt>
      <trkpt lat="40.518583" lon="-5.036733">
        <ele>2027.0</ele>
        <time>2015-05-17T12:05:53Z</time>
      </trkpt>
      <trkpt lat="40.518550" lon="-5.036533">
        <ele>2028.0</ele>
        <time>2015-05-17T12:05:55Z</time>
      </trkpt>
      <trkpt lat="40.518450" lon="-5.036383">
        <ele>2032.0</ele>
        <time>2015-05-17T12:05:57Z</time>
      </trkpt>
      <trkpt lat="40.518283" lon="-5.036350">
        <ele>2031.0</ele>
        <time>2015-05-17T12:05:59Z</time>
      </trkpt>
      <trkpt lat="40.518117" lon="-5.036400">
        <ele>2030.0</ele>
        <time>2015-05-17T12:06:01Z</time>
      </trkpt>
      <trkpt lat="40.517983" lon="-5.036550">
        <ele>2026.0</ele>
        <time>2015-05-17T12:06:03Z</time>
      </trkpt>
      <trkpt lat="40.517883" lon="-5.036833">
        <ele>2020.0</ele>
        <time>2015-05-17T12:06:05Z</time>
      </trkpt>
      <trkpt lat="40.517867" lon="-5.037133">
        <ele>2021.0</ele>
        <time>2015-05-17T12:06:07Z</time>
      </trkpt>
      <trkpt lat="40.517950" lon="-5.037383">
        <ele>2022.0</ele>
        <time>2015-05-17T12:06:09Z</time>
      </trkpt>
      <trkpt lat="40.518050" lon="-5.037583">
        <ele>2022.0</ele>
        <time>2015-05-17T12:06:11Z</time>
      </trkpt>
      <trkpt lat="40.518183" lon="-5.037817">
        <ele>2020.0</ele>
        <time>2015-05-17T12:06:13Z</time>
      </trkpt>
      <trkpt lat="40.518300" lon="-5.038050">
        <ele>2021.0</ele>
        <time>2015-05-17T12:06:15Z</time>
      </trkpt>
      <trkpt lat="40.518400" lon="-5.038250">
        <ele>2021.0</ele>
        <time>2015-05-17T12:06:17Z</time>
      </trkpt>
      <trkpt lat="40.518500" lon="-5.038417">
        <ele>2020.0</ele>
        <time>2015-05-17T12:06:19Z</time>
      </trkpt>
      <trkpt lat="40.518650" lon="-5.038633">
        <ele>2016.0</ele>
        <time>2015-05-17T12:06:21Z</time>
      </trkpt>
      <trkpt lat="40.518817" lon="-5.038900">
        <ele>2015.0</ele>
        <time>2015-05-17T12:06:23Z</time>
      </trkpt>
      <trkpt lat="40.518933" lon="-5.039117">
        <ele>2017.0</ele>
        <time>2015-05-17T12:06:25Z</time>
      </trkpt>
      <trkpt lat="40.519067" lon="-5.039367">
        <ele>2015.0</ele>
        <time>2015-05-17T12:06:27Z</time>
      </trkpt>
      <trkpt lat="40.519217" lon="-5.039683">
        <ele>2018.0</ele>
        <time>2015-05-17T12:06:29Z</time>
      </trkpt>
      <trkpt lat="40.519317" lon="-5.039950">
        <ele>2024.0</ele>
        <time>2015-05-17T12:06:31Z</time>
      </trkpt>
      <trkpt lat="40.519400" lon="-5.040150">
        <ele>2027.0</ele>
        <time>2015-05-17T12:06:33Z</time>
      </trkpt>
      <trkpt lat="40.519517" lon="-5.040367">
        <ele>2026.0</ele>
        <time>2015-05-17T12:06:35Z</time>
      </trkpt>
      <trkpt lat="40.519667" lon="-5.040550">
        <ele>2028.0</ele>
        <time>2015-05-17T12:06:37Z</time>
      </trkpt>
      <trkpt lat="40.519783" lon="-5.040717">
        <ele>2030.0</ele>
        <time>2015-05-17T12:06:39Z</time>
      </trkpt>
      <trkpt lat="40.519900" lon="-5.040917">
        <ele>2029.0</ele>
        <time>2015-05-17T12:06:41Z</time>
      </trkpt>
      <trkpt lat="40.520067" lon="-5.041150">
        <ele>2028.0</ele>
        <time>2015-05-17T12:06:43Z</time>
      </trkpt>
      <trkpt lat="40.520217" lon="-5.041317">
        <ele>2030.0</ele>
        <time>2015-05-17T12:06:45Z</time>
      </trkpt>
      <trkpt lat="40.520333" lon="-5.041500">
        <ele>2028.0</ele>
        <time>2015-05-17T12:06:47Z</time>
      </trkpt>
      <trkpt lat="40.520500" lon="-5.041717">
        <ele>2023.0</ele>
        <time>2015-05-17T12:06:49Z</time>
      </trkpt>
      <trkpt lat="40.520650" lon="-5.041917">
        <ele>2020.0</ele>
        <time>2015-05-17T12:06:51Z</time>
      </trkpt>
      <trkpt lat="40.520800" lon="-5.042100">
        <ele>2014.0</ele>
        <time>2015-05-17T12:06:53Z</time>
      </trkpt>
      <trkpt lat="40.520967" lon="-5.042267">
        <ele>2007.0</ele>
        <time>2015-05-17T12:06:55Z</time>
      </trkpt>
      <trkpt lat="40.521150" lon="-5.042450">
        <ele>2004.0</ele>
        <time>2015-05-17T12:06:57Z</time>
      </trkpt>
      <trkpt lat="40.521283" lon="-5.042650">
        <ele>2002.0</ele>
        <time>2015-05-17T12:06:59Z</time>
      </trkpt>
      <trkpt lat="40.521433" lon="-5.042833">
        <ele>1997.0</ele>
        <time>2015-05-17T12:07:01Z</time>
      </trkpt>
      <trkpt lat="40.521600" lon="-5.043067">
        <ele>1992.0</ele>
        <time>2015-05-17T12:07:03Z</time>
      </trkpt>
      <trkpt lat="40.521767" lon="-5.043300">
        <ele>1990.0</ele>
        <time>2015-05-17T12:07:05Z</time>
      </trkpt>
      <trkpt lat="40.521900" lon="-5.043517">
        <ele>1988.0</ele>
        <time>2015-05-17T12:07:07Z</time>
      </trkpt>
      <trkpt lat="40.522033" lon="-5.043733">
        <ele>1984.0</ele>
        <time>2015-05-17T12:07:09Z</time>
      </trkpt>
      <trkpt lat="40.522167" lon="-5.043967">
        <ele>1978.0</ele>
        <time>2015-05-17T12:07:11Z</time>
      </trkpt>
      <trkpt lat="40.522300" lon="-5.044200">
        <ele>1974.0</ele>
        <time>2015-05-17T12:07:13Z</time>
      </trkpt>
      <trkpt lat="40.522467" lon="-5.044417">
        <ele>1971.0</ele>
        <time>2015-05-17T12:07:15Z</time>
      </trkpt>
      <trkpt lat="40.522617" lon="-5.044650">
        <ele>1970.0</ele>
        <time>2015-05-17T12:07:17Z</time>
      </trkpt>
      <trkpt lat="40.522733" lon="-5.044900">
        <ele>1968.0</ele>
        <time>2015-05-17T12:07:19Z</time>
      </trkpt>
      <trkpt lat="40.522900" lon="-5.045100">
        <ele>1965.0</ele>
        <time>2015-05-17T12:07:21Z</time>
      </trkpt>
      <trkpt lat="40.523033" lon="-5.045283">
        <ele>1963.0</ele>
        <time>2015-05-17T12:07:23Z</time>
      </trkpt>
      <trkpt lat="40.523150" lon="-5.045467">
        <ele>1955.0</ele>
        <time>2015-05-17T12:07:25Z</time>
      </trkpt>
      <trkpt lat="40.523333" lon="-5.045667">
        <ele>1948.0</ele>
        <time>2015-05-17T12:07:27Z</time>
      </trkpt>
      <trkpt lat="40.523483" lon="-5.045867">
        <ele>1944.0</ele>
        <time>2015-05-17T12:07:29Z</time>
      </trkpt>
      <trkpt lat="40.523617" lon="-5.046083">
        <ele>1940.0</ele>
        <time>2015-05-17T12:07:31Z</time>
      </trkpt>
      <trkpt lat="40.523767" lon="-5.046300">
        <ele>1936.0</ele>
        <time>2015-05-17T12:07:33Z</time>
      </trkpt>
      <trkpt lat="40.523900" lon="-5.046500">
        <ele>1934.0</ele>
        <time>2015-05-17T12:07:35Z</time>
      </trkpt>
      <trkpt lat="40.524017" lon="-5.046717">
        <ele>1930.0</ele>
        <time>2015-05-17T12:07:37Z</time>
      </trkpt>
      <trkpt lat="40.524183" lon="-5.046900">
        <ele>1927.0</ele>
        <time>2015-05-17T12:07:39Z</time>
      </trkpt>
      <trkpt lat="40.524350" lon="-5.047083">
        <ele>1924.0</ele>
        <time>2015-05-17T12:07:41Z</time>
      </trkpt>
      <trkpt lat="40.524500" lon="-5.047217">
        <ele>1921.0</ele>
        <time>2015-05-17T12:07:43Z</time>
      </trkpt>
      <trkpt lat="40.524667" lon="-5.047350">
        <ele>1919.0</ele>
        <time>2015-05-17T12:07:45Z</time>
      </trkpt>
      <trkpt lat="40.524800" lon="-5.047467">
        <ele>1919.0</ele>
        <time>2015-05-17T12:07:47Z</time>
      </trkpt>
      <trkpt lat="40.524917" lon="-5.047600">
        <ele>1916.0</ele>
        <time>2015-05-17T12:07:49Z</time>
      </trkpt>
      <trkpt lat="40.525067" lon="-5.047733">
        <ele>1913.0</ele>
        <time>2015-05-17T12:07:51Z</time>
      </trkpt>
      <trkpt lat="40.525217" lon="-5.047850">
        <ele>1910.0</ele>
        <time>2015-05-17T12:07:53Z</time>
      </trkpt>
      <trkpt lat="40.525350" lon="-5.047933">
        <ele>1906.0</ele>
        <time>2015-05-17T12:07:55Z</time>
      </trkpt>
      <trkpt lat="40.525517" lon="-5.048017">
        <ele>1903.0</ele>
        <time>2015-05-17T12:07:57Z</time>
      </trkpt>
      <trkpt lat="40.525650" lon="-5.048117">
        <ele>1902.0</ele>
        <time>2015-05-17T12:07:59Z</time>
      </trkpt>
      <trkpt lat="40.525767" lon="-5.048233">
        <ele>1899.0</ele>
        <time>2015-05-17T12:08:01Z</time>
      </trkpt>
      <trkpt lat="40.525900" lon="-5.048383">
        <ele>1895.0</ele>
        <time>2015-05-17T12:08:03Z</time>
      </trkpt>
      <trkpt lat="40.526033" lon="-5.048550">
        <ele>1892.0</ele>
        <time>2015-05-17T12:08:05Z</time>
      </trkpt>
      <trkpt lat="40.526150" lon="-5.048717">
        <ele>1889.0</ele>
        <time>2015-05-17T12:08:07Z</time>
      </trkpt>
      <trkpt lat="40.526267" lon="-5.048917">
        <ele>1885.0</ele>
        <time>2015-05-17T12:08:09Z</time>
      </trkpt>
      <trkpt lat="40.526383" lon="-5.049083">
        <ele>1882.0</ele>
        <time>2015-05-17T12:08:11Z</time>
      </trkpt>
      <trkpt lat="40.526500" lon="-5.049267">
        <ele>1879.0</ele>
        <time>2015-05-17T12:08:13Z</time>
      </trkpt>
      <trkpt lat="40.526617" lon="-5.049467">
        <ele>1874.0</ele>
        <time>2015-05-17T12:08:15Z</time>
      </trkpt>
      <trkpt lat="40.526733" lon="-5.049717">
        <ele>1871.0</ele>
        <time>2015-05-17T12:08:17Z</time>
      </trkpt>
      <trkpt lat="40.526833" lon="-5.049917">
        <ele>1869.0</ele>
        <time>2015-05-17T12:08:19Z</time>
      </trkpt>
      <trkpt lat="40.526950" lon="-5.050133">
        <ele>1865.0</ele>
        <time>2015-05-17T12:08:21Z</time>
      </trkpt>
      <trkpt lat="40.527083" lon="-5.050350">
        <ele>1862.0</ele>
        <time>2015-05-17T12:08:23Z</time>
      </trkpt>
      <trkpt lat="40.527217" lon="-5.050550">
        <ele>1861.0</ele>
        <time>2015-05-17T12:08:25Z</time>
      </trkpt>
      <trkpt lat="40.527350" lon="-5.050733">
        <ele>1858.0</ele>
        <time>2015-05-17T12:08:27Z</time>
      </trkpt>
      <trkpt lat="40.527483" lon="-5.050950">
        <ele>1855.0</ele>
        <time>2015-05-17T12:08:29Z</time>
      </trkpt>
      <trkpt lat="40.527600" lon="-5.051233">
        <ele>1852.0</ele>
        <time>2015-05-17T12:08:31Z</time>
      </trkpt>
      <trkpt lat="40.527717" lon="-5.051517">
        <ele>1853.0</ele>
        <time>2015-05-17T12:08:33Z</time>
      </trkpt>
      <trkpt lat="40.527833" lon="-5.051717">
        <ele>1854.0</ele>
        <time>2015-05-17T12:08:35Z</time>
      </trkpt>
      <trkpt lat="40.527983" lon="-5.051883">
        <ele>1852.0</ele>
        <time>2015-05-17T12:08:37Z</time>
      </trkpt>
      <trkpt lat="40.528150" lon="-5.052050">
        <ele>1851.0</ele>
        <time>2015-05-17T12:08:39Z</time>
      </trkpt>
      <trkpt lat="40.528283" lon="-5.052183">
        <ele>1848.0</ele>
        <time>2015-05-17T12:08:41Z</time>
      </trkpt>
      <trkpt lat="40.528400" lon="-5.052333">
        <ele>1844.0</ele>
        <time>2015-05-17T12:08:43Z</time>
      </trkpt>
      <trkpt lat="40.528550" lon="-5.052517">
        <ele>1839.0</ele>
        <time>2015-05-17T12:08:45Z</time>
      </trkpt>
      <trkpt lat="40.528717" lon="-5.052717">
        <ele>1837.0</ele>
        <time>2015-05-17T12:08:47Z</time>
      </trkpt>
      <trkpt lat="40.528883" lon="-5.052900">
        <ele>1838.0</ele>
        <time>2015-05-17T12:08:49Z</time>
      </trkpt>
      <trkpt lat="40.529017" lon="-5.053017">
        <ele>1840.0</ele>
        <time>2015-05-17T12:08:51Z</time>
      </trkpt>
      <trkpt lat="40.529150" lon="-5.053183">
        <ele>1840.0</ele>
        <time>2015-05-17T12:08:53Z</time>
      </trkpt>
      <trkpt lat="40.529267" lon="-5.053383">
        <ele>1840.0</ele>
        <time>2015-05-17T12:08:55Z</time>
      </trkpt>
      <trkpt lat="40.529417" lon="-5.053550">
        <ele>1839.0</ele>
        <time>2015-05-17T12:08:57Z</time>
      </trkpt>
      <trkpt lat="40.529550" lon="-5.053717">
        <ele>1837.0</ele>
        <time>2015-05-17T12:08:59Z</time>
      </trkpt>
      <trkpt lat="40.529717" lon="-5.053917">
        <ele>1834.0</ele>
        <time>2015-05-17T12:09:01Z</time>
      </trkpt>
      <trkpt lat="40.529883" lon="-5.054133">
        <ele>1831.0</ele>
        <time>2015-05-17T12:09:03Z</time>
      </trkpt>
      <trkpt lat="40.530067" lon="-5.054350">
        <ele>1829.0</ele>
        <time>2015-05-17T12:09:05Z</time>
      </trkpt>
      <trkpt lat="40.530233" lon="-5.054550">
        <ele>1827.0</ele>
        <time>2015-05-17T12:09:07Z</time>
      </trkpt>
      <trkpt lat="40.530383" lon="-5.054767">
        <ele>1828.0</ele>
        <time>2015-05-17T12:09:09Z</time>
      </trkpt>
      <trkpt lat="40.530517" lon="-5.054983">
        <ele>1827.0</ele>
        <time>2015-05-17T12:09:11Z</time>
      </trkpt>
      <trkpt lat="40.530633" lon="-5.055217">
        <ele>1824.0</ele>
        <time>2015-05-17T12:09:13Z</time>
      </trkpt>
      <trkpt lat="40.530783" lon="-5.055450">
        <ele>1822.0</ele>
        <time>2015-05-17T12:09:15Z</time>
      </trkpt>
      <trkpt lat="40.530917" lon="-5.055700">
        <ele>1823.0</ele>
        <time>2015-05-17T12:09:17Z</time>
      </trkpt>
      <trkpt lat="40.531033" lon="-5.055950">
        <ele>1822.0</ele>
        <time>2015-05-17T12:09:19Z</time>
      </trkpt>
      <trkpt lat="40.531150" lon="-5.056233">
        <ele>1818.0</ele>
        <time>2015-05-17T12:09:21Z</time>
      </trkpt>
      <trkpt lat="40.531283" lon="-5.056517">
        <ele>1816.0</ele>
        <time>2015-05-17T12:09:23Z</time>
      </trkpt>
      <trkpt lat="40.531400" lon="-5.056767">
        <ele>1816.0</ele>
        <time>2015-05-17T12:09:25Z</time>
      </trkpt>
      <trkpt lat="40.531483" lon="-5.057000">
        <ele>1813.0</ele>
        <time>2015-05-17T12:09:27Z</time>
      </trkpt>
      <trkpt lat="40.531633" lon="-5.057267">
        <ele>1807.0</ele>
        <time>2015-05-17T12:09:29Z</time>
      </trkpt>
      <trkpt lat="40.531767" lon="-5.057533">
        <ele>1804.0</ele>
        <time>2015-05-17T12:09:31Z</time>
      </trkpt>
      <trkpt lat="40.531900" lon="-5.057783">
        <ele>1802.0</ele>
        <time>2015-05-17T12:09:33Z</time>
      </trkpt>
      <trkpt lat="40.532050" lon="-5.058050">
        <ele>1799.0</ele>
        <time>2015-05-17T12:09:35Z</time>
      </trkpt>
      <trkpt lat="40.532217" lon="-5.058333">
        <ele>1799.0</ele>
        <time>2015-05-17T12:09:37Z</time>
      </trkpt>
      <trkpt lat="40.532367" lon="-5.058583">
        <ele>1801.0</ele>
        <time>2015-05-17T12:09:39Z</time>
      </trkpt>
      <trkpt lat="40.532500" lon="-5.058850">
        <ele>1799.0</ele>
        <time>2015-05-17T12:09:41Z</time>
      </trkpt>
      <trkpt lat="40.532650" lon="-5.059167">
        <ele>1799.0</ele>
        <time>2015-05-17T12:09:43Z</time>
      </trkpt>
      <trkpt lat="40.532783" lon="-5.059433">
        <ele>1803.0</ele>
        <time>2015-05-17T12:09:45Z</time>
      </trkpt>
      <trkpt lat="40.532850" lon="-5.059717">
        <ele>1804.0</ele>
        <time>2015-05-17T12:09:47Z</time>
      </trkpt>
      <trkpt lat="40.532900" lon="-5.060050">
        <ele>1804.0</ele>
        <time>2015-05-17T12:09:49Z</time>
      </trkpt>
      <trkpt lat="40.532900" lon="-5.060383">
        <ele>1806.0</ele>
        <time>2015-05-17T12:09:51Z</time>
      </trkpt>
      <trkpt lat="40.532833" lon="-5.060683">
        <ele>1808.0</ele>
        <time>2015-05-17T12:09:53Z</time>
      </trkpt>
      <trkpt lat="40.532700" lon="-5.060883">
        <ele>1810.0</ele>
        <time>2015-05-17T12:09:55Z</time>
      </trkpt>
      <trkpt lat="40.532517" lon="-5.060967">
        <ele>1810.0</ele>
        <time>2015-05-17T12:09:57Z</time>
      </trkpt>
      <trkpt lat="40.532333" lon="-5.060933">
        <ele>1812.0</ele>
        <time>2015-05-17T12:09:59Z</time>
      </trkpt>
      <trkpt lat="40.532250" lon="-5.060867">
        <ele>1817.0</ele>
        <time>2015-05-17T12:10:01Z</time>
      </trkpt>
      <trkpt lat="40.532217" lon="-5.060800">
        <ele>1819.0</ele>
        <time>2015-05-17T12:10:03Z</time>
      </trkpt>
      <trkpt lat="40.532233" lon="-5.060700">
        <ele>1819.0</ele>
        <time>2015-05-17T12:10:05Z</time>
      </trkpt>
      <trkpt lat="40.532317" lon="-5.060617">
        <ele>1821.0</ele>
        <time>2015-05-17T12:10:07Z</time>
      </trkpt>
      <trkpt lat="40.532467" lon="-5.060617">
        <ele>1823.0</ele>
        <time>2015-05-17T12:10:09Z</time>
      </trkpt>
      <trkpt lat="40.532633" lon="-5.060667">
        <ele>1824.0</ele>
        <time>2015-05-17T12:10:11Z</time>
      </trkpt>
      <trkpt lat="40.532817" lon="-5.060783">
        <ele>1825.0</ele>
        <time>2015-05-17T12:10:13Z</time>
      </trkpt>
      <trkpt lat="40.532967" lon="-5.061000">
        <ele>1825.0</ele>
        <time>2015-05-17T12:10:15Z</time>
      </trkpt>
      <trkpt lat="40.533100" lon="-5.061283">
        <ele>1824.0</ele>
        <time>2015-05-17T12:10:17Z</time>
      </trkpt>
      <trkpt lat="40.533200" lon="-5.061600">
        <ele>1825.0</ele>
        <time>2015-05-17T12:10:19Z</time>
      </trkpt>
      <trkpt lat="40.533250" lon="-5.061917">
        <ele>1827.0</ele>
        <time>2015-05-17T12:10:21Z</time>
      </trkpt>
      <trkpt lat="40.533267" lon="-5.062233">
        <ele>1827.0</ele>
        <time>2015-05-17T12:10:23Z</time>
      </trkpt>
      <trkpt lat="40.533200" lon="-5.062533">
        <ele>1828.0</ele>
        <time>2015-05-17T12:10:25Z</time>
      </trkpt>
      <trkpt lat="40.533067" lon="-5.062767">
        <ele>1833.0</ele>
        <time>2015-05-17T12:10:27Z</time>
      </trkpt>
      <trkpt lat="40.532917" lon="-5.062950">
        <ele>1837.0</ele>
        <time>2015-05-17T12:10:29Z</time>
      </trkpt>
      <trkpt lat="40.532750" lon="-5.063117">
        <ele>1839.0</ele>
        <time>2015-05-17T12:10:31Z</time>
      </trkpt>
      <trkpt lat="40.532533" lon="-5.063150">
        <ele>1840.0</ele>
        <time>2015-05-17T12:10:33Z</time>
      </trkpt>
      <trkpt lat="40.532383" lon="-5.063083">
        <ele>1845.0</ele>
        <time>2015-05-17T12:10:35Z</time>
      </trkpt>
      <trkpt lat="40.532333" lon="-5.063000">
        <ele>1848.0</ele>
        <time>2015-05-17T12:10:37Z</time>
      </trkpt>
      <trkpt lat="40.532300" lon="-5.062900">
        <ele>1848.0</ele>
        <time>2015-05-17T12:10:39Z</time>
      </trkpt>
      <trkpt lat="40.532350" lon="-5.062767">
        <ele>1846.0</ele>
        <time>2015-05-17T12:10:41Z</time>
      </trkpt>
      <trkpt lat="40.532467" lon="-5.062683">
        <ele>1848.0</ele>
        <time>2015-05-17T12:10:43Z</time>
      </trkpt>
      <trkpt lat="40.532617" lon="-5.062650">
        <ele>1849.0</ele>
        <time>2015-05-17T12:10:45Z</time>
      </trkpt>
      <trkpt lat="40.532783" lon="-5.062683">
        <ele>1851.0</ele>
        <time>2015-05-17T12:10:47Z</time>
      </trkpt>
      <trkpt lat="40.532950" lon="-5.062783">
        <ele>1853.0</ele>
        <time>2015-05-17T12:10:49Z</time>
      </trkpt>
      <trkpt lat="40.533100" lon="-5.062950">
        <ele>1854.0</ele>
        <time>2015-05-17T12:10:51Z</time>
      </trkpt>
      <trkpt lat="40.533233" lon="-5.063167">
        <ele>1857.0</ele>
        <time>2015-05-17T12:10:53Z</time>
      </trkpt>
      <trkpt lat="40.533333" lon="-5.063400">
        <ele>1858.0</ele>
        <time>2015-05-17T12:10:55Z</time>
      </trkpt>
      <trkpt lat="40.533400" lon="-5.063717">
        <ele>1858.0</ele>
        <time>2015-05-17T12:10:57Z</time>
      </trkpt>
      <trkpt lat="40.533433" lon="-5.064050">
        <ele>1860.0</ele>
        <time>2015-05-17T12:10:59Z</time>
      </trkpt>
      <trkpt lat="40.533433" lon="-5.064367">
        <ele>1862.0</ele>
        <time>2015-05-17T12:11:01Z</time>
      </trkpt>
      <trkpt lat="40.533367" lon="-5.064667">
        <ele>1863.0</ele>
        <time>2015-05-17T12:11:03Z</time>
      </trkpt>
      <trkpt lat="40.533250" lon="-5.064967">
        <ele>1867.0</ele>
        <time>2015-05-17T12:11:05Z</time>
      </trkpt>
      <trkpt lat="40.533083" lon="-5.065200">
        <ele>1872.0</ele>
        <time>2015-05-17T12:11:07Z</time>
      </trkpt>
      <trkpt lat="40.532917" lon="-5.065350">
        <ele>1878.0</ele>
        <time>2015-05-17T12:11:09Z</time>
      </trkpt>
      <trkpt lat="40.532767" lon="-5.065417">
        <ele>1881.0</ele>
        <time>2015-05-17T12:11:11Z</time>
      </trkpt>
      <trkpt lat="40.532633" lon="-5.065350">
        <ele>1883.0</ele>
        <time>2015-05-17T12:11:13Z</time>
      </trkpt>
      <trkpt lat="40.532583" lon="-5.065233">
        <ele>1887.0</ele>
        <time>2015-05-17T12:11:15Z</time>
      </trkpt>
      <trkpt lat="40.532650" lon="-5.065117">
        <ele>1890.0</ele>
        <time>2015-05-17T12:11:17Z</time>
      </trkpt>
      <trkpt lat="40.532800" lon="-5.065083">
        <ele>1893.0</ele>
        <time>2015-05-17T12:11:19Z</time>
      </trkpt>
      <trkpt lat="40.532967" lon="-5.065150">
        <ele>1897.0</ele>
        <time>2015-05-17T12:11:21Z</time>
      </trkpt>
      <trkpt lat="40.533117" lon="-5.065333">
        <ele>1900.0</ele>
        <time>2015-05-17T12:11:23Z</time>
      </trkpt>
      <trkpt lat="40.533217" lon="-5.065633">
        <ele>1899.0</ele>
        <time>2015-05-17T12:11:25Z</time>
      </trkpt>
      <trkpt lat="40.533233" lon="-5.065983">
        <ele>1901.0</ele>
        <time>2015-05-17T12:11:27Z</time>
      </trkpt>
      <trkpt lat="40.533167" lon="-5.066333">
        <ele>1905.0</ele>
        <time>2015-05-17T12:11:29Z</time>
      </trkpt>
      <trkpt lat="40.533083" lon="-5.066617">
        <ele>1909.0</ele>
        <time>2015-05-17T12:11:31Z</time>
      </trkpt>
      <trkpt lat="40.532950" lon="-5.066833">
        <ele>1911.0</ele>
        <time>2015-05-17T12:11:33Z</time>
      </trkpt>
      <trkpt lat="40.532767" lon="-5.066950">
        <ele>1910.0</ele>
        <time>2015-05-17T12:11:35Z</time>
      </trkpt>
      <trkpt lat="40.532617" lon="-5.066900">
        <ele>1914.0</ele>
        <time>2015-05-17T12:11:37Z</time>
      </trkpt>
      <trkpt lat="40.532550" lon="-5.066800">
        <ele>1920.0</ele>
        <time>2015-05-17T12:11:39Z</time>
      </trkpt>
      <trkpt lat="40.532550" lon="-5.066717">
        <ele>1923.0</ele>
        <time>2015-05-17T12:11:41Z</time>
      </trkpt>
      <trkpt lat="40.532633" lon="-5.066617">
        <ele>1922.0</ele>
        <time>2015-05-17T12:11:43Z</time>
      </trkpt>
      <trkpt lat="40.532800" lon="-5.066583">
        <ele>1927.0</ele>
        <time>2015-05-17T12:11:45Z</time>
      </trkpt>
      <trkpt lat="40.532917" lon="-5.066650">
        <ele>1932.0</ele>
        <time>2015-05-17T12:11:47Z</time>
      </trkpt>
      <trkpt lat="40.533050" lon="-5.066783">
        <ele>1932.0</ele>
        <time>2015-05-17T12:11:49Z</time>
      </trkpt>
      <trkpt lat="40.533233" lon="-5.067017">
        <ele>1932.0</ele>
        <time>2015-05-17T12:11:51Z</time>
      </trkpt>
      <trkpt lat="40.533333" lon="-5.067317">
        <ele>1938.0</ele>
        <time>2015-05-17T12:11:53Z</time>
      </trkpt>
      <trkpt lat="40.533400" lon="-5.067583">
        <ele>1941.0</ele>
        <time>2015-05-17T12:11:55Z</time>
      </trkpt>
      <trkpt lat="40.533433" lon="-5.067917">
        <ele>1941.0</ele>
        <time>2015-05-17T12:11:57Z</time>
      </trkpt>
      <trkpt lat="40.533350" lon="-5.068267">
        <ele>1946.0</ele>
        <time>2015-05-17T12:11:59Z</time>
      </trkpt>
      <trkpt lat="40.533250" lon="-5.068483">
        <ele>1951.0</ele>
        <time>2015-05-17T12:12:01Z</time>
      </trkpt>
      <trkpt lat="40.533150" lon="-5.068617">
        <ele>1950.0</ele>
        <time>2015-05-17T12:12:03Z</time>
      </trkpt>
      <trkpt lat="40.532983" lon="-5.068650">
        <ele>1947.0</ele>
        <time>2015-05-17T12:12:05Z</time>
      </trkpt>
      <trkpt lat="40.532867" lon="-5.068550">
        <ele>1950.0</ele>
        <time>2015-05-17T12:12:07Z</time>
      </trkpt>
      <trkpt lat="40.532850" lon="-5.068450">
        <ele>1955.0</ele>
        <time>2015-05-17T12:12:09Z</time>
      </trkpt>
      <trkpt lat="40.532883" lon="-5.068333">
        <ele>1956.0</ele>
        <time>2015-05-17T12:12:11Z</time>
      </trkpt>
      <trkpt lat="40.532983" lon="-5.068200">
        <ele>1955.0</ele>
        <time>2015-05-17T12:12:13Z</time>
      </trkpt>
      <trkpt lat="40.533150" lon="-5.068117">
        <ele>1956.0</ele>
        <time>2015-05-17T12:12:15Z</time>
      </trkpt>
      <trkpt lat="40.533367" lon="-5.068083">
        <ele>1961.0</ele>
        <time>2015-05-17T12:12:17Z</time>
      </trkpt>
      <trkpt lat="40.533533" lon="-5.068117">
        <ele>1968.0</ele>
        <time>2015-05-17T12:12:19Z</time>
      </trkpt>
      <trkpt lat="40.533717" lon="-5.068233">
        <ele>1971.0</ele>
        <time>2015-05-17T12:12:21Z</time>
      </trkpt>
      <trkpt lat="40.533883" lon="-5.068400">
        <ele>1974.0</ele>
        <time>2015-05-17T12:12:23Z</time>
      </trkpt>
      <trkpt lat="40.534017" lon="-5.068617">
        <ele>1976.0</ele>
        <time>2015-05-17T12:12:25Z</time>
      </trkpt>
      <trkpt lat="40.534150" lon="-5.068900">
        <ele>1975.0</ele>
        <time>2015-05-17T12:12:27Z</time>
      </trkpt>
      <trkpt lat="40.534233" lon="-5.069200">
        <ele>1975.0</ele>
        <time>2015-05-17T12:12:29Z</time>
      </trkpt>
      <trkpt lat="40.534250" lon="-5.069500">
        <ele>1976.0</ele>
        <time>2015-05-17T12:12:31Z</time>
      </trkpt>
      <trkpt lat="40.534217" lon="-5.069817">
        <ele>1975.0</ele>
        <time>2015-05-17T12:12:33Z</time>
      </trkpt>
      <trkpt lat="40.534117" lon="-5.070117">
        <ele>1975.0</ele>
        <time>2015-05-17T12:12:35Z</time>
      </trkpt>
      <trkpt lat="40.534050" lon="-5.070450">
        <ele>1975.0</ele>
        <time>2015-05-17T12:12:37Z</time>
      </trkpt>
      <trkpt lat="40.534017" lon="-5.070767">
        <ele>1975.0</ele>
        <time>2015-05-17T12:12:39Z</time>
      </trkpt>
      <trkpt lat="40.534050" lon="-5.071100">
        <ele>1973.0</ele>
        <time>2015-05-17T12:12:41Z</time>
      </trkpt>
      <trkpt lat="40.534083" lon="-5.071467">
        <ele>1972.0</ele>
        <time>2015-05-17T12:12:43Z</time>
      </trkpt>
      <trkpt lat="40.534117" lon="-5.071817">
        <ele>1973.0</ele>
        <time>2015-05-17T12:12:45Z</time>
      </trkpt>
      <trkpt lat="40.534150" lon="-5.072150">
        <ele>1975.0</ele>
        <time>2015-05-17T12:12:47Z</time>
      </trkpt>
      <trkpt lat="40.534183" lon="-5.072467">
        <ele>1974.0</ele>
        <time>2015-05-17T12:12:49Z</time>
      </trkpt>
      <trkpt lat="40.534283" lon="-5.072767">
        <ele>1972.0</ele>
        <time>2015-05-17T12:12:51Z</time>
      </trkpt>
      <trkpt lat="40.534350" lon="-5.073050">
        <ele>1970.0</ele>
        <time>2015-05-17T12:12:53Z</time>
      </trkpt>
      <trkpt lat="40.534383" lon="-5.073333">
        <ele>1969.0</ele>
        <time>2015-05-17T12:12:55Z</time>
      </trkpt>
      <trkpt lat="40.534417" lon="-5.073617">
        <ele>1967.0</ele>
        <time>2015-05-17T12:12:57Z</time>
      </trkpt>
      <trkpt lat="40.534450" lon="-5.073917">
        <ele>1964.0</ele>
        <time>2015-05-17T12:12:59Z</time>
      </trkpt>
      <trkpt lat="40.534500" lon="-5.074217">
        <ele>1960.0</ele>
        <time>2015-05-17T12:13:01Z</time>
      </trkpt>
      <trkpt lat="40.534550" lon="-5.074500">
        <ele>1956.0</ele>
        <time>2015-05-17T12:13:03Z</time>
      </trkpt>
      <trkpt lat="40.534650" lon="-5.074783">
        <ele>1949.0</ele>
        <time>2015-05-17T12:13:05Z</time>
      </trkpt>
      <trkpt lat="40.534750" lon="-5.075067">
        <ele>1944.0</ele>
        <time>2015-05-17T12:13:07Z</time>
      </trkpt>
      <trkpt lat="40.534850" lon="-5.075283">
        <ele>1939.0</ele>
        <time>2015-05-17T12:13:09Z</time>
      </trkpt>
      <trkpt lat="40.534950" lon="-5.075550">
        <ele>1932.0</ele>
        <time>2015-05-17T12:13:11Z</time>
      </trkpt>
      <trkpt lat="40.535050" lon="-5.075833">
        <ele>1928.0</ele>
        <time>2015-05-17T12:13:13Z</time>
      </trkpt>
      <trkpt lat="40.535133" lon="-5.076067">
        <ele>1925.0</ele>
        <time>2015-05-17T12:13:15Z</time>
      </trkpt>
      <trkpt lat="40.535217" lon="-5.076317">
        <ele>1918.0</ele>
        <time>2015-05-17T12:13:17Z</time>
      </trkpt>
      <trkpt lat="40.535300" lon="-5.076600">
        <ele>1912.0</ele>
        <time>2015-05-17T12:13:19Z</time>
      </trkpt>
      <trkpt lat="40.535400" lon="-5.076850">
        <ele>1909.0</ele>
        <time>2015-05-17T12:13:21Z</time>
      </trkpt>
      <trkpt lat="40.535500" lon="-5.077117">
        <ele>1905.0</ele>
        <time>2015-05-17T12:13:23Z</time>
      </trkpt>
      <trkpt lat="40.535617" lon="-5.077400">
        <ele>1900.0</ele>
        <time>2015-05-17T12:13:25Z</time>
      </trkpt>
      <trkpt lat="40.535717" lon="-5.077650">
        <ele>1896.0</ele>
        <time>2015-05-17T12:13:27Z</time>
      </trkpt>
      <trkpt lat="40.535850" lon="-5.077917">
        <ele>1892.0</ele>
        <time>2015-05-17T12:13:29Z</time>
      </trkpt>
      <trkpt lat="40.535967" lon="-5.078167">
        <ele>1889.0</ele>
        <time>2015-05-17T12:13:31Z</time>
      </trkpt>
      <trkpt lat="40.536083" lon="-5.078417">
        <ele>1886.0</ele>
        <time>2015-05-17T12:13:33Z</time>
      </trkpt>
      <trkpt lat="40.536183" lon="-5.078683">
        <ele>1881.0</ele>
        <time>2015-05-17T12:13:35Z</time>
      </trkpt>
      <trkpt lat="40.536300" lon="-5.078950">
        <ele>1877.0</ele>
        <time>2015-05-17T12:13:37Z</time>
      </trkpt>
      <trkpt lat="40.536400" lon="-5.079200">
        <ele>1874.0</ele>
        <time>2015-05-17T12:13:39Z</time>
      </trkpt>
      <trkpt lat="40.536483" lon="-5.079450">
        <ele>1869.0</ele>
        <time>2015-05-17T12:13:41Z</time>
      </trkpt>
      <trkpt lat="40.536600" lon="-5.079717">
        <ele>1862.0</ele>
        <time>2015-05-17T12:13:43Z</time>
      </trkpt>
      <trkpt lat="40.536717" lon="-5.079967">
        <ele>1857.0</ele>
        <time>2015-05-17T12:13:45Z</time>
      </trkpt>
      <trkpt lat="40.536833" lon="-5.080233">
        <ele>1850.0</ele>
        <time>2015-05-17T12:13:47Z</time>
      </trkpt>
      <trkpt lat="40.536933" lon="-5.080517">
        <ele>1844.0</ele>
        <time>2015-05-17T12:13:49Z</time>
      </trkpt>
      <trkpt lat="40.537017" lon="-5.080800">
        <ele>1839.0</ele>
        <time>2015-05-17T12:13:51Z</time>
      </trkpt>
      <trkpt lat="40.537117" lon="-5.081100">
        <ele>1833.0</ele>
        <time>2015-05-17T12:13:53Z</time>
      </trkpt>
      <trkpt lat="40.537200" lon="-5.081400">
        <ele>1825.0</ele>
        <time>2015-05-17T12:13:55Z</time>
      </trkpt>
      <trkpt lat="40.537317" lon="-5.081733">
        <ele>1819.0</ele>
        <time>2015-05-17T12:13:57Z</time>
      </trkpt>
      <trkpt lat="40.537417" lon="-5.082067">
        <ele>1813.0</ele>
        <time>2015-05-17T12:13:59Z</time>
      </trkpt>
      <trkpt lat="40.537500" lon="-5.082400">
        <ele>1806.0</ele>
        <time>2015-05-17T12:14:01Z</time>
      </trkpt>
      <trkpt lat="40.537600" lon="-5.082783">
        <ele>1800.0</ele>
        <time>2015-05-17T12:14:03Z</time>
      </trkpt>
      <trkpt lat="40.537750" lon="-5.083117">
        <ele>1800.0</ele>
        <time>2015-05-17T12:14:05Z</time>
      </trkpt>
      <trkpt lat="40.537883" lon="-5.083350">
        <ele>1801.0</ele>
        <time>2015-05-17T12:14:07Z</time>
      </trkpt>
      <trkpt lat="40.538033" lon="-5.083567">
        <ele>1800.0</ele>
        <time>2015-05-17T12:14:09Z</time>
      </trkpt>
      <trkpt lat="40.538217" lon="-5.083733">
        <ele>1799.0</ele>
        <time>2015-05-17T12:14:11Z</time>
      </trkpt>
      <trkpt lat="40.538383" lon="-5.083867">
        <ele>1801.0</ele>
        <time>2015-05-17T12:14:13Z</time>
      </trkpt>
      <trkpt lat="40.538533" lon="-5.083950">
        <ele>1802.0</ele>
        <time>2015-05-17T12:14:15Z</time>
      </trkpt>
      <trkpt lat="40.538683" lon="-5.083950">
        <ele>1801.0</ele>
        <time>2015-05-17T12:14:17Z</time>
      </trkpt>
      <trkpt lat="40.538800" lon="-5.083917">
        <ele>1804.0</ele>
        <time>2015-05-17T12:14:19Z</time>
      </trkpt>
      <trkpt lat="40.538867" lon="-5.083883">
        <ele>1804.0</ele>
        <time>2015-05-17T12:14:21Z</time>
      </trkpt>
      <trkpt lat="40.538900" lon="-5.083783">
        <ele>1802.0</ele>
        <time>2015-05-17T12:14:23Z</time>
      </trkpt>
      <trkpt lat="40.538867" lon="-5.083667">
        <ele>1802.0</ele>
        <time>2015-05-17T12:14:25Z</time>
      </trkpt>
      <trkpt lat="40.538767" lon="-5.083600">
        <ele>1805.0</ele>
        <time>2015-05-17T12:14:27Z</time>
      </trkpt>
      <trkpt lat="40.538650" lon="-5.083600">
        <ele>1807.0</ele>
        <time>2015-05-17T12:14:29Z</time>
      </trkpt>
      <trkpt lat="40.538500" lon="-5.083633">
        <ele>1809.0</ele>
        <time>2015-05-17T12:14:31Z</time>
      </trkpt>
      <trkpt lat="40.538333" lon="-5.083750">
        <ele>1810.0</ele>
        <time>2015-05-17T12:14:33Z</time>
      </trkpt>
      <trkpt lat="40.538183" lon="-5.083983">
        <ele>1809.0</ele>
        <time>2015-05-17T12:14:35Z</time>
      </trkpt>
      <trkpt lat="40.538100" lon="-5.084283">
        <ele>1813.0</ele>
        <time>2015-05-17T12:14:37Z</time>
      </trkpt>
      <trkpt lat="40.538083" lon="-5.084583">
        <ele>1816.0</ele>
        <time>2015-05-17T12:14:39Z</time>
      </trkpt>
      <trkpt lat="40.538100" lon="-5.084917">
        <ele>1817.0</ele>
        <time>2015-05-17T12:14:41Z</time>
      </trkpt>
      <trkpt lat="40.538200" lon="-5.085250">
        <ele>1819.0</ele>
        <time>2015-05-17T12:14:43Z</time>
      </trkpt>
      <trkpt lat="40.538333" lon="-5.085500">
        <ele>1821.0</ele>
        <time>2015-05-17T12:14:45Z</time>
      </trkpt>
      <trkpt lat="40.538500" lon="-5.085633">
        <ele>1822.0</ele>
        <time>2015-05-17T12:14:47Z</time>
      </trkpt>
      <trkpt lat="40.538650" lon="-5.085650">
        <ele>1824.0</ele>
        <time>2015-05-17T12:14:49Z</time>
      </trkpt>
      <trkpt lat="40.538750" lon="-5.085600">
        <ele>1825.0</ele>
        <time>2015-05-17T12:14:51Z</time>
      </trkpt>
      <trkpt lat="40.538783" lon="-5.085517">
        <ele>1825.0</ele>
        <time>2015-05-17T12:14:53Z</time>
      </trkpt>
      <trkpt lat="40.538717" lon="-5.085433">
        <ele>1824.0</ele>
        <time>2015-05-17T12:14:55Z</time>
      </trkpt>
      <trkpt lat="40.538583" lon="-5.085350">
        <ele>1826.0</ele>
        <time>2015-05-17T12:14:57Z</time>
      </trkpt>
      <trkpt lat="40.538450" lon="-5.085350">
        <ele>1831.0</ele>
        <time>2015-05-17T12:14:59Z</time>
      </trkpt>
      <trkpt lat="40.538267" lon="-5.085433">
        <ele>1834.0</ele>
        <time>2015-05-17T12:15:01Z</time>
      </trkpt>
      <trkpt lat="40.538067" lon="-5.085583">
        <ele>1836.0</ele>
        <time>2015-05-17T12:15:03Z</time>
      </trkpt>
      <trkpt lat="40.537900" lon="-5.085833">
        <ele>1840.0</ele>
        <time>2015-05-17T12:15:05Z</time>
      </trkpt>
      <trkpt lat="40.537800" lon="-5.086150">
        <ele>1844.0</ele>
        <time>2015-05-17T12:15:07Z</time>
      </trkpt>
      <trkpt lat="40.537750" lon="-5.086500">
        <ele>1847.0</ele>
        <time>2015-05-17T12:15:09Z</time>
      </trkpt>
      <trkpt lat="40.537783" lon="-5.086817">
        <ele>1849.0</ele>
        <time>2015-05-17T12:15:11Z</time>
      </trkpt>
      <trkpt lat="40.537883" lon="-5.087133">
        <ele>1853.0</ele>
        <time>2015-05-17T12:15:13Z</time>
      </trkpt>
      <trkpt lat="40.538000" lon="-5.087350">
        <ele>1858.0</ele>
        <time>2015-05-17T12:15:15Z</time>
      </trkpt>
      <trkpt lat="40.538117" lon="-5.087483">
        <ele>1862.0</ele>
        <time>2015-05-17T12:15:17Z</time>
      </trkpt>
      <trkpt lat="40.538233" lon="-5.087533">
        <ele>1862.0</ele>
        <time>2015-05-17T12:15:19Z</time>
      </trkpt>
      <trkpt lat="40.538333" lon="-5.087467">
        <ele>1861.0</ele>
        <time>2015-05-17T12:15:21Z</time>
      </trkpt>
      <trkpt lat="40.538333" lon="-5.087383">
        <ele>1859.0</ele>
        <time>2015-05-17T12:15:23Z</time>
      </trkpt>
      <trkpt lat="40.538283" lon="-5.087283">
        <ele>1857.0</ele>
        <time>2015-05-17T12:15:25Z</time>
      </trkpt>
      <trkpt lat="40.538167" lon="-5.087167">
        <ele>1854.0</ele>
        <time>2015-05-17T12:15:27Z</time>
      </trkpt>
      <trkpt lat="40.537933" lon="-5.087100">
        <ele>1857.0</ele>
        <time>2015-05-17T12:15:29Z</time>
      </trkpt>
      <trkpt lat="40.537750" lon="-5.087150">
        <ele>1868.0</ele>
        <time>2015-05-17T12:15:31Z</time>
      </trkpt>
      <trkpt lat="40.537600" lon="-5.087267">
        <ele>1872.0</ele>
        <time>2015-05-17T12:15:33Z</time>
      </trkpt>
      <trkpt lat="40.537400" lon="-5.087433">
        <ele>1872.0</ele>
        <time>2015-05-17T12:15:35Z</time>
      </trkpt>
      <trkpt lat="40.537233" lon="-5.087717">
        <ele>1874.0</ele>
        <time>2015-05-17T12:15:37Z</time>
      </trkpt>
      <trkpt lat="40.537167" lon="-5.088050">
        <ele>1877.0</ele>
        <time>2015-05-17T12:15:39Z</time>
      </trkpt>
      <trkpt lat="40.537183" lon="-5.088350">
        <ele>1879.0</ele>
        <time>2015-05-17T12:15:41Z</time>
      </trkpt>
      <trkpt lat="40.537267" lon="-5.088650">
        <ele>1881.0</ele>
        <time>2015-05-17T12:15:43Z</time>
      </trkpt>
      <trkpt lat="40.537383" lon="-5.088867">
        <ele>1886.0</ele>
        <time>2015-05-17T12:15:45Z</time>
      </trkpt>
      <trkpt lat="40.537500" lon="-5.088950">
        <ele>1890.0</ele>
        <time>2015-05-17T12:15:47Z</time>
      </trkpt>
      <trkpt lat="40.537600" lon="-5.088950">
        <ele>1893.0</ele>
        <time>2015-05-17T12:15:49Z</time>
      </trkpt>
      <trkpt lat="40.537633" lon="-5.088850">
        <ele>1897.0</ele>
        <time>2015-05-17T12:15:51Z</time>
      </trkpt>
      <trkpt lat="40.537583" lon="-5.088733">
        <ele>1903.0</ele>
        <time>2015-05-17T12:15:53Z</time>
      </trkpt>
      <trkpt lat="40.537450" lon="-5.088667">
        <ele>1906.0</ele>
        <time>2015-05-17T12:15:55Z</time>
      </trkpt>
      <trkpt lat="40.537233" lon="-5.088683">
        <ele>1907.0</ele>
        <time>2015-05-17T12:15:57Z</time>
      </trkpt>
      <trkpt lat="40.537000" lon="-5.088850">
        <ele>1911.0</ele>
        <time>2015-05-17T12:15:59Z</time>
      </trkpt>
      <trkpt lat="40.536883" lon="-5.089117">
        <ele>1912.0</ele>
        <time>2015-05-17T12:16:01Z</time>
      </trkpt>
      <trkpt lat="40.536783" lon="-5.089450">
        <ele>1912.0</ele>
        <time>2015-05-17T12:16:03Z</time>
      </trkpt>
      <trkpt lat="40.536733" lon="-5.089783">
        <ele>1914.0</ele>
        <time>2015-05-17T12:16:05Z</time>
      </trkpt>
      <trkpt lat="40.536767" lon="-5.090117">
        <ele>1915.0</ele>
        <time>2015-05-17T12:16:07Z</time>
      </trkpt>
      <trkpt lat="40.536867" lon="-5.090367">
        <ele>1918.0</ele>
        <time>2015-05-17T12:16:09Z</time>
      </trkpt>
      <trkpt lat="40.536967" lon="-5.090533">
        <ele>1922.0</ele>
        <time>2015-05-17T12:16:11Z</time>
      </trkpt>
      <trkpt lat="40.537083" lon="-5.090583">
        <ele>1924.0</ele>
        <time>2015-05-17T12:16:13Z</time>
      </trkpt>
      <trkpt lat="40.537183" lon="-5.090567">
        <ele>1930.0</ele>
        <time>2015-05-17T12:16:15Z</time>
      </trkpt>
      <trkpt lat="40.537183" lon="-5.090500">
        <ele>1934.0</ele>
        <time>2015-05-17T12:16:17Z</time>
      </trkpt>
      <trkpt lat="40.537100" lon="-5.090400">
        <ele>1937.0</ele>
        <time>2015-05-17T12:16:19Z</time>
      </trkpt>
      <trkpt lat="40.536950" lon="-5.090350">
        <ele>1940.0</ele>
        <time>2015-05-17T12:16:21Z</time>
      </trkpt>
      <trkpt lat="40.536733" lon="-5.090400">
        <ele>1942.0</ele>
        <time>2015-05-17T12:16:23Z</time>
      </trkpt>
      <trkpt lat="40.536500" lon="-5.090550">
        <ele>1941.0</ele>
        <time>2015-05-17T12:16:25Z</time>
      </trkpt>
      <trkpt lat="40.536283" lon="-5.090817">
        <ele>1941.0</ele>
        <time>2015-05-17T12:16:27Z</time>
      </trkpt>
      <trkpt lat="40.536167" lon="-5.091200">
        <ele>1942.0</ele>
        <time>2015-05-17T12:16:29Z</time>
      </trkpt>
      <trkpt lat="40.536133" lon="-5.091533">
        <ele>1944.0</ele>
        <time>2015-05-17T12:16:31Z</time>
      </trkpt>
      <trkpt lat="40.536167" lon="-5.091817">
        <ele>1943.0</ele>
        <time>2015-05-17T12:16:33Z</time>
      </trkpt>
      <trkpt lat="40.536250" lon="-5.092033">
        <ele>1941.0</ele>
        <time>2015-05-17T12:16:35Z</time>
      </trkpt>
      <trkpt lat="40.536367" lon="-5.092233">
        <ele>1938.0</ele>
        <time>2015-05-17T12:16:37Z</time>
      </trkpt>
      <trkpt lat="40.536517" lon="-5.092383">
        <ele>1935.0</ele>
        <time>2015-05-17T12:16:39Z</time>
      </trkpt>
      <trkpt lat="40.536667" lon="-5.092450">
        <ele>1938.0</ele>
        <time>2015-05-17T12:16:41Z</time>
      </trkpt>
      <trkpt lat="40.536767" lon="-5.092500">
        <ele>1943.0</ele>
        <time>2015-05-17T12:16:43Z</time>
      </trkpt>
      <trkpt lat="40.536833" lon="-5.092517">
        <ele>1945.0</ele>
        <time>2015-05-17T12:16:45Z</time>
      </trkpt>
      <trkpt lat="40.536900" lon="-5.092417">
        <ele>1945.0</ele>
        <time>2015-05-17T12:16:47Z</time>
      </trkpt>
      <trkpt lat="40.536900" lon="-5.092333">
        <ele>1951.0</ele>
        <time>2015-05-17T12:16:49Z</time>
      </trkpt>
      <trkpt lat="40.536900" lon="-5.092283">
        <ele>1952.0</ele>
        <time>2015-05-17T12:16:51Z</time>
      </trkpt>
      <trkpt lat="40.536850" lon="-5.092167">
        <ele>1951.0</ele>
        <time>2015-05-17T12:16:53Z</time>
      </trkpt>
      <trkpt lat="40.536700" lon="-5.092033">
        <ele>1952.0</ele>
        <time>2015-05-17T12:16:55Z</time>
      </trkpt>
      <trkpt lat="40.536517" lon="-5.092000">
        <ele>1956.0</ele>
        <time>2015-05-17T12:16:57Z</time>
      </trkpt>
      <trkpt lat="40.536317" lon="-5.092050">
        <ele>1956.0</ele>
        <time>2015-05-17T12:16:59Z</time>
      </trkpt>
      <trkpt lat="40.536083" lon="-5.092167">
        <ele>1953.0</ele>
        <time>2015-05-17T12:17:01Z</time>
      </trkpt>
      <trkpt lat="40.535883" lon="-5.092417">
        <ele>1954.0</ele>
        <time>2015-05-17T12:17:03Z</time>
      </trkpt>
      <trkpt lat="40.535783" lon="-5.092717">
        <ele>1953.0</ele>
        <time>2015-05-17T12:17:05Z</time>
      </trkpt>
      <trkpt lat="40.535750" lon="-5.093050">
        <ele>1948.0</ele>
        <time>2015-05-17T12:17:07Z</time>
      </trkpt>
      <trkpt lat="40.535783" lon="-5.093400">
        <ele>1946.0</ele>
        <time>2015-05-17T12:17:09Z</time>
      </trkpt>
      <trkpt lat="40.535850" lon="-5.093667">
        <ele>1948.0</ele>
        <time>2015-05-17T12:17:11Z</time>
      </trkpt>
      <trkpt lat="40.535950" lon="-5.093850">
        <ele>1948.0</ele>
        <time>2015-05-17T12:17:13Z</time>
      </trkpt>
      <trkpt lat="40.536067" lon="-5.094017">
        <ele>1947.0</ele>
        <time>2015-05-17T12:17:15Z</time>
      </trkpt>
      <trkpt lat="40.536233" lon="-5.094117">
        <ele>1948.0</ele>
        <time>2015-05-17T12:17:17Z</time>
      </trkpt>
      <trkpt lat="40.536350" lon="-5.094217">
        <ele>1951.0</ele>
        <time>2015-05-17T12:17:19Z</time>
      </trkpt>
      <trkpt lat="40.536433" lon="-5.094267">
        <ele>1950.0</ele>
        <time>2015-05-17T12:17:21Z</time>
      </trkpt>
      <trkpt lat="40.536533" lon="-5.094233">
        <ele>1949.0</ele>
        <time>2015-05-17T12:17:23Z</time>
      </trkpt>
      <trkpt lat="40.536617" lon="-5.094217">
        <ele>1951.0</ele>
        <time>2015-05-17T12:17:25Z</time>
      </trkpt>
      <trkpt lat="40.536733" lon="-5.094267">
        <ele>1953.0</ele>
        <time>2015-05-17T12:17:27Z</time>
      </trkpt>
      <trkpt lat="40.536883" lon="-5.094417">
        <ele>1956.0</ele>
        <time>2015-05-17T12:17:29Z</time>
      </trkpt>
      <trkpt lat="40.537000" lon="-5.094633">
        <ele>1961.0</ele>
        <time>2015-05-17T12:17:31Z</time>
      </trkpt>
      <trkpt lat="40.537083" lon="-5.094883">
        <ele>1960.0</ele>
        <time>2015-05-17T12:17:33Z</time>
      </trkpt>
      <trkpt lat="40.537100" lon="-5.095267">
        <ele>1957.0</ele>
        <time>2015-05-17T12:17:35Z</time>
      </trkpt>
      <trkpt lat="40.537083" lon="-5.095667">
        <ele>1959.0</ele>
        <time>2015-05-17T12:17:37Z</time>
      </trkpt>
      <trkpt lat="40.537067" lon="-5.095983">
        <ele>1960.0</ele>
        <time>2015-05-17T12:17:39Z</time>
      </trkpt>
      <trkpt lat="40.537083" lon="-5.096267">
        <ele>1959.0</ele>
        <time>2015-05-17T12:17:41Z</time>
      </trkpt>
      <trkpt lat="40.537133" lon="-5.096517">
        <ele>1959.0</ele>
        <time>2015-05-17T12:17:43Z</time>
      </trkpt>
      <trkpt lat="40.537250" lon="-5.096717">
        <ele>1956.0</ele>
        <time>2015-05-17T12:17:45Z</time>
      </trkpt>
      <trkpt lat="40.537400" lon="-5.096883">
        <ele>1953.0</ele>
        <time>2015-05-17T12:17:47Z</time>
      </trkpt>
      <trkpt lat="40.537517" lon="-5.097083">
        <ele>1950.0</ele>
        <time>2015-05-17T12:17:49Z</time>
      </trkpt>
      <trkpt lat="40.537633" lon="-5.097317">
        <ele>1946.0</ele>
        <time>2015-05-17T12:17:51Z</time>
      </trkpt>
      <trkpt lat="40.537733" lon="-5.097567">
        <ele>1947.0</ele>
        <time>2015-05-17T12:17:53Z</time>
      </trkpt>
      <trkpt lat="40.537800" lon="-5.097833">
        <ele>1951.0</ele>
        <time>2015-05-17T12:17:55Z</time>
      </trkpt>
      <trkpt lat="40.537833" lon="-5.098083">
        <ele>1951.0</ele>
        <time>2015-05-17T12:17:57Z</time>
      </trkpt>
      <trkpt lat="40.537850" lon="-5.098400">
        <ele>1948.0</ele>
        <time>2015-05-17T12:17:59Z</time>
      </trkpt>
      <trkpt lat="40.537917" lon="-5.098700">
        <ele>1946.0</ele>
        <time>2015-05-17T12:18:01Z</time>
      </trkpt>
      <trkpt lat="40.538000" lon="-5.098950">
        <ele>1943.0</ele>
        <time>2015-05-17T12:18:03Z</time>
      </trkpt>
      <trkpt lat="40.538100" lon="-5.099183">
        <ele>1938.0</ele>
        <time>2015-05-17T12:18:05Z</time>
      </trkpt>
      <trkpt lat="40.538217" lon="-5.099417">
        <ele>1933.0</ele>
        <time>2015-05-17T12:18:07Z</time>
      </trkpt>
      <trkpt lat="40.538317" lon="-5.099683">
        <ele>1929.0</ele>
        <time>2015-05-17T12:18:09Z</time>
      </trkpt>
      <trkpt lat="40.538417" lon="-5.099950">
        <ele>1926.0</ele>
        <time>2015-05-17T12:18:11Z</time>
      </trkpt>
      <trkpt lat="40.538533" lon="-5.100217">
        <ele>1923.0</ele>
        <time>2015-05-17T12:18:13Z</time>
      </trkpt>
      <trkpt lat="40.538650" lon="-5.100517">
        <ele>1920.0</ele>
        <time>2015-05-17T12:18:15Z</time>
      </trkpt>
      <trkpt lat="40.538767" lon="-5.100800">
        <ele>1918.0</ele>
        <time>2015-05-17T12:18:17Z</time>
      </trkpt>
      <trkpt lat="40.538850" lon="-5.101067">
        <ele>1915.0</ele>
        <time>2015-05-17T12:18:19Z</time>
      </trkpt>
      <trkpt lat="40.538933" lon="-5.101367">
        <ele>1908.0</ele>
        <time>2015-05-17T12:18:21Z</time>
      </trkpt>
      <trkpt lat="40.539050" lon="-5.101683">
        <ele>1903.0</ele>
        <time>2015-05-17T12:18:23Z</time>
      </trkpt>
      <trkpt lat="40.539150" lon="-5.102017">
        <ele>1899.0</ele>
        <time>2015-05-17T12:18:25Z</time>
      </trkpt>
      <trkpt lat="40.539233" lon="-5.102333">
        <ele>1894.0</ele>
        <time>2015-05-17T12:18:27Z</time>
      </trkpt>
      <trkpt lat="40.539350" lon="-5.102667">
        <ele>1888.0</ele>
        <time>2015-05-17T12:18:29Z</time>
      </trkpt>
      <trkpt lat="40.539450" lon="-5.103000">
        <ele>1882.0</ele>
        <time>2015-05-17T12:18:31Z</time>
      </trkpt>
      <trkpt lat="40.539567" lon="-5.103333">
        <ele>1878.0</ele>
        <time>2015-05-17T12:18:33Z</time>
      </trkpt>
      <trkpt lat="40.539683" lon="-5.103667">
        <ele>1874.0</ele>
        <time>2015-05-17T12:18:35Z</time>
      </trkpt>
      <trkpt lat="40.539800" lon="-5.104017">
        <ele>1870.0</ele>
        <time>2015-05-17T12:18:37Z</time>
      </trkpt>
      <trkpt lat="40.539950" lon="-5.104350">
        <ele>1865.0</ele>
        <time>2015-05-17T12:18:39Z</time>
      </trkpt>
      <trkpt lat="40.540050" lon="-5.104717">
        <ele>1862.0</ele>
        <time>2015-05-17T12:18:41Z</time>
      </trkpt>
      <trkpt lat="40.540150" lon="-5.105067">
        <ele>1859.0</ele>
        <time>2015-05-17T12:18:43Z</time>
      </trkpt>
      <trkpt lat="40.540267" lon="-5.105433">
        <ele>1855.0</ele>
        <time>2015-05-17T12:18:45Z</time>
      </trkpt>
      <trkpt lat="40.540383" lon="-5.105833">
        <ele>1854.0</ele>
        <time>2015-05-17T12:18:47Z</time>
      </trkpt>
      <trkpt lat="40.540483" lon="-5.106183">
        <ele>1854.0</ele>
        <time>2015-05-17T12:18:49Z</time>
      </trkpt>
      <trkpt lat="40.540567" lon="-5.106550">
        <ele>1854.0</ele>
        <time>2015-05-17T12:18:51Z</time>
      </trkpt>
      <trkpt lat="40.540650" lon="-5.106933">
        <ele>1855.0</ele>
        <time>2015-05-17T12:18:53Z</time>
      </trkpt>
      <trkpt lat="40.540750" lon="-5.107267">
        <ele>1856.0</ele>
        <time>2015-05-17T12:18:55Z</time>
      </trkpt>
      <trkpt lat="40.540883" lon="-5.107583">
        <ele>1854.0</ele>
        <time>2015-05-17T12:18:57Z</time>
      </trkpt>
      <trkpt lat="40.541050" lon="-5.107917">
        <ele>1852.0</ele>
        <time>2015-05-17T12:18:59Z</time>
      </trkpt>
      <trkpt lat="40.541167" lon="-5.108267">
        <ele>1854.0</ele>
        <time>2015-05-17T12:19:01Z</time>
      </trkpt>
      <trkpt lat="40.541267" lon="-5.108600">
        <ele>1858.0</ele>
        <time>2015-05-17T12:19:03Z</time>
      </trkpt>
      <trkpt lat="40.541317" lon="-5.108933">
        <ele>1864.0</ele>
        <time>2015-05-17T12:19:05Z</time>
      </trkpt>
      <trkpt lat="40.541267" lon="-5.109267">
        <ele>1875.0</ele>
        <time>2015-05-17T12:19:07Z</time>
      </trkpt>
      <trkpt lat="40.541183" lon="-5.109550">
        <ele>1889.0</ele>
        <time>2015-05-17T12:19:09Z</time>
      </trkpt>
      <trkpt lat="40.541050" lon="-5.109733">
        <ele>1898.0</ele>
        <time>2015-05-17T12:19:11Z</time>
      </trkpt>
      <trkpt lat="40.540850" lon="-5.109817">
        <ele>1903.0</ele>
        <time>2015-05-17T12:19:13Z</time>
      </trkpt>
      <trkpt lat="40.540650" lon="-5.109783">
        <ele>1911.0</ele>
        <time>2015-05-17T12:19:15Z</time>
      </trkpt>
      <trkpt lat="40.540567" lon="-5.109667">
        <ele>1921.0</ele>
        <time>2015-05-17T12:19:17Z</time>
      </trkpt>
      <trkpt lat="40.540583" lon="-5.109583">
        <ele>1928.0</ele>
        <time>2015-05-17T12:19:19Z</time>
      </trkpt>
      <trkpt lat="40.540733" lon="-5.109567">
        <ele>1929.0</ele>
        <time>2015-05-17T12:19:21Z</time>
      </trkpt>
      <trkpt lat="40.540933" lon="-5.109650">
        <ele>1930.0</ele>
        <time>2015-05-17T12:19:23Z</time>
      </trkpt>
      <trkpt lat="40.541133" lon="-5.109800">
        <ele>1934.0</ele>
        <time>2015-05-17T12:19:25Z</time>
      </trkpt>
      <trkpt lat="40.541267" lon="-5.110050">
        <ele>1940.0</ele>
        <time>2015-05-17T12:19:27Z</time>
      </trkpt>
      <trkpt lat="40.541383" lon="-5.110317">
        <ele>1951.0</ele>
        <time>2015-05-17T12:19:29Z</time>
      </trkpt>
      <trkpt lat="40.541467" lon="-5.110600">
        <ele>1962.0</ele>
        <time>2015-05-17T12:19:31Z</time>
      </trkpt>
      <trkpt lat="40.541517" lon="-5.110933">
        <ele>1973.0</ele>
        <time>2015-05-17T12:19:33Z</time>
      </trkpt>
      <trkpt lat="40.541467" lon="-5.111267">
        <ele>1982.0</ele>
        <time>2015-05-17T12:19:35Z</time>
      </trkpt>
      <trkpt lat="40.541400" lon="-5.111617">
        <ele>1989.0</ele>
        <time>2015-05-17T12:19:37Z</time>
      </trkpt>
      <trkpt lat="40.541283" lon="-5.111933">
        <ele>1997.0</ele>
        <time>2015-05-17T12:19:39Z</time>
      </trkpt>
      <trkpt lat="40.541100" lon="-5.112083">
        <ele>2000.0</ele>
        <time>2015-05-17T12:19:41Z</time>
      </trkpt>
      <trkpt lat="40.540900" lon="-5.112083">
        <ele>2003.0</ele>
        <time>2015-05-17T12:19:43Z</time>
      </trkpt>
      <trkpt lat="40.540783" lon="-5.112000">
        <ele>2010.0</ele>
        <time>2015-05-17T12:19:45Z</time>
      </trkpt>
      <trkpt lat="40.540767" lon="-5.111883">
        <ele>2017.0</ele>
        <time>2015-05-17T12:19:47Z</time>
      </trkpt>
      <trkpt lat="40.540833" lon="-5.111767">
        <ele>2025.0</ele>
        <time>2015-05-17T12:19:49Z</time>
      </trkpt>
      <trkpt lat="40.540950" lon="-5.111750">
        <ele>2036.0</ele>
        <time>2015-05-17T12:19:51Z</time>
      </trkpt>
      <trkpt lat="40.541067" lon="-5.111783">
        <ele>2044.0</ele>
        <time>2015-05-17T12:19:53Z</time>
      </trkpt>
      <trkpt lat="40.541233" lon="-5.111900">
        <ele>2048.0</ele>
        <time>2015-05-17T12:19:55Z</time>
      </trkpt>
      <trkpt lat="40.541433" lon="-5.112083">
        <ele>2056.0</ele>
        <time>2015-05-17T12:19:57Z</time>
      </trkpt>
      <trkpt lat="40.541567" lon="-5.112317">
        <ele>2068.0</ele>
        <time>2015-05-17T12:19:59Z</time>
      </trkpt>
      <trkpt lat="40.541650" lon="-5.112633">
        <ele>2076.0</ele>
        <time>2015-05-17T12:20:01Z</time>
      </trkpt>
      <trkpt lat="40.541650" lon="-5.113017">
        <ele>2079.0</ele>
        <time>2015-05-17T12:20:03Z</time>
      </trkpt>
      <trkpt lat="40.541583" lon="-5.113367">
        <ele>2082.0</ele>
        <time>2015-05-17T12:20:05Z</time>
      </trkpt>
      <trkpt lat="40.541450" lon="-5.113667">
        <ele>2086.0</ele>
        <time>2015-05-17T12:20:07Z</time>
      </trkpt>
      <trkpt lat="40.541233" lon="-5.113917">
        <ele>2089.0</ele>
        <time>2015-05-17T12:20:09Z</time>
      </trkpt>
      <trkpt lat="40.541083" lon="-5.114083">
        <ele>2099.0</ele>
        <time>2015-05-17T12:20:11Z</time>
      </trkpt>
      <trkpt lat="40.540950" lon="-5.114167">
        <ele>2101.0</ele>
        <time>2015-05-17T12:20:13Z</time>
      </trkpt>
      <trkpt lat="40.540800" lon="-5.114150">
        <ele>2098.0</ele>
        <time>2015-05-17T12:20:15Z</time>
      </trkpt>
      <trkpt lat="40.540700" lon="-5.113983">
        <ele>2097.0</ele>
        <time>2015-05-17T12:20:17Z</time>
      </trkpt>
      <trkpt lat="40.540750" lon="-5.113817">
        <ele>2102.0</ele>
        <time>2015-05-17T12:20:19Z</time>
      </trkpt>
      <trkpt lat="40.540833" lon="-5.113767">
        <ele>2107.0</ele>
        <time>2015-05-17T12:20:21Z</time>
      </trkpt>
      <trkpt lat="40.540917" lon="-5.113683">
        <ele>2109.0</ele>
        <time>2015-05-17T12:20:23Z</time>
      </trkpt>
      <trkpt lat="40.541067" lon="-5.113650">
        <ele>2112.0</ele>
        <time>2015-05-17T12:20:25Z</time>
      </trkpt>
      <trkpt lat="40.541233" lon="-5.113733">
        <ele>2120.0</ele>
        <time>2015-05-17T12:20:27Z</time>
      </trkpt>
      <trkpt lat="40.541383" lon="-5.113900">
        <ele>2127.0</ele>
        <time>2015-05-17T12:20:29Z</time>
      </trkpt>
      <trkpt lat="40.541533" lon="-5.114150">
        <ele>2133.0</ele>
        <time>2015-05-17T12:20:31Z</time>
      </trkpt>
      <trkpt lat="40.541667" lon="-5.114417">
        <ele>2144.0</ele>
        <time>2015-05-17T12:20:33Z</time>
      </trkpt>
      <trkpt lat="40.541733" lon="-5.114733">
        <ele>2151.0</ele>
        <time>2015-05-17T12:20:35Z</time>
      </trkpt>
      <trkpt lat="40.541800" lon="-5.115100">
        <ele>2151.0</ele>
        <time>2015-05-17T12:20:37Z</time>
      </trkpt>
      <trkpt lat="40.541883" lon="-5.115483">
        <ele>2153.0</ele>
        <time>2015-05-17T12:20:39Z</time>
      </trkpt>
      <trkpt lat="40.541933" lon="-5.115850">
        <ele>2156.0</ele>
        <time>2015-05-17T12:20:41Z</time>
      </trkpt>
      <trkpt lat="40.541933" lon="-5.116233">
        <ele>2158.0</ele>
        <time>2015-05-17T12:20:43Z</time>
      </trkpt>
      <trkpt lat="40.541950" lon="-5.116617">
        <ele>2162.0</ele>
        <time>2015-05-17T12:20:45Z</time>
      </trkpt>
      <trkpt lat="40.541950" lon="-5.117000">
        <ele>2162.0</ele>
        <time>2015-05-17T12:20:47Z</time>
      </trkpt>
      <trkpt lat="40.541917" lon="-5.117400">
        <ele>2160.0</ele>
        <time>2015-05-17T12:20:49Z</time>
      </trkpt>
      <trkpt lat="40.541883" lon="-5.117800">
        <ele>2161.0</ele>
        <time>2015-05-17T12:20:51Z</time>
      </trkpt>
      <trkpt lat="40.541850" lon="-5.118167">
        <ele>2162.0</ele>
        <time>2015-05-17T12:20:53Z</time>
      </trkpt>
      <trkpt lat="40.541783" lon="-5.118517">
        <ele>2157.0</ele>
        <time>2015-05-17T12:20:55Z</time>
      </trkpt>
      <trkpt lat="40.541717" lon="-5.118933">
        <ele>2153.0</ele>
        <time>2015-05-17T12:20:57Z</time>
      </trkpt>
      <trkpt lat="40.541633" lon="-5.119300">
        <ele>2155.0</ele>
        <time>2015-05-17T12:20:59Z</time>
      </trkpt>
      <trkpt lat="40.541533" lon="-5.119617">
        <ele>2155.0</ele>
        <time>2015-05-17T12:21:01Z</time>
      </trkpt>
      <trkpt lat="40.541467" lon="-5.119983">
        <ele>2152.0</ele>
        <time>2015-05-17T12:21:03Z</time>
      </trkpt>
      <trkpt lat="40.541417" lon="-5.120383">
        <ele>2152.0</ele>
        <time>2015-05-17T12:21:05Z</time>
      </trkpt>
      <trkpt lat="40.541367" lon="-5.120750">
        <ele>2154.0</ele>
        <time>2015-05-17T12:21:07Z</time>
      </trkpt>
      <trkpt lat="40.541333" lon="-5.121100">
        <ele>2152.0</ele>
        <time>2015-05-17T12:21:09Z</time>
      </trkpt>
      <trkpt lat="40.541300" lon="-5.121483">
        <ele>2150.0</ele>
        <time>2015-05-17T12:21:11Z</time>
      </trkpt>
      <trkpt lat="40.541283" lon="-5.121867">
        <ele>2148.0</ele>
        <time>2015-05-17T12:21:13Z</time>
      </trkpt>
      <trkpt lat="40.541267" lon="-5.122267">
        <ele>2147.0</ele>
        <time>2015-05-17T12:21:15Z</time>
      </trkpt>
      <trkpt lat="40.541267" lon="-5.122667">
        <ele>2146.0</ele>
        <time>2015-05-17T12:21:17Z</time>
      </trkpt>
      <trkpt lat="40.541267" lon="-5.123067">
        <ele>2145.0</ele>
        <time>2015-05-17T12:21:19Z</time>
      </trkpt>
      <trkpt lat="40.541250" lon="-5.123483">
        <ele>2142.0</ele>
        <time>2015-05-17T12:21:21Z</time>
      </trkpt>
      <trkpt lat="40.541200" lon="-5.123883">
        <ele>2139.0</ele>
        <time>2015-05-17T12:21:23Z</time>
      </trkpt>
      <trkpt lat="40.541150" lon="-5.124267">
        <ele>2135.0</ele>
        <time>2015-05-17T12:21:25Z</time>
      </trkpt>
      <trkpt lat="40.541117" lon="-5.124700">
        <ele>2130.0</ele>
        <time>2015-05-17T12:21:27Z</time>
      </trkpt>
      <trkpt lat="40.541083" lon="-5.125100">
        <ele>2130.0</ele>
        <time>2015-05-17T12:21:29Z</time>
      </trkpt>
      <trkpt lat="40.541033" lon="-5.125450">
        <ele>2126.0</ele>
        <time>2015-05-17T12:21:31Z</time>
      </trkpt>
      <trkpt lat="40.540983" lon="-5.125817">
        <ele>2117.0</ele>
        <time>2015-05-17T12:21:33Z</time>
      </trkpt>
      <trkpt lat="40.540933" lon="-5.126217">
        <ele>2110.0</ele>
        <time>2015-05-17T12:21:35Z</time>
      </trkpt>
      <trkpt lat="40.540883" lon="-5.126617">
        <ele>2105.0</ele>
        <time>2015-05-17T12:21:37Z</time>
      </trkpt>
      <trkpt lat="40.540817" lon="-5.127033">
        <ele>2101.0</ele>
        <time>2015-05-17T12:21:39Z</time>
      </trkpt>
      <trkpt lat="40.540750" lon="-5.127433">
        <ele>2096.0</ele>
        <time>2015-05-17T12:21:41Z</time>
      </trkpt>
      <trkpt lat="40.540683" lon="-5.127833">
        <ele>2091.0</ele>
        <time>2015-05-17T12:21:43Z</time>
      </trkpt>
      <trkpt lat="40.540600" lon="-5.128217">
        <ele>2087.0</ele>
        <time>2015-05-17T12:21:45Z</time>
      </trkpt>
      <trkpt lat="40.540517" lon="-5.128567">
        <ele>2082.0</ele>
        <time>2015-05-17T12:21:47Z</time>
      </trkpt>
      <trkpt lat="40.540483" lon="-5.128967">
        <ele>2072.0</ele>
        <time>2015-05-17T12:21:49Z</time>
      </trkpt>
      <trkpt lat="40.540433" lon="-5.129433">
        <ele>2064.0</ele>
        <time>2015-05-17T12:21:51Z</time>
      </trkpt>
      <trkpt lat="40.540383" lon="-5.129867">
        <ele>2060.0</ele>
        <time>2015-05-17T12:21:53Z</time>
      </trkpt>
      <trkpt lat="40.540317" lon="-5.130233">
        <ele>2056.0</ele>
        <time>2015-05-17T12:21:55Z</time>
      </trkpt>
      <trkpt lat="40.540250" lon="-5.130617">
        <ele>2049.0</ele>
        <time>2015-05-17T12:21:57Z</time>
      </trkpt>
      <trkpt lat="40.540200" lon="-5.131033">
        <ele>2041.0</ele>
        <time>2015-05-17T12:21:59Z</time>
      </trkpt>
      <trkpt lat="40.540150" lon="-5.131417">
        <ele>2038.0</ele>
        <time>2015-05-17T12:22:01Z</time>
      </trkpt>
      <trkpt lat="40.540100" lon="-5.131783">
        <ele>2033.0</ele>
        <time>2015-05-17T12:22:03Z</time>
      </trkpt>
      <trkpt lat="40.540017" lon="-5.132167">
        <ele>2027.0</ele>
        <time>2015-05-17T12:22:05Z</time>
      </trkpt>
      <trkpt lat="40.539933" lon="-5.132550">
        <ele>2024.0</ele>
        <time>2015-05-17T12:22:07Z</time>
      </trkpt>
      <trkpt lat="40.539867" lon="-5.132917">
        <ele>2021.0</ele>
        <time>2015-05-17T12:22:09Z</time>
      </trkpt>
      <trkpt lat="40.539800" lon="-5.133317">
        <ele>2015.0</ele>
        <time>2015-05-17T12:22:11Z</time>
      </trkpt>
      <trkpt lat="40.539733" lon="-5.133717">
        <ele>2012.0</ele>
        <time>2015-05-17T12:22:13Z</time>
      </trkpt>
      <trkpt lat="40.539700" lon="-5.134083">
        <ele>2012.0</ele>
        <time>2015-05-17T12:22:15Z</time>
      </trkpt>
      <trkpt lat="40.539633" lon="-5.134417">
        <ele>2012.0</ele>
        <time>2015-05-17T12:22:17Z</time>
      </trkpt>
      <trkpt lat="40.539567" lon="-5.134750">
        <ele>2011.0</ele>
        <time>2015-05-17T12:22:19Z</time>
      </trkpt>
      <trkpt lat="40.539483" lon="-5.135083">
        <ele>2009.0</ele>
        <time>2015-05-17T12:22:21Z</time>
      </trkpt>
      <trkpt lat="40.539450" lon="-5.135417">
        <ele>2008.0</ele>
        <time>2015-05-17T12:22:23Z</time>
      </trkpt>
      <trkpt lat="40.539417" lon="-5.135750">
        <ele>2006.0</ele>
        <time>2015-05-17T12:22:25Z</time>
      </trkpt>
      <trkpt lat="40.539350" lon="-5.136117">
        <ele>2002.0</ele>
        <time>2015-05-17T12:22:27Z</time>
      </trkpt>
      <trkpt lat="40.539283" lon="-5.136500">
        <ele>2001.0</ele>
        <time>2015-05-17T12:22:29Z</time>
      </trkpt>
      <trkpt lat="40.539217" lon="-5.136833">
        <ele>2003.0</ele>
        <time>2015-05-17T12:22:31Z</time>
      </trkpt>
      <trkpt lat="40.539200" lon="-5.137167">
        <ele>2003.0</ele>
        <time>2015-05-17T12:22:33Z</time>
      </trkpt>
      <trkpt lat="40.539200" lon="-5.137533">
        <ele>2003.0</ele>
        <time>2015-05-17T12:22:35Z</time>
      </trkpt>
      <trkpt lat="40.539217" lon="-5.137900">
        <ele>2003.0</ele>
        <time>2015-05-17T12:22:37Z</time>
      </trkpt>
      <trkpt lat="40.539217" lon="-5.138250">
        <ele>2004.0</ele>
        <time>2015-05-17T12:22:39Z</time>
      </trkpt>
      <trkpt lat="40.539200" lon="-5.138600">
        <ele>2003.0</ele>
        <time>2015-05-17T12:22:41Z</time>
      </trkpt>
      <trkpt lat="40.539167" lon="-5.138983">
        <ele>2000.0</ele>
        <time>2015-05-17T12:22:43Z</time>
      </trkpt>
      <trkpt lat="40.539133" lon="-5.139367">
        <ele>1999.0</ele>
        <time>2015-05-17T12:22:45Z</time>
      </trkpt>
      <trkpt lat="40.539117" lon="-5.139733">
        <ele>1997.0</ele>
        <time>2015-05-17T12:22:47Z</time>
      </trkpt>
      <trkpt lat="40.539067" lon="-5.140100">
        <ele>1993.0</ele>
        <time>2015-05-17T12:22:49Z</time>
      </trkpt>
      <trkpt lat="40.539017" lon="-5.140500">
        <ele>1990.0</ele>
        <time>2015-05-17T12:22:51Z</time>
      </trkpt>
      <trkpt lat="40.538983" lon="-5.140900">
        <ele>1989.0</ele>
        <time>2015-05-17T12:22:53Z</time>
      </trkpt>
      <trkpt lat="40.538950" lon="-5.141267">
        <ele>1987.0</ele>
        <time>2015-05-17T12:22:55Z</time>
      </trkpt>
      <trkpt lat="40.538900" lon="-5.141667">
        <ele>1982.0</ele>
        <time>2015-05-17T12:22:57Z</time>
      </trkpt>
      <trkpt lat="40.538817" lon="-5.142100">
        <ele>1981.0</ele>
        <time>2015-05-17T12:22:59Z</time>
      </trkpt>
      <trkpt lat="40.538750" lon="-5.142467">
        <ele>1979.0</ele>
        <time>2015-05-17T12:23:01Z</time>
      </trkpt>
      <trkpt lat="40.538650" lon="-5.142833">
        <ele>1975.0</ele>
        <time>2015-05-17T12:23:03Z</time>
      </trkpt>
      <trkpt lat="40.538533" lon="-5.143233">
        <ele>1971.0</ele>
        <time>2015-05-17T12:23:05Z</time>
      </trkpt>
      <trkpt lat="40.538450" lon="-5.143550">
        <ele>1968.0</ele>
        <time>2015-05-17T12:23:07Z</time>
      </trkpt>
      <trkpt lat="40.538400" lon="-5.143900">
        <ele>1960.0</ele>
        <time>2015-05-17T12:23:09Z</time>
      </trkpt>
      <trkpt lat="40.538300" lon="-5.144300">
        <ele>1951.0</ele>
        <time>2015-05-17T12:23:11Z</time>
      </trkpt>
      <trkpt lat="40.538233" lon="-5.144700">
        <ele>1948.0</ele>
        <time>2015-05-17T12:23:13Z</time>
      </trkpt>
      <trkpt lat="40.538167" lon="-5.145050">
        <ele>1943.0</ele>
        <time>2015-05-17T12:23:15Z</time>
      </trkpt>
      <trkpt lat="40.538050" lon="-5.145417">
        <ele>1935.0</ele>
        <time>2015-05-17T12:23:17Z</time>
      </trkpt>
      <trkpt lat="40.537950" lon="-5.145833">
        <ele>1929.0</ele>
        <time>2015-05-17T12:23:19Z</time>
      </trkpt>
      <trkpt lat="40.537850" lon="-5.146200">
        <ele>1926.0</ele>
        <time>2015-05-17T12:23:21Z</time>
      </trkpt>
      <trkpt lat="40.537767" lon="-5.146533">
        <ele>1920.0</ele>
        <time>2015-05-17T12:23:23Z</time>
      </trkpt>
      <trkpt lat="40.537700" lon="-5.146917">
        <ele>1912.0</ele>
        <time>2015-05-17T12:23:25Z</time>
      </trkpt>
      <trkpt lat="40.537617" lon="-5.147300">
        <ele>1907.0</ele>
        <time>2015-05-17T12:23:27Z</time>
      </trkpt>
      <trkpt lat="40.537533" lon="-5.147683">
        <ele>1903.0</ele>
        <time>2015-05-17T12:23:29Z</time>
      </trkpt>
      <trkpt lat="40.537450" lon="-5.148050">
        <ele>1897.0</ele>
        <time>2015-05-17T12:23:31Z</time>
      </trkpt>
      <trkpt lat="40.537333" lon="-5.148433">
        <ele>1894.0</ele>
        <time>2015-05-17T12:23:33Z</time>
      </trkpt>
      <trkpt lat="40.537250" lon="-5.148783">
        <ele>1891.0</ele>
        <time>2015-05-17T12:23:35Z</time>
      </trkpt>
      <trkpt lat="40.537183" lon="-5.149100">
        <ele>1887.0</ele>
        <time>2015-05-17T12:23:37Z</time>
      </trkpt>
      <trkpt lat="40.537100" lon="-5.149450">
        <ele>1880.0</ele>
        <time>2015-05-17T12:23:39Z</time>
      </trkpt>
      <trkpt lat="40.537017" lon="-5.149817">
        <ele>1876.0</ele>
        <time>2015-05-17T12:23:41Z</time>
      </trkpt>
      <trkpt lat="40.536933" lon="-5.150150">
        <ele>1872.0</ele>
        <time>2015-05-17T12:23:43Z</time>
      </trkpt>
      <trkpt lat="40.536833" lon="-5.150500">
        <ele>1865.0</ele>
        <time>2015-05-17T12:23:45Z</time>
      </trkpt>
      <trkpt lat="40.536733" lon="-5.150867">
        <ele>1861.0</ele>
        <time>2015-05-17T12:23:47Z</time>
      </trkpt>
      <trkpt lat="40.536650" lon="-5.151233">
        <ele>1860.0</ele>
        <time>2015-05-17T12:23:49Z</time>
      </trkpt>
      <trkpt lat="40.536567" lon="-5.151550">
        <ele>1858.0</ele>
        <time>2015-05-17T12:23:51Z</time>
      </trkpt>
      <trkpt lat="40.536500" lon="-5.151900">
        <ele>1852.0</ele>
        <time>2015-05-17T12:23:53Z</time>
      </trkpt>
      <trkpt lat="40.536433" lon="-5.152283">
        <ele>1847.0</ele>
        <time>2015-05-17T12:23:55Z</time>
      </trkpt>
      <trkpt lat="40.536367" lon="-5.152650">
        <ele>1844.0</ele>
        <time>2015-05-17T12:23:57Z</time>
      </trkpt>
      <trkpt lat="40.536283" lon="-5.153000">
        <ele>1839.0</ele>
        <time>2015-05-17T12:23:59Z</time>
      </trkpt>
      <trkpt lat="40.536200" lon="-5.153383">
        <ele>1834.0</ele>
        <time>2015-05-17T12:24:01Z</time>
      </trkpt>
      <trkpt lat="40.536117" lon="-5.153733">
        <ele>1830.0</ele>
        <time>2015-05-17T12:24:03Z</time>
      </trkpt>
      <trkpt lat="40.536033" lon="-5.154067">
        <ele>1825.0</ele>
        <time>2015-05-17T12:24:05Z</time>
      </trkpt>
      <trkpt lat="40.535917" lon="-5.154433">
        <ele>1818.0</ele>
        <time>2015-05-17T12:24:07Z</time>
      </trkpt>
      <trkpt lat="40.535783" lon="-5.154783">
        <ele>1813.0</ele>
        <time>2015-05-17T12:24:09Z</time>
      </trkpt>
      <trkpt lat="40.535683" lon="-5.155117">
        <ele>1810.0</ele>
        <time>2015-05-17T12:24:11Z</time>
      </trkpt>
      <trkpt lat="40.535567" lon="-5.155467">
        <ele>1805.0</ele>
        <time>2015-05-17T12:24:13Z</time>
      </trkpt>
      <trkpt lat="40.535467" lon="-5.155817">
        <ele>1800.0</ele>
        <time>2015-05-17T12:24:15Z</time>
      </trkpt>
      <trkpt lat="40.535367" lon="-5.156183">
        <ele>1796.0</ele>
        <time>2015-05-17T12:24:17Z</time>
      </trkpt>
      <trkpt lat="40.535283" lon="-5.156550">
        <ele>1791.0</ele>
        <time>2015-05-17T12:24:19Z</time>
      </trkpt>
      <trkpt lat="40.535200" lon="-5.156917">
        <ele>1787.0</ele>
        <time>2015-05-17T12:24:21Z</time>
      </trkpt>
      <trkpt lat="40.535100" lon="-5.157267">
        <ele>1783.0</ele>
        <time>2015-05-17T12:24:23Z</time>
      </trkpt>
      <trkpt lat="40.534983" lon="-5.157650">
        <ele>1778.0</ele>
        <time>2015-05-17T12:24:25Z</time>
      </trkpt>
      <trkpt lat="40.534850" lon="-5.158000">
        <ele>1773.0</ele>
        <time>2015-05-17T12:24:27Z</time>
      </trkpt>
      <trkpt lat="40.534717" lon="-5.158350">
        <ele>1768.0</ele>
        <time>2015-05-17T12:24:29Z</time>
      </trkpt>
      <trkpt lat="40.534617" lon="-5.158717">
        <ele>1761.0</ele>
        <time>2015-05-17T12:24:31Z</time>
      </trkpt>
      <trkpt lat="40.534517" lon="-5.159100">
        <ele>1754.0</ele>
        <time>2015-05-17T12:24:33Z</time>
      </trkpt>
      <trkpt lat="40.534417" lon="-5.159450">
        <ele>1750.0</ele>
        <time>2015-05-17T12:24:35Z</time>
      </trkpt>
      <trkpt lat="40.534300" lon="-5.159817">
        <ele>1743.0</ele>
        <time>2015-05-17T12:24:37Z</time>
      </trkpt>
      <trkpt lat="40.534183" lon="-5.160217">
        <ele>1738.0</ele>
        <time>2015-05-17T12:24:39Z</time>
      </trkpt>
      <trkpt lat="40.534067" lon="-5.160583">
        <ele>1736.0</ele>
        <time>2015-05-17T12:24:41Z</time>
      </trkpt>
      <trkpt lat="40.533933" lon="-5.160917">
        <ele>1731.0</ele>
        <time>2015-05-17T12:24:43Z</time>
      </trkpt>
      <trkpt lat="40.533783" lon="-5.161250">
        <ele>1725.0</ele>
        <time>2015-05-17T12:24:45Z</time>
      </trkpt>
      <trkpt lat="40.533667" lon="-5.161600">
        <ele>1721.0</ele>
        <time>2015-05-17T12:24:47Z</time>
      </trkpt>
      <trkpt lat="40.533583" lon="-5.161950">
        <ele>1715.0</ele>
        <time>2015-05-17T12:24:49Z</time>
      </trkpt>
      <trkpt lat="40.533483" lon="-5.162317">
        <ele>1708.0</ele>
        <time>2015-05-17T12:24:51Z</time>
      </trkpt>
      <trkpt lat="40.533400" lon="-5.162700">
        <ele>1701.0</ele>
        <time>2015-05-17T12:24:53Z</time>
      </trkpt>
      <trkpt lat="40.533317" lon="-5.163050">
        <ele>1694.0</ele>
        <time>2015-05-17T12:24:55Z</time>
      </trkpt>
      <trkpt lat="40.533217" lon="-5.163417">
        <ele>1686.0</ele>
        <time>2015-05-17T12:24:57Z</time>
      </trkpt>
      <trkpt lat="40.533117" lon="-5.163800">
        <ele>1678.0</ele>
        <time>2015-05-17T12:24:59Z</time>
      </trkpt>
      <trkpt lat="40.533017" lon="-5.164167">
        <ele>1672.0</ele>
        <time>2015-05-17T12:25:01Z</time>
      </trkpt>
      <trkpt lat="40.532917" lon="-5.164517">
        <ele>1666.0</ele>
        <time>2015-05-17T12:25:03Z</time>
      </trkpt>
      <trkpt lat="40.532800" lon="-5.164917">
        <ele>1661.0</ele>
        <time>2015-05-17T12:25:05Z</time>
      </trkpt>
      <trkpt lat="40.532717" lon="-5.165300">
        <ele>1658.0</ele>
        <time>2015-05-17T12:25:07Z</time>
      </trkpt>
      <trkpt lat="40.532633" lon="-5.165650">
        <ele>1656.0</ele>
        <time>2015-05-17T12:25:09Z</time>
      </trkpt>
      <trkpt lat="40.532533" lon="-5.166033">
        <ele>1651.0</ele>
        <time>2015-05-17T12:25:11Z</time>
      </trkpt>
      <trkpt lat="40.532417" lon="-5.166417">
        <ele>1650.0</ele>
        <time>2015-05-17T12:25:13Z</time>
      </trkpt>
      <trkpt lat="40.532333" lon="-5.166783">
        <ele>1651.0</ele>
        <time>2015-05-17T12:25:15Z</time>
      </trkpt>
      <trkpt lat="40.532283" lon="-5.167117">
        <ele>1648.0</ele>
        <time>2015-05-17T12:25:17Z</time>
      </trkpt>
      <trkpt lat="40.532217" lon="-5.167483">
        <ele>1643.0</ele>
        <time>2015-05-17T12:25:19Z</time>
      </trkpt>
      <trkpt lat="40.532150" lon="-5.167867">
        <ele>1645.0</ele>
        <time>2015-05-17T12:25:21Z</time>
      </trkpt>
      <trkpt lat="40.532083" lon="-5.168133">
        <ele>1646.0</ele>
        <time>2015-05-17T12:25:23Z</time>
      </trkpt>
      <trkpt lat="40.531983" lon="-5.168400">
        <ele>1640.0</ele>
        <time>2015-05-17T12:25:25Z</time>
      </trkpt>
      <trkpt lat="40.531867" lon="-5.168767">
        <ele>1632.0</ele>
        <time>2015-05-17T12:25:27Z</time>
      </trkpt>
      <trkpt lat="40.531750" lon="-5.169200">
        <ele>1630.0</ele>
        <time>2015-05-17T12:25:29Z</time>
      </trkpt>
      <trkpt lat="40.531633" lon="-5.169533">
        <ele>1630.0</ele>
        <time>2015-05-17T12:25:31Z</time>
      </trkpt>
      <trkpt lat="40.531517" lon="-5.169900">
        <ele>1624.0</ele>
        <time>2015-05-17T12:25:33Z</time>
      </trkpt>
      <trkpt lat="40.531383" lon="-5.170317">
        <ele>1617.0</ele>
        <time>2015-05-17T12:25:35Z</time>
      </trkpt>
      <trkpt lat="40.531250" lon="-5.170750">
        <ele>1615.0</ele>
        <time>2015-05-17T12:25:37Z</time>
      </trkpt>
      <trkpt lat="40.531117" lon="-5.171150">
        <ele>1615.0</ele>
        <time>2015-05-17T12:25:39Z</time>
      </trkpt>
      <trkpt lat="40.530983" lon="-5.171550">
        <ele>1611.0</ele>
        <time>2015-05-17T12:25:41Z</time>
      </trkpt>
      <trkpt lat="40.530833" lon="-5.171950">
        <ele>1607.0</ele>
        <time>2015-05-17T12:25:43Z</time>
      </trkpt>
      <trkpt lat="40.530700" lon="-5.172367">
        <ele>1605.0</ele>
        <time>2015-05-17T12:25:45Z</time>
      </trkpt>
      <trkpt lat="40.530550" lon="-5.172733">
        <ele>1605.0</ele>
        <time>2015-05-17T12:25:47Z</time>
      </trkpt>
      <trkpt lat="40.530433" lon="-5.173100">
        <ele>1603.0</ele>
        <time>2015-05-17T12:25:49Z</time>
      </trkpt>
      <trkpt lat="40.530333" lon="-5.173483">
        <ele>1597.0</ele>
        <time>2015-05-17T12:25:51Z</time>
      </trkpt>
      <trkpt lat="40.530217" lon="-5.173867">
        <ele>1593.0</ele>
        <time>2015-05-17T12:25:53Z</time>
      </trkpt>
      <trkpt lat="40.530100" lon="-5.174267">
        <ele>1587.0</ele>
        <time>2015-05-17T12:25:55Z</time>
      </trkpt>
      <trkpt lat="40.530000" lon="-5.174667">
        <ele>1581.0</ele>
        <time>2015-05-17T12:25:57Z</time>
      </trkpt>
      <trkpt lat="40.529883" lon="-5.175017">
        <ele>1578.0</ele>
        <time>2015-05-17T12:25:59Z</time>
      </trkpt>
      <trkpt lat="40.529783" lon="-5.175367">
        <ele>1573.0</ele>
        <time>2015-05-17T12:26:01Z</time>
      </trkpt>
      <trkpt lat="40.529667" lon="-5.175733">
        <ele>1567.0</ele>
        <time>2015-05-17T12:26:03Z</time>
      </trkpt>
      <trkpt lat="40.529567" lon="-5.176083">
        <ele>1563.0</ele>
        <time>2015-05-17T12:26:05Z</time>
      </trkpt>
      <trkpt lat="40.529483" lon="-5.176450">
        <ele>1558.0</ele>
        <time>2015-05-17T12:26:07Z</time>
      </trkpt>
      <trkpt lat="40.529400" lon="-5.176833">
        <ele>1553.0</ele>
        <time>2015-05-17T12:26:09Z</time>
      </trkpt>
      <trkpt lat="40.529300" lon="-5.177200">
        <ele>1549.0</ele>
        <time>2015-05-17T12:26:11Z</time>
      </trkpt>
      <trkpt lat="40.529200" lon="-5.177583">
        <ele>1545.0</ele>
        <time>2015-05-17T12:26:13Z</time>
      </trkpt>
      <trkpt lat="40.529100" lon="-5.177950">
        <ele>1541.0</ele>
        <time>2015-05-17T12:26:15Z</time>
      </trkpt>
      <trkpt lat="40.529000" lon="-5.178300">
        <ele>1537.0</ele>
        <time>2015-05-17T12:26:17Z</time>
      </trkpt>
      <trkpt lat="40.528883" lon="-5.178667">
        <ele>1532.0</ele>
        <time>2015-05-17T12:26:19Z</time>
      </trkpt>
      <trkpt lat="40.528767" lon="-5.179050">
        <ele>1527.0</ele>
        <time>2015-05-17T12:26:21Z</time>
      </trkpt>
      <trkpt lat="40.528667" lon="-5.179400">
        <ele>1522.0</ele>
        <time>2015-05-17T12:26:23Z</time>
      </trkpt>
      <trkpt lat="40.528583" lon="-5.179767">
        <ele>1518.0</ele>
        <time>2015-05-17T12:26:25Z</time>
      </trkpt>
      <trkpt lat="40.528500" lon="-5.180117">
        <ele>1513.0</ele>
        <time>2015-05-17T12:26:27Z</time>
      </trkpt>
      <trkpt lat="40.528417" lon="-5.180517">
        <ele>1507.0</ele>
        <time>2015-05-17T12:26:29Z</time>
      </trkpt>
      <trkpt lat="40.528333" lon="-5.180900">
        <ele>1505.0</ele>
        <time>2015-05-17T12:26:31Z</time>
      </trkpt>
      <trkpt lat="40.528250" lon="-5.181267">
        <ele>1502.0</ele>
        <time>2015-05-17T12:26:33Z</time>
      </trkpt>
      <trkpt lat="40.528167" lon="-5.181650">
        <ele>1497.0</ele>
        <time>2015-05-17T12:26:35Z</time>
      </trkpt>
      <trkpt lat="40.528083" lon="-5.182050">
        <ele>1493.0</ele>
        <time>2015-05-17T12:26:37Z</time>
      </trkpt>
      <trkpt lat="40.527983" lon="-5.182450">
        <ele>1490.0</ele>
        <time>2015-05-17T12:26:39Z</time>
      </trkpt>
      <trkpt lat="40.527917" lon="-5.182850">
        <ele>1486.0</ele>
        <time>2015-05-17T12:26:41Z</time>
      </trkpt>
      <trkpt lat="40.527850" lon="-5.183233">
        <ele>1484.0</ele>
        <time>2015-05-17T12:26:43Z</time>
      </trkpt>
      <trkpt lat="40.527783" lon="-5.183617">
        <ele>1481.0</ele>
        <time>2015-05-17T12:26:45Z</time>
      </trkpt>
      <trkpt lat="40.527717" lon="-5.184017">
        <ele>1478.0</ele>
        <time>2015-05-17T12:26:47Z</time>
      </trkpt>
      <trkpt lat="40.527650" lon="-5.184433">
        <ele>1474.0</ele>
        <time>2015-05-17T12:26:49Z</time>
      </trkpt>
      <trkpt lat="40.527583" lon="-5.184817">
        <ele>1470.0</ele>
        <time>2015-05-17T12:26:51Z</time>
      </trkpt>
      <trkpt lat="40.527533" lon="-5.185217">
        <ele>1468.0</ele>
        <time>2015-05-17T12:26:53Z</time>
      </trkpt>
      <trkpt lat="40.527467" lon="-5.185567">
        <ele>1468.0</ele>
        <time>2015-05-17T12:26:55Z</time>
      </trkpt>
      <trkpt lat="40.527417" lon="-5.185933">
        <ele>1465.0</ele>
        <time>2015-05-17T12:26:57Z</time>
      </trkpt>
      <trkpt lat="40.527300" lon="-5.186300">
        <ele>1462.0</ele>
        <time>2015-05-17T12:26:59Z</time>
      </trkpt>
      <trkpt lat="40.527200" lon="-5.186650">
        <ele>1459.0</ele>
        <time>2015-05-17T12:27:01Z</time>
      </trkpt>
      <trkpt lat="40.527100" lon="-5.187050">
        <ele>1454.0</ele>
        <time>2015-05-17T12:27:03Z</time>
      </trkpt>
      <trkpt lat="40.526983" lon="-5.187467">
        <ele>1450.0</ele>
        <time>2015-05-17T12:27:05Z</time>
      </trkpt>
      <trkpt lat="40.526883" lon="-5.187867">
        <ele>1449.0</ele>
        <time>2015-05-17T12:27:07Z</time>
      </trkpt>
      <trkpt lat="40.526783" lon="-5.188233">
        <ele>1447.0</ele>
        <time>2015-05-17T12:27:09Z</time>
      </trkpt>
      <trkpt lat="40.526700" lon="-5.188617">
        <ele>1446.0</ele>
        <time>2015-05-17T12:27:11Z</time>
      </trkpt>
      <trkpt lat="40.526617" lon="-5.188983">
        <ele>1444.0</ele>
        <time>2015-05-17T12:27:13Z</time>
      </trkpt>
      <trkpt lat="40.526517" lon="-5.189367">
        <ele>1442.0</ele>
        <time>2015-05-17T12:27:15Z</time>
      </trkpt>
      <trkpt lat="40.526417" lon="-5.189733">
        <ele>1441.0</ele>
        <time>2015-05-17T12:27:17Z</time>
      </trkpt>
      <trkpt lat="40.526333" lon="-5.190083">
        <ele>1438.0</ele>
        <time>2015-05-17T12:27:19Z</time>
      </trkpt>
      <trkpt lat="40.526250" lon="-5.190450">
        <ele>1434.0</ele>
        <time>2015-05-17T12:27:21Z</time>
      </trkpt>
      <trkpt lat="40.526183" lon="-5.190833">
        <ele>1435.0</ele>
        <time>2015-05-17T12:27:23Z</time>
      </trkpt>
      <trkpt lat="40.526100" lon="-5.191167">
        <ele>1435.0</ele>
        <time>2015-05-17T12:27:25Z</time>
      </trkpt>
      <trkpt lat="40.526033" lon="-5.191517">
        <ele>1432.0</ele>
        <time>2015-05-17T12:27:27Z</time>
      </trkpt>
      <trkpt lat="40.525983" lon="-5.191917">
        <ele>1432.0</ele>
        <time>2015-05-17T12:27:29Z</time>
      </trkpt>
      <trkpt lat="40.525983" lon="-5.192217">
        <ele>1438.0</ele>
        <time>2015-05-17T12:27:31Z</time>
      </trkpt>
      <trkpt lat="40.526017" lon="-5.192450">
        <ele>1440.0</ele>
        <time>2015-05-17T12:27:33Z</time>
      </trkpt>
      <trkpt lat="40.526133" lon="-5.192650">
        <ele>1440.0</ele>
        <time>2015-05-17T12:27:35Z</time>
      </trkpt>
      <trkpt lat="40.526233" lon="-5.192733">
        <ele>1445.0</ele>
        <time>2015-05-17T12:27:37Z</time>
      </trkpt>
      <trkpt lat="40.526283" lon="-5.192733">
        <ele>1448.0</ele>
        <time>2015-05-17T12:27:39Z</time>
      </trkpt>
      <trkpt lat="40.526283" lon="-5.192650">
        <ele>1449.0</ele>
        <time>2015-05-17T12:27:41Z</time>
      </trkpt>
      <trkpt lat="40.526217" lon="-5.192550">
        <ele>1451.0</ele>
        <time>2015-05-17T12:27:43Z</time>
      </trkpt>
      <trkpt lat="40.526100" lon="-5.192567">
        <ele>1456.0</ele>
        <time>2015-05-17T12:27:45Z</time>
      </trkpt>
      <trkpt lat="40.525917" lon="-5.192617">
        <ele>1456.0</ele>
        <time>2015-05-17T12:27:47Z</time>
      </trkpt>
      <trkpt lat="40.525683" lon="-5.192783">
        <ele>1455.0</ele>
        <time>2015-05-17T12:27:49Z</time>
      </trkpt>
      <trkpt lat="40.525500" lon="-5.193083">
        <ele>1453.0</ele>
        <time>2015-05-17T12:27:51Z</time>
      </trkpt>
      <trkpt lat="40.525333" lon="-5.193417">
        <ele>1453.0</ele>
        <time>2015-05-17T12:27:53Z</time>
      </trkpt>
      <trkpt lat="40.525233" lon="-5.193767">
        <ele>1454.0</ele>
        <time>2015-05-17T12:27:55Z</time>
      </trkpt>
      <trkpt lat="40.525200" lon="-5.194117">
        <ele>1456.0</ele>
        <time>2015-05-17T12:27:57Z</time>
      </trkpt>
      <trkpt lat="40.525233" lon="-5.194417">
        <ele>1457.0</ele>
        <time>2015-05-17T12:27:59Z</time>
      </trkpt>
      <trkpt lat="40.525333" lon="-5.194633">
        <ele>1458.0</ele>
        <time>2015-05-17T12:28:01Z</time>
      </trkpt>
      <trkpt lat="40.525483" lon="-5.194750">
        <ele>1457.0</ele>
        <time>2015-05-17T12:28:03Z</time>
      </trkpt>
      <trkpt lat="40.525600" lon="-5.194733">
        <ele>1459.0</ele>
        <time>2015-05-17T12:28:05Z</time>
      </trkpt>
      <trkpt lat="40.525617" lon="-5.194683">
        <ele>1463.0</ele>
        <time>2015-05-17T12:28:07Z</time>
      </trkpt>
      <trkpt lat="40.525567" lon="-5.194600">
        <ele>1464.0</ele>
        <time>2015-05-17T12:28:09Z</time>
      </trkpt>
      <trkpt lat="40.525433" lon="-5.194517">
        <ele>1464.0</ele>
        <time>2015-05-17T12:28:11Z</time>
      </trkpt>
      <trkpt lat="40.525217" lon="-5.194533">
        <ele>1464.0</ele>
        <time>2015-05-17T12:28:13Z</time>
      </trkpt>
      <trkpt lat="40.525000" lon="-5.194700">
        <ele>1466.0</ele>
        <time>2015-05-17T12:28:15Z</time>
      </trkpt>
      <trkpt lat="40.524817" lon="-5.194950">
        <ele>1466.0</ele>
        <time>2015-05-17T12:28:17Z</time>
      </trkpt>
      <trkpt lat="40.524667" lon="-5.195267">
        <ele>1465.0</ele>
        <time>2015-05-17T12:28:19Z</time>
      </trkpt>
      <trkpt lat="40.524617" lon="-5.195633">
        <ele>1464.0</ele>
        <time>2015-05-17T12:28:21Z</time>
      </trkpt>
      <trkpt lat="40.524617" lon="-5.195983">
        <ele>1464.0</ele>
        <time>2015-05-17T12:28:23Z</time>
      </trkpt>
      <trkpt lat="40.524650" lon="-5.196283">
        <ele>1465.0</ele>
        <time>2015-05-17T12:28:25Z</time>
      </trkpt>
      <trkpt lat="40.524750" lon="-5.196533">
        <ele>1463.0</ele>
        <time>2015-05-17T12:28:27Z</time>
      </trkpt>
      <trkpt lat="40.524883" lon="-5.196700">
        <ele>1461.0</ele>
        <time>2015-05-17T12:28:29Z</time>
      </trkpt>
      <trkpt lat="40.525017" lon="-5.196717">
        <ele>1462.0</ele>
        <time>2015-05-17T12:28:31Z</time>
      </trkpt>
      <trkpt lat="40.525100" lon="-5.196667">
        <ele>1464.0</ele>
        <time>2015-05-17T12:28:33Z</time>
      </trkpt>
      <trkpt lat="40.525133" lon="-5.196617">
        <ele>1467.0</ele>
        <time>2015-05-17T12:28:35Z</time>
      </trkpt>
      <trkpt lat="40.525133" lon="-5.196550">
        <ele>1468.0</ele>
        <time>2015-05-17T12:28:37Z</time>
      </trkpt>
      <trkpt lat="40.525083" lon="-5.196433">
        <ele>1468.0</ele>
        <time>2015-05-17T12:28:39Z</time>
      </trkpt>
      <trkpt lat="40.524983" lon="-5.196333">
        <ele>1468.0</ele>
        <time>2015-05-17T12:28:41Z</time>
      </trkpt>
      <trkpt lat="40.524800" lon="-5.196300">
        <ele>1468.0</ele>
        <time>2015-05-17T12:28:43Z</time>
      </trkpt>
      <trkpt lat="40.524617" lon="-5.196383">
        <ele>1470.0</ele>
        <time>2015-05-17T12:28:45Z</time>
      </trkpt>
      <trkpt lat="40.524400" lon="-5.196550">
        <ele>1470.0</ele>
        <time>2015-05-17T12:28:47Z</time>
      </trkpt>
      <trkpt lat="40.524233" lon="-5.196883">
        <ele>1469.0</ele>
        <time>2015-05-17T12:28:49Z</time>
      </trkpt>
      <trkpt lat="40.524183" lon="-5.197250">
        <ele>1470.0</ele>
        <time>2015-05-17T12:28:51Z</time>
      </trkpt>
      <trkpt lat="40.524133" lon="-5.197533">
        <ele>1473.0</ele>
        <time>2015-05-17T12:28:53Z</time>
      </trkpt>
      <trkpt lat="40.524133" lon="-5.197817">
        <ele>1473.0</ele>
        <time>2015-05-17T12:28:55Z</time>
      </trkpt>
      <trkpt lat="40.524233" lon="-5.198083">
        <ele>1469.0</ele>
        <time>2015-05-17T12:28:57Z</time>
      </trkpt>
      <trkpt lat="40.524383" lon="-5.198217">
        <ele>1469.0</ele>
        <time>2015-05-17T12:28:59Z</time>
      </trkpt>
      <trkpt lat="40.524500" lon="-5.198283">
        <ele>1472.0</ele>
        <time>2015-05-17T12:29:01Z</time>
      </trkpt>
      <trkpt lat="40.524550" lon="-5.198300">
        <ele>1473.0</ele>
        <time>2015-05-17T12:29:03Z</time>
      </trkpt>
      <trkpt lat="40.524600" lon="-5.198183">
        <ele>1470.0</ele>
        <time>2015-05-17T12:29:05Z</time>
      </trkpt>
      <trkpt lat="40.524533" lon="-5.198033">
        <ele>1468.0</ele>
        <time>2015-05-17T12:29:07Z</time>
      </trkpt>
      <trkpt lat="40.524400" lon="-5.197933">
        <ele>1468.0</ele>
        <time>2015-05-17T12:29:09Z</time>
      </trkpt>
      <trkpt lat="40.524233" lon="-5.197917">
        <ele>1469.0</ele>
        <time>2015-05-17T12:29:11Z</time>
      </trkpt>
      <trkpt lat="40.524000" lon="-5.197967">
        <ele>1468.0</ele>
        <time>2015-05-17T12:29:13Z</time>
      </trkpt>
      <trkpt lat="40.523783" lon="-5.198117">
        <ele>1467.0</ele>
        <time>2015-05-17T12:29:15Z</time>
      </trkpt>
      <trkpt lat="40.523600" lon="-5.198350">
        <ele>1468.0</ele>
        <time>2015-05-17T12:29:17Z</time>
      </trkpt>
      <trkpt lat="40.523433" lon="-5.198617">
        <ele>1467.0</ele>
        <time>2015-05-17T12:29:19Z</time>
      </trkpt>
      <trkpt lat="40.523300" lon="-5.198950">
        <ele>1466.0</ele>
        <time>2015-05-17T12:29:21Z</time>
      </trkpt>
      <trkpt lat="40.523217" lon="-5.199283">
        <ele>1468.0</ele>
        <time>2015-05-17T12:29:23Z</time>
      </trkpt>
      <trkpt lat="40.523200" lon="-5.199583">
        <ele>1470.0</ele>
        <time>2015-05-17T12:29:25Z</time>
      </trkpt>
      <trkpt lat="40.523250" lon="-5.199867">
        <ele>1471.0</ele>
        <time>2015-05-17T12:29:27Z</time>
      </trkpt>
      <trkpt lat="40.523350" lon="-5.200100">
        <ele>1471.0</ele>
        <time>2015-05-17T12:29:29Z</time>
      </trkpt>
      <trkpt lat="40.523483" lon="-5.200217">
        <ele>1471.0</ele>
        <time>2015-05-17T12:29:31Z</time>
      </trkpt>
      <trkpt lat="40.523600" lon="-5.200250">
        <ele>1470.0</ele>
        <time>2015-05-17T12:29:33Z</time>
      </trkpt>
      <trkpt lat="40.523683" lon="-5.200233">
        <ele>1471.0</ele>
        <time>2015-05-17T12:29:35Z</time>
      </trkpt>
      <trkpt lat="40.523750" lon="-5.200150">
        <ele>1470.0</ele>
        <time>2015-05-17T12:29:37Z</time>
      </trkpt>
      <trkpt lat="40.523750" lon="-5.200033">
        <ele>1470.0</ele>
        <time>2015-05-17T12:29:39Z</time>
      </trkpt>
      <trkpt lat="40.523683" lon="-5.199933">
        <ele>1471.0</ele>
        <time>2015-05-17T12:29:41Z</time>
      </trkpt>
      <trkpt lat="40.523533" lon="-5.199867">
        <ele>1470.0</ele>
        <time>2015-05-17T12:29:43Z</time>
      </trkpt>
      <trkpt lat="40.523350" lon="-5.199850">
        <ele>1469.0</ele>
        <time>2015-05-17T12:29:45Z</time>
      </trkpt>
      <trkpt lat="40.523150" lon="-5.199933">
        <ele>1469.0</ele>
        <time>2015-05-17T12:29:47Z</time>
      </trkpt>
      <trkpt lat="40.522933" lon="-5.200133">
        <ele>1466.0</ele>
        <time>2015-05-17T12:29:49Z</time>
      </trkpt>
      <trkpt lat="40.522733" lon="-5.200400">
        <ele>1462.0</ele>
        <time>2015-05-17T12:29:51Z</time>
      </trkpt>
      <trkpt lat="40.522567" lon="-5.200717">
        <ele>1462.0</ele>
        <time>2015-05-17T12:29:53Z</time>
      </trkpt>
      <trkpt lat="40.522450" lon="-5.201033">
        <ele>1461.0</ele>
        <time>2015-05-17T12:29:55Z</time>
      </trkpt>
      <trkpt lat="40.522350" lon="-5.201383">
        <ele>1459.0</ele>
        <time>2015-05-17T12:29:57Z</time>
      </trkpt>
      <trkpt lat="40.522317" lon="-5.201717">
        <ele>1461.0</ele>
        <time>2015-05-17T12:29:59Z</time>
      </trkpt>
      <trkpt lat="40.522300" lon="-5.202017">
        <ele>1462.0</ele>
        <time>2015-05-17T12:30:01Z</time>
      </trkpt>
      <trkpt lat="40.522333" lon="-5.202317">
        <ele>1462.0</ele>
        <time>2015-05-17T12:30:03Z</time>
      </trkpt>
      <trkpt lat="40.522417" lon="-5.202583">
        <ele>1460.0</ele>
        <time>2015-05-17T12:30:05Z</time>
      </trkpt>
      <trkpt lat="40.522533" lon="-5.202767">
        <ele>1459.0</ele>
        <time>2015-05-17T12:30:07Z</time>
      </trkpt>
      <trkpt lat="40.522667" lon="-5.202867">
        <ele>1458.0</ele>
        <time>2015-05-17T12:30:09Z</time>
      </trkpt>
      <trkpt lat="40.522783" lon="-5.202900">
        <ele>1456.0</ele>
        <time>2015-05-17T12:30:11Z</time>
      </trkpt>
      <trkpt lat="40.522867" lon="-5.202833">
        <ele>1455.0</ele>
        <time>2015-05-17T12:30:13Z</time>
      </trkpt>
      <trkpt lat="40.522917" lon="-5.202767">
        <ele>1454.0</ele>
        <time>2015-05-17T12:30:15Z</time>
      </trkpt>
      <trkpt lat="40.522917" lon="-5.202650">
        <ele>1455.0</ele>
        <time>2015-05-17T12:30:17Z</time>
      </trkpt>
      <trkpt lat="40.522850" lon="-5.202533">
        <ele>1455.0</ele>
        <time>2015-05-17T12:30:19Z</time>
      </trkpt>
      <trkpt lat="40.522717" lon="-5.202450">
        <ele>1457.0</ele>
        <time>2015-05-17T12:30:21Z</time>
      </trkpt>
      <trkpt lat="40.522550" lon="-5.202417">
        <ele>1458.0</ele>
        <time>2015-05-17T12:30:23Z</time>
      </trkpt>
      <trkpt lat="40.522350" lon="-5.202450">
        <ele>1457.0</ele>
        <time>2015-05-17T12:30:25Z</time>
      </trkpt>
      <trkpt lat="40.522117" lon="-5.202600">
        <ele>1456.0</ele>
        <time>2015-05-17T12:30:27Z</time>
      </trkpt>
      <trkpt lat="40.521900" lon="-5.202800">
        <ele>1456.0</ele>
        <time>2015-05-17T12:30:29Z</time>
      </trkpt>
      <trkpt lat="40.521700" lon="-5.203033">
        <ele>1455.0</ele>
        <time>2015-05-17T12:30:31Z</time>
      </trkpt>
      <trkpt lat="40.521517" lon="-5.203350">
        <ele>1453.0</ele>
        <time>2015-05-17T12:30:33Z</time>
      </trkpt>
      <trkpt lat="40.521433" lon="-5.203683">
        <ele>1454.0</ele>
        <time>2015-05-17T12:30:35Z</time>
      </trkpt>
      <trkpt lat="40.521367" lon="-5.204017">
        <ele>1454.0</ele>
        <time>2015-05-17T12:30:37Z</time>
      </trkpt>
      <trkpt lat="40.521350" lon="-5.204350">
        <ele>1455.0</ele>
        <time>2015-05-17T12:30:39Z</time>
      </trkpt>
      <trkpt lat="40.521383" lon="-5.204650">
        <ele>1454.0</ele>
        <time>2015-05-17T12:30:41Z</time>
      </trkpt>
      <trkpt lat="40.521467" lon="-5.204917">
        <ele>1453.0</ele>
        <time>2015-05-17T12:30:43Z</time>
      </trkpt>
      <trkpt lat="40.521567" lon="-5.205133">
        <ele>1452.0</ele>
        <time>2015-05-17T12:30:45Z</time>
      </trkpt>
      <trkpt lat="40.521683" lon="-5.205283">
        <ele>1449.0</ele>
        <time>2015-05-17T12:30:47Z</time>
      </trkpt>
      <trkpt lat="40.521817" lon="-5.205317">
        <ele>1445.0</ele>
        <time>2015-05-17T12:30:49Z</time>
      </trkpt>
      <trkpt lat="40.521917" lon="-5.205250">
        <ele>1444.0</ele>
        <time>2015-05-17T12:30:51Z</time>
      </trkpt>
      <trkpt lat="40.521950" lon="-5.205150">
        <ele>1445.0</ele>
        <time>2015-05-17T12:30:53Z</time>
      </trkpt>
      <trkpt lat="40.521950" lon="-5.205017">
        <ele>1445.0</ele>
        <time>2015-05-17T12:30:55Z</time>
      </trkpt>
      <trkpt lat="40.521883" lon="-5.204883">
        <ele>1444.0</ele>
        <time>2015-05-17T12:30:57Z</time>
      </trkpt>
      <trkpt lat="40.521733" lon="-5.204783">
        <ele>1442.0</ele>
        <time>2015-05-17T12:30:59Z</time>
      </trkpt>
      <trkpt lat="40.521517" lon="-5.204733">
        <ele>1441.0</ele>
        <time>2015-05-17T12:31:01Z</time>
      </trkpt>
      <trkpt lat="40.521267" lon="-5.204800">
        <ele>1442.0</ele>
        <time>2015-05-17T12:31:03Z</time>
      </trkpt>
      <trkpt lat="40.521050" lon="-5.204950">
        <ele>1447.0</ele>
        <time>2015-05-17T12:31:05Z</time>
      </trkpt>
      <trkpt lat="40.520900" lon="-5.205183">
        <ele>1449.0</ele>
        <time>2015-05-17T12:31:07Z</time>
      </trkpt>
      <trkpt lat="40.520767" lon="-5.205483">
        <ele>1447.0</ele>
        <time>2015-05-17T12:31:09Z</time>
      </trkpt>
      <trkpt lat="40.520717" lon="-5.205850">
        <ele>1445.0</ele>
        <time>2015-05-17T12:31:11Z</time>
      </trkpt>
      <trkpt lat="40.520700" lon="-5.206167">
        <ele>1447.0</ele>
        <time>2015-05-17T12:31:13Z</time>
      </trkpt>
      <trkpt lat="40.520733" lon="-5.206450">
        <ele>1448.0</ele>
        <time>2015-05-17T12:31:15Z</time>
      </trkpt>
      <trkpt lat="40.520833" lon="-5.206700">
        <ele>1447.0</ele>
        <time>2015-05-17T12:31:17Z</time>
      </trkpt>
      <trkpt lat="40.520950" lon="-5.206867">
        <ele>1445.0</ele>
        <time>2015-05-17T12:31:19Z</time>
      </trkpt>
      <trkpt lat="40.521083" lon="-5.206933">
        <ele>1444.0</ele>
        <time>2015-05-17T12:31:21Z</time>
      </trkpt>
      <trkpt lat="40.521183" lon="-5.206933">
        <ele>1443.0</ele>
        <time>2015-05-17T12:31:23Z</time>
      </trkpt>
      <trkpt lat="40.521267" lon="-5.206883">
        <ele>1444.0</ele>
        <time>2015-05-17T12:31:25Z</time>
      </trkpt>
      <trkpt lat="40.521300" lon="-5.206817">
        <ele>1444.0</ele>
        <time>2015-05-17T12:31:27Z</time>
      </trkpt>
      <trkpt lat="40.521300" lon="-5.206700">
        <ele>1442.0</ele>
        <time>2015-05-17T12:31:29Z</time>
      </trkpt>
      <trkpt lat="40.521233" lon="-5.206550">
        <ele>1440.0</ele>
        <time>2015-05-17T12:31:31Z</time>
      </trkpt>
      <trkpt lat="40.521083" lon="-5.206450">
        <ele>1441.0</ele>
        <time>2015-05-17T12:31:33Z</time>
      </trkpt>
      <trkpt lat="40.520883" lon="-5.206450">
        <ele>1441.0</ele>
        <time>2015-05-17T12:31:35Z</time>
      </trkpt>
      <trkpt lat="40.520650" lon="-5.206500">
        <ele>1440.0</ele>
        <time>2015-05-17T12:31:37Z</time>
      </trkpt>
      <trkpt lat="40.520400" lon="-5.206617">
        <ele>1442.0</ele>
        <time>2015-05-17T12:31:39Z</time>
      </trkpt>
      <trkpt lat="40.520167" lon="-5.206767">
        <ele>1445.0</ele>
        <time>2015-05-17T12:31:41Z</time>
      </trkpt>
      <trkpt lat="40.519950" lon="-5.206983">
        <ele>1446.0</ele>
        <time>2015-05-17T12:31:43Z</time>
      </trkpt>
      <trkpt lat="40.519767" lon="-5.207267">
        <ele>1448.0</ele>
        <time>2015-05-17T12:31:45Z</time>
      </trkpt>
      <trkpt lat="40.519617" lon="-5.207567">
        <ele>1449.0</ele>
        <time>2015-05-17T12:31:47Z</time>
      </trkpt>
      <trkpt lat="40.519533" lon="-5.207917">
        <ele>1449.0</ele>
        <time>2015-05-17T12:31:49Z</time>
      </trkpt>
      <trkpt lat="40.519500" lon="-5.208250">
        <ele>1448.0</ele>
        <time>2015-05-17T12:31:51Z</time>
      </trkpt>
      <trkpt lat="40.519500" lon="-5.208550">
        <ele>1449.0</ele>
        <time>2015-05-17T12:31:53Z</time>
      </trkpt>
      <trkpt lat="40.519567" lon="-5.208800">
        <ele>1446.0</ele>
        <time>2015-05-17T12:31:55Z</time>
      </trkpt>
      <trkpt lat="40.519683" lon="-5.208967">
        <ele>1444.0</ele>
        <time>2015-05-17T12:31:57Z</time>
      </trkpt>
      <trkpt lat="40.519783" lon="-5.209017">
        <ele>1445.0</ele>
        <time>2015-05-17T12:31:59Z</time>
      </trkpt>
      <trkpt lat="40.519850" lon="-5.208983">
        <ele>1445.0</ele>
        <time>2015-05-17T12:32:01Z</time>
      </trkpt>
      <trkpt lat="40.519900" lon="-5.208867">
        <ele>1444.0</ele>
        <time>2015-05-17T12:32:03Z</time>
      </trkpt>
      <trkpt lat="40.519900" lon="-5.208733">
        <ele>1446.0</ele>
        <time>2015-05-17T12:32:05Z</time>
      </trkpt>
      <trkpt lat="40.519850" lon="-5.208650">
        <ele>1449.0</ele>
        <time>2015-05-17T12:32:07Z</time>
      </trkpt>
      <trkpt lat="40.519717" lon="-5.208550">
        <ele>1447.0</ele>
        <time>2015-05-17T12:32:09Z</time>
      </trkpt>
      <trkpt lat="40.519533" lon="-5.208467">
        <ele>1446.0</ele>
        <time>2015-05-17T12:32:11Z</time>
      </trkpt>
      <trkpt lat="40.519300" lon="-5.208483">
        <ele>1448.0</ele>
        <time>2015-05-17T12:32:13Z</time>
      </trkpt>
      <trkpt lat="40.519067" lon="-5.208567">
        <ele>1450.0</ele>
        <time>2015-05-17T12:32:15Z</time>
      </trkpt>
      <trkpt lat="40.518833" lon="-5.208700">
        <ele>1450.0</ele>
        <time>2015-05-17T12:32:17Z</time>
      </trkpt>
      <trkpt lat="40.518600" lon="-5.208917">
        <ele>1449.0</ele>
        <time>2015-05-17T12:32:19Z</time>
      </trkpt>
      <trkpt lat="40.518417" lon="-5.209200">
        <ele>1449.0</ele>
        <time>2015-05-17T12:32:21Z</time>
      </trkpt>
      <trkpt lat="40.518250" lon="-5.209500">
        <ele>1450.0</ele>
        <time>2015-05-17T12:32:23Z</time>
      </trkpt>
      <trkpt lat="40.518117" lon="-5.209800">
        <ele>1450.0</ele>
        <time>2015-05-17T12:32:25Z</time>
      </trkpt>
      <trkpt lat="40.518000" lon="-5.210100">
        <ele>1448.0</ele>
        <time>2015-05-17T12:32:27Z</time>
      </trkpt>
      <trkpt lat="40.517917" lon="-5.210417">
        <ele>1445.0</ele>
        <time>2015-05-17T12:32:29Z</time>
      </trkpt>
      <trkpt lat="40.517867" lon="-5.210733">
        <ele>1443.0</ele>
        <time>2015-05-17T12:32:31Z</time>
      </trkpt>
      <trkpt lat="40.517783" lon="-5.211033">
        <ele>1441.0</ele>
        <time>2015-05-17T12:32:33Z</time>
      </trkpt>
      <trkpt lat="40.517683" lon="-5.211333">
        <ele>1437.0</ele>
        <time>2015-05-17T12:32:35Z</time>
      </trkpt>
      <trkpt lat="40.517600" lon="-5.211667">
        <ele>1432.0</ele>
        <time>2015-05-17T12:32:37Z</time>
      </trkpt>
      <trkpt lat="40.517517" lon="-5.212000">
        <ele>1429.0</ele>
        <time>2015-05-17T12:32:39Z</time>
      </trkpt>
      <trkpt lat="40.517467" lon="-5.212300">
        <ele>1425.0</ele>
        <time>2015-05-17T12:32:41Z</time>
      </trkpt>
      <trkpt lat="40.517367" lon="-5.212650">
        <ele>1419.0</ele>
        <time>2015-05-17T12:32:43Z</time>
      </trkpt>
      <trkpt lat="40.517250" lon="-5.213000">
        <ele>1412.0</ele>
        <time>2015-05-17T12:32:45Z</time>
      </trkpt>
      <trkpt lat="40.517150" lon="-5.213350">
        <ele>1406.0</ele>
        <time>2015-05-17T12:32:47Z</time>
      </trkpt>
      <trkpt lat="40.517017" lon="-5.213683">
        <ele>1401.0</ele>
        <time>2015-05-17T12:32:49Z</time>
      </trkpt>
      <trkpt lat="40.516900" lon="-5.214033">
        <ele>1395.0</ele>
        <time>2015-05-17T12:32:51Z</time>
      </trkpt>
      <trkpt lat="40.516767" lon="-5.214367">
        <ele>1390.0</ele>
        <time>2015-05-17T12:32:53Z</time>
      </trkpt>
      <trkpt lat="40.516617" lon="-5.214683">
        <ele>1384.0</ele>
        <time>2015-05-17T12:32:55Z</time>
      </trkpt>
      <trkpt lat="40.516450" lon="-5.214967">
        <ele>1379.0</ele>
        <time>2015-05-17T12:32:57Z</time>
      </trkpt>
      <trkpt lat="40.516267" lon="-5.215250">
        <ele>1374.0</ele>
        <time>2015-05-17T12:32:59Z</time>
      </trkpt>
      <trkpt lat="40.516100" lon="-5.215550">
        <ele>1368.0</ele>
        <time>2015-05-17T12:33:01Z</time>
      </trkpt>
      <trkpt lat="40.515933" lon="-5.215850">
        <ele>1364.0</ele>
        <time>2015-05-17T12:33:03Z</time>
      </trkpt>
      <trkpt lat="40.515767" lon="-5.216133">
        <ele>1359.0</ele>
        <time>2015-05-17T12:33:05Z</time>
      </trkpt>
      <trkpt lat="40.515600" lon="-5.216450">
        <ele>1353.0</ele>
        <time>2015-05-17T12:33:07Z</time>
      </trkpt>
      <trkpt lat="40.515433" lon="-5.216767">
        <ele>1350.0</ele>
        <time>2015-05-17T12:33:09Z</time>
      </trkpt>
      <trkpt lat="40.515300" lon="-5.217083">
        <ele>1347.0</ele>
        <time>2015-05-17T12:33:11Z</time>
      </trkpt>
      <trkpt lat="40.515150" lon="-5.217417">
        <ele>1342.0</ele>
        <time>2015-05-17T12:33:13Z</time>
      </trkpt>
      <trkpt lat="40.515000" lon="-5.217750">
        <ele>1337.0</ele>
        <time>2015-05-17T12:33:15Z</time>
      </trkpt>
      <trkpt lat="40.514850" lon="-5.218067">
        <ele>1334.0</ele>
        <time>2015-05-17T12:33:17Z</time>
      </trkpt>
      <trkpt lat="40.514700" lon="-5.218383">
        <ele>1329.0</ele>
        <time>2015-05-17T12:33:19Z</time>
      </trkpt>
      <trkpt lat="40.514583" lon="-5.218700">
        <ele>1326.0</ele>
        <time>2015-05-17T12:33:21Z</time>
      </trkpt>
      <trkpt lat="40.514467" lon="-5.219033">
        <ele>1322.0</ele>
        <time>2015-05-17T12:33:23Z</time>
      </trkpt>
      <trkpt lat="40.514350" lon="-5.219367">
        <ele>1317.0</ele>
        <time>2015-05-17T12:33:25Z</time>
      </trkpt>
      <trkpt lat="40.514217" lon="-5.219700">
        <ele>1312.0</ele>
        <time>2015-05-17T12:33:27Z</time>
      </trkpt>
      <trkpt lat="40.514083" lon="-5.220033">
        <ele>1307.0</ele>
        <time>2015-05-17T12:33:29Z</time>
      </trkpt>
      <trkpt lat="40.513967" lon="-5.220350">
        <ele>1303.0</ele>
        <time>2015-05-17T12:33:31Z</time>
      </trkpt>
      <trkpt lat="40.513833" lon="-5.220700">
        <ele>1298.0</ele>
        <time>2015-05-17T12:33:33Z</time>
      </trkpt>
      <trkpt lat="40.513700" lon="-5.221050">
        <ele>1294.0</ele>
        <time>2015-05-17T12:33:35Z</time>
      </trkpt>
      <trkpt lat="40.513583" lon="-5.221383">
        <ele>1291.0</ele>
        <time>2015-05-17T12:33:37Z</time>
      </trkpt>
      <trkpt lat="40.513517" lon="-5.221683">
        <ele>1288.0</ele>
        <time>2015-05-17T12:33:39Z</time>
      </trkpt>
      <trkpt lat="40.513433" lon="-5.222033">
        <ele>1282.0</ele>
        <time>2015-05-17T12:33:41Z</time>
      </trkpt>
      <trkpt lat="40.513367" lon="-5.222400">
        <ele>1276.0</ele>
        <time>2015-05-17T12:33:43Z</time>
      </trkpt>
      <trkpt lat="40.513283" lon="-5.222717">
        <ele>1274.0</ele>
        <time>2015-05-17T12:33:45Z</time>
      </trkpt>
      <trkpt lat="40.513200" lon="-5.223033">
        <ele>1270.0</ele>
        <time>2015-05-17T12:33:47Z</time>
      </trkpt>
      <trkpt lat="40.513100" lon="-5.223367">
        <ele>1264.0</ele>
        <time>2015-05-17T12:33:49Z</time>
      </trkpt>
      <trkpt lat="40.513000" lon="-5.223700">
        <ele>1260.0</ele>
        <time>2015-05-17T12:33:51Z</time>
      </trkpt>
      <trkpt lat="40.512900" lon="-5.224033">
        <ele>1255.0</ele>
        <time>2015-05-17T12:33:53Z</time>
      </trkpt>
      <trkpt lat="40.512783" lon="-5.224383">
        <ele>1250.0</ele>
        <time>2015-05-17T12:33:55Z</time>
      </trkpt>
      <trkpt lat="40.512683" lon="-5.224733">
        <ele>1245.0</ele>
        <time>2015-05-17T12:33:57Z</time>
      </trkpt>
      <trkpt lat="40.512567" lon="-5.225067">
        <ele>1240.0</ele>
        <time>2015-05-17T12:33:59Z</time>
      </trkpt>
      <trkpt lat="40.512450" lon="-5.225400">
        <ele>1236.0</ele>
        <time>2015-05-17T12:34:01Z</time>
      </trkpt>
      <trkpt lat="40.512333" lon="-5.225717">
        <ele>1232.0</ele>
        <time>2015-05-17T12:34:03Z</time>
      </trkpt>
      <trkpt lat="40.512200" lon="-5.226050">
        <ele>1227.0</ele>
        <time>2015-05-17T12:34:05Z</time>
      </trkpt>
      <trkpt lat="40.512083" lon="-5.226367">
        <ele>1223.0</ele>
        <time>2015-05-17T12:34:07Z</time>
      </trkpt>
      <trkpt lat="40.511967" lon="-5.226717">
        <ele>1219.0</ele>
        <time>2015-05-17T12:34:09Z</time>
      </trkpt>
      <trkpt lat="40.511817" lon="-5.227033">
        <ele>1217.0</ele>
        <time>2015-05-17T12:34:11Z</time>
      </trkpt>
      <trkpt lat="40.511683" lon="-5.227333">
        <ele>1215.0</ele>
        <time>2015-05-17T12:34:13Z</time>
      </trkpt>
      <trkpt lat="40.511533" lon="-5.227617">
        <ele>1211.0</ele>
        <time>2015-05-17T12:34:15Z</time>
      </trkpt>
      <trkpt lat="40.511367" lon="-5.227917">
        <ele>1207.0</ele>
        <time>2015-05-17T12:34:17Z</time>
      </trkpt>
      <trkpt lat="40.511217" lon="-5.228200">
        <ele>1206.0</ele>
        <time>2015-05-17T12:34:19Z</time>
      </trkpt>
      <trkpt lat="40.511117" lon="-5.228483">
        <ele>1207.0</ele>
        <time>2015-05-17T12:34:21Z</time>
      </trkpt>
      <trkpt lat="40.511083" lon="-5.228783">
        <ele>1206.0</ele>
        <time>2015-05-17T12:34:23Z</time>
      </trkpt>
      <trkpt lat="40.511083" lon="-5.229050">
        <ele>1204.0</ele>
        <time>2015-05-17T12:34:25Z</time>
      </trkpt>
      <trkpt lat="40.511117" lon="-5.229250">
        <ele>1204.0</ele>
        <time>2015-05-17T12:34:27Z</time>
      </trkpt>
      <trkpt lat="40.511183" lon="-5.229417">
        <ele>1200.0</ele>
        <time>2015-05-17T12:34:29Z</time>
      </trkpt>
      <trkpt lat="40.511267" lon="-5.229583">
        <ele>1193.0</ele>
        <time>2015-05-17T12:34:31Z</time>
      </trkpt>
      <trkpt lat="40.511300" lon="-5.229850">
        <ele>1188.0</ele>
        <time>2015-05-17T12:34:33Z</time>
      </trkpt>
      <trkpt lat="40.511267" lon="-5.230150">
        <ele>1182.0</ele>
        <time>2015-05-17T12:34:35Z</time>
      </trkpt>
      <trkpt lat="40.511233" lon="-5.230450">
        <ele>1179.0</ele>
        <time>2015-05-17T12:34:37Z</time>
      </trkpt>
      <trkpt lat="40.511133" lon="-5.230767">
        <ele>1176.0</ele>
        <time>2015-05-17T12:34:39Z</time>
      </trkpt>
      <trkpt lat="40.510967" lon="-5.231050">
        <ele>1173.0</ele>
        <time>2015-05-17T12:34:41Z</time>
      </trkpt>
      <trkpt lat="40.510817" lon="-5.231300">
        <ele>1170.0</ele>
        <time>2015-05-17T12:34:43Z</time>
      </trkpt>
      <trkpt lat="40.510650" lon="-5.231583">
        <ele>1165.0</ele>
        <time>2015-05-17T12:34:45Z</time>
      </trkpt>
      <trkpt lat="40.510467" lon="-5.231867">
        <ele>1161.0</ele>
        <time>2015-05-17T12:34:47Z</time>
      </trkpt>
      <trkpt lat="40.510317" lon="-5.232200">
        <ele>1158.0</ele>
        <time>2015-05-17T12:34:49Z</time>
      </trkpt>
      <trkpt lat="40.510200" lon="-5.232517">
        <ele>1158.0</ele>
        <time>2015-05-17T12:34:51Z</time>
      </trkpt>
      <trkpt lat="40.510083" lon="-5.232833">
        <ele>1159.0</ele>
        <time>2015-05-17T12:34:53Z</time>
      </trkpt>
      <trkpt lat="40.509950" lon="-5.233133">
        <ele>1159.0</ele>
        <time>2015-05-17T12:34:55Z</time>
      </trkpt>
      <trkpt lat="40.509817" lon="-5.233450">
        <ele>1158.0</ele>
        <time>2015-05-17T12:34:57Z</time>
      </trkpt>
      <trkpt lat="40.509733" lon="-5.233767">
        <ele>1159.0</ele>
        <time>2015-05-17T12:34:59Z</time>
      </trkpt>
      <trkpt lat="40.509733" lon="-5.234033">
        <ele>1160.0</ele>
        <time>2015-05-17T12:35:01Z</time>
      </trkpt>
      <trkpt lat="40.509717" lon="-5.234300">
        <ele>1159.0</ele>
        <time>2015-05-17T12:35:03Z</time>
      </trkpt>
      <trkpt lat="40.509783" lon="-5.234533">
        <ele>1158.0</ele>
        <time>2015-05-17T12:35:05Z</time>
      </trkpt>
      <trkpt lat="40.509917" lon="-5.234583">
        <ele>1156.0</ele>
        <time>2015-05-17T12:35:07Z</time>
      </trkpt>
      <trkpt lat="40.509967" lon="-5.234567">
        <ele>1154.0</ele>
        <time>2015-05-17T12:35:09Z</time>
      </trkpt>
      <trkpt lat="40.510000" lon="-5.234467">
        <ele>1150.0</ele>
        <time>2015-05-17T12:35:11Z</time>
      </trkpt>
      <trkpt lat="40.510033" lon="-5.234250">
        <ele>1141.0</ele>
        <time>2015-05-17T12:35:13Z</time>
      </trkpt>
      <trkpt lat="40.510083" lon="-5.234167">
        <ele>1142.0</ele>
        <time>2015-05-17T12:35:15Z</time>
      </trkpt>
      <trkpt lat="40.510167" lon="-5.234300">
        <ele>1138.0</ele>
        <time>2015-05-17T12:35:17Z</time>
      </trkpt>
      <trkpt lat="40.510200" lon="-5.234483">
        <ele>1136.0</ele>
        <time>2015-05-17T12:35:19Z</time>
      </trkpt>
      <trkpt lat="40.510233" lon="-5.234633">
        <ele>1135.0</ele>
        <time>2015-05-17T12:35:21Z</time>
      </trkpt>
      <trkpt lat="40.510283" lon="-5.234717">
        <ele>1131.0</ele>
        <time>2015-05-17T12:35:23Z</time>
      </trkpt>
      <trkpt lat="40.510333" lon="-5.234617">
        <ele>1127.0</ele>
        <time>2015-05-17T12:35:25Z</time>
      </trkpt>
      <trkpt lat="40.510300" lon="-5.234433">
        <ele>1122.0</ele>
        <time>2015-05-17T12:35:27Z</time>
      </trkpt>
      <trkpt lat="40.510217" lon="-5.234250">
        <ele>1123.0</ele>
        <time>2015-05-17T12:35:29Z</time>
      </trkpt>
      <trkpt lat="40.510217" lon="-5.234100">
        <ele>1123.0</ele>
        <time>2015-05-17T12:35:31Z</time>
      </trkpt>
      <trkpt lat="40.510333" lon="-5.234083">
        <ele>1120.0</ele>
        <time>2015-05-17T12:35:33Z</time>
      </trkpt>
      <trkpt lat="40.510467" lon="-5.234250">
        <ele>1114.0</ele>
        <time>2015-05-17T12:35:35Z</time>
      </trkpt>
      <trkpt lat="40.510533" lon="-5.234467">
        <ele>1114.0</ele>
        <time>2015-05-17T12:35:37Z</time>
      </trkpt>
      <trkpt lat="40.510600" lon="-5.234550">
        <ele>1114.0</ele>
        <time>2015-05-17T12:35:39Z</time>
      </trkpt>
      <trkpt lat="40.510700" lon="-5.234467">
        <ele>1108.0</ele>
        <time>2015-05-17T12:35:41Z</time>
      </trkpt>
      <trkpt lat="40.510683" lon="-5.234267">
        <ele>1104.0</ele>
        <time>2015-05-17T12:35:43Z</time>
      </trkpt>
      <trkpt lat="40.510633" lon="-5.234133">
        <ele>1104.0</ele>
        <time>2015-05-17T12:35:45Z</time>
      </trkpt>
      <trkpt lat="40.510617" lon="-5.234017">
        <ele>1104.0</ele>
        <time>2015-05-17T12:35:47Z</time>
      </trkpt>
      <trkpt lat="40.510683" lon="-5.233883">
        <ele>1100.0</ele>
        <time>2015-05-17T12:35:49Z</time>
      </trkpt>
      <trkpt lat="40.510767" lon="-5.233817">
        <ele>1100.0</ele>
        <time>2015-05-17T12:35:51Z</time>
      </trkpt>
      <trkpt lat="40.510817" lon="-5.233800">
        <ele>1103.0</ele>
        <time>2015-05-17T12:35:53Z</time>
      </trkpt>
      <trkpt lat="40.510900" lon="-5.233800">
        <ele>1101.0</ele>
        <time>2015-05-17T12:35:55Z</time>
      </trkpt>
      <trkpt lat="40.510967" lon="-5.233750">
        <ele>1098.0</ele>
        <time>2015-05-17T12:35:57Z</time>
      </trkpt>
      <trkpt lat="40.511033" lon="-5.233700">
        <ele>1098.0</ele>
        <time>2015-05-17T12:35:59Z</time>
      </trkpt>
      <trkpt lat="40.511083" lon="-5.233633">
        <ele>1094.0</ele>
        <time>2015-05-17T12:36:01Z</time>
      </trkpt>
      <trkpt lat="40.511100" lon="-5.233583">
        <ele>1090.0</ele>
        <time>2015-05-17T12:36:03Z</time>
      </trkpt>
      <trkpt lat="40.511100" lon="-5.233583">
        <ele>1087.0</ele>
        <time>2015-05-17T12:36:05Z</time>
      </trkpt>
      <trkpt lat="40.511100" lon="-5.233567">
        <ele>1086.0</ele>
        <time>2015-05-17T12:36:07Z</time>
      </trkpt>
      <trkpt lat="40.511100" lon="-5.233567">
        <ele>1085.0</ele>
        <time>2015-05-17T12:36:09Z</time>
      </trkpt>
      <trkpt lat="40.511100" lon="-5.233583">
        <ele>1084.0</ele>
        <time>2015-05-17T12:36:11Z</time>
      </trkpt>
      <trkpt lat="40.511083" lon="-5.233583">
        <ele>1084.0</ele>
        <time>2015-05-17T12:36:13Z</time>
      </trkpt>
      <trkpt lat="40.511083" lon="-5.233567">
        <ele>1084.0</ele>
        <time>2015-05-17T12:36:15Z</time>
      </trkpt>
      <trkpt lat="40.511083" lon="-5.233583">
        <ele>1084.0</ele>
        <time>2015-05-17T12:36:17Z</time>
      </trkpt>
    </trkseg>
  </trk>
</gpx>
